<?xml version="1.0" encoding="UTF-8" standalone="no" ?>
<gpx xmlns="http://www.topografix.com/GPX/1/1" xmlns:xsi="http://www.w3.org/2001/XMLSchema-instance" xsi:schemaLocation="http://www.topografix.com/GPX/1/1 http://www.topografix.com/GPX/1/1/gpx.xsd" version="1.1" creator="VisuGPX - https://www.visugpx.com">
  <metadata>
    <name>Reze_Autour_8-19km</name>
    <desc><![CDATA[gnerando idor:5792578_5792726_5814453_5825877_6470772_8005623_8320604_9624624__]]></desc>
  </metadata>
  <trk>
    <name><![CDATA[Reze_Autour_19.3km-8320604]]></name>
    <extensions>
      <line xmlns="http://www.topografix.com/GPX/gpx_style/0/2">
        <color>0000FF</color>
        <width>4</width>
      </line>
    </extensions>
    <trkseg>
      <trkpt lat="47.19275" lon="-1.54698">
        <ele>8</ele>
        <time>2023-11-11T18:52:58Z</time>
      </trkpt>
      <trkpt lat="47.19407" lon="-1.54551">
        <ele>8</ele>
        <time>2023-11-11T18:56:39Z</time>
      </trkpt>
      <trkpt lat="47.19485" lon="-1.54555">
        <ele>5</ele>
        <time>2023-11-11T18:58:23Z</time>
      </trkpt>
      <trkpt lat="47.19515" lon="-1.545">
        <ele>5</ele>
        <time>2023-11-11T18:59:27Z</time>
      </trkpt>
      <trkpt lat="47.19585" lon="-1.54654">
        <ele>4</ele>
        <time>2023-11-11T19:02:15Z</time>
      </trkpt>
      <trkpt lat="47.19587" lon="-1.5471">
        <ele>4</ele>
        <time>2023-11-11T19:03:06Z</time>
      </trkpt>
      <trkpt lat="47.19675" lon="-1.54856">
        <ele>5</ele>
        <time>2023-11-11T19:06:03Z</time>
      </trkpt>
      <trkpt lat="47.19642" lon="-1.55466">
        <ele>3</ele>
        <time>2023-11-11T19:15:18Z</time>
      </trkpt>
      <trkpt lat="47.19696" lon="-1.56225">
        <ele>2</ele>
        <time>2023-11-11T19:26:50Z</time>
      </trkpt>
      <trkpt lat="47.19638" lon="-1.56237">
        <ele>4</ele>
        <time>2023-11-11T19:28:08Z</time>
      </trkpt>
      <trkpt lat="47.19588" lon="-1.57178">
        <ele>7</ele>
        <time>2023-11-11T19:42:24Z</time>
      </trkpt>
      <trkpt lat="47.19675" lon="-1.57238">
        <ele>6</ele>
        <time>2023-11-11T19:44:32Z</time>
      </trkpt>
      <trkpt lat="47.19572" lon="-1.57821">
        <ele>5</ele>
        <time>2023-11-11T19:53:38Z</time>
      </trkpt>
      <trkpt lat="47.19469" lon="-1.57809">
        <ele>5</ele>
        <time>2023-11-11T19:55:56Z</time>
      </trkpt>
      <trkpt lat="47.19531" lon="-1.58052">
        <ele>3</ele>
        <time>2023-11-11T19:59:51Z</time>
      </trkpt>
      <trkpt lat="47.19523" lon="-1.58234">
        <ele>4</ele>
        <time>2023-11-11T20:02:37Z</time>
      </trkpt>
      <trkpt lat="47.19329" lon="-1.5864">
        <ele>6</ele>
        <time>2023-11-11T20:10:07Z</time>
      </trkpt>
      <trkpt lat="47.19271" lon="-1.58519">
        <ele>5</ele>
        <time>2023-11-11T20:12:21Z</time>
      </trkpt>
      <trkpt lat="47.19341" lon="-1.58398">
        <ele>6</ele>
        <time>2023-11-11T20:14:45Z</time>
      </trkpt>
      <trkpt lat="47.19358" lon="-1.58282">
        <ele>7</ele>
        <time>2023-11-11T20:16:33Z</time>
      </trkpt>
      <trkpt lat="47.19411" lon="-1.58118">
        <ele>6</ele>
        <time>2023-11-11T20:19:17Z</time>
      </trkpt>
      <trkpt lat="47.19588" lon="-1.57304">
        <ele>7</ele>
        <time>2023-11-11T20:32:12Z</time>
      </trkpt>
      <trkpt lat="47.19636" lon="-1.56281">
        <ele>4</ele>
        <time>2023-11-11T20:47:42Z</time>
      </trkpt>
      <trkpt lat="47.19658" lon="-1.55833">
        <ele>6</ele>
        <time>2023-11-11T20:54:30Z</time>
      </trkpt>
      <trkpt lat="47.19614" lon="-1.55602">
        <ele>5</ele>
        <time>2023-11-11T20:58:07Z</time>
      </trkpt>
      <trkpt lat="47.1955" lon="-1.54942">
        <ele>7</ele>
        <time>2023-11-11T21:08:12Z</time>
      </trkpt>
      <trkpt lat="47.19359" lon="-1.54917">
        <ele>8</ele>
        <time>2023-11-11T21:12:28Z</time>
      </trkpt>
      <trkpt lat="47.19226" lon="-1.54917">
        <ele>8</ele>
        <time>2023-11-11T21:15:25Z</time>
      </trkpt>
      <trkpt lat="47.1918" lon="-1.5492">
        <ele>11</ele>
        <time>2023-11-11T21:16:26Z</time>
      </trkpt>
      <trkpt lat="47.19092" lon="-1.55064">
        <ele>13</ele>
        <time>2023-11-11T21:19:22Z</time>
      </trkpt>
      <trkpt lat="47.19104" lon="-1.55119">
        <ele>12</ele>
        <time>2023-11-11T21:20:14Z</time>
      </trkpt>
      <trkpt lat="47.19305" lon="-1.55">
        <ele>8</ele>
        <time>2023-11-11T21:25:04Z</time>
      </trkpt>
      <trkpt lat="47.19224" lon="-1.55393">
        <ele>7</ele>
        <time>2023-11-11T21:31:16Z</time>
      </trkpt>
      <trkpt lat="47.19204" lon="-1.55725">
        <ele>8</ele>
        <time>2023-11-11T21:36:18Z</time>
      </trkpt>
      <trkpt lat="47.19231" lon="-1.56169">
        <ele>8</ele>
        <time>2023-11-11T21:43:02Z</time>
      </trkpt>
      <trkpt lat="47.19212" lon="-1.56288">
        <ele>8</ele>
        <time>2023-11-11T21:44:53Z</time>
      </trkpt>
      <trkpt lat="47.19234" lon="-1.56429">
        <ele>8</ele>
        <time>2023-11-11T21:47:05Z</time>
      </trkpt>
      <trkpt lat="47.19209" lon="-1.56854">
        <ele>6</ele>
        <time>2023-11-11T21:53:31Z</time>
      </trkpt>
      <trkpt lat="47.19216" lon="-1.5688">
        <ele>6</ele>
        <time>2023-11-11T21:53:57Z</time>
      </trkpt>
      <trkpt lat="47.19161" lon="-1.56904">
        <ele>8</ele>
        <time>2023-11-11T21:55:13Z</time>
      </trkpt>
      <trkpt lat="47.19148" lon="-1.57018">
        <ele>9</ele>
        <time>2023-11-11T21:56:58Z</time>
      </trkpt>
      <trkpt lat="47.19253" lon="-1.57049">
        <ele>5</ele>
        <time>2023-11-11T21:59:21Z</time>
      </trkpt>
      <trkpt lat="47.19256" lon="-1.57095">
        <ele>6</ele>
        <time>2023-11-11T22:00:03Z</time>
      </trkpt>
      <trkpt lat="47.19229" lon="-1.57159">
        <ele>8</ele>
        <time>2023-11-11T22:01:11Z</time>
      </trkpt>
      <trkpt lat="47.19222" lon="-1.57259">
        <ele>8</ele>
        <time>2023-11-11T22:02:42Z</time>
      </trkpt>
      <trkpt lat="47.19144" lon="-1.57236">
        <ele>9</ele>
        <time>2023-11-11T22:04:29Z</time>
      </trkpt>
      <trkpt lat="47.19019" lon="-1.57608">
        <ele>6</ele>
        <time>2023-11-11T22:10:45Z</time>
      </trkpt>
      <trkpt lat="47.18849" lon="-1.57521">
        <ele>9</ele>
        <time>2023-11-11T22:14:45Z</time>
      </trkpt>
      <trkpt lat="47.18752" lon="-1.57424">
        <ele>9</ele>
        <time>2023-11-11T22:17:22Z</time>
      </trkpt>
      <trkpt lat="47.18674" lon="-1.57407">
        <ele>11</ele>
        <time>2023-11-11T22:19:07Z</time>
      </trkpt>
      <trkpt lat="47.18649" lon="-1.57371">
        <ele>13</ele>
        <time>2023-11-11T22:19:53Z</time>
      </trkpt>
      <trkpt lat="47.18509" lon="-1.57371">
        <ele>16</ele>
        <time>2023-11-11T22:23:00Z</time>
      </trkpt>
      <trkpt lat="47.1849" lon="-1.57409">
        <ele>15</ele>
        <time>2023-11-11T22:23:43Z</time>
      </trkpt>
      <trkpt lat="47.18462" lon="-1.57412">
        <ele>16</ele>
        <time>2023-11-11T22:24:21Z</time>
      </trkpt>
      <trkpt lat="47.1844" lon="-1.57399">
        <ele>17</ele>
        <time>2023-11-11T22:24:52Z</time>
      </trkpt>
      <trkpt lat="47.18332" lon="-1.57424">
        <ele>18</ele>
        <time>2023-11-11T22:27:18Z</time>
      </trkpt>
      <trkpt lat="47.18271" lon="-1.57447">
        <ele>19</ele>
        <time>2023-11-11T22:28:42Z</time>
      </trkpt>
      <trkpt lat="47.18218" lon="-1.57396">
        <ele>19</ele>
        <time>2023-11-11T22:30:07Z</time>
      </trkpt>
      <trkpt lat="47.18124" lon="-1.57361">
        <ele>19</ele>
        <time>2023-11-11T22:32:16Z</time>
      </trkpt>
      <trkpt lat="47.17998" lon="-1.57418">
        <ele>17</ele>
        <time>2023-11-11T22:35:12Z</time>
      </trkpt>
      <trkpt lat="47.1787" lon="-1.57358">
        <ele>22</ele>
        <time>2023-11-11T22:38:11Z</time>
      </trkpt>
      <trkpt lat="47.17843" lon="-1.57263">
        <ele>24</ele>
        <time>2023-11-11T22:39:45Z</time>
      </trkpt>
      <trkpt lat="47.17555" lon="-1.56839">
        <ele>26</ele>
        <time>2023-11-11T22:48:48Z</time>
      </trkpt>
      <trkpt lat="47.1755" lon="-1.56803">
        <ele>26</ele>
        <time>2023-11-11T22:49:22Z</time>
      </trkpt>
      <trkpt lat="47.17554" lon="-1.56692">
        <ele>27</ele>
        <time>2023-11-11T22:51:02Z</time>
      </trkpt>
      <trkpt lat="47.17475" lon="-1.56607">
        <ele>26</ele>
        <time>2023-11-11T22:53:13Z</time>
      </trkpt>
      <trkpt lat="47.1742" lon="-1.56603">
        <ele>25</ele>
        <time>2023-11-11T22:54:27Z</time>
      </trkpt>
      <trkpt lat="47.17387" lon="-1.56522">
        <ele>26</ele>
        <time>2023-11-11T22:55:52Z</time>
      </trkpt>
      <trkpt lat="47.17354" lon="-1.5653">
        <ele>26</ele>
        <time>2023-11-11T22:56:37Z</time>
      </trkpt>
      <trkpt lat="47.17267" lon="-1.56446">
        <ele>24</ele>
        <time>2023-11-11T22:58:56Z</time>
      </trkpt>
      <trkpt lat="47.17215" lon="-1.56331">
        <ele>28</ele>
        <time>2023-11-11T23:01:01Z</time>
      </trkpt>
      <trkpt lat="47.1715" lon="-1.56357">
        <ele>26</ele>
        <time>2023-11-11T23:02:31Z</time>
      </trkpt>
      <trkpt lat="47.17084" lon="-1.56244">
        <ele>25</ele>
        <time>2023-11-11T23:04:46Z</time>
      </trkpt>
      <trkpt lat="47.17057" lon="-1.56247">
        <ele>25</ele>
        <time>2023-11-11T23:05:22Z</time>
      </trkpt>
      <trkpt lat="47.17041" lon="-1.56261">
        <ele>25</ele>
        <time>2023-11-11T23:05:47Z</time>
      </trkpt>
      <trkpt lat="47.17033" lon="-1.56246">
        <ele>26</ele>
        <time>2023-11-11T23:06:04Z</time>
      </trkpt>
      <trkpt lat="47.16987" lon="-1.56249">
        <ele>26</ele>
        <time>2023-11-11T23:07:06Z</time>
      </trkpt>
      <trkpt lat="47.16972" lon="-1.56202">
        <ele>26</ele>
        <time>2023-11-11T23:07:53Z</time>
      </trkpt>
      <trkpt lat="47.16952" lon="-1.56194">
        <ele>26</ele>
        <time>2023-11-11T23:08:21Z</time>
      </trkpt>
      <trkpt lat="47.16937" lon="-1.56147">
        <ele>26</ele>
        <time>2023-11-11T23:09:08Z</time>
      </trkpt>
      <trkpt lat="47.16843" lon="-1.56023">
        <ele>27</ele>
        <time>2023-11-11T23:11:56Z</time>
      </trkpt>
      <trkpt lat="47.16798" lon="-1.55921">
        <ele>25</ele>
        <time>2023-11-11T23:13:46Z</time>
      </trkpt>
      <trkpt lat="47.168" lon="-1.5587">
        <ele>26</ele>
        <time>2023-11-11T23:14:33Z</time>
      </trkpt>
      <trkpt lat="47.16761" lon="-1.55712">
        <ele>28</ele>
        <time>2023-11-11T23:17:05Z</time>
      </trkpt>
      <trkpt lat="47.16706" lon="-1.55633">
        <ele>31</ele>
        <time>2023-11-11T23:18:48Z</time>
      </trkpt>
      <trkpt lat="47.16676" lon="-1.55527">
        <ele>32</ele>
        <time>2023-11-11T23:20:32Z</time>
      </trkpt>
      <trkpt lat="47.16633" lon="-1.55304">
        <ele>33</ele>
        <time>2023-11-11T23:24:02Z</time>
      </trkpt>
      <trkpt lat="47.16643" lon="-1.5519">
        <ele>35</ele>
        <time>2023-11-11T23:25:47Z</time>
      </trkpt>
      <trkpt lat="47.16709" lon="-1.55228">
        <ele>36</ele>
        <time>2023-11-11T23:27:21Z</time>
      </trkpt>
      <trkpt lat="47.16914" lon="-1.55128">
        <ele>38</ele>
        <time>2023-11-11T23:32:09Z</time>
      </trkpt>
      <trkpt lat="47.17061" lon="-1.54906">
        <ele>41</ele>
        <time>2023-11-11T23:36:51Z</time>
      </trkpt>
      <trkpt lat="47.17156" lon="-1.54763">
        <ele>37</ele>
        <time>2023-11-11T23:39:52Z</time>
      </trkpt>
      <trkpt lat="47.17262" lon="-1.54625">
        <ele>35</ele>
        <time>2023-11-11T23:43:01Z</time>
      </trkpt>
      <trkpt lat="47.17244" lon="-1.54602">
        <ele>36</ele>
        <time>2023-11-11T23:43:33Z</time>
      </trkpt>
      <trkpt lat="47.17264" lon="-1.54559">
        <ele>36</ele>
        <time>2023-11-11T23:44:20Z</time>
      </trkpt>
      <trkpt lat="47.17283" lon="-1.54472">
        <ele>35</ele>
        <time>2023-11-11T23:45:43Z</time>
      </trkpt>
      <trkpt lat="47.17293" lon="-1.54342">
        <ele>35</ele>
        <time>2023-11-11T23:47:42Z</time>
      </trkpt>
      <trkpt lat="47.1732" lon="-1.54344">
        <ele>34</ele>
        <time>2023-11-11T23:48:18Z</time>
      </trkpt>
      <trkpt lat="47.17354" lon="-1.54212">
        <ele>34</ele>
        <time>2023-11-11T23:50:26Z</time>
      </trkpt>
      <trkpt lat="47.17372" lon="-1.54154">
        <ele>33</ele>
        <time>2023-11-11T23:51:23Z</time>
      </trkpt>
      <trkpt lat="47.17392" lon="-1.54168">
        <ele>33</ele>
        <time>2023-11-11T23:51:53Z</time>
      </trkpt>
      <trkpt lat="47.1739" lon="-1.54087">
        <ele>32</ele>
        <time>2023-11-11T23:53:07Z</time>
      </trkpt>
      <trkpt lat="47.17405" lon="-1.54099">
        <ele>32</ele>
        <time>2023-11-11T23:53:29Z</time>
      </trkpt>
      <trkpt lat="47.17436" lon="-1.53976">
        <ele>31</ele>
        <time>2023-11-11T23:55:28Z</time>
      </trkpt>
      <trkpt lat="47.17466" lon="-1.53882">
        <ele>30</ele>
        <time>2023-11-11T23:57:03Z</time>
      </trkpt>
      <trkpt lat="47.17391" lon="-1.53746">
        <ele>28</ele>
        <time>2023-11-11T23:59:41Z</time>
      </trkpt>
      <trkpt lat="47.17437" lon="-1.53594">
        <ele>27</ele>
        <time>2023-11-12T00:02:12Z</time>
      </trkpt>
      <trkpt lat="47.17412" lon="-1.53539">
        <ele>27</ele>
        <time>2023-11-12T00:03:12Z</time>
      </trkpt>
      <trkpt lat="47.17428" lon="-1.5351">
        <ele>27</ele>
        <time>2023-11-12T00:03:46Z</time>
      </trkpt>
      <trkpt lat="47.17402" lon="-1.5339">
        <ele>28</ele>
        <time>2023-11-12T00:05:41Z</time>
      </trkpt>
      <trkpt lat="47.17409" lon="-1.53332">
        <ele>28</ele>
        <time>2023-11-12T00:06:34Z</time>
      </trkpt>
      <trkpt lat="47.17401" lon="-1.53312">
        <ele>28</ele>
        <time>2023-11-12T00:06:55Z</time>
      </trkpt>
      <trkpt lat="47.17439" lon="-1.53194">
        <ele>25</ele>
        <time>2023-11-12T00:08:53Z</time>
      </trkpt>
      <trkpt lat="47.1757" lon="-1.53093">
        <ele>23</ele>
        <time>2023-11-12T00:12:11Z</time>
      </trkpt>
      <trkpt lat="47.1768" lon="-1.53075">
        <ele>23</ele>
        <time>2023-11-12T00:14:39Z</time>
      </trkpt>
      <trkpt lat="47.17695" lon="-1.53005">
        <ele>24</ele>
        <time>2023-11-12T00:15:45Z</time>
      </trkpt>
      <trkpt lat="47.178" lon="-1.52941">
        <ele>20</ele>
        <time>2023-11-12T00:18:17Z</time>
      </trkpt>
      <trkpt lat="47.17856" lon="-1.52923">
        <ele>19</ele>
        <time>2023-11-12T00:19:33Z</time>
      </trkpt>
      <trkpt lat="47.17932" lon="-1.52808">
        <ele>14</ele>
        <time>2023-11-12T00:21:59Z</time>
      </trkpt>
      <trkpt lat="47.18031" lon="-1.52659">
        <ele>9</ele>
        <time>2023-11-12T00:25:08Z</time>
      </trkpt>
      <trkpt lat="47.18027" lon="-1.52623">
        <ele>8</ele>
        <time>2023-11-12T00:25:41Z</time>
      </trkpt>
      <trkpt lat="47.18084" lon="-1.52565">
        <ele>7</ele>
        <time>2023-11-12T00:27:13Z</time>
      </trkpt>
      <trkpt lat="47.1814" lon="-1.52571">
        <ele>6</ele>
        <time>2023-11-12T00:28:28Z</time>
      </trkpt>
      <trkpt lat="47.18188" lon="-1.5279">
        <ele>8</ele>
        <time>2023-11-12T00:31:57Z</time>
      </trkpt>
      <trkpt lat="47.18181" lon="-1.52832">
        <ele>8</ele>
        <time>2023-11-12T00:32:36Z</time>
      </trkpt>
      <trkpt lat="47.18266" lon="-1.53087">
        <ele>6</ele>
        <time>2023-11-12T00:36:54Z</time>
      </trkpt>
      <trkpt lat="47.18252" lon="-1.53175">
        <ele>8</ele>
        <time>2023-11-12T00:38:16Z</time>
      </trkpt>
      <trkpt lat="47.18285" lon="-1.53164">
        <ele>7</ele>
        <time>2023-11-12T00:39:01Z</time>
      </trkpt>
      <trkpt lat="47.18347" lon="-1.53249">
        <ele>6</ele>
        <time>2023-11-12T00:40:54Z</time>
      </trkpt>
      <trkpt lat="47.18503" lon="-1.53431">
        <ele>11</ele>
        <time>2023-11-12T00:45:20Z</time>
      </trkpt>
      <trkpt lat="47.18691" lon="-1.53606">
        <ele>11</ele>
        <time>2023-11-12T00:50:17Z</time>
      </trkpt>
      <trkpt lat="47.19007" lon="-1.53727">
        <ele>7</ele>
        <time>2023-11-12T00:57:32Z</time>
      </trkpt>
      <trkpt lat="47.19159" lon="-1.53925">
        <ele>7</ele>
        <time>2023-11-12T01:02:03Z</time>
      </trkpt>
      <trkpt lat="47.1934" lon="-1.54285">
        <ele>7</ele>
        <time>2023-11-12T01:08:49Z</time>
      </trkpt>
      <trkpt lat="47.19468" lon="-1.54431">
        <ele>6</ele>
        <time>2023-11-12T01:12:25Z</time>
      </trkpt>
      <trkpt lat="47.19475" lon="-1.54457">
        <ele>6</ele>
        <time>2023-11-12T01:12:51Z</time>
      </trkpt>
      <trkpt lat="47.19424" lon="-1.54544">
        <ele>8</ele>
        <time>2023-11-12T01:14:35Z</time>
      </trkpt>
      <trkpt lat="47.19275" lon="-1.54717">
        <ele>8</ele>
        <time>2023-11-12T01:18:48Z</time>
      </trkpt>
    </trkseg>
  </trk>
  <trk>
    <name><![CDATA[Reze_IslesDeLoire_8.5km-9624624]]></name>
    <extensions>
      <line xmlns="http://www.topografix.com/GPX/gpx_style/0/2">
        <color>FF0000</color>
        <width>4</width>
      </line>
    </extensions>
    <trkseg>
      <trkpt lat="47.19524" lon="-1.58229">
        <ele>4</ele>
        <time>2023-11-11T18:52:40Z</time>
      </trkpt>
      <trkpt lat="47.19515" lon="-1.58256">
        <ele>5</ele>
        <time>2023-11-11T18:53:07Z</time>
      </trkpt>
      <trkpt lat="47.19488" lon="-1.58243">
        <ele>6</ele>
        <time>2023-11-11T18:53:45Z</time>
      </trkpt>
      <trkpt lat="47.19508" lon="-1.58221">
        <ele>5</ele>
        <time>2023-11-11T18:54:19Z</time>
      </trkpt>
      <trkpt lat="47.19509" lon="-1.58199">
        <ele>5</ele>
        <time>2023-11-11T18:54:38Z</time>
      </trkpt>
      <trkpt lat="47.1949" lon="-1.58187">
        <ele>6</ele>
        <time>2023-11-11T18:55:06Z</time>
      </trkpt>
      <trkpt lat="47.19486" lon="-1.58196">
        <ele>6</ele>
        <time>2023-11-11T18:55:16Z</time>
      </trkpt>
      <trkpt lat="47.1948" lon="-1.58199">
        <ele>6</ele>
        <time>2023-11-11T18:55:24Z</time>
      </trkpt>
      <trkpt lat="47.19477" lon="-1.58213">
        <ele>6</ele>
        <time>2023-11-11T18:55:38Z</time>
      </trkpt>
      <trkpt lat="47.19463" lon="-1.58206">
        <ele>6</ele>
        <time>2023-11-11T18:55:57Z</time>
      </trkpt>
      <trkpt lat="47.19456" lon="-1.58221">
        <ele>6</ele>
        <time>2023-11-11T18:56:14Z</time>
      </trkpt>
      <trkpt lat="47.19416" lon="-1.58204">
        <ele>6</ele>
        <time>2023-11-11T18:57:09Z</time>
      </trkpt>
      <trkpt lat="47.19408" lon="-1.58202">
        <ele>6</ele>
        <time>2023-11-11T18:57:20Z</time>
      </trkpt>
      <trkpt lat="47.19403" lon="-1.58228">
        <ele>6</ele>
        <time>2023-11-11T18:57:45Z</time>
      </trkpt>
      <trkpt lat="47.19433" lon="-1.58253">
        <ele>7</ele>
        <time>2023-11-11T18:58:31Z</time>
      </trkpt>
      <trkpt lat="47.19438" lon="-1.58257">
        <ele>7</ele>
        <time>2023-11-11T18:58:38Z</time>
      </trkpt>
      <trkpt lat="47.19432" lon="-1.58262">
        <ele>7</ele>
        <time>2023-11-11T18:58:48Z</time>
      </trkpt>
      <trkpt lat="47.19426" lon="-1.58266">
        <ele>7</ele>
        <time>2023-11-11T18:58:56Z</time>
      </trkpt>
      <trkpt lat="47.19418" lon="-1.58283">
        <ele>7</ele>
        <time>2023-11-11T18:59:15Z</time>
      </trkpt>
      <trkpt lat="47.19402" lon="-1.58273">
        <ele>7</ele>
        <time>2023-11-11T18:59:38Z</time>
      </trkpt>
      <trkpt lat="47.1939" lon="-1.58268">
        <ele>7</ele>
        <time>2023-11-11T18:59:55Z</time>
      </trkpt>
      <trkpt lat="47.19381" lon="-1.58296">
        <ele>7</ele>
        <time>2023-11-11T19:00:23Z</time>
      </trkpt>
      <trkpt lat="47.19382" lon="-1.58303">
        <ele>7</ele>
        <time>2023-11-11T19:00:29Z</time>
      </trkpt>
      <trkpt lat="47.19375" lon="-1.58332">
        <ele>7</ele>
        <time>2023-11-11T19:00:57Z</time>
      </trkpt>
      <trkpt lat="47.19373" lon="-1.58339">
        <ele>7</ele>
        <time>2023-11-11T19:01:04Z</time>
      </trkpt>
      <trkpt lat="47.19349" lon="-1.58327">
        <ele>6</ele>
        <time>2023-11-11T19:01:38Z</time>
      </trkpt>
      <trkpt lat="47.19347" lon="-1.58368">
        <ele>6</ele>
        <time>2023-11-11T19:02:15Z</time>
      </trkpt>
      <trkpt lat="47.19369" lon="-1.58379">
        <ele>6</ele>
        <time>2023-11-11T19:02:46Z</time>
      </trkpt>
      <trkpt lat="47.19394" lon="-1.58388">
        <ele>6</ele>
        <time>2023-11-11T19:03:21Z</time>
      </trkpt>
      <trkpt lat="47.19395" lon="-1.58363">
        <ele>6</ele>
        <time>2023-11-11T19:03:43Z</time>
      </trkpt>
      <trkpt lat="47.194" lon="-1.58363">
        <ele>6</ele>
        <time>2023-11-11T19:03:50Z</time>
      </trkpt>
      <trkpt lat="47.19408" lon="-1.58365">
        <ele>6</ele>
        <time>2023-11-11T19:04:01Z</time>
      </trkpt>
      <trkpt lat="47.19411" lon="-1.58341">
        <ele>8</ele>
        <time>2023-11-11T19:04:23Z</time>
      </trkpt>
      <trkpt lat="47.19436" lon="-1.58339">
        <ele>6</ele>
        <time>2023-11-11T19:04:56Z</time>
      </trkpt>
      <trkpt lat="47.19465" lon="-1.58357">
        <ele>3</ele>
        <time>2023-11-11T19:05:38Z</time>
      </trkpt>
      <trkpt lat="47.19444" lon="-1.58407">
        <ele>3</ele>
        <time>2023-11-11T19:06:32Z</time>
      </trkpt>
      <trkpt lat="47.19433" lon="-1.58429">
        <ele>3</ele>
        <time>2023-11-11T19:06:57Z</time>
      </trkpt>
      <trkpt lat="47.19412" lon="-1.58448">
        <ele>4</ele>
        <time>2023-11-11T19:07:29Z</time>
      </trkpt>
      <trkpt lat="47.19404" lon="-1.5846">
        <ele>4</ele>
        <time>2023-11-11T19:07:45Z</time>
      </trkpt>
      <trkpt lat="47.194" lon="-1.58472">
        <ele>4</ele>
        <time>2023-11-11T19:07:57Z</time>
      </trkpt>
      <trkpt lat="47.19395" lon="-1.58485">
        <ele>4</ele>
        <time>2023-11-11T19:08:10Z</time>
      </trkpt>
      <trkpt lat="47.19387" lon="-1.58504">
        <ele>4</ele>
        <time>2023-11-11T19:08:31Z</time>
      </trkpt>
      <trkpt lat="47.19379" lon="-1.58522">
        <ele>4</ele>
        <time>2023-11-11T19:08:50Z</time>
      </trkpt>
      <trkpt lat="47.19369" lon="-1.5854">
        <ele>4</ele>
        <time>2023-11-11T19:09:11Z</time>
      </trkpt>
      <trkpt lat="47.194" lon="-1.5847">
        <ele>4</ele>
        <time>2023-11-11T19:10:27Z</time>
      </trkpt>
      <trkpt lat="47.19383" lon="-1.58452">
        <ele>4</ele>
        <time>2023-11-11T19:10:55Z</time>
      </trkpt>
      <trkpt lat="47.19378" lon="-1.58449">
        <ele>5</ele>
        <time>2023-11-11T19:11:02Z</time>
      </trkpt>
      <trkpt lat="47.1937" lon="-1.58442">
        <ele>5</ele>
        <time>2023-11-11T19:11:15Z</time>
      </trkpt>
      <trkpt lat="47.19355" lon="-1.58426">
        <ele>5</ele>
        <time>2023-11-11T19:11:39Z</time>
      </trkpt>
      <trkpt lat="47.19349" lon="-1.58416">
        <ele>6</ele>
        <time>2023-11-11T19:11:51Z</time>
      </trkpt>
      <trkpt lat="47.19343" lon="-1.58412">
        <ele>6</ele>
        <time>2023-11-11T19:12:00Z</time>
      </trkpt>
      <trkpt lat="47.19318" lon="-1.58388">
        <ele>6</ele>
        <time>2023-11-11T19:12:40Z</time>
      </trkpt>
      <trkpt lat="47.19305" lon="-1.58372">
        <ele>6</ele>
        <time>2023-11-11T19:13:03Z</time>
      </trkpt>
      <trkpt lat="47.19275" lon="-1.58346">
        <ele>6</ele>
        <time>2023-11-11T19:13:49Z</time>
      </trkpt>
      <trkpt lat="47.19275" lon="-1.58339">
        <ele>6</ele>
        <time>2023-11-11T19:13:55Z</time>
      </trkpt>
      <trkpt lat="47.19278" lon="-1.58328">
        <ele>6</ele>
        <time>2023-11-11T19:14:06Z</time>
      </trkpt>
      <trkpt lat="47.19245" lon="-1.58254">
        <ele>6</ele>
        <time>2023-11-11T19:15:26Z</time>
      </trkpt>
      <trkpt lat="47.19263" lon="-1.58232">
        <ele>6</ele>
        <time>2023-11-11T19:15:58Z</time>
      </trkpt>
      <trkpt lat="47.19242" lon="-1.58183">
        <ele>6</ele>
        <time>2023-11-11T19:16:50Z</time>
      </trkpt>
      <trkpt lat="47.19332" lon="-1.58262">
        <ele>7</ele>
        <time>2023-11-11T19:19:10Z</time>
      </trkpt>
      <trkpt lat="47.19374" lon="-1.58144">
        <ele>5</ele>
        <time>2023-11-11T19:21:11Z</time>
      </trkpt>
      <trkpt lat="47.19334" lon="-1.58107">
        <ele>4</ele>
        <time>2023-11-11T19:22:14Z</time>
      </trkpt>
      <trkpt lat="47.19347" lon="-1.58063">
        <ele>4</ele>
        <time>2023-11-11T19:22:57Z</time>
      </trkpt>
      <trkpt lat="47.19357" lon="-1.57996">
        <ele>5</ele>
        <time>2023-11-11T19:24:00Z</time>
      </trkpt>
      <trkpt lat="47.19328" lon="-1.57965">
        <ele>5</ele>
        <time>2023-11-11T19:24:47Z</time>
      </trkpt>
      <trkpt lat="47.19326" lon="-1.57919">
        <ele>5</ele>
        <time>2023-11-11T19:25:29Z</time>
      </trkpt>
      <trkpt lat="47.19351" lon="-1.57862">
        <ele>5</ele>
        <time>2023-11-11T19:26:31Z</time>
      </trkpt>
      <trkpt lat="47.19366" lon="-1.57857">
        <ele>5</ele>
        <time>2023-11-11T19:26:51Z</time>
      </trkpt>
      <trkpt lat="47.19378" lon="-1.57815">
        <ele>5</ele>
        <time>2023-11-11T19:27:33Z</time>
      </trkpt>
      <trkpt lat="47.19419" lon="-1.57753">
        <ele>5</ele>
        <time>2023-11-11T19:28:51Z</time>
      </trkpt>
      <trkpt lat="47.19486" lon="-1.57603">
        <ele>6</ele>
        <time>2023-11-11T19:31:34Z</time>
      </trkpt>
      <trkpt lat="47.19513" lon="-1.57492">
        <ele>5</ele>
        <time>2023-11-11T19:33:21Z</time>
      </trkpt>
      <trkpt lat="47.19465" lon="-1.57465">
        <ele>6</ele>
        <time>2023-11-11T19:34:29Z</time>
      </trkpt>
      <trkpt lat="47.19392" lon="-1.57445">
        <ele>8</ele>
        <time>2023-11-11T19:36:08Z</time>
      </trkpt>
      <trkpt lat="47.19411" lon="-1.57372">
        <ele>7</ele>
        <time>2023-11-11T19:37:19Z</time>
      </trkpt>
      <trkpt lat="47.19406" lon="-1.57338">
        <ele>6</ele>
        <time>2023-11-11T19:37:51Z</time>
      </trkpt>
      <trkpt lat="47.19426" lon="-1.57294">
        <ele>8</ele>
        <time>2023-11-11T19:38:39Z</time>
      </trkpt>
      <trkpt lat="47.19445" lon="-1.57207">
        <ele>9</ele>
        <time>2023-11-11T19:40:02Z</time>
      </trkpt>
      <trkpt lat="47.19444" lon="-1.57182">
        <ele>9</ele>
        <time>2023-11-11T19:40:24Z</time>
      </trkpt>
      <trkpt lat="47.1942" lon="-1.57177">
        <ele>9</ele>
        <time>2023-11-11T19:40:57Z</time>
      </trkpt>
      <trkpt lat="47.19421" lon="-1.57117">
        <ele>7</ele>
        <time>2023-11-11T19:41:51Z</time>
      </trkpt>
      <trkpt lat="47.19401" lon="-1.57105">
        <ele>7</ele>
        <time>2023-11-11T19:42:20Z</time>
      </trkpt>
      <trkpt lat="47.19352" lon="-1.57093">
        <ele>8</ele>
        <time>2023-11-11T19:43:26Z</time>
      </trkpt>
      <trkpt lat="47.19343" lon="-1.57113">
        <ele>9</ele>
        <time>2023-11-11T19:43:48Z</time>
      </trkpt>
      <trkpt lat="47.19335" lon="-1.57099">
        <ele>8</ele>
        <time>2023-11-11T19:44:05Z</time>
      </trkpt>
      <trkpt lat="47.1933" lon="-1.5708">
        <ele>8</ele>
        <time>2023-11-11T19:44:23Z</time>
      </trkpt>
      <trkpt lat="47.19315" lon="-1.57093">
        <ele>8</ele>
        <time>2023-11-11T19:44:46Z</time>
      </trkpt>
      <trkpt lat="47.19288" lon="-1.57076">
        <ele>6</ele>
        <time>2023-11-11T19:45:25Z</time>
      </trkpt>
      <trkpt lat="47.19267" lon="-1.57076">
        <ele>6</ele>
        <time>2023-11-11T19:45:54Z</time>
      </trkpt>
      <trkpt lat="47.19258" lon="-1.57084">
        <ele>5</ele>
        <time>2023-11-11T19:46:08Z</time>
      </trkpt>
      <trkpt lat="47.19243" lon="-1.57058">
        <ele>5</ele>
        <time>2023-11-11T19:46:38Z</time>
      </trkpt>
      <trkpt lat="47.19245" lon="-1.57042">
        <ele>5</ele>
        <time>2023-11-11T19:46:53Z</time>
      </trkpt>
      <trkpt lat="47.19192" lon="-1.57035">
        <ele>7</ele>
        <time>2023-11-11T19:48:04Z</time>
      </trkpt>
      <trkpt lat="47.19131" lon="-1.57015">
        <ele>11</ele>
        <time>2023-11-11T19:49:28Z</time>
      </trkpt>
      <trkpt lat="47.19121" lon="-1.57006">
        <ele>12</ele>
        <time>2023-11-11T19:49:43Z</time>
      </trkpt>
      <trkpt lat="47.19121" lon="-1.56997">
        <ele>12</ele>
        <time>2023-11-11T19:49:51Z</time>
      </trkpt>
      <trkpt lat="47.19125" lon="-1.56964">
        <ele>12</ele>
        <time>2023-11-11T19:50:22Z</time>
      </trkpt>
      <trkpt lat="47.19061" lon="-1.56951">
        <ele>15</ele>
        <time>2023-11-11T19:51:48Z</time>
      </trkpt>
      <trkpt lat="47.19051" lon="-1.56945">
        <ele>15</ele>
        <time>2023-11-11T19:52:02Z</time>
      </trkpt>
      <trkpt lat="47.19048" lon="-1.56926">
        <ele>15</ele>
        <time>2023-11-11T19:52:20Z</time>
      </trkpt>
      <trkpt lat="47.19018" lon="-1.56887">
        <ele>16</ele>
        <time>2023-11-11T19:53:14Z</time>
      </trkpt>
      <trkpt lat="47.19003" lon="-1.56864">
        <ele>17</ele>
        <time>2023-11-11T19:53:42Z</time>
      </trkpt>
      <trkpt lat="47.19009" lon="-1.56853">
        <ele>16</ele>
        <time>2023-11-11T19:53:55Z</time>
      </trkpt>
      <trkpt lat="47.19056" lon="-1.56882">
        <ele>15</ele>
        <time>2023-11-11T19:55:03Z</time>
      </trkpt>
      <trkpt lat="47.19095" lon="-1.56914">
        <ele>14</ele>
        <time>2023-11-11T19:56:03Z</time>
      </trkpt>
      <trkpt lat="47.19097" lon="-1.56897">
        <ele>14</ele>
        <time>2023-11-11T19:56:19Z</time>
      </trkpt>
      <trkpt lat="47.19108" lon="-1.56899">
        <ele>13</ele>
        <time>2023-11-11T19:56:33Z</time>
      </trkpt>
      <trkpt lat="47.19135" lon="-1.56896">
        <ele>11</ele>
        <time>2023-11-11T19:57:09Z</time>
      </trkpt>
      <trkpt lat="47.19146" lon="-1.56825">
        <ele>10</ele>
        <time>2023-11-11T19:58:15Z</time>
      </trkpt>
      <trkpt lat="47.1914" lon="-1.56762">
        <ele>10</ele>
        <time>2023-11-11T19:59:13Z</time>
      </trkpt>
      <trkpt lat="47.19144" lon="-1.56733">
        <ele>10</ele>
        <time>2023-11-11T19:59:40Z</time>
      </trkpt>
      <trkpt lat="47.19153" lon="-1.56635">
        <ele>9</ele>
        <time>2023-11-11T20:01:10Z</time>
      </trkpt>
      <trkpt lat="47.19161" lon="-1.56595">
        <ele>8</ele>
        <time>2023-11-11T20:01:47Z</time>
      </trkpt>
      <trkpt lat="47.19192" lon="-1.56595">
        <ele>7</ele>
        <time>2023-11-11T20:02:29Z</time>
      </trkpt>
      <trkpt lat="47.1919" lon="-1.56564">
        <ele>7</ele>
        <time>2023-11-11T20:02:57Z</time>
      </trkpt>
      <trkpt lat="47.19192" lon="-1.56518">
        <ele>7</ele>
        <time>2023-11-11T20:03:39Z</time>
      </trkpt>
      <trkpt lat="47.19198" lon="-1.56489">
        <ele>7</ele>
        <time>2023-11-11T20:04:06Z</time>
      </trkpt>
      <trkpt lat="47.19202" lon="-1.56458">
        <ele>8</ele>
        <time>2023-11-11T20:04:35Z</time>
      </trkpt>
      <trkpt lat="47.19205" lon="-1.56414">
        <ele>9</ele>
        <time>2023-11-11T20:05:15Z</time>
      </trkpt>
      <trkpt lat="47.19213" lon="-1.56377">
        <ele>8</ele>
        <time>2023-11-11T20:05:50Z</time>
      </trkpt>
      <trkpt lat="47.19216" lon="-1.56345">
        <ele>8</ele>
        <time>2023-11-11T20:06:20Z</time>
      </trkpt>
      <trkpt lat="47.19211" lon="-1.56291">
        <ele>8</ele>
        <time>2023-11-11T20:07:09Z</time>
      </trkpt>
      <trkpt lat="47.19216" lon="-1.56236">
        <ele>8</ele>
        <time>2023-11-11T20:07:59Z</time>
      </trkpt>
      <trkpt lat="47.19225" lon="-1.562">
        <ele>8</ele>
        <time>2023-11-11T20:08:34Z</time>
      </trkpt>
      <trkpt lat="47.19231" lon="-1.56178">
        <ele>8</ele>
        <time>2023-11-11T20:08:56Z</time>
      </trkpt>
      <trkpt lat="47.19235" lon="-1.56167">
        <ele>8</ele>
        <time>2023-11-11T20:09:07Z</time>
      </trkpt>
      <trkpt lat="47.19229" lon="-1.56032">
        <ele>10</ele>
        <time>2023-11-11T20:11:10Z</time>
      </trkpt>
      <trkpt lat="47.19221" lon="-1.55952">
        <ele>10</ele>
        <time>2023-11-11T20:12:23Z</time>
      </trkpt>
      <trkpt lat="47.19208" lon="-1.5586">
        <ele>9</ele>
        <time>2023-11-11T20:13:48Z</time>
      </trkpt>
      <trkpt lat="47.19205" lon="-1.55786">
        <ele>9</ele>
        <time>2023-11-11T20:14:55Z</time>
      </trkpt>
      <trkpt lat="47.19211" lon="-1.55742">
        <ele>8</ele>
        <time>2023-11-11T20:15:36Z</time>
      </trkpt>
      <trkpt lat="47.19204" lon="-1.5572">
        <ele>8</ele>
        <time>2023-11-11T20:15:58Z</time>
      </trkpt>
      <trkpt lat="47.19202" lon="-1.55662">
        <ele>7</ele>
        <time>2023-11-11T20:16:51Z</time>
      </trkpt>
      <trkpt lat="47.19205" lon="-1.55593">
        <ele>6</ele>
        <time>2023-11-11T20:17:53Z</time>
      </trkpt>
      <trkpt lat="47.19211" lon="-1.55545">
        <ele>6</ele>
        <time>2023-11-11T20:18:38Z</time>
      </trkpt>
      <trkpt lat="47.19212" lon="-1.555">
        <ele>6</ele>
        <time>2023-11-11T20:19:19Z</time>
      </trkpt>
      <trkpt lat="47.19211" lon="-1.55471">
        <ele>6</ele>
        <time>2023-11-11T20:19:45Z</time>
      </trkpt>
      <trkpt lat="47.19206" lon="-1.55439">
        <ele>6</ele>
        <time>2023-11-11T20:20:15Z</time>
      </trkpt>
      <trkpt lat="47.19216" lon="-1.55416">
        <ele>6</ele>
        <time>2023-11-11T20:20:39Z</time>
      </trkpt>
      <trkpt lat="47.19213" lon="-1.55398">
        <ele>7</ele>
        <time>2023-11-11T20:20:56Z</time>
      </trkpt>
      <trkpt lat="47.19232" lon="-1.55392">
        <ele>7</ele>
        <time>2023-11-11T20:21:22Z</time>
      </trkpt>
      <trkpt lat="47.19234" lon="-1.55374">
        <ele>7</ele>
        <time>2023-11-11T20:21:39Z</time>
      </trkpt>
      <trkpt lat="47.19256" lon="-1.55267">
        <ele>8</ele>
        <time>2023-11-11T20:23:20Z</time>
      </trkpt>
      <trkpt lat="47.19264" lon="-1.55223">
        <ele>7</ele>
        <time>2023-11-11T20:24:01Z</time>
      </trkpt>
      <trkpt lat="47.19261" lon="-1.55189">
        <ele>7</ele>
        <time>2023-11-11T20:24:32Z</time>
      </trkpt>
      <trkpt lat="47.19271" lon="-1.55172">
        <ele>6</ele>
        <time>2023-11-11T20:24:53Z</time>
      </trkpt>
      <trkpt lat="47.19281" lon="-1.55156">
        <ele>6</ele>
        <time>2023-11-11T20:25:13Z</time>
      </trkpt>
      <trkpt lat="47.19303" lon="-1.5506">
        <ele>7</ele>
        <time>2023-11-11T20:26:44Z</time>
      </trkpt>
      <trkpt lat="47.19308" lon="-1.55017">
        <ele>8</ele>
        <time>2023-11-11T20:27:24Z</time>
      </trkpt>
      <trkpt lat="47.19293" lon="-1.55003">
        <ele>8</ele>
        <time>2023-11-11T20:27:48Z</time>
      </trkpt>
      <trkpt lat="47.19261" lon="-1.55014">
        <ele>6</ele>
        <time>2023-11-11T20:28:32Z</time>
      </trkpt>
      <trkpt lat="47.19237" lon="-1.55012">
        <ele>7</ele>
        <time>2023-11-11T20:29:04Z</time>
      </trkpt>
      <trkpt lat="47.19198" lon="-1.55032">
        <ele>8</ele>
        <time>2023-11-11T20:29:59Z</time>
      </trkpt>
      <trkpt lat="47.1916" lon="-1.55062">
        <ele>10</ele>
        <time>2023-11-11T20:30:56Z</time>
      </trkpt>
      <trkpt lat="47.19134" lon="-1.55078">
        <ele>11</ele>
        <time>2023-11-11T20:31:34Z</time>
      </trkpt>
      <trkpt lat="47.19111" lon="-1.5511">
        <ele>11</ele>
        <time>2023-11-11T20:32:16Z</time>
      </trkpt>
      <trkpt lat="47.19101" lon="-1.55084">
        <ele>12</ele>
        <time>2023-11-11T20:32:43Z</time>
      </trkpt>
      <trkpt lat="47.19099" lon="-1.5507">
        <ele>13</ele>
        <time>2023-11-11T20:32:56Z</time>
      </trkpt>
      <trkpt lat="47.19121" lon="-1.55042">
        <ele>12</ele>
        <time>2023-11-11T20:33:35Z</time>
      </trkpt>
      <trkpt lat="47.19178" lon="-1.54948">
        <ele>11</ele>
        <time>2023-11-11T20:35:29Z</time>
      </trkpt>
      <trkpt lat="47.19198" lon="-1.5492">
        <ele>10</ele>
        <time>2023-11-11T20:36:06Z</time>
      </trkpt>
      <trkpt lat="47.19226" lon="-1.54917">
        <ele>8</ele>
        <time>2023-11-11T20:36:44Z</time>
      </trkpt>
      <trkpt lat="47.19266" lon="-1.5491">
        <ele>7</ele>
        <time>2023-11-11T20:37:37Z</time>
      </trkpt>
      <trkpt lat="47.19278" lon="-1.54892">
        <ele>7</ele>
        <time>2023-11-11T20:38:00Z</time>
      </trkpt>
      <trkpt lat="47.19297" lon="-1.54884">
        <ele>8</ele>
        <time>2023-11-11T20:38:27Z</time>
      </trkpt>
      <trkpt lat="47.19322" lon="-1.54885">
        <ele>9</ele>
        <time>2023-11-11T20:39:00Z</time>
      </trkpt>
      <trkpt lat="47.19344" lon="-1.54921">
        <ele>9</ele>
        <time>2023-11-11T20:39:44Z</time>
      </trkpt>
      <trkpt lat="47.19348" lon="-1.54922">
        <ele>9</ele>
        <time>2023-11-11T20:39:49Z</time>
      </trkpt>
      <trkpt lat="47.19395" lon="-1.54922">
        <ele>8</ele>
        <time>2023-11-11T20:40:52Z</time>
      </trkpt>
      <trkpt lat="47.19448" lon="-1.54924">
        <ele>7</ele>
        <time>2023-11-11T20:42:03Z</time>
      </trkpt>
      <trkpt lat="47.19484" lon="-1.54924">
        <ele>7</ele>
        <time>2023-11-11T20:42:51Z</time>
      </trkpt>
      <trkpt lat="47.19508" lon="-1.54921">
        <ele>7</ele>
        <time>2023-11-11T20:43:23Z</time>
      </trkpt>
      <trkpt lat="47.19531" lon="-1.54921">
        <ele>7</ele>
        <time>2023-11-11T20:43:54Z</time>
      </trkpt>
      <trkpt lat="47.19548" lon="-1.54917">
        <ele>7</ele>
        <time>2023-11-11T20:44:17Z</time>
      </trkpt>
      <trkpt lat="47.19548" lon="-1.54936">
        <ele>7</ele>
        <time>2023-11-11T20:44:34Z</time>
      </trkpt>
      <trkpt lat="47.19551" lon="-1.54976">
        <ele>7</ele>
        <time>2023-11-11T20:45:10Z</time>
      </trkpt>
      <trkpt lat="47.19585" lon="-1.54989">
        <ele>7</ele>
        <time>2023-11-11T20:45:57Z</time>
      </trkpt>
      <trkpt lat="47.19639" lon="-1.54986">
        <ele>7</ele>
        <time>2023-11-11T20:47:09Z</time>
      </trkpt>
      <trkpt lat="47.19675" lon="-1.54989">
        <ele>7</ele>
        <time>2023-11-11T20:47:57Z</time>
      </trkpt>
      <trkpt lat="47.19671" lon="-1.55028">
        <ele>7</ele>
        <time>2023-11-11T20:48:33Z</time>
      </trkpt>
      <trkpt lat="47.19674" lon="-1.55097">
        <ele>5</ele>
        <time>2023-11-11T20:49:36Z</time>
      </trkpt>
      <trkpt lat="47.19678" lon="-1.5511">
        <ele>5</ele>
        <time>2023-11-11T20:49:49Z</time>
      </trkpt>
      <trkpt lat="47.19683" lon="-1.55133">
        <ele>4</ele>
        <time>2023-11-11T20:50:11Z</time>
      </trkpt>
      <trkpt lat="47.19682" lon="-1.55161">
        <ele>3</ele>
        <time>2023-11-11T20:50:36Z</time>
      </trkpt>
      <trkpt lat="47.19681" lon="-1.55181">
        <ele>3</ele>
        <time>2023-11-11T20:50:54Z</time>
      </trkpt>
      <trkpt lat="47.19683" lon="-1.55199">
        <ele>3</ele>
        <time>2023-11-11T20:51:11Z</time>
      </trkpt>
      <trkpt lat="47.19681" lon="-1.55231">
        <ele>3</ele>
        <time>2023-11-11T20:51:40Z</time>
      </trkpt>
      <trkpt lat="47.19667" lon="-1.55265">
        <ele>3</ele>
        <time>2023-11-11T20:52:16Z</time>
      </trkpt>
      <trkpt lat="47.19659" lon="-1.5531">
        <ele>3</ele>
        <time>2023-11-11T20:52:58Z</time>
      </trkpt>
      <trkpt lat="47.19662" lon="-1.55338">
        <ele>3</ele>
        <time>2023-11-11T20:53:24Z</time>
      </trkpt>
      <trkpt lat="47.1966" lon="-1.55371">
        <ele>3</ele>
        <time>2023-11-11T20:53:54Z</time>
      </trkpt>
      <trkpt lat="47.19662" lon="-1.55396">
        <ele>3</ele>
        <time>2023-11-11T20:54:17Z</time>
      </trkpt>
      <trkpt lat="47.19669" lon="-1.55443">
        <ele>2</ele>
        <time>2023-11-11T20:55:00Z</time>
      </trkpt>
      <trkpt lat="47.19674" lon="-1.55498">
        <ele>2</ele>
        <time>2023-11-11T20:55:51Z</time>
      </trkpt>
      <trkpt lat="47.19662" lon="-1.55523">
        <ele>3</ele>
        <time>2023-11-11T20:56:18Z</time>
      </trkpt>
      <trkpt lat="47.19674" lon="-1.55531">
        <ele>3</ele>
        <time>2023-11-11T20:56:36Z</time>
      </trkpt>
      <trkpt lat="47.19672" lon="-1.55553">
        <ele>3</ele>
        <time>2023-11-11T20:56:56Z</time>
      </trkpt>
      <trkpt lat="47.19669" lon="-1.55577">
        <ele>4</ele>
        <time>2023-11-11T20:57:18Z</time>
      </trkpt>
      <trkpt lat="47.19666" lon="-1.55613">
        <ele>4</ele>
        <time>2023-11-11T20:57:51Z</time>
      </trkpt>
      <trkpt lat="47.19667" lon="-1.55619">
        <ele>4</ele>
        <time>2023-11-11T20:57:57Z</time>
      </trkpt>
      <trkpt lat="47.19644" lon="-1.55619">
        <ele>4</ele>
        <time>2023-11-11T20:58:27Z</time>
      </trkpt>
      <trkpt lat="47.19618" lon="-1.55617">
        <ele>5</ele>
        <time>2023-11-11T20:59:02Z</time>
      </trkpt>
      <trkpt lat="47.1963" lon="-1.55641">
        <ele>5</ele>
        <time>2023-11-11T20:59:29Z</time>
      </trkpt>
      <trkpt lat="47.19636" lon="-1.55667">
        <ele>5</ele>
        <time>2023-11-11T20:59:54Z</time>
      </trkpt>
      <trkpt lat="47.1965" lon="-1.55727">
        <ele>5</ele>
        <time>2023-11-11T21:00:52Z</time>
      </trkpt>
      <trkpt lat="47.19658" lon="-1.55763">
        <ele>5</ele>
        <time>2023-11-11T21:01:26Z</time>
      </trkpt>
      <trkpt lat="47.19663" lon="-1.55782">
        <ele>5</ele>
        <time>2023-11-11T21:01:44Z</time>
      </trkpt>
      <trkpt lat="47.19681" lon="-1.55783">
        <ele>4</ele>
        <time>2023-11-11T21:02:09Z</time>
      </trkpt>
      <trkpt lat="47.19681" lon="-1.55799">
        <ele>5</ele>
        <time>2023-11-11T21:02:23Z</time>
      </trkpt>
      <trkpt lat="47.19684" lon="-1.5584">
        <ele>5</ele>
        <time>2023-11-11T21:03:00Z</time>
      </trkpt>
      <trkpt lat="47.19685" lon="-1.55859">
        <ele>4</ele>
        <time>2023-11-11T21:03:18Z</time>
      </trkpt>
      <trkpt lat="47.19688" lon="-1.55912">
        <ele>3</ele>
        <time>2023-11-11T21:04:06Z</time>
      </trkpt>
      <trkpt lat="47.19687" lon="-1.55971">
        <ele>3</ele>
        <time>2023-11-11T21:04:59Z</time>
      </trkpt>
      <trkpt lat="47.19684" lon="-1.56095">
        <ele>4</ele>
        <time>2023-11-11T21:06:52Z</time>
      </trkpt>
      <trkpt lat="47.1968" lon="-1.56189">
        <ele>4</ele>
        <time>2023-11-11T21:08:17Z</time>
      </trkpt>
      <trkpt lat="47.19679" lon="-1.56248">
        <ele>3</ele>
        <time>2023-11-11T21:09:11Z</time>
      </trkpt>
      <trkpt lat="47.19661" lon="-1.56246">
        <ele>3</ele>
        <time>2023-11-11T21:09:35Z</time>
      </trkpt>
      <trkpt lat="47.19635" lon="-1.5625">
        <ele>4</ele>
        <time>2023-11-11T21:10:10Z</time>
      </trkpt>
      <trkpt lat="47.19629" lon="-1.56276">
        <ele>4</ele>
        <time>2023-11-11T21:10:35Z</time>
      </trkpt>
      <trkpt lat="47.19628" lon="-1.56341">
        <ele>6</ele>
        <time>2023-11-11T21:11:34Z</time>
      </trkpt>
      <trkpt lat="47.19625" lon="-1.56427">
        <ele>7</ele>
        <time>2023-11-11T21:12:52Z</time>
      </trkpt>
      <trkpt lat="47.19632" lon="-1.56535">
        <ele>6</ele>
        <time>2023-11-11T21:14:30Z</time>
      </trkpt>
      <trkpt lat="47.19623" lon="-1.56646">
        <ele>5</ele>
        <time>2023-11-11T21:16:12Z</time>
      </trkpt>
      <trkpt lat="47.19614" lon="-1.56801">
        <ele>5</ele>
        <time>2023-11-11T21:18:33Z</time>
      </trkpt>
      <trkpt lat="47.19615" lon="-1.56813">
        <ele>5</ele>
        <time>2023-11-11T21:18:44Z</time>
      </trkpt>
      <trkpt lat="47.19606" lon="-1.56967">
        <ele>6</ele>
        <time>2023-11-11T21:21:04Z</time>
      </trkpt>
      <trkpt lat="47.19593" lon="-1.57127">
        <ele>7</ele>
        <time>2023-11-11T21:23:30Z</time>
      </trkpt>
      <trkpt lat="47.19592" lon="-1.5721">
        <ele>7</ele>
        <time>2023-11-11T21:24:45Z</time>
      </trkpt>
      <trkpt lat="47.19628" lon="-1.57227">
        <ele>7</ele>
        <time>2023-11-11T21:25:36Z</time>
      </trkpt>
      <trkpt lat="47.19671" lon="-1.57235">
        <ele>6</ele>
        <time>2023-11-11T21:26:33Z</time>
      </trkpt>
      <trkpt lat="47.19664" lon="-1.5731">
        <ele>5</ele>
        <time>2023-11-11T21:27:42Z</time>
      </trkpt>
      <trkpt lat="47.19661" lon="-1.57351">
        <ele>4</ele>
        <time>2023-11-11T21:28:19Z</time>
      </trkpt>
      <trkpt lat="47.19659" lon="-1.57415">
        <ele>4</ele>
        <time>2023-11-11T21:29:18Z</time>
      </trkpt>
      <trkpt lat="47.19636" lon="-1.57508">
        <ele>5</ele>
        <time>2023-11-11T21:30:47Z</time>
      </trkpt>
      <trkpt lat="47.19632" lon="-1.57594">
        <ele>3</ele>
        <time>2023-11-11T21:32:05Z</time>
      </trkpt>
      <trkpt lat="47.19606" lon="-1.57659">
        <ele>5</ele>
        <time>2023-11-11T21:33:14Z</time>
      </trkpt>
      <trkpt lat="47.19591" lon="-1.57736">
        <ele>6</ele>
        <time>2023-11-11T21:34:26Z</time>
      </trkpt>
      <trkpt lat="47.19571" lon="-1.57769">
        <ele>6</ele>
        <time>2023-11-11T21:35:07Z</time>
      </trkpt>
      <trkpt lat="47.19546" lon="-1.57759">
        <ele>6</ele>
        <time>2023-11-11T21:35:41Z</time>
      </trkpt>
      <trkpt lat="47.19528" lon="-1.57829">
        <ele>5</ele>
        <time>2023-11-11T21:36:49Z</time>
      </trkpt>
      <trkpt lat="47.19521" lon="-1.57825">
        <ele>5</ele>
        <time>2023-11-11T21:36:59Z</time>
      </trkpt>
      <trkpt lat="47.19479" lon="-1.57813">
        <ele>5</ele>
        <time>2023-11-11T21:37:56Z</time>
      </trkpt>
      <trkpt lat="47.19476" lon="-1.57862">
        <ele>5</ele>
        <time>2023-11-11T21:38:41Z</time>
      </trkpt>
      <trkpt lat="47.19493" lon="-1.57926">
        <ele>3</ele>
        <time>2023-11-11T21:39:43Z</time>
      </trkpt>
      <trkpt lat="47.19506" lon="-1.57993">
        <ele>4</ele>
        <time>2023-11-11T21:40:46Z</time>
      </trkpt>
      <trkpt lat="47.19521" lon="-1.58044">
        <ele>3</ele>
        <time>2023-11-11T21:41:37Z</time>
      </trkpt>
      <trkpt lat="47.19526" lon="-1.58082">
        <ele>3</ele>
        <time>2023-11-11T21:42:12Z</time>
      </trkpt>
      <trkpt lat="47.19524" lon="-1.58146">
        <ele>4</ele>
        <time>2023-11-11T21:43:10Z</time>
      </trkpt>
      <trkpt lat="47.19524" lon="-1.5822">
        <ele>4</ele>
        <time>2023-11-11T21:44:17Z</time>
      </trkpt>
    </trkseg>
  </trk>
  <trk>
    <name><![CDATA[Vertou_PirmilChausseeMoines_12.5km-8005623]]></name>
    <extensions>
      <line xmlns="http://www.topografix.com/GPX/gpx_style/0/2">
        <color>00FFFF</color>
        <width>4</width>
      </line>
    </extensions>
    <trkseg>
      <trkpt lat="47.19593" lon="-1.54311">
        <ele>7</ele>
        <time>2023-11-11T18:52:30Z</time>
      </trkpt>
      <trkpt lat="47.19575" lon="-1.54302">
        <ele>7</ele>
        <time>2023-11-11T18:52:55Z</time>
      </trkpt>
      <trkpt lat="47.19574" lon="-1.54329">
        <ele>7</ele>
        <time>2023-11-11T18:53:20Z</time>
      </trkpt>
      <trkpt lat="47.19565" lon="-1.54352">
        <ele>7</ele>
        <time>2023-11-11T18:53:44Z</time>
      </trkpt>
      <trkpt lat="47.19546" lon="-1.54362">
        <ele>7</ele>
        <time>2023-11-11T18:54:11Z</time>
      </trkpt>
      <trkpt lat="47.19529" lon="-1.54373">
        <ele>6</ele>
        <time>2023-11-11T18:54:36Z</time>
      </trkpt>
      <trkpt lat="47.19515" lon="-1.54356">
        <ele>7</ele>
        <time>2023-11-11T18:55:00Z</time>
      </trkpt>
      <trkpt lat="47.19501" lon="-1.54338">
        <ele>7</ele>
        <time>2023-11-11T18:55:25Z</time>
      </trkpt>
      <trkpt lat="47.19492" lon="-1.54315">
        <ele>7</ele>
        <time>2023-11-11T18:55:49Z</time>
      </trkpt>
      <trkpt lat="47.19461" lon="-1.54284">
        <ele>7</ele>
        <time>2023-11-11T18:56:39Z</time>
      </trkpt>
      <trkpt lat="47.1945" lon="-1.54263">
        <ele>6</ele>
        <time>2023-11-11T18:57:03Z</time>
      </trkpt>
      <trkpt lat="47.19438" lon="-1.54241">
        <ele>7</ele>
        <time>2023-11-11T18:57:28Z</time>
      </trkpt>
      <trkpt lat="47.1942" lon="-1.54226">
        <ele>7</ele>
        <time>2023-11-11T18:57:56Z</time>
      </trkpt>
      <trkpt lat="47.19388" lon="-1.54201">
        <ele>8</ele>
        <time>2023-11-11T18:58:44Z</time>
      </trkpt>
      <trkpt lat="47.19373" lon="-1.54182">
        <ele>8</ele>
        <time>2023-11-11T18:59:11Z</time>
      </trkpt>
      <trkpt lat="47.19361" lon="-1.54161">
        <ele>8</ele>
        <time>2023-11-11T18:59:36Z</time>
      </trkpt>
      <trkpt lat="47.1935" lon="-1.5414">
        <ele>9</ele>
        <time>2023-11-11T19:00:00Z</time>
      </trkpt>
      <trkpt lat="47.19338" lon="-1.54119">
        <ele>9</ele>
        <time>2023-11-11T19:00:25Z</time>
      </trkpt>
      <trkpt lat="47.19315" lon="-1.54075">
        <ele>9</ele>
        <time>2023-11-11T19:01:15Z</time>
      </trkpt>
      <trkpt lat="47.19302" lon="-1.54056">
        <ele>8</ele>
        <time>2023-11-11T19:01:39Z</time>
      </trkpt>
      <trkpt lat="47.19289" lon="-1.54037">
        <ele>8</ele>
        <time>2023-11-11T19:02:04Z</time>
      </trkpt>
      <trkpt lat="47.19279" lon="-1.54015">
        <ele>8</ele>
        <time>2023-11-11T19:02:28Z</time>
      </trkpt>
      <trkpt lat="47.19265" lon="-1.53996">
        <ele>7</ele>
        <time>2023-11-11T19:02:53Z</time>
      </trkpt>
      <trkpt lat="47.19255" lon="-1.53974">
        <ele>7</ele>
        <time>2023-11-11T19:03:17Z</time>
      </trkpt>
      <trkpt lat="47.19245" lon="-1.53951">
        <ele>7</ele>
        <time>2023-11-11T19:03:42Z</time>
      </trkpt>
      <trkpt lat="47.19234" lon="-1.5393">
        <ele>8</ele>
        <time>2023-11-11T19:04:06Z</time>
      </trkpt>
      <trkpt lat="47.19222" lon="-1.53908">
        <ele>8</ele>
        <time>2023-11-11T19:04:32Z</time>
      </trkpt>
      <trkpt lat="47.19211" lon="-1.53885">
        <ele>9</ele>
        <time>2023-11-11T19:04:57Z</time>
      </trkpt>
      <trkpt lat="47.19206" lon="-1.5386">
        <ele>9</ele>
        <time>2023-11-11T19:05:21Z</time>
      </trkpt>
      <trkpt lat="47.19192" lon="-1.53842">
        <ele>9</ele>
        <time>2023-11-11T19:05:46Z</time>
      </trkpt>
      <trkpt lat="47.19178" lon="-1.53825">
        <ele>9</ele>
        <time>2023-11-11T19:06:10Z</time>
      </trkpt>
      <trkpt lat="47.19163" lon="-1.53809">
        <ele>8</ele>
        <time>2023-11-11T19:06:35Z</time>
      </trkpt>
      <trkpt lat="47.19147" lon="-1.53796">
        <ele>8</ele>
        <time>2023-11-11T19:06:59Z</time>
      </trkpt>
      <trkpt lat="47.19129" lon="-1.53789">
        <ele>8</ele>
        <time>2023-11-11T19:07:24Z</time>
      </trkpt>
      <trkpt lat="47.19101" lon="-1.53755">
        <ele>8</ele>
        <time>2023-11-11T19:08:12Z</time>
      </trkpt>
      <trkpt lat="47.19085" lon="-1.53739">
        <ele>8</ele>
        <time>2023-11-11T19:08:38Z</time>
      </trkpt>
      <trkpt lat="47.19069" lon="-1.53726">
        <ele>8</ele>
        <time>2023-11-11T19:09:02Z</time>
      </trkpt>
      <trkpt lat="47.19054" lon="-1.53709">
        <ele>7</ele>
        <time>2023-11-11T19:09:28Z</time>
      </trkpt>
      <trkpt lat="47.19042" lon="-1.5369">
        <ele>7</ele>
        <time>2023-11-11T19:09:51Z</time>
      </trkpt>
      <trkpt lat="47.1903" lon="-1.53669">
        <ele>8</ele>
        <time>2023-11-11T19:10:16Z</time>
      </trkpt>
      <trkpt lat="47.18998" lon="-1.53643">
        <ele>8</ele>
        <time>2023-11-11T19:11:05Z</time>
      </trkpt>
      <trkpt lat="47.1899" lon="-1.53618">
        <ele>7</ele>
        <time>2023-11-11T19:11:30Z</time>
      </trkpt>
      <trkpt lat="47.18974" lon="-1.53604">
        <ele>6</ele>
        <time>2023-11-11T19:11:55Z</time>
      </trkpt>
      <trkpt lat="47.18961" lon="-1.53586">
        <ele>6</ele>
        <time>2023-11-11T19:12:19Z</time>
      </trkpt>
      <trkpt lat="47.18944" lon="-1.53573">
        <ele>6</ele>
        <time>2023-11-11T19:12:44Z</time>
      </trkpt>
      <trkpt lat="47.18926" lon="-1.53569">
        <ele>6</ele>
        <time>2023-11-11T19:13:08Z</time>
      </trkpt>
      <trkpt lat="47.18908" lon="-1.5356">
        <ele>6</ele>
        <time>2023-11-11T19:13:34Z</time>
      </trkpt>
      <trkpt lat="47.1889" lon="-1.53553">
        <ele>6</ele>
        <time>2023-11-11T19:13:59Z</time>
      </trkpt>
      <trkpt lat="47.18872" lon="-1.53544">
        <ele>6</ele>
        <time>2023-11-11T19:14:24Z</time>
      </trkpt>
      <trkpt lat="47.18856" lon="-1.53531">
        <ele>6</ele>
        <time>2023-11-11T19:14:48Z</time>
      </trkpt>
      <trkpt lat="47.18837" lon="-1.53527">
        <ele>6</ele>
        <time>2023-11-11T19:15:14Z</time>
      </trkpt>
      <trkpt lat="47.18819" lon="-1.53523">
        <ele>6</ele>
        <time>2023-11-11T19:15:38Z</time>
      </trkpt>
      <trkpt lat="47.18802" lon="-1.53515">
        <ele>6</ele>
        <time>2023-11-11T19:16:02Z</time>
      </trkpt>
      <trkpt lat="47.1879" lon="-1.53495">
        <ele>6</ele>
        <time>2023-11-11T19:16:26Z</time>
      </trkpt>
      <trkpt lat="47.18773" lon="-1.5348">
        <ele>6</ele>
        <time>2023-11-11T19:16:53Z</time>
      </trkpt>
      <trkpt lat="47.18757" lon="-1.5347">
        <ele>5</ele>
        <time>2023-11-11T19:17:16Z</time>
      </trkpt>
      <trkpt lat="47.18741" lon="-1.53455">
        <ele>5</ele>
        <time>2023-11-11T19:17:41Z</time>
      </trkpt>
      <trkpt lat="47.18727" lon="-1.53436">
        <ele>5</ele>
        <time>2023-11-11T19:18:07Z</time>
      </trkpt>
      <trkpt lat="47.18715" lon="-1.53415">
        <ele>5</ele>
        <time>2023-11-11T19:18:32Z</time>
      </trkpt>
      <trkpt lat="47.18699" lon="-1.53427">
        <ele>5</ele>
        <time>2023-11-11T19:18:56Z</time>
      </trkpt>
      <trkpt lat="47.18687" lon="-1.53449">
        <ele>5</ele>
        <time>2023-11-11T19:19:21Z</time>
      </trkpt>
      <trkpt lat="47.18671" lon="-1.53462">
        <ele>6</ele>
        <time>2023-11-11T19:19:46Z</time>
      </trkpt>
      <trkpt lat="47.18653" lon="-1.53454">
        <ele>6</ele>
        <time>2023-11-11T19:20:11Z</time>
      </trkpt>
      <trkpt lat="47.18637" lon="-1.53439">
        <ele>6</ele>
        <time>2023-11-11T19:20:36Z</time>
      </trkpt>
      <trkpt lat="47.1862" lon="-1.53428">
        <ele>5</ele>
        <time>2023-11-11T19:21:01Z</time>
      </trkpt>
      <trkpt lat="47.18606" lon="-1.5341">
        <ele>5</ele>
        <time>2023-11-11T19:21:26Z</time>
      </trkpt>
      <trkpt lat="47.18588" lon="-1.534">
        <ele>5</ele>
        <time>2023-11-11T19:21:51Z</time>
      </trkpt>
      <trkpt lat="47.18574" lon="-1.53383">
        <ele>5</ele>
        <time>2023-11-11T19:22:15Z</time>
      </trkpt>
      <trkpt lat="47.18559" lon="-1.53367">
        <ele>5</ele>
        <time>2023-11-11T19:22:40Z</time>
      </trkpt>
      <trkpt lat="47.18544" lon="-1.53352">
        <ele>5</ele>
        <time>2023-11-11T19:23:04Z</time>
      </trkpt>
      <trkpt lat="47.18528" lon="-1.5334">
        <ele>5</ele>
        <time>2023-11-11T19:23:28Z</time>
      </trkpt>
      <trkpt lat="47.18512" lon="-1.53325">
        <ele>5</ele>
        <time>2023-11-11T19:23:54Z</time>
      </trkpt>
      <trkpt lat="47.18497" lon="-1.53308">
        <ele>5</ele>
        <time>2023-11-11T19:24:19Z</time>
      </trkpt>
      <trkpt lat="47.18479" lon="-1.533">
        <ele>6</ele>
        <time>2023-11-11T19:24:44Z</time>
      </trkpt>
      <trkpt lat="47.18467" lon="-1.53279">
        <ele>5</ele>
        <time>2023-11-11T19:25:09Z</time>
      </trkpt>
      <trkpt lat="47.1845" lon="-1.53266">
        <ele>5</ele>
        <time>2023-11-11T19:25:34Z</time>
      </trkpt>
      <trkpt lat="47.18435" lon="-1.53252">
        <ele>4</ele>
        <time>2023-11-11T19:25:58Z</time>
      </trkpt>
      <trkpt lat="47.18423" lon="-1.5323">
        <ele>4</ele>
        <time>2023-11-11T19:26:24Z</time>
      </trkpt>
      <trkpt lat="47.18412" lon="-1.53208">
        <ele>5</ele>
        <time>2023-11-11T19:26:48Z</time>
      </trkpt>
      <trkpt lat="47.18395" lon="-1.53195">
        <ele>5</ele>
        <time>2023-11-11T19:27:14Z</time>
      </trkpt>
      <trkpt lat="47.18365" lon="-1.53164">
        <ele>5</ele>
        <time>2023-11-11T19:28:03Z</time>
      </trkpt>
      <trkpt lat="47.1835" lon="-1.53148">
        <ele>5</ele>
        <time>2023-11-11T19:28:28Z</time>
      </trkpt>
      <trkpt lat="47.18342" lon="-1.53125">
        <ele>5</ele>
        <time>2023-11-11T19:28:51Z</time>
      </trkpt>
      <trkpt lat="47.18328" lon="-1.53105">
        <ele>4</ele>
        <time>2023-11-11T19:29:17Z</time>
      </trkpt>
      <trkpt lat="47.18321" lon="-1.53079">
        <ele>4</ele>
        <time>2023-11-11T19:29:43Z</time>
      </trkpt>
      <trkpt lat="47.18311" lon="-1.53056">
        <ele>5</ele>
        <time>2023-11-11T19:30:07Z</time>
      </trkpt>
      <trkpt lat="47.18321" lon="-1.53034">
        <ele>4</ele>
        <time>2023-11-11T19:30:31Z</time>
      </trkpt>
      <trkpt lat="47.18321" lon="-1.53007">
        <ele>4</ele>
        <time>2023-11-11T19:30:56Z</time>
      </trkpt>
      <trkpt lat="47.18305" lon="-1.52995">
        <ele>4</ele>
        <time>2023-11-11T19:31:20Z</time>
      </trkpt>
      <trkpt lat="47.18291" lon="-1.53014">
        <ele>5</ele>
        <time>2023-11-11T19:31:45Z</time>
      </trkpt>
      <trkpt lat="47.183" lon="-1.52991">
        <ele>4</ele>
        <time>2023-11-11T19:32:09Z</time>
      </trkpt>
      <trkpt lat="47.18292" lon="-1.52967">
        <ele>4</ele>
        <time>2023-11-11T19:32:33Z</time>
      </trkpt>
      <trkpt lat="47.18279" lon="-1.52915">
        <ele>5</ele>
        <time>2023-11-11T19:33:24Z</time>
      </trkpt>
      <trkpt lat="47.18271" lon="-1.52891">
        <ele>5</ele>
        <time>2023-11-11T19:33:48Z</time>
      </trkpt>
      <trkpt lat="47.18267" lon="-1.52865">
        <ele>5</ele>
        <time>2023-11-11T19:34:12Z</time>
      </trkpt>
      <trkpt lat="47.18266" lon="-1.52837">
        <ele>5</ele>
        <time>2023-11-11T19:34:38Z</time>
      </trkpt>
      <trkpt lat="47.18259" lon="-1.52812">
        <ele>5</ele>
        <time>2023-11-11T19:35:02Z</time>
      </trkpt>
      <trkpt lat="47.18246" lon="-1.5279">
        <ele>5</ele>
        <time>2023-11-11T19:35:29Z</time>
      </trkpt>
      <trkpt lat="47.18243" lon="-1.52764">
        <ele>5</ele>
        <time>2023-11-11T19:35:52Z</time>
      </trkpt>
      <trkpt lat="47.18235" lon="-1.52739">
        <ele>6</ele>
        <time>2023-11-11T19:36:18Z</time>
      </trkpt>
      <trkpt lat="47.18235" lon="-1.52712">
        <ele>6</ele>
        <time>2023-11-11T19:36:42Z</time>
      </trkpt>
      <trkpt lat="47.18241" lon="-1.52686">
        <ele>7</ele>
        <time>2023-11-11T19:37:07Z</time>
      </trkpt>
      <trkpt lat="47.18247" lon="-1.5266">
        <ele>7</ele>
        <time>2023-11-11T19:37:32Z</time>
      </trkpt>
      <trkpt lat="47.18245" lon="-1.52633">
        <ele>7</ele>
        <time>2023-11-11T19:37:56Z</time>
      </trkpt>
      <trkpt lat="47.18232" lon="-1.52614">
        <ele>6</ele>
        <time>2023-11-11T19:38:21Z</time>
      </trkpt>
      <trkpt lat="47.18218" lon="-1.52596">
        <ele>6</ele>
        <time>2023-11-11T19:38:46Z</time>
      </trkpt>
      <trkpt lat="47.18213" lon="-1.5257">
        <ele>5</ele>
        <time>2023-11-11T19:39:10Z</time>
      </trkpt>
      <trkpt lat="47.18207" lon="-1.52545">
        <ele>5</ele>
        <time>2023-11-11T19:39:34Z</time>
      </trkpt>
      <trkpt lat="47.1819" lon="-1.52535">
        <ele>5</ele>
        <time>2023-11-11T19:39:59Z</time>
      </trkpt>
      <trkpt lat="47.18189" lon="-1.52508">
        <ele>5</ele>
        <time>2023-11-11T19:40:23Z</time>
      </trkpt>
      <trkpt lat="47.18188" lon="-1.52481">
        <ele>5</ele>
        <time>2023-11-11T19:40:48Z</time>
      </trkpt>
      <trkpt lat="47.18196" lon="-1.52456">
        <ele>4</ele>
        <time>2023-11-11T19:41:13Z</time>
      </trkpt>
      <trkpt lat="47.18192" lon="-1.52429">
        <ele>4</ele>
        <time>2023-11-11T19:41:38Z</time>
      </trkpt>
      <trkpt lat="47.18183" lon="-1.52405">
        <ele>4</ele>
        <time>2023-11-11T19:42:03Z</time>
      </trkpt>
      <trkpt lat="47.18181" lon="-1.52377">
        <ele>3</ele>
        <time>2023-11-11T19:42:28Z</time>
      </trkpt>
      <trkpt lat="47.18182" lon="-1.52349">
        <ele>3</ele>
        <time>2023-11-11T19:42:54Z</time>
      </trkpt>
      <trkpt lat="47.1819" lon="-1.52297">
        <ele>3</ele>
        <time>2023-11-11T19:43:42Z</time>
      </trkpt>
      <trkpt lat="47.1819" lon="-1.52269">
        <ele>4</ele>
        <time>2023-11-11T19:44:07Z</time>
      </trkpt>
      <trkpt lat="47.18187" lon="-1.52242">
        <ele>5</ele>
        <time>2023-11-11T19:44:32Z</time>
      </trkpt>
      <trkpt lat="47.18175" lon="-1.52221">
        <ele>5</ele>
        <time>2023-11-11T19:44:57Z</time>
      </trkpt>
      <trkpt lat="47.18166" lon="-1.52196">
        <ele>6</ele>
        <time>2023-11-11T19:45:23Z</time>
      </trkpt>
      <trkpt lat="47.18159" lon="-1.5217">
        <ele>7</ele>
        <time>2023-11-11T19:45:48Z</time>
      </trkpt>
      <trkpt lat="47.18153" lon="-1.52145">
        <ele>6</ele>
        <time>2023-11-11T19:46:12Z</time>
      </trkpt>
      <trkpt lat="47.18143" lon="-1.52122">
        <ele>6</ele>
        <time>2023-11-11T19:46:37Z</time>
      </trkpt>
      <trkpt lat="47.1813" lon="-1.52104">
        <ele>5</ele>
        <time>2023-11-11T19:47:01Z</time>
      </trkpt>
      <trkpt lat="47.1813" lon="-1.52076">
        <ele>5</ele>
        <time>2023-11-11T19:47:26Z</time>
      </trkpt>
      <trkpt lat="47.18127" lon="-1.52049">
        <ele>5</ele>
        <time>2023-11-11T19:47:51Z</time>
      </trkpt>
      <trkpt lat="47.18121" lon="-1.52023">
        <ele>5</ele>
        <time>2023-11-11T19:48:16Z</time>
      </trkpt>
      <trkpt lat="47.1812" lon="-1.51996">
        <ele>5</ele>
        <time>2023-11-11T19:48:40Z</time>
      </trkpt>
      <trkpt lat="47.18119" lon="-1.51969">
        <ele>6</ele>
        <time>2023-11-11T19:49:05Z</time>
      </trkpt>
      <trkpt lat="47.18117" lon="-1.51942">
        <ele>7</ele>
        <time>2023-11-11T19:49:30Z</time>
      </trkpt>
      <trkpt lat="47.18112" lon="-1.51915">
        <ele>7</ele>
        <time>2023-11-11T19:49:55Z</time>
      </trkpt>
      <trkpt lat="47.18104" lon="-1.51891">
        <ele>7</ele>
        <time>2023-11-11T19:50:19Z</time>
      </trkpt>
      <trkpt lat="47.18097" lon="-1.51866">
        <ele>6</ele>
        <time>2023-11-11T19:50:44Z</time>
      </trkpt>
      <trkpt lat="47.18101" lon="-1.51839">
        <ele>5</ele>
        <time>2023-11-11T19:51:09Z</time>
      </trkpt>
      <trkpt lat="47.18112" lon="-1.51818">
        <ele>5</ele>
        <time>2023-11-11T19:51:33Z</time>
      </trkpt>
      <trkpt lat="47.18127" lon="-1.51799">
        <ele>6</ele>
        <time>2023-11-11T19:51:59Z</time>
      </trkpt>
      <trkpt lat="47.18139" lon="-1.51777">
        <ele>7</ele>
        <time>2023-11-11T19:52:25Z</time>
      </trkpt>
      <trkpt lat="47.1815" lon="-1.51756">
        <ele>8</ele>
        <time>2023-11-11T19:52:49Z</time>
      </trkpt>
      <trkpt lat="47.1815" lon="-1.51727">
        <ele>7</ele>
        <time>2023-11-11T19:53:15Z</time>
      </trkpt>
      <trkpt lat="47.18144" lon="-1.51702">
        <ele>7</ele>
        <time>2023-11-11T19:53:39Z</time>
      </trkpt>
      <trkpt lat="47.18139" lon="-1.51675">
        <ele>6</ele>
        <time>2023-11-11T19:54:05Z</time>
      </trkpt>
      <trkpt lat="47.18145" lon="-1.51648">
        <ele>6</ele>
        <time>2023-11-11T19:54:30Z</time>
      </trkpt>
      <trkpt lat="47.18143" lon="-1.5162">
        <ele>7</ele>
        <time>2023-11-11T19:54:56Z</time>
      </trkpt>
      <trkpt lat="47.18143" lon="-1.51593">
        <ele>7</ele>
        <time>2023-11-11T19:55:20Z</time>
      </trkpt>
      <trkpt lat="47.18139" lon="-1.51567">
        <ele>7</ele>
        <time>2023-11-11T19:55:45Z</time>
      </trkpt>
      <trkpt lat="47.18133" lon="-1.5154">
        <ele>7</ele>
        <time>2023-11-11T19:56:10Z</time>
      </trkpt>
      <trkpt lat="47.18128" lon="-1.51514">
        <ele>7</ele>
        <time>2023-11-11T19:56:35Z</time>
      </trkpt>
      <trkpt lat="47.18119" lon="-1.51491">
        <ele>7</ele>
        <time>2023-11-11T19:56:59Z</time>
      </trkpt>
      <trkpt lat="47.18113" lon="-1.51465">
        <ele>7</ele>
        <time>2023-11-11T19:57:24Z</time>
      </trkpt>
      <trkpt lat="47.18105" lon="-1.51439">
        <ele>8</ele>
        <time>2023-11-11T19:57:50Z</time>
      </trkpt>
      <trkpt lat="47.18097" lon="-1.51415">
        <ele>8</ele>
        <time>2023-11-11T19:58:14Z</time>
      </trkpt>
      <trkpt lat="47.18086" lon="-1.51393">
        <ele>8</ele>
        <time>2023-11-11T19:58:39Z</time>
      </trkpt>
      <trkpt lat="47.1808" lon="-1.51368">
        <ele>8</ele>
        <time>2023-11-11T19:59:03Z</time>
      </trkpt>
      <trkpt lat="47.18071" lon="-1.51345">
        <ele>9</ele>
        <time>2023-11-11T19:59:27Z</time>
      </trkpt>
      <trkpt lat="47.18066" lon="-1.51318">
        <ele>9</ele>
        <time>2023-11-11T19:59:52Z</time>
      </trkpt>
      <trkpt lat="47.18059" lon="-1.51291">
        <ele>9</ele>
        <time>2023-11-11T20:00:19Z</time>
      </trkpt>
      <trkpt lat="47.18057" lon="-1.51263">
        <ele>10</ele>
        <time>2023-11-11T20:00:44Z</time>
      </trkpt>
      <trkpt lat="47.18053" lon="-1.51208">
        <ele>10</ele>
        <time>2023-11-11T20:01:34Z</time>
      </trkpt>
      <trkpt lat="47.18052" lon="-1.51181">
        <ele>9</ele>
        <time>2023-11-11T20:01:59Z</time>
      </trkpt>
      <trkpt lat="47.18035" lon="-1.51166">
        <ele>9</ele>
        <time>2023-11-11T20:02:25Z</time>
      </trkpt>
      <trkpt lat="47.18016" lon="-1.51161">
        <ele>8</ele>
        <time>2023-11-11T20:02:51Z</time>
      </trkpt>
      <trkpt lat="47.17998" lon="-1.51153">
        <ele>7</ele>
        <time>2023-11-11T20:03:16Z</time>
      </trkpt>
      <trkpt lat="47.17987" lon="-1.51176">
        <ele>7</ele>
        <time>2023-11-11T20:03:42Z</time>
      </trkpt>
      <trkpt lat="47.17976" lon="-1.51196">
        <ele>6</ele>
        <time>2023-11-11T20:04:05Z</time>
      </trkpt>
      <trkpt lat="47.17959" lon="-1.51209">
        <ele>6</ele>
        <time>2023-11-11T20:04:30Z</time>
      </trkpt>
      <trkpt lat="47.17978" lon="-1.51209">
        <ele>6</ele>
        <time>2023-11-11T20:04:56Z</time>
      </trkpt>
      <trkpt lat="47.17991" lon="-1.51228">
        <ele>7</ele>
        <time>2023-11-11T20:05:20Z</time>
      </trkpt>
      <trkpt lat="47.18002" lon="-1.51249">
        <ele>7</ele>
        <time>2023-11-11T20:05:44Z</time>
      </trkpt>
      <trkpt lat="47.17999" lon="-1.51223">
        <ele>7</ele>
        <time>2023-11-11T20:06:08Z</time>
      </trkpt>
      <trkpt lat="47.17995" lon="-1.51195">
        <ele>7</ele>
        <time>2023-11-11T20:06:34Z</time>
      </trkpt>
      <trkpt lat="47.18" lon="-1.5117">
        <ele>7</ele>
        <time>2023-11-11T20:06:58Z</time>
      </trkpt>
      <trkpt lat="47.17993" lon="-1.51145">
        <ele>7</ele>
        <time>2023-11-11T20:07:22Z</time>
      </trkpt>
      <trkpt lat="47.17977" lon="-1.51128">
        <ele>7</ele>
        <time>2023-11-11T20:07:49Z</time>
      </trkpt>
      <trkpt lat="47.17962" lon="-1.51114">
        <ele>7</ele>
        <time>2023-11-11T20:08:12Z</time>
      </trkpt>
      <trkpt lat="47.17947" lon="-1.51097">
        <ele>7</ele>
        <time>2023-11-11T20:08:38Z</time>
      </trkpt>
      <trkpt lat="47.17934" lon="-1.51079">
        <ele>8</ele>
        <time>2023-11-11T20:09:01Z</time>
      </trkpt>
      <trkpt lat="47.17923" lon="-1.51056">
        <ele>8</ele>
        <time>2023-11-11T20:09:27Z</time>
      </trkpt>
      <trkpt lat="47.17909" lon="-1.51039">
        <ele>8</ele>
        <time>2023-11-11T20:09:51Z</time>
      </trkpt>
      <trkpt lat="47.17894" lon="-1.51023">
        <ele>8</ele>
        <time>2023-11-11T20:10:16Z</time>
      </trkpt>
      <trkpt lat="47.17881" lon="-1.51004">
        <ele>7</ele>
        <time>2023-11-11T20:10:40Z</time>
      </trkpt>
      <trkpt lat="47.17868" lon="-1.50984">
        <ele>7</ele>
        <time>2023-11-11T20:11:05Z</time>
      </trkpt>
      <trkpt lat="47.17856" lon="-1.50965">
        <ele>7</ele>
        <time>2023-11-11T20:11:29Z</time>
      </trkpt>
      <trkpt lat="47.17841" lon="-1.50948">
        <ele>7</ele>
        <time>2023-11-11T20:11:54Z</time>
      </trkpt>
      <trkpt lat="47.17826" lon="-1.5093">
        <ele>7</ele>
        <time>2023-11-11T20:12:20Z</time>
      </trkpt>
      <trkpt lat="47.17811" lon="-1.50913">
        <ele>7</ele>
        <time>2023-11-11T20:12:45Z</time>
      </trkpt>
      <trkpt lat="47.17794" lon="-1.50903">
        <ele>7</ele>
        <time>2023-11-11T20:13:10Z</time>
      </trkpt>
      <trkpt lat="47.17781" lon="-1.50883">
        <ele>7</ele>
        <time>2023-11-11T20:13:35Z</time>
      </trkpt>
      <trkpt lat="47.17765" lon="-1.50868">
        <ele>7</ele>
        <time>2023-11-11T20:14:00Z</time>
      </trkpt>
      <trkpt lat="47.17736" lon="-1.50835">
        <ele>7</ele>
        <time>2023-11-11T20:14:49Z</time>
      </trkpt>
      <trkpt lat="47.17722" lon="-1.50816">
        <ele>8</ele>
        <time>2023-11-11T20:15:15Z</time>
      </trkpt>
      <trkpt lat="47.17707" lon="-1.50799">
        <ele>9</ele>
        <time>2023-11-11T20:15:40Z</time>
      </trkpt>
      <trkpt lat="47.17689" lon="-1.50792">
        <ele>9</ele>
        <time>2023-11-11T20:16:05Z</time>
      </trkpt>
      <trkpt lat="47.17676" lon="-1.50811">
        <ele>8</ele>
        <time>2023-11-11T20:16:29Z</time>
      </trkpt>
      <trkpt lat="47.17659" lon="-1.50824">
        <ele>7</ele>
        <time>2023-11-11T20:16:55Z</time>
      </trkpt>
      <trkpt lat="47.17639" lon="-1.50823">
        <ele>7</ele>
        <time>2023-11-11T20:17:21Z</time>
      </trkpt>
      <trkpt lat="47.1763" lon="-1.50799">
        <ele>8</ele>
        <time>2023-11-11T20:17:46Z</time>
      </trkpt>
      <trkpt lat="47.17629" lon="-1.50771">
        <ele>8</ele>
        <time>2023-11-11T20:18:12Z</time>
      </trkpt>
      <trkpt lat="47.17637" lon="-1.50747">
        <ele>9</ele>
        <time>2023-11-11T20:18:36Z</time>
      </trkpt>
      <trkpt lat="47.17646" lon="-1.50723">
        <ele>10</ele>
        <time>2023-11-11T20:19:01Z</time>
      </trkpt>
      <trkpt lat="47.1764" lon="-1.50697">
        <ele>10</ele>
        <time>2023-11-11T20:19:26Z</time>
      </trkpt>
      <trkpt lat="47.17627" lon="-1.50677">
        <ele>10</ele>
        <time>2023-11-11T20:19:51Z</time>
      </trkpt>
      <trkpt lat="47.17612" lon="-1.50659">
        <ele>10</ele>
        <time>2023-11-11T20:20:17Z</time>
      </trkpt>
      <trkpt lat="47.17598" lon="-1.50641">
        <ele>10</ele>
        <time>2023-11-11T20:20:41Z</time>
      </trkpt>
      <trkpt lat="47.17584" lon="-1.50623">
        <ele>10</ele>
        <time>2023-11-11T20:21:06Z</time>
      </trkpt>
      <trkpt lat="47.1757" lon="-1.50605">
        <ele>10</ele>
        <time>2023-11-11T20:21:31Z</time>
      </trkpt>
      <trkpt lat="47.17555" lon="-1.50587">
        <ele>10</ele>
        <time>2023-11-11T20:21:57Z</time>
      </trkpt>
      <trkpt lat="47.17544" lon="-1.50566">
        <ele>10</ele>
        <time>2023-11-11T20:22:21Z</time>
      </trkpt>
      <trkpt lat="47.17531" lon="-1.50546">
        <ele>10</ele>
        <time>2023-11-11T20:22:46Z</time>
      </trkpt>
      <trkpt lat="47.17517" lon="-1.50527">
        <ele>9</ele>
        <time>2023-11-11T20:23:12Z</time>
      </trkpt>
      <trkpt lat="47.17504" lon="-1.50507">
        <ele>9</ele>
        <time>2023-11-11T20:23:37Z</time>
      </trkpt>
      <trkpt lat="47.17494" lon="-1.50485">
        <ele>9</ele>
        <time>2023-11-11T20:24:01Z</time>
      </trkpt>
      <trkpt lat="47.17484" lon="-1.50462">
        <ele>9</ele>
        <time>2023-11-11T20:24:25Z</time>
      </trkpt>
      <trkpt lat="47.17475" lon="-1.50438">
        <ele>8</ele>
        <time>2023-11-11T20:24:50Z</time>
      </trkpt>
      <trkpt lat="47.17466" lon="-1.50416">
        <ele>8</ele>
        <time>2023-11-11T20:25:14Z</time>
      </trkpt>
      <trkpt lat="47.17454" lon="-1.50394">
        <ele>7</ele>
        <time>2023-11-11T20:25:39Z</time>
      </trkpt>
      <trkpt lat="47.17442" lon="-1.50373">
        <ele>6</ele>
        <time>2023-11-11T20:26:04Z</time>
      </trkpt>
      <trkpt lat="47.17431" lon="-1.50351">
        <ele>6</ele>
        <time>2023-11-11T20:26:29Z</time>
      </trkpt>
      <trkpt lat="47.17421" lon="-1.50328">
        <ele>6</ele>
        <time>2023-11-11T20:26:54Z</time>
      </trkpt>
      <trkpt lat="47.17412" lon="-1.50304">
        <ele>6</ele>
        <time>2023-11-11T20:27:18Z</time>
      </trkpt>
      <trkpt lat="47.17404" lon="-1.50279">
        <ele>6</ele>
        <time>2023-11-11T20:27:43Z</time>
      </trkpt>
      <trkpt lat="47.17393" lon="-1.50258">
        <ele>6</ele>
        <time>2023-11-11T20:28:08Z</time>
      </trkpt>
      <trkpt lat="47.17384" lon="-1.50235">
        <ele>7</ele>
        <time>2023-11-11T20:28:32Z</time>
      </trkpt>
      <trkpt lat="47.17372" lon="-1.50214">
        <ele>7</ele>
        <time>2023-11-11T20:28:56Z</time>
      </trkpt>
      <trkpt lat="47.17362" lon="-1.50192">
        <ele>8</ele>
        <time>2023-11-11T20:29:20Z</time>
      </trkpt>
      <trkpt lat="47.17349" lon="-1.50171">
        <ele>7</ele>
        <time>2023-11-11T20:29:46Z</time>
      </trkpt>
      <trkpt lat="47.17339" lon="-1.50147">
        <ele>7</ele>
        <time>2023-11-11T20:30:12Z</time>
      </trkpt>
      <trkpt lat="47.17328" lon="-1.50124">
        <ele>6</ele>
        <time>2023-11-11T20:30:37Z</time>
      </trkpt>
      <trkpt lat="47.17319" lon="-1.501">
        <ele>5</ele>
        <time>2023-11-11T20:31:02Z</time>
      </trkpt>
      <trkpt lat="47.17307" lon="-1.50077">
        <ele>5</ele>
        <time>2023-11-11T20:31:28Z</time>
      </trkpt>
      <trkpt lat="47.17296" lon="-1.50055">
        <ele>6</ele>
        <time>2023-11-11T20:31:53Z</time>
      </trkpt>
      <trkpt lat="47.17273" lon="-1.50012">
        <ele>5</ele>
        <time>2023-11-11T20:32:43Z</time>
      </trkpt>
      <trkpt lat="47.17264" lon="-1.49988">
        <ele>5</ele>
        <time>2023-11-11T20:33:08Z</time>
      </trkpt>
      <trkpt lat="47.17249" lon="-1.49938">
        <ele>5</ele>
        <time>2023-11-11T20:33:57Z</time>
      </trkpt>
      <trkpt lat="47.1724" lon="-1.49913">
        <ele>5</ele>
        <time>2023-11-11T20:34:23Z</time>
      </trkpt>
      <trkpt lat="47.17233" lon="-1.49888">
        <ele>5</ele>
        <time>2023-11-11T20:34:48Z</time>
      </trkpt>
      <trkpt lat="47.17222" lon="-1.49865">
        <ele>6</ele>
        <time>2023-11-11T20:35:13Z</time>
      </trkpt>
      <trkpt lat="47.17213" lon="-1.49842">
        <ele>6</ele>
        <time>2023-11-11T20:35:37Z</time>
      </trkpt>
      <trkpt lat="47.17203" lon="-1.49819">
        <ele>6</ele>
        <time>2023-11-11T20:36:02Z</time>
      </trkpt>
      <trkpt lat="47.17186" lon="-1.49771">
        <ele>7</ele>
        <time>2023-11-11T20:36:51Z</time>
      </trkpt>
      <trkpt lat="47.17179" lon="-1.49744">
        <ele>7</ele>
        <time>2023-11-11T20:37:17Z</time>
      </trkpt>
      <trkpt lat="47.17174" lon="-1.49718">
        <ele>8</ele>
        <time>2023-11-11T20:37:42Z</time>
      </trkpt>
      <trkpt lat="47.17165" lon="-1.49694">
        <ele>8</ele>
        <time>2023-11-11T20:38:07Z</time>
      </trkpt>
      <trkpt lat="47.1716" lon="-1.49668">
        <ele>8</ele>
        <time>2023-11-11T20:38:31Z</time>
      </trkpt>
      <trkpt lat="47.17154" lon="-1.49642">
        <ele>8</ele>
        <time>2023-11-11T20:38:56Z</time>
      </trkpt>
      <trkpt lat="47.17147" lon="-1.49617">
        <ele>7</ele>
        <time>2023-11-11T20:39:21Z</time>
      </trkpt>
      <trkpt lat="47.17133" lon="-1.49566">
        <ele>7</ele>
        <time>2023-11-11T20:40:10Z</time>
      </trkpt>
      <trkpt lat="47.17131" lon="-1.49539">
        <ele>8</ele>
        <time>2023-11-11T20:40:35Z</time>
      </trkpt>
      <trkpt lat="47.17123" lon="-1.49514">
        <ele>8</ele>
        <time>2023-11-11T20:41:00Z</time>
      </trkpt>
      <trkpt lat="47.17119" lon="-1.49487">
        <ele>9</ele>
        <time>2023-11-11T20:41:25Z</time>
      </trkpt>
      <trkpt lat="47.17112" lon="-1.49462">
        <ele>8</ele>
        <time>2023-11-11T20:41:50Z</time>
      </trkpt>
      <trkpt lat="47.17104" lon="-1.49438">
        <ele>8</ele>
        <time>2023-11-11T20:42:14Z</time>
      </trkpt>
      <trkpt lat="47.17095" lon="-1.49414">
        <ele>7</ele>
        <time>2023-11-11T20:42:39Z</time>
      </trkpt>
      <trkpt lat="47.17083" lon="-1.49392">
        <ele>7</ele>
        <time>2023-11-11T20:43:04Z</time>
      </trkpt>
      <trkpt lat="47.17077" lon="-1.49367">
        <ele>8</ele>
        <time>2023-11-11T20:43:28Z</time>
      </trkpt>
      <trkpt lat="47.17069" lon="-1.49341">
        <ele>9</ele>
        <time>2023-11-11T20:43:54Z</time>
      </trkpt>
      <trkpt lat="47.17061" lon="-1.49316">
        <ele>10</ele>
        <time>2023-11-11T20:44:19Z</time>
      </trkpt>
      <trkpt lat="47.17053" lon="-1.49292">
        <ele>10</ele>
        <time>2023-11-11T20:44:44Z</time>
      </trkpt>
      <trkpt lat="47.17045" lon="-1.49267">
        <ele>11</ele>
        <time>2023-11-11T20:45:09Z</time>
      </trkpt>
      <trkpt lat="47.17035" lon="-1.49245">
        <ele>10</ele>
        <time>2023-11-11T20:45:33Z</time>
      </trkpt>
      <trkpt lat="47.17027" lon="-1.49219">
        <ele>11</ele>
        <time>2023-11-11T20:45:59Z</time>
      </trkpt>
      <trkpt lat="47.17019" lon="-1.49195">
        <ele>11</ele>
        <time>2023-11-11T20:46:23Z</time>
      </trkpt>
      <trkpt lat="47.17013" lon="-1.49169">
        <ele>12</ele>
        <time>2023-11-11T20:46:48Z</time>
      </trkpt>
      <trkpt lat="47.17005" lon="-1.49144">
        <ele>12</ele>
        <time>2023-11-11T20:47:13Z</time>
      </trkpt>
      <trkpt lat="47.16988" lon="-1.49093">
        <ele>13</ele>
        <time>2023-11-11T20:48:04Z</time>
      </trkpt>
      <trkpt lat="47.16986" lon="-1.49066">
        <ele>14</ele>
        <time>2023-11-11T20:48:29Z</time>
      </trkpt>
      <trkpt lat="47.1698" lon="-1.4904">
        <ele>14</ele>
        <time>2023-11-11T20:48:54Z</time>
      </trkpt>
      <trkpt lat="47.16973" lon="-1.49013">
        <ele>14</ele>
        <time>2023-11-11T20:49:20Z</time>
      </trkpt>
      <trkpt lat="47.16966" lon="-1.48987">
        <ele>14</ele>
        <time>2023-11-11T20:49:46Z</time>
      </trkpt>
      <trkpt lat="47.16961" lon="-1.48961">
        <ele>14</ele>
        <time>2023-11-11T20:50:10Z</time>
      </trkpt>
      <trkpt lat="47.16955" lon="-1.48934">
        <ele>14</ele>
        <time>2023-11-11T20:50:36Z</time>
      </trkpt>
      <trkpt lat="47.16947" lon="-1.48909">
        <ele>14</ele>
        <time>2023-11-11T20:51:01Z</time>
      </trkpt>
      <trkpt lat="47.16942" lon="-1.48883">
        <ele>14</ele>
        <time>2023-11-11T20:51:25Z</time>
      </trkpt>
      <trkpt lat="47.16939" lon="-1.48857">
        <ele>14</ele>
        <time>2023-11-11T20:51:49Z</time>
      </trkpt>
      <trkpt lat="47.16932" lon="-1.48832">
        <ele>13</ele>
        <time>2023-11-11T20:52:14Z</time>
      </trkpt>
      <trkpt lat="47.16926" lon="-1.48807">
        <ele>13</ele>
        <time>2023-11-11T20:52:38Z</time>
      </trkpt>
      <trkpt lat="47.1692" lon="-1.48781">
        <ele>13</ele>
        <time>2023-11-11T20:53:03Z</time>
      </trkpt>
      <trkpt lat="47.16913" lon="-1.48756">
        <ele>13</ele>
        <time>2023-11-11T20:53:27Z</time>
      </trkpt>
      <trkpt lat="47.16908" lon="-1.4873">
        <ele>14</ele>
        <time>2023-11-11T20:53:52Z</time>
      </trkpt>
      <trkpt lat="47.169" lon="-1.48704">
        <ele>14</ele>
        <time>2023-11-11T20:54:18Z</time>
      </trkpt>
      <trkpt lat="47.16894" lon="-1.48679">
        <ele>14</ele>
        <time>2023-11-11T20:54:42Z</time>
      </trkpt>
      <trkpt lat="47.1689" lon="-1.48652">
        <ele>14</ele>
        <time>2023-11-11T20:55:07Z</time>
      </trkpt>
      <trkpt lat="47.16888" lon="-1.48625">
        <ele>14</ele>
        <time>2023-11-11T20:55:31Z</time>
      </trkpt>
      <trkpt lat="47.16878" lon="-1.48602">
        <ele>12</ele>
        <time>2023-11-11T20:55:56Z</time>
      </trkpt>
      <trkpt lat="47.16879" lon="-1.48575">
        <ele>12</ele>
        <time>2023-11-11T20:56:21Z</time>
      </trkpt>
      <trkpt lat="47.16883" lon="-1.48522">
        <ele>11</ele>
        <time>2023-11-11T20:57:09Z</time>
      </trkpt>
      <trkpt lat="47.16889" lon="-1.48496">
        <ele>11</ele>
        <time>2023-11-11T20:57:34Z</time>
      </trkpt>
      <trkpt lat="47.16895" lon="-1.4847">
        <ele>11</ele>
        <time>2023-11-11T20:57:59Z</time>
      </trkpt>
      <trkpt lat="47.16904" lon="-1.48446">
        <ele>11</ele>
        <time>2023-11-11T20:58:24Z</time>
      </trkpt>
      <trkpt lat="47.16908" lon="-1.4842">
        <ele>10</ele>
        <time>2023-11-11T20:58:48Z</time>
      </trkpt>
      <trkpt lat="47.16915" lon="-1.48395">
        <ele>10</ele>
        <time>2023-11-11T20:59:13Z</time>
      </trkpt>
      <trkpt lat="47.16922" lon="-1.4837">
        <ele>11</ele>
        <time>2023-11-11T20:59:37Z</time>
      </trkpt>
      <trkpt lat="47.16937" lon="-1.48321">
        <ele>12</ele>
        <time>2023-11-11T21:00:26Z</time>
      </trkpt>
      <trkpt lat="47.16937" lon="-1.48293">
        <ele>12</ele>
        <time>2023-11-11T21:00:51Z</time>
      </trkpt>
      <trkpt lat="47.16936" lon="-1.48266">
        <ele>11</ele>
        <time>2023-11-11T21:01:16Z</time>
      </trkpt>
      <trkpt lat="47.16928" lon="-1.48242">
        <ele>11</ele>
        <time>2023-11-11T21:01:40Z</time>
      </trkpt>
      <trkpt lat="47.16936" lon="-1.48266">
        <ele>11</ele>
        <time>2023-11-11T21:02:04Z</time>
      </trkpt>
      <trkpt lat="47.16938" lon="-1.48294">
        <ele>12</ele>
        <time>2023-11-11T21:02:30Z</time>
      </trkpt>
      <trkpt lat="47.16939" lon="-1.4832">
        <ele>12</ele>
        <time>2023-11-11T21:02:53Z</time>
      </trkpt>
      <trkpt lat="47.16936" lon="-1.48348">
        <ele>13</ele>
        <time>2023-11-11T21:03:19Z</time>
      </trkpt>
      <trkpt lat="47.16927" lon="-1.48373">
        <ele>12</ele>
        <time>2023-11-11T21:03:45Z</time>
      </trkpt>
      <trkpt lat="47.1692" lon="-1.48397">
        <ele>11</ele>
        <time>2023-11-11T21:04:09Z</time>
      </trkpt>
      <trkpt lat="47.1691" lon="-1.4842">
        <ele>11</ele>
        <time>2023-11-11T21:04:33Z</time>
      </trkpt>
      <trkpt lat="47.16905" lon="-1.48446">
        <ele>11</ele>
        <time>2023-11-11T21:04:58Z</time>
      </trkpt>
      <trkpt lat="47.16897" lon="-1.4847">
        <ele>11</ele>
        <time>2023-11-11T21:05:22Z</time>
      </trkpt>
      <trkpt lat="47.16891" lon="-1.48496">
        <ele>11</ele>
        <time>2023-11-11T21:05:47Z</time>
      </trkpt>
      <trkpt lat="47.16887" lon="-1.48522">
        <ele>12</ele>
        <time>2023-11-11T21:06:11Z</time>
      </trkpt>
      <trkpt lat="47.16886" lon="-1.48549">
        <ele>13</ele>
        <time>2023-11-11T21:06:36Z</time>
      </trkpt>
      <trkpt lat="47.16885" lon="-1.48577">
        <ele>13</ele>
        <time>2023-11-11T21:07:01Z</time>
      </trkpt>
      <trkpt lat="47.16887" lon="-1.48604">
        <ele>14</ele>
        <time>2023-11-11T21:07:26Z</time>
      </trkpt>
      <trkpt lat="47.16888" lon="-1.48631">
        <ele>14</ele>
        <time>2023-11-11T21:07:50Z</time>
      </trkpt>
      <trkpt lat="47.16896" lon="-1.48657">
        <ele>15</ele>
        <time>2023-11-11T21:08:16Z</time>
      </trkpt>
      <trkpt lat="47.16899" lon="-1.48684">
        <ele>15</ele>
        <time>2023-11-11T21:08:41Z</time>
      </trkpt>
      <trkpt lat="47.16905" lon="-1.48711">
        <ele>14</ele>
        <time>2023-11-11T21:09:07Z</time>
      </trkpt>
      <trkpt lat="47.16909" lon="-1.48736">
        <ele>14</ele>
        <time>2023-11-11T21:09:30Z</time>
      </trkpt>
      <trkpt lat="47.16915" lon="-1.48763">
        <ele>13</ele>
        <time>2023-11-11T21:09:56Z</time>
      </trkpt>
      <trkpt lat="47.16918" lon="-1.48789">
        <ele>12</ele>
        <time>2023-11-11T21:10:20Z</time>
      </trkpt>
      <trkpt lat="47.16926" lon="-1.48814">
        <ele>13</ele>
        <time>2023-11-11T21:10:45Z</time>
      </trkpt>
      <trkpt lat="47.16932" lon="-1.48839">
        <ele>13</ele>
        <time>2023-11-11T21:11:09Z</time>
      </trkpt>
      <trkpt lat="47.1694" lon="-1.48863">
        <ele>14</ele>
        <time>2023-11-11T21:11:33Z</time>
      </trkpt>
      <trkpt lat="47.16945" lon="-1.48888">
        <ele>14</ele>
        <time>2023-11-11T21:11:57Z</time>
      </trkpt>
      <trkpt lat="47.16952" lon="-1.48914">
        <ele>15</ele>
        <time>2023-11-11T21:12:22Z</time>
      </trkpt>
      <trkpt lat="47.1696" lon="-1.48938">
        <ele>15</ele>
        <time>2023-11-11T21:12:46Z</time>
      </trkpt>
      <trkpt lat="47.16967" lon="-1.48963">
        <ele>15</ele>
        <time>2023-11-11T21:13:11Z</time>
      </trkpt>
      <trkpt lat="47.16977" lon="-1.49019">
        <ele>14</ele>
        <time>2023-11-11T21:14:03Z</time>
      </trkpt>
      <trkpt lat="47.16988" lon="-1.49041">
        <ele>15</ele>
        <time>2023-11-11T21:14:28Z</time>
      </trkpt>
      <trkpt lat="47.16993" lon="-1.49069">
        <ele>15</ele>
        <time>2023-11-11T21:14:54Z</time>
      </trkpt>
      <trkpt lat="47.16998" lon="-1.49095">
        <ele>14</ele>
        <time>2023-11-11T21:15:19Z</time>
      </trkpt>
      <trkpt lat="47.17007" lon="-1.4912">
        <ele>14</ele>
        <time>2023-11-11T21:15:45Z</time>
      </trkpt>
      <trkpt lat="47.17016" lon="-1.49143">
        <ele>14</ele>
        <time>2023-11-11T21:16:09Z</time>
      </trkpt>
      <trkpt lat="47.17011" lon="-1.49181">
        <ele>11</ele>
        <time>2023-11-11T21:16:44Z</time>
      </trkpt>
      <trkpt lat="47.17038" lon="-1.4922">
        <ele>12</ele>
        <time>2023-11-11T21:17:34Z</time>
      </trkpt>
      <trkpt lat="47.17052" lon="-1.49277">
        <ele>11</ele>
        <time>2023-11-11T21:18:29Z</time>
      </trkpt>
      <trkpt lat="47.17062" lon="-1.49308">
        <ele>10</ele>
        <time>2023-11-11T21:19:00Z</time>
      </trkpt>
      <trkpt lat="47.17082" lon="-1.49374">
        <ele>8</ele>
        <time>2023-11-11T21:20:06Z</time>
      </trkpt>
      <trkpt lat="47.17104" lon="-1.49432">
        <ele>8</ele>
        <time>2023-11-11T21:21:06Z</time>
      </trkpt>
      <trkpt lat="47.17127" lon="-1.49513">
        <ele>9</ele>
        <time>2023-11-11T21:22:26Z</time>
      </trkpt>
      <trkpt lat="47.17135" lon="-1.49541">
        <ele>8</ele>
        <time>2023-11-11T21:22:53Z</time>
      </trkpt>
      <trkpt lat="47.17148" lon="-1.49599">
        <ele>7</ele>
        <time>2023-11-11T21:23:49Z</time>
      </trkpt>
      <trkpt lat="47.17152" lon="-1.49626">
        <ele>8</ele>
        <time>2023-11-11T21:24:14Z</time>
      </trkpt>
      <trkpt lat="47.1716" lon="-1.49651">
        <ele>8</ele>
        <time>2023-11-11T21:24:39Z</time>
      </trkpt>
      <trkpt lat="47.17176" lon="-1.49706">
        <ele>8</ele>
        <time>2023-11-11T21:25:33Z</time>
      </trkpt>
      <trkpt lat="47.17187" lon="-1.49748">
        <ele>7</ele>
        <time>2023-11-11T21:26:14Z</time>
      </trkpt>
      <trkpt lat="47.17207" lon="-1.4981">
        <ele>7</ele>
        <time>2023-11-11T21:27:16Z</time>
      </trkpt>
      <trkpt lat="47.17228" lon="-1.4986">
        <ele>6</ele>
        <time>2023-11-11T21:28:10Z</time>
      </trkpt>
      <trkpt lat="47.1726" lon="-1.49971">
        <ele>5</ele>
        <time>2023-11-11T21:29:59Z</time>
      </trkpt>
      <trkpt lat="47.17287" lon="-1.50032">
        <ele>6</ele>
        <time>2023-11-11T21:31:05Z</time>
      </trkpt>
      <trkpt lat="47.17311" lon="-1.50052">
        <ele>6</ele>
        <time>2023-11-11T21:31:42Z</time>
      </trkpt>
      <trkpt lat="47.17336" lon="-1.50097">
        <ele>6</ele>
        <time>2023-11-11T21:32:35Z</time>
      </trkpt>
      <trkpt lat="47.17349" lon="-1.50152">
        <ele>8</ele>
        <time>2023-11-11T21:33:27Z</time>
      </trkpt>
      <trkpt lat="47.17373" lon="-1.50199">
        <ele>8</ele>
        <time>2023-11-11T21:34:21Z</time>
      </trkpt>
      <trkpt lat="47.1739" lon="-1.50249">
        <ele>6</ele>
        <time>2023-11-11T21:35:11Z</time>
      </trkpt>
      <trkpt lat="47.17401" lon="-1.50271">
        <ele>6</ele>
        <time>2023-11-11T21:35:36Z</time>
      </trkpt>
      <trkpt lat="47.17412" lon="-1.50294">
        <ele>6</ele>
        <time>2023-11-11T21:36:02Z</time>
      </trkpt>
      <trkpt lat="47.17431" lon="-1.50342">
        <ele>7</ele>
        <time>2023-11-11T21:36:52Z</time>
      </trkpt>
      <trkpt lat="47.17455" lon="-1.50391">
        <ele>7</ele>
        <time>2023-11-11T21:37:47Z</time>
      </trkpt>
      <trkpt lat="47.17479" lon="-1.50431">
        <ele>9</ele>
        <time>2023-11-11T21:38:35Z</time>
      </trkpt>
      <trkpt lat="47.175" lon="-1.5047">
        <ele>10</ele>
        <time>2023-11-11T21:39:20Z</time>
      </trkpt>
      <trkpt lat="47.17527" lon="-1.50516">
        <ele>11</ele>
        <time>2023-11-11T21:40:16Z</time>
      </trkpt>
      <trkpt lat="47.17552" lon="-1.50562">
        <ele>11</ele>
        <time>2023-11-11T21:41:09Z</time>
      </trkpt>
      <trkpt lat="47.1758" lon="-1.50606">
        <ele>11</ele>
        <time>2023-11-11T21:42:04Z</time>
      </trkpt>
      <trkpt lat="47.17613" lon="-1.50648">
        <ele>10</ele>
        <time>2023-11-11T21:43:02Z</time>
      </trkpt>
      <trkpt lat="47.17641" lon="-1.50691">
        <ele>10</ele>
        <time>2023-11-11T21:43:56Z</time>
      </trkpt>
      <trkpt lat="47.17653" lon="-1.50711">
        <ele>11</ele>
        <time>2023-11-11T21:44:20Z</time>
      </trkpt>
      <trkpt lat="47.17634" lon="-1.50766">
        <ele>8</ele>
        <time>2023-11-11T21:45:16Z</time>
      </trkpt>
      <trkpt lat="47.17649" lon="-1.50797">
        <ele>8</ele>
        <time>2023-11-11T21:45:51Z</time>
      </trkpt>
      <trkpt lat="47.17695" lon="-1.50789">
        <ele>9</ele>
        <time>2023-11-11T21:46:52Z</time>
      </trkpt>
      <trkpt lat="47.17729" lon="-1.50819">
        <ele>8</ele>
        <time>2023-11-11T21:47:45Z</time>
      </trkpt>
      <trkpt lat="47.17747" lon="-1.50842">
        <ele>7</ele>
        <time>2023-11-11T21:48:17Z</time>
      </trkpt>
      <trkpt lat="47.17762" lon="-1.5086">
        <ele>7</ele>
        <time>2023-11-11T21:48:43Z</time>
      </trkpt>
      <trkpt lat="47.17778" lon="-1.50874">
        <ele>7</ele>
        <time>2023-11-11T21:49:08Z</time>
      </trkpt>
      <trkpt lat="47.17821" lon="-1.5093">
        <ele>7</ele>
        <time>2023-11-11T21:50:24Z</time>
      </trkpt>
      <trkpt lat="47.17838" lon="-1.50943">
        <ele>7</ele>
        <time>2023-11-11T21:50:50Z</time>
      </trkpt>
      <trkpt lat="47.1785" lon="-1.50964">
        <ele>7</ele>
        <time>2023-11-11T21:51:15Z</time>
      </trkpt>
      <trkpt lat="47.17865" lon="-1.50983">
        <ele>7</ele>
        <time>2023-11-11T21:51:41Z</time>
      </trkpt>
      <trkpt lat="47.1788" lon="-1.50998">
        <ele>8</ele>
        <time>2023-11-11T21:52:06Z</time>
      </trkpt>
      <trkpt lat="47.17895" lon="-1.51015">
        <ele>8</ele>
        <time>2023-11-11T21:52:31Z</time>
      </trkpt>
      <trkpt lat="47.17907" lon="-1.51041">
        <ele>8</ele>
        <time>2023-11-11T21:52:59Z</time>
      </trkpt>
      <trkpt lat="47.17923" lon="-1.51059">
        <ele>8</ele>
        <time>2023-11-11T21:53:26Z</time>
      </trkpt>
      <trkpt lat="47.17937" lon="-1.51083">
        <ele>8</ele>
        <time>2023-11-11T21:53:55Z</time>
      </trkpt>
      <trkpt lat="47.18004" lon="-1.51154">
        <ele>7</ele>
        <time>2023-11-11T21:55:45Z</time>
      </trkpt>
      <trkpt lat="47.18042" lon="-1.51162">
        <ele>9</ele>
        <time>2023-11-11T21:56:36Z</time>
      </trkpt>
      <trkpt lat="47.18056" lon="-1.51213">
        <ele>10</ele>
        <time>2023-11-11T21:57:26Z</time>
      </trkpt>
      <trkpt lat="47.18059" lon="-1.51241">
        <ele>10</ele>
        <time>2023-11-11T21:57:52Z</time>
      </trkpt>
      <trkpt lat="47.18062" lon="-1.51298">
        <ele>9</ele>
        <time>2023-11-11T21:58:44Z</time>
      </trkpt>
      <trkpt lat="47.18066" lon="-1.51326">
        <ele>9</ele>
        <time>2023-11-11T21:59:10Z</time>
      </trkpt>
      <trkpt lat="47.18073" lon="-1.5135">
        <ele>9</ele>
        <time>2023-11-11T21:59:33Z</time>
      </trkpt>
      <trkpt lat="47.18086" lon="-1.51382">
        <ele>8</ele>
        <time>2023-11-11T22:00:07Z</time>
      </trkpt>
      <trkpt lat="47.18094" lon="-1.51409">
        <ele>8</ele>
        <time>2023-11-11T22:00:34Z</time>
      </trkpt>
      <trkpt lat="47.18102" lon="-1.51433">
        <ele>8</ele>
        <time>2023-11-11T22:00:58Z</time>
      </trkpt>
      <trkpt lat="47.18123" lon="-1.51501">
        <ele>7</ele>
        <time>2023-11-11T22:02:06Z</time>
      </trkpt>
      <trkpt lat="47.18131" lon="-1.51527">
        <ele>7</ele>
        <time>2023-11-11T22:02:32Z</time>
      </trkpt>
      <trkpt lat="47.18139" lon="-1.51567">
        <ele>7</ele>
        <time>2023-11-11T22:03:10Z</time>
      </trkpt>
      <trkpt lat="47.1814" lon="-1.51594">
        <ele>7</ele>
        <time>2023-11-11T22:03:34Z</time>
      </trkpt>
      <trkpt lat="47.18146" lon="-1.51669">
        <ele>6</ele>
        <time>2023-11-11T22:04:43Z</time>
      </trkpt>
      <trkpt lat="47.1815" lon="-1.51703">
        <ele>7</ele>
        <time>2023-11-11T22:05:14Z</time>
      </trkpt>
      <trkpt lat="47.18151" lon="-1.51762">
        <ele>8</ele>
        <time>2023-11-11T22:06:07Z</time>
      </trkpt>
      <trkpt lat="47.18123" lon="-1.51802">
        <ele>6</ele>
        <time>2023-11-11T22:07:00Z</time>
      </trkpt>
      <trkpt lat="47.18108" lon="-1.51861">
        <ele>6</ele>
        <time>2023-11-11T22:07:57Z</time>
      </trkpt>
      <trkpt lat="47.18117" lon="-1.51917">
        <ele>7</ele>
        <time>2023-11-11T22:08:49Z</time>
      </trkpt>
      <trkpt lat="47.18118" lon="-1.51972">
        <ele>6</ele>
        <time>2023-11-11T22:09:39Z</time>
      </trkpt>
      <trkpt lat="47.18121" lon="-1.52031">
        <ele>5</ele>
        <time>2023-11-11T22:10:32Z</time>
      </trkpt>
      <trkpt lat="47.18131" lon="-1.52093">
        <ele>5</ele>
        <time>2023-11-11T22:11:30Z</time>
      </trkpt>
      <trkpt lat="47.18144" lon="-1.52121">
        <ele>6</ele>
        <time>2023-11-11T22:12:01Z</time>
      </trkpt>
      <trkpt lat="47.18155" lon="-1.52146">
        <ele>6</ele>
        <time>2023-11-11T22:12:28Z</time>
      </trkpt>
      <trkpt lat="47.18172" lon="-1.52201">
        <ele>6</ele>
        <time>2023-11-11T22:13:23Z</time>
      </trkpt>
      <trkpt lat="47.18191" lon="-1.52255">
        <ele>4</ele>
        <time>2023-11-11T22:14:18Z</time>
      </trkpt>
      <trkpt lat="47.18188" lon="-1.52314">
        <ele>3</ele>
        <time>2023-11-11T22:15:12Z</time>
      </trkpt>
      <trkpt lat="47.18182" lon="-1.52372">
        <ele>3</ele>
        <time>2023-11-11T22:16:05Z</time>
      </trkpt>
      <trkpt lat="47.18199" lon="-1.52426">
        <ele>4</ele>
        <time>2023-11-11T22:16:59Z</time>
      </trkpt>
      <trkpt lat="47.18194" lon="-1.52486">
        <ele>5</ele>
        <time>2023-11-11T22:17:54Z</time>
      </trkpt>
      <trkpt lat="47.18187" lon="-1.52517">
        <ele>5</ele>
        <time>2023-11-11T22:18:23Z</time>
      </trkpt>
      <trkpt lat="47.18204" lon="-1.52536">
        <ele>5</ele>
        <time>2023-11-11T22:18:52Z</time>
      </trkpt>
      <trkpt lat="47.18212" lon="-1.52561">
        <ele>5</ele>
        <time>2023-11-11T22:19:17Z</time>
      </trkpt>
      <trkpt lat="47.18239" lon="-1.52608">
        <ele>6</ele>
        <time>2023-11-11T22:20:13Z</time>
      </trkpt>
      <trkpt lat="47.18249" lon="-1.52637">
        <ele>7</ele>
        <time>2023-11-11T22:20:42Z</time>
      </trkpt>
      <trkpt lat="47.18249" lon="-1.52672">
        <ele>7</ele>
        <time>2023-11-11T22:21:14Z</time>
      </trkpt>
      <trkpt lat="47.18241" lon="-1.52698">
        <ele>7</ele>
        <time>2023-11-11T22:21:40Z</time>
      </trkpt>
      <trkpt lat="47.18233" lon="-1.52721">
        <ele>6</ele>
        <time>2023-11-11T22:22:03Z</time>
      </trkpt>
      <trkpt lat="47.18247" lon="-1.5278">
        <ele>5</ele>
        <time>2023-11-11T22:23:00Z</time>
      </trkpt>
      <trkpt lat="47.18268" lon="-1.5283">
        <ele>5</ele>
        <time>2023-11-11T22:23:53Z</time>
      </trkpt>
      <trkpt lat="47.18278" lon="-1.52895">
        <ele>5</ele>
        <time>2023-11-11T22:24:54Z</time>
      </trkpt>
      <trkpt lat="47.18299" lon="-1.52946">
        <ele>4</ele>
        <time>2023-11-11T22:25:48Z</time>
      </trkpt>
      <trkpt lat="47.18317" lon="-1.52998">
        <ele>4</ele>
        <time>2023-11-11T22:26:41Z</time>
      </trkpt>
      <trkpt lat="47.18315" lon="-1.53054">
        <ele>5</ele>
        <time>2023-11-11T22:27:31Z</time>
      </trkpt>
      <trkpt lat="47.18332" lon="-1.53104">
        <ele>4</ele>
        <time>2023-11-11T22:28:22Z</time>
      </trkpt>
      <trkpt lat="47.18349" lon="-1.53118">
        <ele>4</ele>
        <time>2023-11-11T22:28:48Z</time>
      </trkpt>
      <trkpt lat="47.1837" lon="-1.5316">
        <ele>5</ele>
        <time>2023-11-11T22:29:35Z</time>
      </trkpt>
      <trkpt lat="47.18404" lon="-1.5319">
        <ele>5</ele>
        <time>2023-11-11T22:30:28Z</time>
      </trkpt>
      <trkpt lat="47.18418" lon="-1.53209">
        <ele>4</ele>
        <time>2023-11-11T22:30:54Z</time>
      </trkpt>
      <trkpt lat="47.18436" lon="-1.53241">
        <ele>4</ele>
        <time>2023-11-11T22:31:31Z</time>
      </trkpt>
      <trkpt lat="47.1847" lon="-1.53269">
        <ele>5</ele>
        <time>2023-11-11T22:32:23Z</time>
      </trkpt>
      <trkpt lat="47.18503" lon="-1.53304">
        <ele>5</ele>
        <time>2023-11-11T22:33:18Z</time>
      </trkpt>
      <trkpt lat="47.18535" lon="-1.53339">
        <ele>5</ele>
        <time>2023-11-11T22:34:11Z</time>
      </trkpt>
      <trkpt lat="47.18565" lon="-1.53361">
        <ele>5</ele>
        <time>2023-11-11T22:34:56Z</time>
      </trkpt>
      <trkpt lat="47.18584" lon="-1.53381">
        <ele>4</ele>
        <time>2023-11-11T22:35:27Z</time>
      </trkpt>
      <trkpt lat="47.186" lon="-1.53396">
        <ele>5</ele>
        <time>2023-11-11T22:35:52Z</time>
      </trkpt>
      <trkpt lat="47.18615" lon="-1.53412">
        <ele>5</ele>
        <time>2023-11-11T22:36:17Z</time>
      </trkpt>
      <trkpt lat="47.18656" lon="-1.53446">
        <ele>5</ele>
        <time>2023-11-11T22:37:20Z</time>
      </trkpt>
      <trkpt lat="47.18684" lon="-1.5344">
        <ele>5</ele>
        <time>2023-11-11T22:37:57Z</time>
      </trkpt>
      <trkpt lat="47.18702" lon="-1.53404">
        <ele>5</ele>
        <time>2023-11-11T22:38:38Z</time>
      </trkpt>
      <trkpt lat="47.1872" lon="-1.534">
        <ele>5</ele>
        <time>2023-11-11T22:39:02Z</time>
      </trkpt>
      <trkpt lat="47.1873" lon="-1.53423">
        <ele>5</ele>
        <time>2023-11-11T22:39:27Z</time>
      </trkpt>
      <trkpt lat="47.18743" lon="-1.53442">
        <ele>5</ele>
        <time>2023-11-11T22:39:52Z</time>
      </trkpt>
      <trkpt lat="47.1876" lon="-1.53456">
        <ele>5</ele>
        <time>2023-11-11T22:40:17Z</time>
      </trkpt>
      <trkpt lat="47.18774" lon="-1.53474">
        <ele>6</ele>
        <time>2023-11-11T22:40:42Z</time>
      </trkpt>
      <trkpt lat="47.18794" lon="-1.53483">
        <ele>6</ele>
        <time>2023-11-11T22:41:10Z</time>
      </trkpt>
      <trkpt lat="47.18818" lon="-1.53498">
        <ele>6</ele>
        <time>2023-11-11T22:41:45Z</time>
      </trkpt>
      <trkpt lat="47.18856" lon="-1.53515">
        <ele>6</ele>
        <time>2023-11-11T22:42:38Z</time>
      </trkpt>
      <trkpt lat="47.18873" lon="-1.53527">
        <ele>6</ele>
        <time>2023-11-11T22:43:03Z</time>
      </trkpt>
      <trkpt lat="47.18903" lon="-1.53544">
        <ele>6</ele>
        <time>2023-11-11T22:43:46Z</time>
      </trkpt>
      <trkpt lat="47.18922" lon="-1.53553">
        <ele>6</ele>
        <time>2023-11-11T22:44:13Z</time>
      </trkpt>
      <trkpt lat="47.18959" lon="-1.53566">
        <ele>7</ele>
        <time>2023-11-11T22:45:03Z</time>
      </trkpt>
      <trkpt lat="47.1899" lon="-1.536">
        <ele>7</ele>
        <time>2023-11-11T22:45:55Z</time>
      </trkpt>
      <trkpt lat="47.19019" lon="-1.53639">
        <ele>8</ele>
        <time>2023-11-11T22:46:47Z</time>
      </trkpt>
      <trkpt lat="47.19037" lon="-1.53664">
        <ele>8</ele>
        <time>2023-11-11T22:47:21Z</time>
      </trkpt>
      <trkpt lat="47.19074" lon="-1.53705">
        <ele>7</ele>
        <time>2023-11-11T22:48:22Z</time>
      </trkpt>
      <trkpt lat="47.19104" lon="-1.53747">
        <ele>8</ele>
        <time>2023-11-11T22:49:18Z</time>
      </trkpt>
      <trkpt lat="47.19119" lon="-1.53764">
        <ele>8</ele>
        <time>2023-11-11T22:49:43Z</time>
      </trkpt>
      <trkpt lat="47.19132" lon="-1.53785">
        <ele>8</ele>
        <time>2023-11-11T22:50:09Z</time>
      </trkpt>
      <trkpt lat="47.19157" lon="-1.53794">
        <ele>8</ele>
        <time>2023-11-11T22:50:43Z</time>
      </trkpt>
      <trkpt lat="47.19175" lon="-1.53806">
        <ele>9</ele>
        <time>2023-11-11T22:51:09Z</time>
      </trkpt>
      <trkpt lat="47.19204" lon="-1.5385">
        <ele>9</ele>
        <time>2023-11-11T22:52:05Z</time>
      </trkpt>
      <trkpt lat="47.19231" lon="-1.53897">
        <ele>9</ele>
        <time>2023-11-11T22:53:01Z</time>
      </trkpt>
      <trkpt lat="47.19243" lon="-1.53919">
        <ele>8</ele>
        <time>2023-11-11T22:53:26Z</time>
      </trkpt>
      <trkpt lat="47.19269" lon="-1.53978">
        <ele>8</ele>
        <time>2023-11-11T22:54:30Z</time>
      </trkpt>
      <trkpt lat="47.19288" lon="-1.5401">
        <ele>9</ele>
        <time>2023-11-11T22:55:09Z</time>
      </trkpt>
      <trkpt lat="47.19325" lon="-1.54069">
        <ele>9</ele>
        <time>2023-11-11T22:56:21Z</time>
      </trkpt>
      <trkpt lat="47.1935" lon="-1.54113">
        <ele>9</ele>
        <time>2023-11-11T22:57:13Z</time>
      </trkpt>
      <trkpt lat="47.19369" lon="-1.54146">
        <ele>9</ele>
        <time>2023-11-11T22:57:53Z</time>
      </trkpt>
      <trkpt lat="47.19386" lon="-1.5417">
        <ele>9</ele>
        <time>2023-11-11T22:58:24Z</time>
      </trkpt>
      <trkpt lat="47.19417" lon="-1.54209">
        <ele>7</ele>
        <time>2023-11-11T22:59:19Z</time>
      </trkpt>
      <trkpt lat="47.19436" lon="-1.54235">
        <ele>7</ele>
        <time>2023-11-11T22:59:53Z</time>
      </trkpt>
      <trkpt lat="47.19465" lon="-1.54273">
        <ele>7</ele>
        <time>2023-11-11T23:00:45Z</time>
      </trkpt>
      <trkpt lat="47.19499" lon="-1.54312">
        <ele>7</ele>
        <time>2023-11-11T23:01:42Z</time>
      </trkpt>
      <trkpt lat="47.19529" lon="-1.54355">
        <ele>7</ele>
        <time>2023-11-11T23:02:38Z</time>
      </trkpt>
      <trkpt lat="47.19547" lon="-1.54348">
        <ele>7</ele>
        <time>2023-11-11T23:03:03Z</time>
      </trkpt>
      <trkpt lat="47.19565" lon="-1.54349">
        <ele>7</ele>
        <time>2023-11-11T23:03:27Z</time>
      </trkpt>
    </trkseg>
  </trk>
  <trk>
    <name><![CDATA[Reze_Trentemoult BasseIle_10.8km-6470772]]></name>
    <extensions>
      <line xmlns="http://www.topografix.com/GPX/gpx_style/0/2">
        <color>FF00FF</color>
        <width>4</width>
      </line>
    </extensions>
    <trkseg>
      <trkpt lat="47.21016" lon="-1.56287">
        <ele>10</ele>
        <time>2023-11-11T18:52:13Z</time>
      </trkpt>
      <trkpt lat="47.20997" lon="-1.5628">
        <ele>8</ele>
        <time>2023-11-11T18:52:39Z</time>
      </trkpt>
      <trkpt lat="47.20995" lon="-1.56308">
        <ele>9</ele>
        <time>2023-11-11T18:53:05Z</time>
      </trkpt>
      <trkpt lat="47.20994" lon="-1.56335">
        <ele>10</ele>
        <time>2023-11-11T18:53:29Z</time>
      </trkpt>
      <trkpt lat="47.20986" lon="-1.5636">
        <ele>10</ele>
        <time>2023-11-11T18:53:54Z</time>
      </trkpt>
      <trkpt lat="47.20977" lon="-1.56385">
        <ele>9</ele>
        <time>2023-11-11T18:54:20Z</time>
      </trkpt>
      <trkpt lat="47.20968" lon="-1.56409">
        <ele>8</ele>
        <time>2023-11-11T18:54:45Z</time>
      </trkpt>
      <trkpt lat="47.20963" lon="-1.56435">
        <ele>8</ele>
        <time>2023-11-11T18:55:09Z</time>
      </trkpt>
      <trkpt lat="47.20958" lon="-1.56462">
        <ele>8</ele>
        <time>2023-11-11T18:55:35Z</time>
      </trkpt>
      <trkpt lat="47.20951" lon="-1.56486">
        <ele>7</ele>
        <time>2023-11-11T18:55:58Z</time>
      </trkpt>
      <trkpt lat="47.20943" lon="-1.56512">
        <ele>7</ele>
        <time>2023-11-11T18:56:24Z</time>
      </trkpt>
      <trkpt lat="47.20937" lon="-1.56538">
        <ele>7</ele>
        <time>2023-11-11T18:56:49Z</time>
      </trkpt>
      <trkpt lat="47.20926" lon="-1.5656">
        <ele>6</ele>
        <time>2023-11-11T18:57:14Z</time>
      </trkpt>
      <trkpt lat="47.2092" lon="-1.56585">
        <ele>6</ele>
        <time>2023-11-11T18:57:38Z</time>
      </trkpt>
      <trkpt lat="47.20911" lon="-1.56609">
        <ele>6</ele>
        <time>2023-11-11T18:58:03Z</time>
      </trkpt>
      <trkpt lat="47.209" lon="-1.56632">
        <ele>5</ele>
        <time>2023-11-11T18:58:28Z</time>
      </trkpt>
      <trkpt lat="47.20893" lon="-1.56658">
        <ele>5</ele>
        <time>2023-11-11T18:58:54Z</time>
      </trkpt>
      <trkpt lat="47.20883" lon="-1.56681">
        <ele>4</ele>
        <time>2023-11-11T18:59:18Z</time>
      </trkpt>
      <trkpt lat="47.20878" lon="-1.56708">
        <ele>4</ele>
        <time>2023-11-11T18:59:44Z</time>
      </trkpt>
      <trkpt lat="47.20862" lon="-1.56759">
        <ele>3</ele>
        <time>2023-11-11T19:00:35Z</time>
      </trkpt>
      <trkpt lat="47.20854" lon="-1.56783">
        <ele>3</ele>
        <time>2023-11-11T19:00:59Z</time>
      </trkpt>
      <trkpt lat="47.20842" lon="-1.56803">
        <ele>3</ele>
        <time>2023-11-11T19:01:23Z</time>
      </trkpt>
      <trkpt lat="47.20826" lon="-1.56853">
        <ele>3</ele>
        <time>2023-11-11T19:02:13Z</time>
      </trkpt>
      <trkpt lat="47.20811" lon="-1.56905">
        <ele>4</ele>
        <time>2023-11-11T19:03:04Z</time>
      </trkpt>
      <trkpt lat="47.20804" lon="-1.56931">
        <ele>4</ele>
        <time>2023-11-11T19:03:30Z</time>
      </trkpt>
      <trkpt lat="47.20796" lon="-1.56955">
        <ele>5</ele>
        <time>2023-11-11T19:03:54Z</time>
      </trkpt>
      <trkpt lat="47.20786" lon="-1.56978">
        <ele>5</ele>
        <time>2023-11-11T19:04:19Z</time>
      </trkpt>
      <trkpt lat="47.20777" lon="-1.57001">
        <ele>5</ele>
        <time>2023-11-11T19:04:43Z</time>
      </trkpt>
      <trkpt lat="47.20766" lon="-1.57024">
        <ele>4</ele>
        <time>2023-11-11T19:05:08Z</time>
      </trkpt>
      <trkpt lat="47.20746" lon="-1.5707">
        <ele>4</ele>
        <time>2023-11-11T19:05:58Z</time>
      </trkpt>
      <trkpt lat="47.20734" lon="-1.57093">
        <ele>4</ele>
        <time>2023-11-11T19:06:24Z</time>
      </trkpt>
      <trkpt lat="47.20724" lon="-1.57116">
        <ele>5</ele>
        <time>2023-11-11T19:06:49Z</time>
      </trkpt>
      <trkpt lat="47.20717" lon="-1.57141">
        <ele>5</ele>
        <time>2023-11-11T19:07:13Z</time>
      </trkpt>
      <trkpt lat="47.20705" lon="-1.57162">
        <ele>5</ele>
        <time>2023-11-11T19:07:38Z</time>
      </trkpt>
      <trkpt lat="47.2069" lon="-1.57179">
        <ele>4</ele>
        <time>2023-11-11T19:08:03Z</time>
      </trkpt>
      <trkpt lat="47.20675" lon="-1.57195">
        <ele>4</ele>
        <time>2023-11-11T19:08:28Z</time>
      </trkpt>
      <trkpt lat="47.20647" lon="-1.57232">
        <ele>4</ele>
        <time>2023-11-11T19:09:18Z</time>
      </trkpt>
      <trkpt lat="47.20617" lon="-1.57264">
        <ele>5</ele>
        <time>2023-11-11T19:10:08Z</time>
      </trkpt>
      <trkpt lat="47.20602" lon="-1.57281">
        <ele>6</ele>
        <time>2023-11-11T19:10:33Z</time>
      </trkpt>
      <trkpt lat="47.20585" lon="-1.57291">
        <ele>6</ele>
        <time>2023-11-11T19:10:58Z</time>
      </trkpt>
      <trkpt lat="47.2057" lon="-1.57306">
        <ele>6</ele>
        <time>2023-11-11T19:11:22Z</time>
      </trkpt>
      <trkpt lat="47.20556" lon="-1.5729">
        <ele>4</ele>
        <time>2023-11-11T19:11:45Z</time>
      </trkpt>
      <trkpt lat="47.20543" lon="-1.57271">
        <ele>3</ele>
        <time>2023-11-11T19:12:10Z</time>
      </trkpt>
      <trkpt lat="47.20524" lon="-1.57278">
        <ele>2</ele>
        <time>2023-11-11T19:12:36Z</time>
      </trkpt>
      <trkpt lat="47.20508" lon="-1.5729">
        <ele>1</ele>
        <time>2023-11-11T19:13:00Z</time>
      </trkpt>
      <trkpt lat="47.20477" lon="-1.5732">
        <time>2023-11-11T19:13:49Z</time>
      </trkpt>
      <trkpt lat="47.2046" lon="-1.57332">
        <time>2023-11-11T19:14:15Z</time>
      </trkpt>
      <trkpt lat="47.20426" lon="-1.5736">
        <time>2023-11-11T19:15:07Z</time>
      </trkpt>
      <trkpt lat="47.2041" lon="-1.57375">
        <time>2023-11-11T19:15:32Z</time>
      </trkpt>
      <trkpt lat="47.20374" lon="-1.57396">
        <time>2023-11-11T19:16:24Z</time>
      </trkpt>
      <trkpt lat="47.20338" lon="-1.57416">
        <time>2023-11-11T19:17:15Z</time>
      </trkpt>
      <trkpt lat="47.2032" lon="-1.57426">
        <time>2023-11-11T19:17:41Z</time>
      </trkpt>
      <trkpt lat="47.20302" lon="-1.57439">
        <ele>1</ele>
        <time>2023-11-11T19:18:07Z</time>
      </trkpt>
      <trkpt lat="47.20283" lon="-1.57454">
        <ele>1</ele>
        <time>2023-11-11T19:18:36Z</time>
      </trkpt>
      <trkpt lat="47.20247" lon="-1.57478">
        <ele>2</ele>
        <time>2023-11-11T19:19:29Z</time>
      </trkpt>
      <trkpt lat="47.20191" lon="-1.57518">
        <ele>3</ele>
        <time>2023-11-11T19:20:52Z</time>
      </trkpt>
      <trkpt lat="47.20172" lon="-1.5753">
        <ele>2</ele>
        <time>2023-11-11T19:21:20Z</time>
      </trkpt>
      <trkpt lat="47.20153" lon="-1.57542">
        <ele>2</ele>
        <time>2023-11-11T19:21:47Z</time>
      </trkpt>
      <trkpt lat="47.20115" lon="-1.57568">
        <ele>2</ele>
        <time>2023-11-11T19:22:43Z</time>
      </trkpt>
      <trkpt lat="47.20097" lon="-1.5758">
        <ele>2</ele>
        <time>2023-11-11T19:23:09Z</time>
      </trkpt>
      <trkpt lat="47.20057" lon="-1.57602">
        <ele>2</ele>
        <time>2023-11-11T19:24:06Z</time>
      </trkpt>
      <trkpt lat="47.20036" lon="-1.57615">
        <ele>2</ele>
        <time>2023-11-11T19:24:37Z</time>
      </trkpt>
      <trkpt lat="47.20017" lon="-1.57625">
        <ele>2</ele>
        <time>2023-11-11T19:25:04Z</time>
      </trkpt>
      <trkpt lat="47.19997" lon="-1.57638">
        <ele>2</ele>
        <time>2023-11-11T19:25:33Z</time>
      </trkpt>
      <trkpt lat="47.19979" lon="-1.57653">
        <ele>1</ele>
        <time>2023-11-11T19:26:00Z</time>
      </trkpt>
      <trkpt lat="47.19963" lon="-1.57671">
        <ele>1</ele>
        <time>2023-11-11T19:26:27Z</time>
      </trkpt>
      <trkpt lat="47.19947" lon="-1.57691">
        <ele>1</ele>
        <time>2023-11-11T19:26:55Z</time>
      </trkpt>
      <trkpt lat="47.19934" lon="-1.57711">
        <ele>1</ele>
        <time>2023-11-11T19:27:20Z</time>
      </trkpt>
      <trkpt lat="47.1992" lon="-1.57734">
        <time>2023-11-11T19:27:48Z</time>
      </trkpt>
      <trkpt lat="47.19892" lon="-1.57777">
        <ele>1</ele>
        <time>2023-11-11T19:28:42Z</time>
      </trkpt>
      <trkpt lat="47.19866" lon="-1.57823">
        <ele>1</ele>
        <time>2023-11-11T19:29:37Z</time>
      </trkpt>
      <trkpt lat="47.19852" lon="-1.57845">
        <ele>1</ele>
        <time>2023-11-11T19:30:04Z</time>
      </trkpt>
      <trkpt lat="47.19838" lon="-1.57869">
        <time>2023-11-11T19:30:33Z</time>
      </trkpt>
      <trkpt lat="47.19826" lon="-1.57893">
        <time>2023-11-11T19:31:00Z</time>
      </trkpt>
      <trkpt lat="47.19814" lon="-1.57917">
        <time>2023-11-11T19:31:27Z</time>
      </trkpt>
      <trkpt lat="47.19803" lon="-1.57942">
        <time>2023-11-11T19:31:54Z</time>
      </trkpt>
      <trkpt lat="47.19793" lon="-1.57968">
        <ele>1</ele>
        <time>2023-11-11T19:32:21Z</time>
      </trkpt>
      <trkpt lat="47.19781" lon="-1.57993">
        <ele>1</ele>
        <time>2023-11-11T19:32:49Z</time>
      </trkpt>
      <trkpt lat="47.19768" lon="-1.58017">
        <time>2023-11-11T19:33:16Z</time>
      </trkpt>
      <trkpt lat="47.19755" lon="-1.58039">
        <time>2023-11-11T19:33:43Z</time>
      </trkpt>
      <trkpt lat="47.19727" lon="-1.58082">
        <time>2023-11-11T19:34:37Z</time>
      </trkpt>
      <trkpt lat="47.1971" lon="-1.581">
        <time>2023-11-11T19:35:05Z</time>
      </trkpt>
      <trkpt lat="47.19692" lon="-1.58115">
        <time>2023-11-11T19:35:32Z</time>
      </trkpt>
      <trkpt lat="47.19674" lon="-1.58123">
        <time>2023-11-11T19:35:58Z</time>
      </trkpt>
      <trkpt lat="47.19655" lon="-1.5813">
        <time>2023-11-11T19:36:24Z</time>
      </trkpt>
      <trkpt lat="47.19635" lon="-1.58139">
        <time>2023-11-11T19:36:52Z</time>
      </trkpt>
      <trkpt lat="47.19618" lon="-1.5815">
        <ele>1</ele>
        <time>2023-11-11T19:37:16Z</time>
      </trkpt>
      <trkpt lat="47.19601" lon="-1.58166">
        <ele>1</ele>
        <time>2023-11-11T19:37:43Z</time>
      </trkpt>
      <trkpt lat="47.19587" lon="-1.58182">
        <ele>1</ele>
        <time>2023-11-11T19:38:07Z</time>
      </trkpt>
      <trkpt lat="47.19574" lon="-1.58203">
        <ele>1</ele>
        <time>2023-11-11T19:38:33Z</time>
      </trkpt>
      <trkpt lat="47.1956" lon="-1.58221">
        <ele>2</ele>
        <time>2023-11-11T19:38:58Z</time>
      </trkpt>
      <trkpt lat="47.19542" lon="-1.58227">
        <ele>3</ele>
        <time>2023-11-11T19:39:22Z</time>
      </trkpt>
      <trkpt lat="47.19524" lon="-1.58235">
        <ele>4</ele>
        <time>2023-11-11T19:39:47Z</time>
      </trkpt>
      <trkpt lat="47.19518" lon="-1.58261">
        <ele>4</ele>
        <time>2023-11-11T19:40:12Z</time>
      </trkpt>
      <trkpt lat="47.19508" lon="-1.58285">
        <ele>4</ele>
        <time>2023-11-11T19:40:38Z</time>
      </trkpt>
      <trkpt lat="47.19495" lon="-1.58303">
        <ele>3</ele>
        <time>2023-11-11T19:41:01Z</time>
      </trkpt>
      <trkpt lat="47.19485" lon="-1.58327">
        <ele>3</ele>
        <time>2023-11-11T19:41:27Z</time>
      </trkpt>
      <trkpt lat="47.19474" lon="-1.5835">
        <ele>3</ele>
        <time>2023-11-11T19:41:53Z</time>
      </trkpt>
      <trkpt lat="47.19453" lon="-1.58396">
        <ele>3</ele>
        <time>2023-11-11T19:42:43Z</time>
      </trkpt>
      <trkpt lat="47.19431" lon="-1.58441">
        <ele>3</ele>
        <time>2023-11-11T19:43:33Z</time>
      </trkpt>
      <trkpt lat="47.1942" lon="-1.58463">
        <ele>3</ele>
        <time>2023-11-11T19:43:58Z</time>
      </trkpt>
      <trkpt lat="47.19404" lon="-1.58479">
        <ele>4</ele>
        <time>2023-11-11T19:44:24Z</time>
      </trkpt>
      <trkpt lat="47.19391" lon="-1.58498">
        <ele>4</ele>
        <time>2023-11-11T19:44:48Z</time>
      </trkpt>
      <trkpt lat="47.1938" lon="-1.58521">
        <ele>4</ele>
        <time>2023-11-11T19:45:14Z</time>
      </trkpt>
      <trkpt lat="47.19371" lon="-1.58544">
        <ele>4</ele>
        <time>2023-11-11T19:45:38Z</time>
      </trkpt>
      <trkpt lat="47.19363" lon="-1.58569">
        <ele>4</ele>
        <time>2023-11-11T19:46:03Z</time>
      </trkpt>
      <trkpt lat="47.19353" lon="-1.58592">
        <ele>4</ele>
        <time>2023-11-11T19:46:27Z</time>
      </trkpt>
      <trkpt lat="47.19344" lon="-1.58616">
        <ele>5</ele>
        <time>2023-11-11T19:46:52Z</time>
      </trkpt>
      <trkpt lat="47.19326" lon="-1.58614">
        <ele>5</ele>
        <time>2023-11-11T19:47:16Z</time>
      </trkpt>
      <trkpt lat="47.19317" lon="-1.5859">
        <ele>5</ele>
        <time>2023-11-11T19:47:41Z</time>
      </trkpt>
      <trkpt lat="47.19297" lon="-1.58545">
        <ele>5</ele>
        <time>2023-11-11T19:48:30Z</time>
      </trkpt>
      <trkpt lat="47.19286" lon="-1.58523">
        <ele>5</ele>
        <time>2023-11-11T19:48:55Z</time>
      </trkpt>
      <trkpt lat="47.19269" lon="-1.58534">
        <ele>5</ele>
        <time>2023-11-11T19:49:20Z</time>
      </trkpt>
      <trkpt lat="47.19258" lon="-1.58556">
        <ele>5</ele>
        <time>2023-11-11T19:49:44Z</time>
      </trkpt>
      <trkpt lat="47.19244" lon="-1.58575">
        <ele>5</ele>
        <time>2023-11-11T19:50:10Z</time>
      </trkpt>
      <trkpt lat="47.19226" lon="-1.58569">
        <ele>5</ele>
        <time>2023-11-11T19:50:34Z</time>
      </trkpt>
      <trkpt lat="47.19209" lon="-1.58581">
        <ele>5</ele>
        <time>2023-11-11T19:51:00Z</time>
      </trkpt>
      <trkpt lat="47.19191" lon="-1.58578">
        <ele>5</ele>
        <time>2023-11-11T19:51:24Z</time>
      </trkpt>
      <trkpt lat="47.19171" lon="-1.58534">
        <ele>6</ele>
        <time>2023-11-11T19:52:12Z</time>
      </trkpt>
      <trkpt lat="47.19156" lon="-1.5852">
        <ele>6</ele>
        <time>2023-11-11T19:52:35Z</time>
      </trkpt>
      <trkpt lat="47.19137" lon="-1.58522">
        <ele>5</ele>
        <time>2023-11-11T19:53:01Z</time>
      </trkpt>
      <trkpt lat="47.19122" lon="-1.58506">
        <ele>5</ele>
        <time>2023-11-11T19:53:26Z</time>
      </trkpt>
      <trkpt lat="47.19105" lon="-1.58517">
        <ele>5</ele>
        <time>2023-11-11T19:53:50Z</time>
      </trkpt>
      <trkpt lat="47.19088" lon="-1.58531">
        <ele>5</ele>
        <time>2023-11-11T19:54:16Z</time>
      </trkpt>
      <trkpt lat="47.19072" lon="-1.58547">
        <ele>5</ele>
        <time>2023-11-11T19:54:42Z</time>
      </trkpt>
      <trkpt lat="47.19056" lon="-1.58561">
        <ele>6</ele>
        <time>2023-11-11T19:55:07Z</time>
      </trkpt>
      <trkpt lat="47.19038" lon="-1.58556">
        <ele>6</ele>
        <time>2023-11-11T19:55:31Z</time>
      </trkpt>
      <trkpt lat="47.19028" lon="-1.58533">
        <ele>6</ele>
        <time>2023-11-11T19:55:56Z</time>
      </trkpt>
      <trkpt lat="47.19021" lon="-1.58509">
        <ele>6</ele>
        <time>2023-11-11T19:56:20Z</time>
      </trkpt>
      <trkpt lat="47.19009" lon="-1.58488">
        <ele>6</ele>
        <time>2023-11-11T19:56:45Z</time>
      </trkpt>
      <trkpt lat="47.18999" lon="-1.58464">
        <ele>6</ele>
        <time>2023-11-11T19:57:10Z</time>
      </trkpt>
      <trkpt lat="47.1899" lon="-1.5844">
        <ele>6</ele>
        <time>2023-11-11T19:57:35Z</time>
      </trkpt>
      <trkpt lat="47.18979" lon="-1.58417">
        <ele>6</ele>
        <time>2023-11-11T19:58:01Z</time>
      </trkpt>
      <trkpt lat="47.18968" lon="-1.58395">
        <ele>5</ele>
        <time>2023-11-11T19:58:25Z</time>
      </trkpt>
      <trkpt lat="47.18959" lon="-1.58373">
        <ele>5</ele>
        <time>2023-11-11T19:58:49Z</time>
      </trkpt>
      <trkpt lat="47.18949" lon="-1.58349">
        <ele>4</ele>
        <time>2023-11-11T19:59:14Z</time>
      </trkpt>
      <trkpt lat="47.18945" lon="-1.58321">
        <ele>4</ele>
        <time>2023-11-11T19:59:40Z</time>
      </trkpt>
      <trkpt lat="47.18943" lon="-1.58295">
        <ele>5</ele>
        <time>2023-11-11T20:00:04Z</time>
      </trkpt>
      <trkpt lat="47.18947" lon="-1.58268">
        <ele>5</ele>
        <time>2023-11-11T20:00:29Z</time>
      </trkpt>
      <trkpt lat="47.18957" lon="-1.58246">
        <ele>5</ele>
        <time>2023-11-11T20:00:53Z</time>
      </trkpt>
      <trkpt lat="47.1897" lon="-1.58226">
        <ele>5</ele>
        <time>2023-11-11T20:01:18Z</time>
      </trkpt>
      <trkpt lat="47.18979" lon="-1.58203">
        <ele>5</ele>
        <time>2023-11-11T20:01:42Z</time>
      </trkpt>
      <trkpt lat="47.18986" lon="-1.58177">
        <ele>4</ele>
        <time>2023-11-11T20:02:08Z</time>
      </trkpt>
      <trkpt lat="47.18993" lon="-1.58152">
        <ele>4</ele>
        <time>2023-11-11T20:02:32Z</time>
      </trkpt>
      <trkpt lat="47.19002" lon="-1.58129">
        <ele>4</ele>
        <time>2023-11-11T20:02:56Z</time>
      </trkpt>
      <trkpt lat="47.19011" lon="-1.58104">
        <ele>4</ele>
        <time>2023-11-11T20:03:22Z</time>
      </trkpt>
      <trkpt lat="47.19018" lon="-1.5808">
        <ele>4</ele>
        <time>2023-11-11T20:03:45Z</time>
      </trkpt>
      <trkpt lat="47.19026" lon="-1.58056">
        <ele>4</ele>
        <time>2023-11-11T20:04:10Z</time>
      </trkpt>
      <trkpt lat="47.19035" lon="-1.5803">
        <ele>4</ele>
        <time>2023-11-11T20:04:36Z</time>
      </trkpt>
      <trkpt lat="47.19059" lon="-1.57957">
        <ele>4</ele>
        <time>2023-11-11T20:05:50Z</time>
      </trkpt>
      <trkpt lat="47.19067" lon="-1.57932">
        <ele>3</ele>
        <time>2023-11-11T20:06:15Z</time>
      </trkpt>
      <trkpt lat="47.19078" lon="-1.57909">
        <ele>3</ele>
        <time>2023-11-11T20:06:40Z</time>
      </trkpt>
      <trkpt lat="47.19088" lon="-1.57887">
        <ele>3</ele>
        <time>2023-11-11T20:07:04Z</time>
      </trkpt>
      <trkpt lat="47.19097" lon="-1.57863">
        <ele>3</ele>
        <time>2023-11-11T20:07:29Z</time>
      </trkpt>
      <trkpt lat="47.19106" lon="-1.57839">
        <ele>4</ele>
        <time>2023-11-11T20:07:54Z</time>
      </trkpt>
      <trkpt lat="47.19115" lon="-1.57814">
        <ele>4</ele>
        <time>2023-11-11T20:08:20Z</time>
      </trkpt>
      <trkpt lat="47.19124" lon="-1.5779">
        <ele>4</ele>
        <time>2023-11-11T20:08:44Z</time>
      </trkpt>
      <trkpt lat="47.19135" lon="-1.57768">
        <ele>5</ele>
        <time>2023-11-11T20:09:09Z</time>
      </trkpt>
      <trkpt lat="47.19145" lon="-1.57745">
        <ele>5</ele>
        <time>2023-11-11T20:09:34Z</time>
      </trkpt>
      <trkpt lat="47.19154" lon="-1.57722">
        <ele>5</ele>
        <time>2023-11-11T20:09:58Z</time>
      </trkpt>
      <trkpt lat="47.19163" lon="-1.57698">
        <ele>6</ele>
        <time>2023-11-11T20:10:23Z</time>
      </trkpt>
      <trkpt lat="47.19172" lon="-1.57672">
        <ele>6</ele>
        <time>2023-11-11T20:10:49Z</time>
      </trkpt>
      <trkpt lat="47.1918" lon="-1.57647">
        <ele>6</ele>
        <time>2023-11-11T20:11:14Z</time>
      </trkpt>
      <trkpt lat="47.19184" lon="-1.57621">
        <ele>7</ele>
        <time>2023-11-11T20:11:39Z</time>
      </trkpt>
      <trkpt lat="47.19192" lon="-1.57596">
        <ele>7</ele>
        <time>2023-11-11T20:12:04Z</time>
      </trkpt>
      <trkpt lat="47.192" lon="-1.57571">
        <ele>7</ele>
        <time>2023-11-11T20:12:29Z</time>
      </trkpt>
      <trkpt lat="47.1921" lon="-1.57547">
        <ele>7</ele>
        <time>2023-11-11T20:12:54Z</time>
      </trkpt>
      <trkpt lat="47.1921" lon="-1.5752">
        <ele>7</ele>
        <time>2023-11-11T20:13:19Z</time>
      </trkpt>
      <trkpt lat="47.19218" lon="-1.57496">
        <ele>7</ele>
        <time>2023-11-11T20:13:43Z</time>
      </trkpt>
      <trkpt lat="47.19227" lon="-1.57471">
        <ele>7</ele>
        <time>2023-11-11T20:14:09Z</time>
      </trkpt>
      <trkpt lat="47.19236" lon="-1.57448">
        <ele>7</ele>
        <time>2023-11-11T20:14:33Z</time>
      </trkpt>
      <trkpt lat="47.19251" lon="-1.57398">
        <ele>7</ele>
        <time>2023-11-11T20:15:22Z</time>
      </trkpt>
      <trkpt lat="47.1926" lon="-1.57374">
        <ele>8</ele>
        <time>2023-11-11T20:15:47Z</time>
      </trkpt>
      <trkpt lat="47.19269" lon="-1.5735">
        <ele>8</ele>
        <time>2023-11-11T20:16:12Z</time>
      </trkpt>
      <trkpt lat="47.19278" lon="-1.57325">
        <ele>8</ele>
        <time>2023-11-11T20:16:38Z</time>
      </trkpt>
      <trkpt lat="47.19285" lon="-1.573">
        <ele>8</ele>
        <time>2023-11-11T20:17:02Z</time>
      </trkpt>
      <trkpt lat="47.19292" lon="-1.57276">
        <ele>8</ele>
        <time>2023-11-11T20:17:26Z</time>
      </trkpt>
      <trkpt lat="47.19299" lon="-1.5725">
        <ele>9</ele>
        <time>2023-11-11T20:17:51Z</time>
      </trkpt>
      <trkpt lat="47.19306" lon="-1.57224">
        <ele>9</ele>
        <time>2023-11-11T20:18:17Z</time>
      </trkpt>
      <trkpt lat="47.19311" lon="-1.57198">
        <ele>9</ele>
        <time>2023-11-11T20:18:41Z</time>
      </trkpt>
      <trkpt lat="47.19317" lon="-1.57172">
        <ele>10</ele>
        <time>2023-11-11T20:19:06Z</time>
      </trkpt>
      <trkpt lat="47.19322" lon="-1.57146">
        <ele>9</ele>
        <time>2023-11-11T20:19:30Z</time>
      </trkpt>
      <trkpt lat="47.19326" lon="-1.5712">
        <ele>9</ele>
        <time>2023-11-11T20:19:55Z</time>
      </trkpt>
      <trkpt lat="47.19333" lon="-1.57094">
        <ele>8</ele>
        <time>2023-11-11T20:20:20Z</time>
      </trkpt>
      <trkpt lat="47.19348" lon="-1.5708">
        <ele>8</ele>
        <time>2023-11-11T20:20:44Z</time>
      </trkpt>
      <trkpt lat="47.19367" lon="-1.57082">
        <ele>7</ele>
        <time>2023-11-11T20:21:09Z</time>
      </trkpt>
      <trkpt lat="47.19404" lon="-1.57091">
        <ele>7</ele>
        <time>2023-11-11T20:21:59Z</time>
      </trkpt>
      <trkpt lat="47.19422" lon="-1.57094">
        <ele>6</ele>
        <time>2023-11-11T20:22:23Z</time>
      </trkpt>
      <trkpt lat="47.19439" lon="-1.571">
        <ele>7</ele>
        <time>2023-11-11T20:22:47Z</time>
      </trkpt>
      <trkpt lat="47.19454" lon="-1.57118">
        <ele>7</ele>
        <time>2023-11-11T20:23:13Z</time>
      </trkpt>
      <trkpt lat="47.19473" lon="-1.5711">
        <ele>7</ele>
        <time>2023-11-11T20:23:39Z</time>
      </trkpt>
      <trkpt lat="47.19491" lon="-1.57108">
        <ele>7</ele>
        <time>2023-11-11T20:24:03Z</time>
      </trkpt>
      <trkpt lat="47.19509" lon="-1.57114">
        <ele>7</ele>
        <time>2023-11-11T20:24:28Z</time>
      </trkpt>
      <trkpt lat="47.19528" lon="-1.57118">
        <ele>7</ele>
        <time>2023-11-11T20:24:53Z</time>
      </trkpt>
      <trkpt lat="47.19546" lon="-1.57125">
        <ele>7</ele>
        <time>2023-11-11T20:25:18Z</time>
      </trkpt>
      <trkpt lat="47.19564" lon="-1.5713">
        <ele>7</ele>
        <time>2023-11-11T20:25:43Z</time>
      </trkpt>
      <trkpt lat="47.19583" lon="-1.57132">
        <ele>7</ele>
        <time>2023-11-11T20:26:08Z</time>
      </trkpt>
      <trkpt lat="47.19598" lon="-1.57149">
        <ele>7</ele>
        <time>2023-11-11T20:26:33Z</time>
      </trkpt>
      <trkpt lat="47.19598" lon="-1.57177">
        <ele>7</ele>
        <time>2023-11-11T20:26:59Z</time>
      </trkpt>
      <trkpt lat="47.19595" lon="-1.57203">
        <ele>7</ele>
        <time>2023-11-11T20:27:23Z</time>
      </trkpt>
      <trkpt lat="47.19611" lon="-1.57214">
        <ele>7</ele>
        <time>2023-11-11T20:27:46Z</time>
      </trkpt>
      <trkpt lat="47.19631" lon="-1.57222">
        <ele>7</ele>
        <time>2023-11-11T20:28:14Z</time>
      </trkpt>
      <trkpt lat="47.19647" lon="-1.57233">
        <ele>7</ele>
        <time>2023-11-11T20:28:37Z</time>
      </trkpt>
      <trkpt lat="47.19666" lon="-1.57237">
        <ele>6</ele>
        <time>2023-11-11T20:29:03Z</time>
      </trkpt>
      <trkpt lat="47.1967" lon="-1.57263">
        <ele>5</ele>
        <time>2023-11-11T20:29:27Z</time>
      </trkpt>
      <trkpt lat="47.19665" lon="-1.57291">
        <ele>5</ele>
        <time>2023-11-11T20:29:53Z</time>
      </trkpt>
      <trkpt lat="47.19663" lon="-1.57318">
        <ele>4</ele>
        <time>2023-11-11T20:30:18Z</time>
      </trkpt>
      <trkpt lat="47.19661" lon="-1.57346">
        <ele>4</ele>
        <time>2023-11-11T20:30:43Z</time>
      </trkpt>
      <trkpt lat="47.19659" lon="-1.57372">
        <ele>4</ele>
        <time>2023-11-11T20:31:07Z</time>
      </trkpt>
      <trkpt lat="47.1966" lon="-1.57399">
        <ele>4</ele>
        <time>2023-11-11T20:31:32Z</time>
      </trkpt>
      <trkpt lat="47.19653" lon="-1.57423">
        <ele>4</ele>
        <time>2023-11-11T20:31:55Z</time>
      </trkpt>
      <trkpt lat="47.19643" lon="-1.57476">
        <ele>5</ele>
        <time>2023-11-11T20:32:45Z</time>
      </trkpt>
      <trkpt lat="47.19638" lon="-1.57502">
        <ele>5</ele>
        <time>2023-11-11T20:33:10Z</time>
      </trkpt>
      <trkpt lat="47.19638" lon="-1.57529">
        <ele>4</ele>
        <time>2023-11-11T20:33:34Z</time>
      </trkpt>
      <trkpt lat="47.19634" lon="-1.57555">
        <ele>4</ele>
        <time>2023-11-11T20:33:58Z</time>
      </trkpt>
      <trkpt lat="47.19633" lon="-1.57582">
        <ele>3</ele>
        <time>2023-11-11T20:34:23Z</time>
      </trkpt>
      <trkpt lat="47.19625" lon="-1.57607">
        <ele>4</ele>
        <time>2023-11-11T20:34:48Z</time>
      </trkpt>
      <trkpt lat="47.19616" lon="-1.5763">
        <ele>4</ele>
        <time>2023-11-11T20:35:12Z</time>
      </trkpt>
      <trkpt lat="47.19609" lon="-1.57655">
        <ele>5</ele>
        <time>2023-11-11T20:35:37Z</time>
      </trkpt>
      <trkpt lat="47.19597" lon="-1.57675">
        <ele>5</ele>
        <time>2023-11-11T20:36:01Z</time>
      </trkpt>
      <trkpt lat="47.19562" lon="-1.57661">
        <ele>6</ele>
        <time>2023-11-11T20:36:49Z</time>
      </trkpt>
      <trkpt lat="47.19544" lon="-1.57653">
        <ele>6</ele>
        <time>2023-11-11T20:37:14Z</time>
      </trkpt>
      <trkpt lat="47.19527" lon="-1.57664">
        <ele>5</ele>
        <time>2023-11-11T20:37:39Z</time>
      </trkpt>
      <trkpt lat="47.19521" lon="-1.5769">
        <ele>5</ele>
        <time>2023-11-11T20:38:04Z</time>
      </trkpt>
      <trkpt lat="47.19513" lon="-1.57714">
        <ele>5</ele>
        <time>2023-11-11T20:38:28Z</time>
      </trkpt>
      <trkpt lat="47.19501" lon="-1.57735">
        <ele>5</ele>
        <time>2023-11-11T20:38:53Z</time>
      </trkpt>
      <trkpt lat="47.19498" lon="-1.57763">
        <ele>5</ele>
        <time>2023-11-11T20:39:19Z</time>
      </trkpt>
      <trkpt lat="47.19492" lon="-1.57789">
        <ele>5</ele>
        <time>2023-11-11T20:39:44Z</time>
      </trkpt>
      <trkpt lat="47.19487" lon="-1.57816">
        <ele>5</ele>
        <time>2023-11-11T20:40:09Z</time>
      </trkpt>
      <trkpt lat="47.19484" lon="-1.57842">
        <ele>5</ele>
        <time>2023-11-11T20:40:33Z</time>
      </trkpt>
      <trkpt lat="47.19486" lon="-1.5787">
        <ele>4</ele>
        <time>2023-11-11T20:40:59Z</time>
      </trkpt>
      <trkpt lat="47.19493" lon="-1.57895">
        <ele>4</ele>
        <time>2023-11-11T20:41:23Z</time>
      </trkpt>
      <trkpt lat="47.19498" lon="-1.57922">
        <ele>3</ele>
        <time>2023-11-11T20:41:48Z</time>
      </trkpt>
      <trkpt lat="47.19504" lon="-1.57947">
        <ele>3</ele>
        <time>2023-11-11T20:42:12Z</time>
      </trkpt>
      <trkpt lat="47.19509" lon="-1.57974">
        <ele>3</ele>
        <time>2023-11-11T20:42:38Z</time>
      </trkpt>
      <trkpt lat="47.19513" lon="-1.58001">
        <ele>3</ele>
        <time>2023-11-11T20:43:03Z</time>
      </trkpt>
      <trkpt lat="47.19524" lon="-1.58053">
        <ele>3</ele>
        <time>2023-11-11T20:43:52Z</time>
      </trkpt>
      <trkpt lat="47.19529" lon="-1.58079">
        <ele>3</ele>
        <time>2023-11-11T20:44:17Z</time>
      </trkpt>
      <trkpt lat="47.19531" lon="-1.58106">
        <ele>3</ele>
        <time>2023-11-11T20:44:41Z</time>
      </trkpt>
      <trkpt lat="47.19527" lon="-1.58134">
        <ele>4</ele>
        <time>2023-11-11T20:45:07Z</time>
      </trkpt>
      <trkpt lat="47.19526" lon="-1.58162">
        <ele>4</ele>
        <time>2023-11-11T20:45:33Z</time>
      </trkpt>
      <trkpt lat="47.19527" lon="-1.58189">
        <ele>4</ele>
        <time>2023-11-11T20:45:57Z</time>
      </trkpt>
      <trkpt lat="47.19524" lon="-1.58216">
        <ele>4</ele>
        <time>2023-11-11T20:46:22Z</time>
      </trkpt>
      <trkpt lat="47.19523" lon="-1.58244">
        <ele>4</ele>
        <time>2023-11-11T20:46:48Z</time>
      </trkpt>
      <trkpt lat="47.19505" lon="-1.58253">
        <ele>5</ele>
        <time>2023-11-11T20:47:13Z</time>
      </trkpt>
      <trkpt lat="47.19491" lon="-1.58238">
        <ele>6</ele>
        <time>2023-11-11T20:47:36Z</time>
      </trkpt>
      <trkpt lat="47.19477" lon="-1.58219">
        <ele>6</ele>
        <time>2023-11-11T20:48:01Z</time>
      </trkpt>
      <trkpt lat="47.19472" lon="-1.58194">
        <ele>6</ele>
        <time>2023-11-11T20:48:25Z</time>
      </trkpt>
      <trkpt lat="47.19479" lon="-1.5817">
        <ele>6</ele>
        <time>2023-11-11T20:48:49Z</time>
      </trkpt>
      <trkpt lat="47.1949" lon="-1.58149">
        <ele>6</ele>
        <time>2023-11-11T20:49:13Z</time>
      </trkpt>
      <trkpt lat="47.19503" lon="-1.58128">
        <ele>5</ele>
        <time>2023-11-11T20:49:39Z</time>
      </trkpt>
      <trkpt lat="47.1951" lon="-1.58103">
        <ele>4</ele>
        <time>2023-11-11T20:50:03Z</time>
      </trkpt>
      <trkpt lat="47.19507" lon="-1.58075">
        <ele>4</ele>
        <time>2023-11-11T20:50:29Z</time>
      </trkpt>
      <trkpt lat="47.19495" lon="-1.58054">
        <ele>4</ele>
        <time>2023-11-11T20:50:54Z</time>
      </trkpt>
      <trkpt lat="47.19503" lon="-1.5803">
        <ele>4</ele>
        <time>2023-11-11T20:51:18Z</time>
      </trkpt>
      <trkpt lat="47.1951" lon="-1.58004">
        <ele>4</ele>
        <time>2023-11-11T20:51:43Z</time>
      </trkpt>
      <trkpt lat="47.19509" lon="-1.57977">
        <ele>3</ele>
        <time>2023-11-11T20:52:08Z</time>
      </trkpt>
      <trkpt lat="47.19504" lon="-1.57952">
        <ele>3</ele>
        <time>2023-11-11T20:52:31Z</time>
      </trkpt>
      <trkpt lat="47.19493" lon="-1.579">
        <ele>4</ele>
        <time>2023-11-11T20:53:21Z</time>
      </trkpt>
      <trkpt lat="47.19486" lon="-1.57873">
        <ele>4</ele>
        <time>2023-11-11T20:53:47Z</time>
      </trkpt>
      <trkpt lat="47.19482" lon="-1.57847">
        <ele>5</ele>
        <time>2023-11-11T20:54:11Z</time>
      </trkpt>
      <trkpt lat="47.19486" lon="-1.57819">
        <ele>5</ele>
        <time>2023-11-11T20:54:37Z</time>
      </trkpt>
      <trkpt lat="47.19491" lon="-1.57793">
        <ele>5</ele>
        <time>2023-11-11T20:55:02Z</time>
      </trkpt>
      <trkpt lat="47.19497" lon="-1.57766">
        <ele>5</ele>
        <time>2023-11-11T20:55:27Z</time>
      </trkpt>
      <trkpt lat="47.19507" lon="-1.57714">
        <ele>5</ele>
        <time>2023-11-11T20:56:16Z</time>
      </trkpt>
      <trkpt lat="47.19519" lon="-1.57693">
        <ele>5</ele>
        <time>2023-11-11T20:56:41Z</time>
      </trkpt>
      <trkpt lat="47.19526" lon="-1.57667">
        <ele>5</ele>
        <time>2023-11-11T20:57:07Z</time>
      </trkpt>
      <trkpt lat="47.19541" lon="-1.57652">
        <ele>6</ele>
        <time>2023-11-11T20:57:31Z</time>
      </trkpt>
      <trkpt lat="47.19559" lon="-1.57663">
        <ele>6</ele>
        <time>2023-11-11T20:57:57Z</time>
      </trkpt>
      <trkpt lat="47.19578" lon="-1.5767">
        <ele>6</ele>
        <time>2023-11-11T20:58:23Z</time>
      </trkpt>
      <trkpt lat="47.19596" lon="-1.57676">
        <ele>5</ele>
        <time>2023-11-11T20:58:48Z</time>
      </trkpt>
      <trkpt lat="47.1961" lon="-1.57656">
        <ele>4</ele>
        <time>2023-11-11T20:59:14Z</time>
      </trkpt>
      <trkpt lat="47.19625" lon="-1.57608">
        <ele>4</ele>
        <time>2023-11-11T21:00:02Z</time>
      </trkpt>
      <trkpt lat="47.19631" lon="-1.57582">
        <ele>4</ele>
        <time>2023-11-11T21:00:26Z</time>
      </trkpt>
      <trkpt lat="47.19633" lon="-1.57555">
        <ele>4</ele>
        <time>2023-11-11T21:00:51Z</time>
      </trkpt>
      <trkpt lat="47.19636" lon="-1.57528">
        <ele>4</ele>
        <time>2023-11-11T21:01:16Z</time>
      </trkpt>
      <trkpt lat="47.19641" lon="-1.57502">
        <ele>5</ele>
        <time>2023-11-11T21:01:40Z</time>
      </trkpt>
      <trkpt lat="47.19642" lon="-1.57476">
        <ele>5</ele>
        <time>2023-11-11T21:02:04Z</time>
      </trkpt>
      <trkpt lat="47.19652" lon="-1.57423">
        <ele>4</ele>
        <time>2023-11-11T21:02:54Z</time>
      </trkpt>
      <trkpt lat="47.1966" lon="-1.57398">
        <ele>4</ele>
        <time>2023-11-11T21:03:19Z</time>
      </trkpt>
      <trkpt lat="47.19659" lon="-1.57372">
        <ele>4</ele>
        <time>2023-11-11T21:03:43Z</time>
      </trkpt>
      <trkpt lat="47.19661" lon="-1.57344">
        <ele>4</ele>
        <time>2023-11-11T21:04:08Z</time>
      </trkpt>
      <trkpt lat="47.19661" lon="-1.57316">
        <ele>5</ele>
        <time>2023-11-11T21:04:33Z</time>
      </trkpt>
      <trkpt lat="47.19665" lon="-1.5729">
        <ele>5</ele>
        <time>2023-11-11T21:04:58Z</time>
      </trkpt>
      <trkpt lat="47.19668" lon="-1.57263">
        <ele>6</ele>
        <time>2023-11-11T21:05:22Z</time>
      </trkpt>
      <trkpt lat="47.19657" lon="-1.5724">
        <ele>6</ele>
        <time>2023-11-11T21:05:48Z</time>
      </trkpt>
      <trkpt lat="47.19641" lon="-1.57226">
        <ele>7</ele>
        <time>2023-11-11T21:06:13Z</time>
      </trkpt>
      <trkpt lat="47.19624" lon="-1.57216">
        <ele>7</ele>
        <time>2023-11-11T21:06:37Z</time>
      </trkpt>
      <trkpt lat="47.19606" lon="-1.57206">
        <ele>7</ele>
        <time>2023-11-11T21:07:03Z</time>
      </trkpt>
      <trkpt lat="47.19596" lon="-1.57184">
        <ele>7</ele>
        <time>2023-11-11T21:07:27Z</time>
      </trkpt>
      <trkpt lat="47.19596" lon="-1.57157">
        <ele>7</ele>
        <time>2023-11-11T21:07:51Z</time>
      </trkpt>
      <trkpt lat="47.19598" lon="-1.57129">
        <ele>7</ele>
        <time>2023-11-11T21:08:17Z</time>
      </trkpt>
      <trkpt lat="47.196" lon="-1.57101">
        <ele>7</ele>
        <time>2023-11-11T21:08:42Z</time>
      </trkpt>
      <trkpt lat="47.19602" lon="-1.57075">
        <ele>7</ele>
        <time>2023-11-11T21:09:06Z</time>
      </trkpt>
      <trkpt lat="47.19601" lon="-1.57046">
        <ele>7</ele>
        <time>2023-11-11T21:09:32Z</time>
      </trkpt>
      <trkpt lat="47.19603" lon="-1.57019">
        <ele>7</ele>
        <time>2023-11-11T21:09:57Z</time>
      </trkpt>
      <trkpt lat="47.19602" lon="-1.56993">
        <ele>6</ele>
        <time>2023-11-11T21:10:21Z</time>
      </trkpt>
      <trkpt lat="47.19607" lon="-1.56967">
        <ele>6</ele>
        <time>2023-11-11T21:10:45Z</time>
      </trkpt>
      <trkpt lat="47.19611" lon="-1.5694">
        <ele>5</ele>
        <time>2023-11-11T21:11:10Z</time>
      </trkpt>
      <trkpt lat="47.19614" lon="-1.56914">
        <ele>5</ele>
        <time>2023-11-11T21:11:34Z</time>
      </trkpt>
      <trkpt lat="47.19614" lon="-1.56887">
        <ele>5</ele>
        <time>2023-11-11T21:11:59Z</time>
      </trkpt>
      <trkpt lat="47.19617" lon="-1.56859">
        <ele>5</ele>
        <time>2023-11-11T21:12:24Z</time>
      </trkpt>
      <trkpt lat="47.19618" lon="-1.56831">
        <ele>5</ele>
        <time>2023-11-11T21:12:50Z</time>
      </trkpt>
      <trkpt lat="47.19619" lon="-1.56805">
        <ele>5</ele>
        <time>2023-11-11T21:13:13Z</time>
      </trkpt>
      <trkpt lat="47.19621" lon="-1.56778">
        <ele>5</ele>
        <time>2023-11-11T21:13:38Z</time>
      </trkpt>
      <trkpt lat="47.19623" lon="-1.56723">
        <ele>5</ele>
        <time>2023-11-11T21:14:28Z</time>
      </trkpt>
      <trkpt lat="47.19626" lon="-1.56697">
        <ele>5</ele>
        <time>2023-11-11T21:14:52Z</time>
      </trkpt>
      <trkpt lat="47.19631" lon="-1.56643">
        <ele>5</ele>
        <time>2023-11-11T21:15:41Z</time>
      </trkpt>
      <trkpt lat="47.19635" lon="-1.56587">
        <ele>6</ele>
        <time>2023-11-11T21:16:32Z</time>
      </trkpt>
      <trkpt lat="47.19637" lon="-1.5656">
        <ele>6</ele>
        <time>2023-11-11T21:16:57Z</time>
      </trkpt>
      <trkpt lat="47.19638" lon="-1.56533">
        <ele>6</ele>
        <time>2023-11-11T21:17:21Z</time>
      </trkpt>
      <trkpt lat="47.19637" lon="-1.56505">
        <ele>6</ele>
        <time>2023-11-11T21:17:47Z</time>
      </trkpt>
      <trkpt lat="47.19636" lon="-1.56478">
        <ele>6</ele>
        <time>2023-11-11T21:18:11Z</time>
      </trkpt>
      <trkpt lat="47.19636" lon="-1.5645">
        <ele>6</ele>
        <time>2023-11-11T21:18:37Z</time>
      </trkpt>
      <trkpt lat="47.19632" lon="-1.56424">
        <ele>6</ele>
        <time>2023-11-11T21:19:01Z</time>
      </trkpt>
      <trkpt lat="47.19629" lon="-1.5637">
        <ele>6</ele>
        <time>2023-11-11T21:19:50Z</time>
      </trkpt>
      <trkpt lat="47.19629" lon="-1.56344">
        <ele>6</ele>
        <time>2023-11-11T21:20:14Z</time>
      </trkpt>
      <trkpt lat="47.19634" lon="-1.56318">
        <ele>5</ele>
        <time>2023-11-11T21:20:38Z</time>
      </trkpt>
      <trkpt lat="47.19636" lon="-1.56291">
        <ele>5</ele>
        <time>2023-11-11T21:21:03Z</time>
      </trkpt>
      <trkpt lat="47.19636" lon="-1.56264">
        <ele>4</ele>
        <time>2023-11-11T21:21:27Z</time>
      </trkpt>
      <trkpt lat="47.19629" lon="-1.5624">
        <ele>4</ele>
        <time>2023-11-11T21:21:51Z</time>
      </trkpt>
      <trkpt lat="47.1961" lon="-1.56238">
        <ele>4</ele>
        <time>2023-11-11T21:22:16Z</time>
      </trkpt>
      <trkpt lat="47.19592" lon="-1.5624">
        <ele>5</ele>
        <time>2023-11-11T21:22:41Z</time>
      </trkpt>
      <trkpt lat="47.19579" lon="-1.5622">
        <ele>5</ele>
        <time>2023-11-11T21:23:06Z</time>
      </trkpt>
      <trkpt lat="47.19597" lon="-1.56212">
        <ele>5</ele>
        <time>2023-11-11T21:23:31Z</time>
      </trkpt>
      <trkpt lat="47.19616" lon="-1.56208">
        <ele>5</ele>
        <time>2023-11-11T21:23:56Z</time>
      </trkpt>
      <trkpt lat="47.19632" lon="-1.56194">
        <ele>5</ele>
        <time>2023-11-11T21:24:21Z</time>
      </trkpt>
      <trkpt lat="47.19634" lon="-1.56167">
        <ele>5</ele>
        <time>2023-11-11T21:24:46Z</time>
      </trkpt>
      <trkpt lat="47.19635" lon="-1.5614">
        <ele>5</ele>
        <time>2023-11-11T21:25:10Z</time>
      </trkpt>
      <trkpt lat="47.1964" lon="-1.56086">
        <ele>5</ele>
        <time>2023-11-11T21:26:00Z</time>
      </trkpt>
      <trkpt lat="47.1964" lon="-1.56059">
        <ele>5</ele>
        <time>2023-11-11T21:26:24Z</time>
      </trkpt>
      <trkpt lat="47.19651" lon="-1.56037">
        <ele>4</ele>
        <time>2023-11-11T21:26:49Z</time>
      </trkpt>
      <trkpt lat="47.19653" lon="-1.5601">
        <ele>4</ele>
        <time>2023-11-11T21:27:14Z</time>
      </trkpt>
      <trkpt lat="47.19655" lon="-1.55982">
        <ele>4</ele>
        <time>2023-11-11T21:27:39Z</time>
      </trkpt>
      <trkpt lat="47.19655" lon="-1.55955">
        <ele>4</ele>
        <time>2023-11-11T21:28:04Z</time>
      </trkpt>
      <trkpt lat="47.19657" lon="-1.55928">
        <ele>4</ele>
        <time>2023-11-11T21:28:28Z</time>
      </trkpt>
      <trkpt lat="47.19659" lon="-1.559">
        <ele>4</ele>
        <time>2023-11-11T21:28:54Z</time>
      </trkpt>
      <trkpt lat="47.19661" lon="-1.55874">
        <ele>5</ele>
        <time>2023-11-11T21:29:17Z</time>
      </trkpt>
      <trkpt lat="47.19661" lon="-1.55846">
        <ele>6</ele>
        <time>2023-11-11T21:29:43Z</time>
      </trkpt>
      <trkpt lat="47.19669" lon="-1.55822">
        <ele>6</ele>
        <time>2023-11-11T21:30:07Z</time>
      </trkpt>
      <trkpt lat="47.19678" lon="-1.55799">
        <ele>5</ele>
        <time>2023-11-11T21:30:31Z</time>
      </trkpt>
      <trkpt lat="47.19674" lon="-1.55772">
        <ele>5</ele>
        <time>2023-11-11T21:30:56Z</time>
      </trkpt>
      <trkpt lat="47.19662" lon="-1.55752">
        <ele>5</ele>
        <time>2023-11-11T21:31:20Z</time>
      </trkpt>
      <trkpt lat="47.19655" lon="-1.55727">
        <ele>5</ele>
        <time>2023-11-11T21:31:45Z</time>
      </trkpt>
      <trkpt lat="47.19649" lon="-1.557">
        <ele>5</ele>
        <time>2023-11-11T21:32:11Z</time>
      </trkpt>
      <trkpt lat="47.19643" lon="-1.55675">
        <ele>5</ele>
        <time>2023-11-11T21:32:35Z</time>
      </trkpt>
      <trkpt lat="47.19638" lon="-1.55648">
        <ele>5</ele>
        <time>2023-11-11T21:33:00Z</time>
      </trkpt>
      <trkpt lat="47.19626" lon="-1.55597">
        <ele>5</ele>
        <time>2023-11-11T21:33:49Z</time>
      </trkpt>
      <trkpt lat="47.19621" lon="-1.55571">
        <ele>4</ele>
        <time>2023-11-11T21:34:14Z</time>
      </trkpt>
      <trkpt lat="47.19638" lon="-1.55561">
        <ele>4</ele>
        <time>2023-11-11T21:34:38Z</time>
      </trkpt>
      <trkpt lat="47.19657" lon="-1.55565">
        <ele>4</ele>
        <time>2023-11-11T21:35:04Z</time>
      </trkpt>
      <trkpt lat="47.19673" lon="-1.55551">
        <ele>3</ele>
        <time>2023-11-11T21:35:28Z</time>
      </trkpt>
      <trkpt lat="47.19687" lon="-1.55534">
        <ele>2</ele>
        <time>2023-11-11T21:35:53Z</time>
      </trkpt>
      <trkpt lat="47.19681" lon="-1.55507">
        <ele>2</ele>
        <time>2023-11-11T21:36:18Z</time>
      </trkpt>
      <trkpt lat="47.19664" lon="-1.55497">
        <ele>2</ele>
        <time>2023-11-11T21:36:43Z</time>
      </trkpt>
      <trkpt lat="47.19645" lon="-1.55498">
        <ele>3</ele>
        <time>2023-11-11T21:37:08Z</time>
      </trkpt>
      <trkpt lat="47.19629" lon="-1.55511">
        <ele>4</ele>
        <time>2023-11-11T21:37:33Z</time>
      </trkpt>
      <trkpt lat="47.19611" lon="-1.55514">
        <ele>4</ele>
        <time>2023-11-11T21:37:57Z</time>
      </trkpt>
      <trkpt lat="47.19608" lon="-1.55487">
        <ele>4</ele>
        <time>2023-11-11T21:38:22Z</time>
      </trkpt>
      <trkpt lat="47.19603" lon="-1.5546">
        <ele>5</ele>
        <time>2023-11-11T21:38:47Z</time>
      </trkpt>
      <trkpt lat="47.19594" lon="-1.55406">
        <ele>6</ele>
        <time>2023-11-11T21:39:37Z</time>
      </trkpt>
      <trkpt lat="47.19592" lon="-1.55379">
        <ele>7</ele>
        <time>2023-11-11T21:40:02Z</time>
      </trkpt>
      <trkpt lat="47.19591" lon="-1.55351">
        <ele>7</ele>
        <time>2023-11-11T21:40:27Z</time>
      </trkpt>
      <trkpt lat="47.19605" lon="-1.55332">
        <ele>6</ele>
        <time>2023-11-11T21:40:53Z</time>
      </trkpt>
      <trkpt lat="47.19613" lon="-1.55308">
        <ele>5</ele>
        <time>2023-11-11T21:41:17Z</time>
      </trkpt>
      <trkpt lat="47.1963" lon="-1.55292">
        <ele>5</ele>
        <time>2023-11-11T21:41:44Z</time>
      </trkpt>
      <trkpt lat="47.19649" lon="-1.55291">
        <ele>4</ele>
        <time>2023-11-11T21:42:09Z</time>
      </trkpt>
      <trkpt lat="47.19659" lon="-1.55268">
        <ele>3</ele>
        <time>2023-11-11T21:42:34Z</time>
      </trkpt>
      <trkpt lat="47.19663" lon="-1.55242">
        <ele>3</ele>
        <time>2023-11-11T21:42:58Z</time>
      </trkpt>
      <trkpt lat="47.1968" lon="-1.55232">
        <ele>3</ele>
        <time>2023-11-11T21:43:23Z</time>
      </trkpt>
      <trkpt lat="47.19682" lon="-1.55205">
        <ele>3</ele>
        <time>2023-11-11T21:43:47Z</time>
      </trkpt>
      <trkpt lat="47.1968" lon="-1.55178">
        <ele>3</ele>
        <time>2023-11-11T21:44:12Z</time>
      </trkpt>
      <trkpt lat="47.19678" lon="-1.55151">
        <ele>4</ele>
        <time>2023-11-11T21:44:37Z</time>
      </trkpt>
      <trkpt lat="47.19678" lon="-1.55123">
        <ele>4</ele>
        <time>2023-11-11T21:45:02Z</time>
      </trkpt>
      <trkpt lat="47.19677" lon="-1.55096">
        <ele>5</ele>
        <time>2023-11-11T21:45:27Z</time>
      </trkpt>
      <trkpt lat="47.19675" lon="-1.55069">
        <ele>6</ele>
        <time>2023-11-11T21:45:51Z</time>
      </trkpt>
      <trkpt lat="47.19674" lon="-1.55042">
        <ele>6</ele>
        <time>2023-11-11T21:46:16Z</time>
      </trkpt>
      <trkpt lat="47.19675" lon="-1.55014">
        <ele>7</ele>
        <time>2023-11-11T21:46:41Z</time>
      </trkpt>
      <trkpt lat="47.19687" lon="-1.54993">
        <ele>6</ele>
        <time>2023-11-11T21:47:06Z</time>
      </trkpt>
      <trkpt lat="47.19705" lon="-1.54993">
        <ele>4</ele>
        <time>2023-11-11T21:47:30Z</time>
      </trkpt>
      <trkpt lat="47.19717" lon="-1.54972">
        <ele>3</ele>
        <time>2023-11-11T21:47:55Z</time>
      </trkpt>
      <trkpt lat="47.19704" lon="-1.54952">
        <ele>4</ele>
        <time>2023-11-11T21:48:20Z</time>
      </trkpt>
      <trkpt lat="47.19684" lon="-1.5495">
        <ele>5</ele>
        <time>2023-11-11T21:48:47Z</time>
      </trkpt>
      <trkpt lat="47.19677" lon="-1.54925">
        <ele>5</ele>
        <time>2023-11-11T21:49:11Z</time>
      </trkpt>
      <trkpt lat="47.1968" lon="-1.54898">
        <ele>5</ele>
        <time>2023-11-11T21:49:36Z</time>
      </trkpt>
      <trkpt lat="47.19681" lon="-1.54871">
        <ele>5</ele>
        <time>2023-11-11T21:50:01Z</time>
      </trkpt>
      <trkpt lat="47.19676" lon="-1.54844">
        <ele>5</ele>
        <time>2023-11-11T21:50:26Z</time>
      </trkpt>
      <trkpt lat="47.19671" lon="-1.54818">
        <ele>5</ele>
        <time>2023-11-11T21:50:50Z</time>
      </trkpt>
      <trkpt lat="47.19662" lon="-1.54793">
        <ele>5</ele>
        <time>2023-11-11T21:51:16Z</time>
      </trkpt>
      <trkpt lat="47.19651" lon="-1.54772">
        <ele>4</ele>
        <time>2023-11-11T21:51:40Z</time>
      </trkpt>
      <trkpt lat="47.19639" lon="-1.54752">
        <ele>4</ele>
        <time>2023-11-11T21:52:04Z</time>
      </trkpt>
      <trkpt lat="47.19627" lon="-1.54732">
        <ele>4</ele>
        <time>2023-11-11T21:52:29Z</time>
      </trkpt>
      <trkpt lat="47.1961" lon="-1.5472">
        <ele>4</ele>
        <time>2023-11-11T21:52:54Z</time>
      </trkpt>
      <trkpt lat="47.19626" lon="-1.54733">
        <ele>4</ele>
        <time>2023-11-11T21:53:18Z</time>
      </trkpt>
      <trkpt lat="47.19653" lon="-1.54772">
        <ele>4</ele>
        <time>2023-11-11T21:54:09Z</time>
      </trkpt>
      <trkpt lat="47.19666" lon="-1.54794">
        <ele>5</ele>
        <time>2023-11-11T21:54:35Z</time>
      </trkpt>
      <trkpt lat="47.1967" lon="-1.5482">
        <ele>5</ele>
        <time>2023-11-11T21:54:59Z</time>
      </trkpt>
      <trkpt lat="47.19678" lon="-1.54845">
        <ele>5</ele>
        <time>2023-11-11T21:55:24Z</time>
      </trkpt>
      <trkpt lat="47.19683" lon="-1.54872">
        <ele>5</ele>
        <time>2023-11-11T21:55:50Z</time>
      </trkpt>
      <trkpt lat="47.1968" lon="-1.54899">
        <ele>5</ele>
        <time>2023-11-11T21:56:14Z</time>
      </trkpt>
      <trkpt lat="47.19676" lon="-1.54925">
        <ele>6</ele>
        <time>2023-11-11T21:56:39Z</time>
      </trkpt>
      <trkpt lat="47.1968" lon="-1.54952">
        <ele>6</ele>
        <time>2023-11-11T21:57:04Z</time>
      </trkpt>
      <trkpt lat="47.19698" lon="-1.54952">
        <ele>4</ele>
        <time>2023-11-11T21:57:28Z</time>
      </trkpt>
      <trkpt lat="47.19715" lon="-1.54964">
        <ele>3</ele>
        <time>2023-11-11T21:57:53Z</time>
      </trkpt>
      <trkpt lat="47.1971" lon="-1.5499">
        <ele>4</ele>
        <time>2023-11-11T21:58:17Z</time>
      </trkpt>
      <trkpt lat="47.19692" lon="-1.54994">
        <ele>5</ele>
        <time>2023-11-11T21:58:42Z</time>
      </trkpt>
      <trkpt lat="47.19706" lon="-1.54976">
        <ele>4</ele>
        <time>2023-11-11T21:59:06Z</time>
      </trkpt>
      <trkpt lat="47.19725" lon="-1.54973">
        <ele>2</ele>
        <time>2023-11-11T21:59:32Z</time>
      </trkpt>
      <trkpt lat="47.19744" lon="-1.54973">
        <ele>1</ele>
        <time>2023-11-11T21:59:57Z</time>
      </trkpt>
      <trkpt lat="47.19763" lon="-1.54972">
        <time>2023-11-11T22:00:23Z</time>
      </trkpt>
      <trkpt lat="47.19789" lon="-1.54972">
        <time>2023-11-11T22:00:57Z</time>
      </trkpt>
      <trkpt lat="47.19811" lon="-1.54971">
        <time>2023-11-11T22:01:27Z</time>
      </trkpt>
      <trkpt lat="47.1983" lon="-1.54973">
        <time>2023-11-11T22:01:52Z</time>
      </trkpt>
      <trkpt lat="47.19849" lon="-1.5497">
        <time>2023-11-11T22:02:18Z</time>
      </trkpt>
      <trkpt lat="47.19867" lon="-1.54971">
        <time>2023-11-11T22:02:42Z</time>
      </trkpt>
      <trkpt lat="47.19888" lon="-1.54971">
        <ele>1</ele>
        <time>2023-11-11T22:03:10Z</time>
      </trkpt>
      <trkpt lat="47.19907" lon="-1.54974">
        <ele>1</ele>
        <time>2023-11-11T22:03:35Z</time>
      </trkpt>
      <trkpt lat="47.19925" lon="-1.54971">
        <ele>1</ele>
        <time>2023-11-11T22:03:59Z</time>
      </trkpt>
      <trkpt lat="47.19943" lon="-1.5497">
        <ele>2</ele>
        <time>2023-11-11T22:04:23Z</time>
      </trkpt>
      <trkpt lat="47.19961" lon="-1.54975">
        <ele>3</ele>
        <time>2023-11-11T22:04:48Z</time>
      </trkpt>
      <trkpt lat="47.1998" lon="-1.54976">
        <ele>4</ele>
        <time>2023-11-11T22:05:13Z</time>
      </trkpt>
      <trkpt lat="47.19999" lon="-1.54974">
        <ele>6</ele>
        <time>2023-11-11T22:05:39Z</time>
      </trkpt>
      <trkpt lat="47.20017" lon="-1.54969">
        <ele>6</ele>
        <time>2023-11-11T22:06:03Z</time>
      </trkpt>
      <trkpt lat="47.20036" lon="-1.54964">
        <ele>7</ele>
        <time>2023-11-11T22:06:29Z</time>
      </trkpt>
      <trkpt lat="47.20054" lon="-1.54957">
        <ele>7</ele>
        <time>2023-11-11T22:06:54Z</time>
      </trkpt>
      <trkpt lat="47.20072" lon="-1.54948">
        <ele>8</ele>
        <time>2023-11-11T22:07:19Z</time>
      </trkpt>
      <trkpt lat="47.20088" lon="-1.54936">
        <ele>8</ele>
        <time>2023-11-11T22:07:43Z</time>
      </trkpt>
      <trkpt lat="47.20104" lon="-1.54923">
        <ele>8</ele>
        <time>2023-11-11T22:08:07Z</time>
      </trkpt>
      <trkpt lat="47.20136" lon="-1.54894">
        <ele>8</ele>
        <time>2023-11-11T22:08:58Z</time>
      </trkpt>
      <trkpt lat="47.20148" lon="-1.54874">
        <ele>8</ele>
        <time>2023-11-11T22:09:22Z</time>
      </trkpt>
      <trkpt lat="47.20149" lon="-1.54846">
        <ele>8</ele>
        <time>2023-11-11T22:09:47Z</time>
      </trkpt>
      <trkpt lat="47.20147" lon="-1.54819">
        <ele>8</ele>
        <time>2023-11-11T22:10:12Z</time>
      </trkpt>
      <trkpt lat="47.20149" lon="-1.54793">
        <ele>9</ele>
        <time>2023-11-11T22:10:36Z</time>
      </trkpt>
      <trkpt lat="47.20144" lon="-1.54765">
        <ele>9</ele>
        <time>2023-11-11T22:11:02Z</time>
      </trkpt>
      <trkpt lat="47.20147" lon="-1.54739">
        <ele>9</ele>
        <time>2023-11-11T22:11:26Z</time>
      </trkpt>
      <trkpt lat="47.20145" lon="-1.5471">
        <ele>9</ele>
        <time>2023-11-11T22:11:52Z</time>
      </trkpt>
      <trkpt lat="47.20143" lon="-1.54683">
        <ele>10</ele>
        <time>2023-11-11T22:12:17Z</time>
      </trkpt>
      <trkpt lat="47.2013" lon="-1.54663">
        <ele>10</ele>
        <time>2023-11-11T22:12:42Z</time>
      </trkpt>
      <trkpt lat="47.20127" lon="-1.54637">
        <ele>10</ele>
        <time>2023-11-11T22:13:06Z</time>
      </trkpt>
      <trkpt lat="47.20115" lon="-1.54614">
        <ele>11</ele>
        <time>2023-11-11T22:13:32Z</time>
      </trkpt>
      <trkpt lat="47.20104" lon="-1.54594">
        <ele>11</ele>
        <time>2023-11-11T22:13:55Z</time>
      </trkpt>
      <trkpt lat="47.20096" lon="-1.54568">
        <ele>12</ele>
        <time>2023-11-11T22:14:21Z</time>
      </trkpt>
      <trkpt lat="47.20082" lon="-1.54548">
        <ele>13</ele>
        <time>2023-11-11T22:14:47Z</time>
      </trkpt>
      <trkpt lat="47.20066" lon="-1.54533">
        <ele>12</ele>
        <time>2023-11-11T22:15:13Z</time>
      </trkpt>
      <trkpt lat="47.20057" lon="-1.5451">
        <ele>11</ele>
        <time>2023-11-11T22:15:37Z</time>
      </trkpt>
      <trkpt lat="47.20045" lon="-1.54489">
        <ele>10</ele>
        <time>2023-11-11T22:16:02Z</time>
      </trkpt>
      <trkpt lat="47.20034" lon="-1.54468">
        <ele>8</ele>
        <time>2023-11-11T22:16:26Z</time>
      </trkpt>
      <trkpt lat="47.20023" lon="-1.54445">
        <ele>6</ele>
        <time>2023-11-11T22:16:51Z</time>
      </trkpt>
      <trkpt lat="47.20012" lon="-1.54423">
        <ele>4</ele>
        <time>2023-11-11T22:17:16Z</time>
      </trkpt>
      <trkpt lat="47.20018" lon="-1.54397">
        <ele>5</ele>
        <time>2023-11-11T22:17:41Z</time>
      </trkpt>
      <trkpt lat="47.20029" lon="-1.54375">
        <ele>5</ele>
        <time>2023-11-11T22:18:06Z</time>
      </trkpt>
      <trkpt lat="47.20046" lon="-1.54387">
        <ele>7</ele>
        <time>2023-11-11T22:18:31Z</time>
      </trkpt>
      <trkpt lat="47.20063" lon="-1.544">
        <ele>8</ele>
        <time>2023-11-11T22:18:56Z</time>
      </trkpt>
      <trkpt lat="47.2008" lon="-1.54412">
        <ele>10</ele>
        <time>2023-11-11T22:19:21Z</time>
      </trkpt>
      <trkpt lat="47.20097" lon="-1.54422">
        <ele>11</ele>
        <time>2023-11-11T22:19:46Z</time>
      </trkpt>
      <trkpt lat="47.20112" lon="-1.54439">
        <ele>12</ele>
        <time>2023-11-11T22:20:11Z</time>
      </trkpt>
      <trkpt lat="47.20125" lon="-1.54459">
        <ele>12</ele>
        <time>2023-11-11T22:20:36Z</time>
      </trkpt>
      <trkpt lat="47.20143" lon="-1.54468">
        <ele>12</ele>
        <time>2023-11-11T22:21:02Z</time>
      </trkpt>
      <trkpt lat="47.20157" lon="-1.54487">
        <ele>12</ele>
        <time>2023-11-11T22:21:27Z</time>
      </trkpt>
      <trkpt lat="47.20172" lon="-1.54502">
        <ele>12</ele>
        <time>2023-11-11T22:21:51Z</time>
      </trkpt>
      <trkpt lat="47.2019" lon="-1.54515">
        <ele>11</ele>
        <time>2023-11-11T22:22:18Z</time>
      </trkpt>
      <trkpt lat="47.20208" lon="-1.54526">
        <ele>11</ele>
        <time>2023-11-11T22:22:44Z</time>
      </trkpt>
      <trkpt lat="47.20229" lon="-1.54536">
        <ele>10</ele>
        <time>2023-11-11T22:23:13Z</time>
      </trkpt>
      <trkpt lat="47.20254" lon="-1.5455">
        <ele>9</ele>
        <time>2023-11-11T22:23:49Z</time>
      </trkpt>
      <trkpt lat="47.20308" lon="-1.54587">
        <ele>9</ele>
        <time>2023-11-11T22:25:09Z</time>
      </trkpt>
      <trkpt lat="47.20351" lon="-1.54615">
        <ele>9</ele>
        <time>2023-11-11T22:26:11Z</time>
      </trkpt>
      <trkpt lat="47.20387" lon="-1.54638">
        <ele>9</ele>
        <time>2023-11-11T22:27:04Z</time>
      </trkpt>
      <trkpt lat="47.20404" lon="-1.5465">
        <ele>8</ele>
        <time>2023-11-11T22:27:29Z</time>
      </trkpt>
    </trkseg>
  </trk>
  <trk>
    <name><![CDATA[Reze _JaguereEtIlette_11 km-5825877]]></name>
    <extensions>
      <line xmlns="http://www.topografix.com/GPX/gpx_style/0/2">
        <color>000088</color>
        <width>4</width>
      </line>
    </extensions>
    <trkseg>
      <trkpt lat="47.18143" lon="-1.52743">
        <ele>8</ele>
        <time>2023-11-11T18:52:04Z</time>
      </trkpt>
      <trkpt lat="47.18166" lon="-1.52725">
        <ele>8</ele>
        <time>2023-11-11T18:52:39Z</time>
      </trkpt>
      <trkpt lat="47.18157" lon="-1.52666">
        <ele>9</ele>
        <time>2023-11-11T18:53:34Z</time>
      </trkpt>
      <trkpt lat="47.18143" lon="-1.526">
        <ele>6</ele>
        <time>2023-11-11T18:54:36Z</time>
      </trkpt>
      <trkpt lat="47.1814" lon="-1.5257">
        <ele>6</ele>
        <time>2023-11-11T18:55:04Z</time>
      </trkpt>
      <trkpt lat="47.18117" lon="-1.52558">
        <ele>6</ele>
        <time>2023-11-11T18:55:36Z</time>
      </trkpt>
      <trkpt lat="47.18068" lon="-1.52574">
        <ele>7</ele>
        <time>2023-11-11T18:56:43Z</time>
      </trkpt>
      <trkpt lat="47.1804" lon="-1.52602">
        <ele>8</ele>
        <time>2023-11-11T18:57:29Z</time>
      </trkpt>
      <trkpt lat="47.18019" lon="-1.52628">
        <ele>9</ele>
        <time>2023-11-11T18:58:05Z</time>
      </trkpt>
      <trkpt lat="47.18032" lon="-1.52647">
        <ele>9</ele>
        <time>2023-11-11T18:58:30Z</time>
      </trkpt>
      <trkpt lat="47.18009" lon="-1.52679">
        <ele>10</ele>
        <time>2023-11-11T18:59:12Z</time>
      </trkpt>
      <trkpt lat="47.17979" lon="-1.52705">
        <ele>12</ele>
        <time>2023-11-11T18:59:58Z</time>
      </trkpt>
      <trkpt lat="47.17948" lon="-1.52765">
        <ele>14</ele>
        <time>2023-11-11T19:01:07Z</time>
      </trkpt>
      <trkpt lat="47.17937" lon="-1.52792">
        <ele>14</ele>
        <time>2023-11-11T19:01:35Z</time>
      </trkpt>
      <trkpt lat="47.17932" lon="-1.52812">
        <ele>14</ele>
        <time>2023-11-11T19:01:55Z</time>
      </trkpt>
      <trkpt lat="47.17905" lon="-1.52839">
        <ele>15</ele>
        <time>2023-11-11T19:02:38Z</time>
      </trkpt>
      <trkpt lat="47.17887" lon="-1.5287">
        <ele>16</ele>
        <time>2023-11-11T19:03:15Z</time>
      </trkpt>
      <trkpt lat="47.17861" lon="-1.52907">
        <ele>18</ele>
        <time>2023-11-11T19:04:03Z</time>
      </trkpt>
      <trkpt lat="47.17842" lon="-1.52929">
        <ele>19</ele>
        <time>2023-11-11T19:04:36Z</time>
      </trkpt>
      <trkpt lat="47.17808" lon="-1.52962">
        <ele>21</ele>
        <time>2023-11-11T19:05:30Z</time>
      </trkpt>
      <trkpt lat="47.17794" lon="-1.52967">
        <ele>21</ele>
        <time>2023-11-11T19:05:49Z</time>
      </trkpt>
      <trkpt lat="47.17764" lon="-1.52971">
        <ele>21</ele>
        <time>2023-11-11T19:06:29Z</time>
      </trkpt>
      <trkpt lat="47.1772" lon="-1.53002">
        <ele>23</ele>
        <time>2023-11-11T19:07:35Z</time>
      </trkpt>
      <trkpt lat="47.17694" lon="-1.53014">
        <ele>24</ele>
        <time>2023-11-11T19:08:11Z</time>
      </trkpt>
      <trkpt lat="47.17691" lon="-1.53025">
        <ele>24</ele>
        <time>2023-11-11T19:08:22Z</time>
      </trkpt>
      <trkpt lat="47.17693" lon="-1.53042">
        <ele>23</ele>
        <time>2023-11-11T19:08:37Z</time>
      </trkpt>
      <trkpt lat="47.17682" lon="-1.53062">
        <ele>23</ele>
        <time>2023-11-11T19:09:01Z</time>
      </trkpt>
      <trkpt lat="47.17661" lon="-1.53071">
        <ele>23</ele>
        <time>2023-11-11T19:09:30Z</time>
      </trkpt>
      <trkpt lat="47.17636" lon="-1.53068">
        <ele>23</ele>
        <time>2023-11-11T19:10:03Z</time>
      </trkpt>
      <trkpt lat="47.17601" lon="-1.53087">
        <ele>23</ele>
        <time>2023-11-11T19:10:53Z</time>
      </trkpt>
      <trkpt lat="47.17566" lon="-1.53102">
        <ele>23</ele>
        <time>2023-11-11T19:11:42Z</time>
      </trkpt>
      <trkpt lat="47.17546" lon="-1.53116">
        <ele>23</ele>
        <time>2023-11-11T19:12:11Z</time>
      </trkpt>
      <trkpt lat="47.17525" lon="-1.53127">
        <ele>23</ele>
        <time>2023-11-11T19:12:41Z</time>
      </trkpt>
      <trkpt lat="47.17507" lon="-1.53146">
        <ele>23</ele>
        <time>2023-11-11T19:13:11Z</time>
      </trkpt>
      <trkpt lat="47.1748" lon="-1.53169">
        <ele>24</ele>
        <time>2023-11-11T19:13:52Z</time>
      </trkpt>
      <trkpt lat="47.17463" lon="-1.5318">
        <ele>24</ele>
        <time>2023-11-11T19:14:17Z</time>
      </trkpt>
      <trkpt lat="47.17438" lon="-1.53194">
        <ele>25</ele>
        <time>2023-11-11T19:14:53Z</time>
      </trkpt>
      <trkpt lat="47.17425" lon="-1.53229">
        <ele>26</ele>
        <time>2023-11-11T19:15:29Z</time>
      </trkpt>
      <trkpt lat="47.17407" lon="-1.53267">
        <ele>27</ele>
        <time>2023-11-11T19:16:11Z</time>
      </trkpt>
      <trkpt lat="47.17401" lon="-1.53307">
        <ele>28</ele>
        <time>2023-11-11T19:16:48Z</time>
      </trkpt>
      <trkpt lat="47.17407" lon="-1.53323">
        <ele>28</ele>
        <time>2023-11-11T19:17:05Z</time>
      </trkpt>
      <trkpt lat="47.17403" lon="-1.53362">
        <ele>28</ele>
        <time>2023-11-11T19:17:40Z</time>
      </trkpt>
      <trkpt lat="47.17402" lon="-1.53398">
        <ele>28</ele>
        <time>2023-11-11T19:18:13Z</time>
      </trkpt>
      <trkpt lat="47.17414" lon="-1.53463">
        <ele>26</ele>
        <time>2023-11-11T19:19:14Z</time>
      </trkpt>
      <trkpt lat="47.17429" lon="-1.5351">
        <ele>27</ele>
        <time>2023-11-11T19:20:01Z</time>
      </trkpt>
      <trkpt lat="47.1741" lon="-1.53534">
        <ele>26</ele>
        <time>2023-11-11T19:20:35Z</time>
      </trkpt>
      <trkpt lat="47.17427" lon="-1.53575">
        <ele>27</ele>
        <time>2023-11-11T19:21:18Z</time>
      </trkpt>
      <trkpt lat="47.17479" lon="-1.53655">
        <ele>28</ele>
        <time>2023-11-11T19:22:59Z</time>
      </trkpt>
      <trkpt lat="47.17533" lon="-1.5373">
        <ele>30</ele>
        <time>2023-11-11T19:24:38Z</time>
      </trkpt>
      <trkpt lat="47.17452" lon="-1.53852">
        <ele>30</ele>
        <time>2023-11-11T19:27:12Z</time>
      </trkpt>
      <trkpt lat="47.17466" lon="-1.53878">
        <ele>30</ele>
        <time>2023-11-11T19:27:43Z</time>
      </trkpt>
      <trkpt lat="47.17433" lon="-1.53979">
        <ele>31</ele>
        <time>2023-11-11T19:29:24Z</time>
      </trkpt>
      <trkpt lat="47.17415" lon="-1.54055">
        <ele>32</ele>
        <time>2023-11-11T19:30:37Z</time>
      </trkpt>
      <trkpt lat="47.17399" lon="-1.54092">
        <ele>32</ele>
        <time>2023-11-11T19:31:17Z</time>
      </trkpt>
      <trkpt lat="47.17389" lon="-1.54082">
        <ele>32</ele>
        <time>2023-11-11T19:31:33Z</time>
      </trkpt>
      <trkpt lat="47.17393" lon="-1.54096">
        <ele>32</ele>
        <time>2023-11-11T19:31:47Z</time>
      </trkpt>
      <trkpt lat="47.1739" lon="-1.54123">
        <ele>33</ele>
        <time>2023-11-11T19:32:12Z</time>
      </trkpt>
      <trkpt lat="47.17388" lon="-1.54163">
        <ele>33</ele>
        <time>2023-11-11T19:32:48Z</time>
      </trkpt>
      <trkpt lat="47.17372" lon="-1.54153">
        <ele>33</ele>
        <time>2023-11-11T19:33:11Z</time>
      </trkpt>
      <trkpt lat="47.17365" lon="-1.54171">
        <ele>34</ele>
        <time>2023-11-11T19:33:30Z</time>
      </trkpt>
      <trkpt lat="47.17311" lon="-1.54348">
        <ele>34</ele>
        <time>2023-11-11T19:36:26Z</time>
      </trkpt>
      <trkpt lat="47.17295" lon="-1.54348">
        <ele>35</ele>
        <time>2023-11-11T19:36:47Z</time>
      </trkpt>
      <trkpt lat="47.17288" lon="-1.5446">
        <ele>35</ele>
        <time>2023-11-11T19:38:30Z</time>
      </trkpt>
      <trkpt lat="47.17276" lon="-1.5448">
        <ele>36</ele>
        <time>2023-11-11T19:38:54Z</time>
      </trkpt>
      <trkpt lat="47.17272" lon="-1.54509">
        <ele>36</ele>
        <time>2023-11-11T19:39:21Z</time>
      </trkpt>
      <trkpt lat="47.1733" lon="-1.54541">
        <ele>35</ele>
        <time>2023-11-11T19:40:43Z</time>
      </trkpt>
      <trkpt lat="47.17376" lon="-1.54574">
        <ele>34</ele>
        <time>2023-11-11T19:41:52Z</time>
      </trkpt>
      <trkpt lat="47.1732" lon="-1.54671">
        <ele>33</ele>
        <time>2023-11-11T19:43:47Z</time>
      </trkpt>
      <trkpt lat="47.17418" lon="-1.5477">
        <ele>32</ele>
        <time>2023-11-11T19:46:26Z</time>
      </trkpt>
      <trkpt lat="47.17336" lon="-1.54883">
        <ele>33</ele>
        <time>2023-11-11T19:48:56Z</time>
      </trkpt>
      <trkpt lat="47.1731" lon="-1.54883">
        <ele>33</ele>
        <time>2023-11-11T19:49:30Z</time>
      </trkpt>
      <trkpt lat="47.17277" lon="-1.54931">
        <ele>34</ele>
        <time>2023-11-11T19:50:32Z</time>
      </trkpt>
      <trkpt lat="47.17251" lon="-1.54913">
        <ele>34</ele>
        <time>2023-11-11T19:51:11Z</time>
      </trkpt>
      <trkpt lat="47.17171" lon="-1.55027">
        <ele>38</ele>
        <time>2023-11-11T19:53:39Z</time>
      </trkpt>
      <trkpt lat="47.17197" lon="-1.55059">
        <ele>37</ele>
        <time>2023-11-11T19:54:24Z</time>
      </trkpt>
      <trkpt lat="47.17076" lon="-1.5527">
        <ele>38</ele>
        <time>2023-11-11T19:58:35Z</time>
      </trkpt>
      <trkpt lat="47.17095" lon="-1.55287">
        <ele>38</ele>
        <time>2023-11-11T19:59:05Z</time>
      </trkpt>
      <trkpt lat="47.16988" lon="-1.55477">
        <ele>32</ele>
        <time>2023-11-11T20:02:48Z</time>
      </trkpt>
      <trkpt lat="47.17004" lon="-1.5548">
        <ele>32</ele>
        <time>2023-11-11T20:03:10Z</time>
      </trkpt>
      <trkpt lat="47.17088" lon="-1.55563">
        <ele>34</ele>
        <time>2023-11-11T20:05:25Z</time>
      </trkpt>
      <trkpt lat="47.17107" lon="-1.55599">
        <ele>35</ele>
        <time>2023-11-11T20:06:06Z</time>
      </trkpt>
      <trkpt lat="47.17097" lon="-1.5562">
        <ele>34</ele>
        <time>2023-11-11T20:06:29Z</time>
      </trkpt>
      <trkpt lat="47.1709" lon="-1.55636">
        <ele>33</ele>
        <time>2023-11-11T20:06:47Z</time>
      </trkpt>
      <trkpt lat="47.17083" lon="-1.55652">
        <ele>32</ele>
        <time>2023-11-11T20:07:04Z</time>
      </trkpt>
      <trkpt lat="47.17019" lon="-1.55775">
        <ele>30</ele>
        <time>2023-11-11T20:09:25Z</time>
      </trkpt>
      <trkpt lat="47.16997" lon="-1.55818">
        <ele>28</ele>
        <time>2023-11-11T20:10:13Z</time>
      </trkpt>
      <trkpt lat="47.16913" lon="-1.55977">
        <ele>27</ele>
        <time>2023-11-11T20:13:16Z</time>
      </trkpt>
      <trkpt lat="47.16898" lon="-1.55975">
        <ele>27</ele>
        <time>2023-11-11T20:13:36Z</time>
      </trkpt>
      <trkpt lat="47.16857" lon="-1.56013">
        <ele>27</ele>
        <time>2023-11-11T20:14:41Z</time>
      </trkpt>
      <trkpt lat="47.16831" lon="-1.56016">
        <ele>27</ele>
        <time>2023-11-11T20:15:16Z</time>
      </trkpt>
      <trkpt lat="47.16768" lon="-1.56016">
        <ele>25</ele>
        <time>2023-11-11T20:16:40Z</time>
      </trkpt>
      <trkpt lat="47.16666" lon="-1.56019">
        <ele>26</ele>
        <time>2023-11-11T20:18:56Z</time>
      </trkpt>
      <trkpt lat="47.16578" lon="-1.56025">
        <ele>27</ele>
        <time>2023-11-11T20:20:53Z</time>
      </trkpt>
      <trkpt lat="47.16475" lon="-1.5598">
        <ele>31</ele>
        <time>2023-11-11T20:23:17Z</time>
      </trkpt>
      <trkpt lat="47.16291" lon="-1.55884">
        <ele>33</ele>
        <time>2023-11-11T20:27:37Z</time>
      </trkpt>
      <trkpt lat="47.16201" lon="-1.5588">
        <ele>33</ele>
        <time>2023-11-11T20:29:37Z</time>
      </trkpt>
      <trkpt lat="47.16193" lon="-1.5582">
        <ele>32</ele>
        <time>2023-11-11T20:30:33Z</time>
      </trkpt>
      <trkpt lat="47.16189" lon="-1.55747">
        <ele>32</ele>
        <time>2023-11-11T20:31:39Z</time>
      </trkpt>
      <trkpt lat="47.16171" lon="-1.55664">
        <ele>31</ele>
        <time>2023-11-11T20:32:58Z</time>
      </trkpt>
      <trkpt lat="47.16154" lon="-1.55586">
        <ele>32</ele>
        <time>2023-11-11T20:34:13Z</time>
      </trkpt>
      <trkpt lat="47.1613" lon="-1.55514">
        <ele>32</ele>
        <time>2023-11-11T20:35:26Z</time>
      </trkpt>
      <trkpt lat="47.161" lon="-1.55207">
        <ele>32</ele>
        <time>2023-11-11T20:40:07Z</time>
      </trkpt>
      <trkpt lat="47.16147" lon="-1.54995">
        <ele>29</ele>
        <time>2023-11-11T20:43:29Z</time>
      </trkpt>
      <trkpt lat="47.16142" lon="-1.54982">
        <ele>29</ele>
        <time>2023-11-11T20:43:43Z</time>
      </trkpt>
      <trkpt lat="47.16149" lon="-1.54958">
        <ele>29</ele>
        <time>2023-11-11T20:44:07Z</time>
      </trkpt>
      <trkpt lat="47.16141" lon="-1.54937">
        <ele>29</ele>
        <time>2023-11-11T20:44:28Z</time>
      </trkpt>
      <trkpt lat="47.16137" lon="-1.54923">
        <ele>29</ele>
        <time>2023-11-11T20:44:42Z</time>
      </trkpt>
      <trkpt lat="47.16131" lon="-1.5491">
        <ele>29</ele>
        <time>2023-11-11T20:44:56Z</time>
      </trkpt>
      <trkpt lat="47.16152" lon="-1.54879">
        <ele>29</ele>
        <time>2023-11-11T20:45:36Z</time>
      </trkpt>
      <trkpt lat="47.16175" lon="-1.54849">
        <ele>29</ele>
        <time>2023-11-11T20:46:17Z</time>
      </trkpt>
      <trkpt lat="47.16199" lon="-1.54798">
        <ele>31</ele>
        <time>2023-11-11T20:47:13Z</time>
      </trkpt>
      <trkpt lat="47.16206" lon="-1.54771">
        <ele>32</ele>
        <time>2023-11-11T20:47:40Z</time>
      </trkpt>
      <trkpt lat="47.16201" lon="-1.54752">
        <ele>32</ele>
        <time>2023-11-11T20:47:58Z</time>
      </trkpt>
      <trkpt lat="47.16188" lon="-1.54746">
        <ele>32</ele>
        <time>2023-11-11T20:48:16Z</time>
      </trkpt>
      <trkpt lat="47.16178" lon="-1.54718">
        <ele>33</ele>
        <time>2023-11-11T20:48:45Z</time>
      </trkpt>
      <trkpt lat="47.16192" lon="-1.54559">
        <ele>33</ele>
        <time>2023-11-11T20:51:10Z</time>
      </trkpt>
      <trkpt lat="47.16214" lon="-1.54554">
        <ele>33</ele>
        <time>2023-11-11T20:51:40Z</time>
      </trkpt>
      <trkpt lat="47.1627" lon="-1.54446">
        <ele>34</ele>
        <time>2023-11-11T20:53:43Z</time>
      </trkpt>
      <trkpt lat="47.16234" lon="-1.54426">
        <ele>34</ele>
        <time>2023-11-11T20:54:35Z</time>
      </trkpt>
      <trkpt lat="47.16218" lon="-1.54415">
        <ele>33</ele>
        <time>2023-11-11T20:54:58Z</time>
      </trkpt>
      <trkpt lat="47.16215" lon="-1.54383">
        <ele>33</ele>
        <time>2023-11-11T20:55:28Z</time>
      </trkpt>
      <trkpt lat="47.16228" lon="-1.54305">
        <ele>35</ele>
        <time>2023-11-11T20:56:40Z</time>
      </trkpt>
      <trkpt lat="47.16241" lon="-1.54231">
        <ele>36</ele>
        <time>2023-11-11T20:57:50Z</time>
      </trkpt>
      <trkpt lat="47.16245" lon="-1.54213">
        <ele>35</ele>
        <time>2023-11-11T20:58:07Z</time>
      </trkpt>
      <trkpt lat="47.16164" lon="-1.54197">
        <ele>34</ele>
        <time>2023-11-11T20:59:56Z</time>
      </trkpt>
      <trkpt lat="47.16108" lon="-1.54157">
        <ele>33</ele>
        <time>2023-11-11T21:01:19Z</time>
      </trkpt>
      <trkpt lat="47.16213" lon="-1.53996">
        <ele>35</ele>
        <time>2023-11-11T21:04:42Z</time>
      </trkpt>
      <trkpt lat="47.16288" lon="-1.53889">
        <ele>36</ele>
        <time>2023-11-11T21:07:01Z</time>
      </trkpt>
      <trkpt lat="47.16298" lon="-1.53848">
        <ele>36</ele>
        <time>2023-11-11T21:07:41Z</time>
      </trkpt>
      <trkpt lat="47.16301" lon="-1.5376">
        <ele>37</ele>
        <time>2023-11-11T21:09:00Z</time>
      </trkpt>
      <trkpt lat="47.16286" lon="-1.53722">
        <ele>37</ele>
        <time>2023-11-11T21:09:40Z</time>
      </trkpt>
      <trkpt lat="47.16292" lon="-1.53686">
        <ele>36</ele>
        <time>2023-11-11T21:10:14Z</time>
      </trkpt>
      <trkpt lat="47.16314" lon="-1.53616">
        <ele>36</ele>
        <time>2023-11-11T21:11:24Z</time>
      </trkpt>
      <trkpt lat="47.16343" lon="-1.53578">
        <ele>36</ele>
        <time>2023-11-11T21:12:16Z</time>
      </trkpt>
      <trkpt lat="47.16335" lon="-1.53561">
        <ele>36</ele>
        <time>2023-11-11T21:12:35Z</time>
      </trkpt>
      <trkpt lat="47.16335" lon="-1.53498">
        <ele>35</ele>
        <time>2023-11-11T21:13:32Z</time>
      </trkpt>
      <trkpt lat="47.16344" lon="-1.5343">
        <ele>34</ele>
        <time>2023-11-11T21:14:35Z</time>
      </trkpt>
      <trkpt lat="47.16332" lon="-1.53377">
        <ele>33</ele>
        <time>2023-11-11T21:15:25Z</time>
      </trkpt>
      <trkpt lat="47.16308" lon="-1.5332">
        <ele>31</ele>
        <time>2023-11-11T21:16:26Z</time>
      </trkpt>
      <trkpt lat="47.16205" lon="-1.53151">
        <ele>27</ele>
        <time>2023-11-11T21:19:52Z</time>
      </trkpt>
      <trkpt lat="47.16191" lon="-1.53103">
        <ele>26</ele>
        <time>2023-11-11T21:20:39Z</time>
      </trkpt>
      <trkpt lat="47.16215" lon="-1.52938">
        <ele>23</ele>
        <time>2023-11-11T21:23:12Z</time>
      </trkpt>
      <trkpt lat="47.16247" lon="-1.52865">
        <ele>23</ele>
        <time>2023-11-11T21:24:31Z</time>
      </trkpt>
      <trkpt lat="47.16314" lon="-1.52825">
        <ele>25</ele>
        <time>2023-11-11T21:26:08Z</time>
      </trkpt>
      <trkpt lat="47.16361" lon="-1.52833">
        <ele>26</ele>
        <time>2023-11-11T21:27:11Z</time>
      </trkpt>
      <trkpt lat="47.16362" lon="-1.52784">
        <ele>24</ele>
        <time>2023-11-11T21:27:55Z</time>
      </trkpt>
      <trkpt lat="47.16355" lon="-1.52751">
        <ele>23</ele>
        <time>2023-11-11T21:28:27Z</time>
      </trkpt>
      <trkpt lat="47.16351" lon="-1.52728">
        <ele>23</ele>
        <time>2023-11-11T21:28:48Z</time>
      </trkpt>
      <trkpt lat="47.16398" lon="-1.52684">
        <ele>23</ele>
        <time>2023-11-11T21:30:03Z</time>
      </trkpt>
      <trkpt lat="47.16439" lon="-1.52649">
        <ele>23</ele>
        <time>2023-11-11T21:31:06Z</time>
      </trkpt>
      <trkpt lat="47.16489" lon="-1.52622">
        <ele>23</ele>
        <time>2023-11-11T21:32:17Z</time>
      </trkpt>
      <trkpt lat="47.1652" lon="-1.52542">
        <ele>23</ele>
        <time>2023-11-11T21:33:41Z</time>
      </trkpt>
      <trkpt lat="47.16529" lon="-1.52489">
        <ele>21</ele>
        <time>2023-11-11T21:34:30Z</time>
      </trkpt>
      <trkpt lat="47.16533" lon="-1.52477">
        <ele>20</ele>
        <time>2023-11-11T21:34:42Z</time>
      </trkpt>
      <trkpt lat="47.16543" lon="-1.52462">
        <ele>19</ele>
        <time>2023-11-11T21:35:01Z</time>
      </trkpt>
      <trkpt lat="47.1655" lon="-1.52438">
        <ele>17</ele>
        <time>2023-11-11T21:35:25Z</time>
      </trkpt>
      <trkpt lat="47.16563" lon="-1.52432">
        <ele>16</ele>
        <time>2023-11-11T21:35:43Z</time>
      </trkpt>
      <trkpt lat="47.16579" lon="-1.52447">
        <ele>17</ele>
        <time>2023-11-11T21:36:08Z</time>
      </trkpt>
      <trkpt lat="47.16604" lon="-1.52458">
        <ele>17</ele>
        <time>2023-11-11T21:36:43Z</time>
      </trkpt>
      <trkpt lat="47.16627" lon="-1.52476">
        <ele>17</ele>
        <time>2023-11-11T21:37:18Z</time>
      </trkpt>
      <trkpt lat="47.1664" lon="-1.52467">
        <ele>17</ele>
        <time>2023-11-11T21:37:37Z</time>
      </trkpt>
      <trkpt lat="47.16663" lon="-1.52534">
        <ele>17</ele>
        <time>2023-11-11T21:38:45Z</time>
      </trkpt>
      <trkpt lat="47.16686" lon="-1.52572">
        <ele>18</ele>
        <time>2023-11-11T21:39:31Z</time>
      </trkpt>
      <trkpt lat="47.16747" lon="-1.52578">
        <ele>21</ele>
        <time>2023-11-11T21:40:53Z</time>
      </trkpt>
      <trkpt lat="47.16759" lon="-1.52577">
        <ele>21</ele>
        <time>2023-11-11T21:41:09Z</time>
      </trkpt>
      <trkpt lat="47.16778" lon="-1.52571">
        <ele>20</ele>
        <time>2023-11-11T21:41:35Z</time>
      </trkpt>
      <trkpt lat="47.1679" lon="-1.52552">
        <ele>19</ele>
        <time>2023-11-11T21:41:59Z</time>
      </trkpt>
      <trkpt lat="47.16824" lon="-1.52528">
        <ele>19</ele>
        <time>2023-11-11T21:42:49Z</time>
      </trkpt>
      <trkpt lat="47.16834" lon="-1.52522">
        <ele>19</ele>
        <time>2023-11-11T21:43:03Z</time>
      </trkpt>
      <trkpt lat="47.16885" lon="-1.52493">
        <ele>19</ele>
        <time>2023-11-11T21:44:16Z</time>
      </trkpt>
      <trkpt lat="47.16914" lon="-1.52461">
        <ele>18</ele>
        <time>2023-11-11T21:45:05Z</time>
      </trkpt>
      <trkpt lat="47.16937" lon="-1.52447">
        <ele>17</ele>
        <time>2023-11-11T21:45:38Z</time>
      </trkpt>
      <trkpt lat="47.16932" lon="-1.52383">
        <ele>15</ele>
        <time>2023-11-11T21:46:36Z</time>
      </trkpt>
      <trkpt lat="47.16941" lon="-1.5231">
        <ele>14</ele>
        <time>2023-11-11T21:47:44Z</time>
      </trkpt>
      <trkpt lat="47.16943" lon="-1.52262">
        <ele>13</ele>
        <time>2023-11-11T21:48:27Z</time>
      </trkpt>
      <trkpt lat="47.16939" lon="-1.52194">
        <ele>10</ele>
        <time>2023-11-11T21:49:29Z</time>
      </trkpt>
      <trkpt lat="47.16936" lon="-1.52127">
        <ele>9</ele>
        <time>2023-11-11T21:50:30Z</time>
      </trkpt>
      <trkpt lat="47.16937" lon="-1.52084">
        <ele>9</ele>
        <time>2023-11-11T21:51:09Z</time>
      </trkpt>
      <trkpt lat="47.16942" lon="-1.52064">
        <ele>9</ele>
        <time>2023-11-11T21:51:28Z</time>
      </trkpt>
      <trkpt lat="47.16955" lon="-1.52032">
        <ele>9</ele>
        <time>2023-11-11T21:52:02Z</time>
      </trkpt>
      <trkpt lat="47.16976" lon="-1.52038">
        <ele>9</ele>
        <time>2023-11-11T21:52:31Z</time>
      </trkpt>
      <trkpt lat="47.16998" lon="-1.52059">
        <ele>9</ele>
        <time>2023-11-11T21:53:06Z</time>
      </trkpt>
      <trkpt lat="47.17026" lon="-1.52062">
        <ele>11</ele>
        <time>2023-11-11T21:53:43Z</time>
      </trkpt>
      <trkpt lat="47.17048" lon="-1.52076">
        <ele>12</ele>
        <time>2023-11-11T21:54:15Z</time>
      </trkpt>
      <trkpt lat="47.17081" lon="-1.52094">
        <ele>13</ele>
        <time>2023-11-11T21:55:02Z</time>
      </trkpt>
      <trkpt lat="47.17103" lon="-1.52105">
        <ele>14</ele>
        <time>2023-11-11T21:55:33Z</time>
      </trkpt>
      <trkpt lat="47.17138" lon="-1.52109">
        <ele>15</ele>
        <time>2023-11-11T21:56:20Z</time>
      </trkpt>
      <trkpt lat="47.17156" lon="-1.52131">
        <ele>14</ele>
        <time>2023-11-11T21:56:51Z</time>
      </trkpt>
      <trkpt lat="47.17191" lon="-1.52138">
        <ele>15</ele>
        <time>2023-11-11T21:57:38Z</time>
      </trkpt>
      <trkpt lat="47.17216" lon="-1.52172">
        <ele>15</ele>
        <time>2023-11-11T21:58:24Z</time>
      </trkpt>
      <trkpt lat="47.17248" lon="-1.5221">
        <ele>14</ele>
        <time>2023-11-11T21:59:19Z</time>
      </trkpt>
      <trkpt lat="47.17269" lon="-1.52237">
        <ele>14</ele>
        <time>2023-11-11T21:59:56Z</time>
      </trkpt>
      <trkpt lat="47.17287" lon="-1.52262">
        <ele>15</ele>
        <time>2023-11-11T22:00:29Z</time>
      </trkpt>
      <trkpt lat="47.17299" lon="-1.52263">
        <ele>16</ele>
        <time>2023-11-11T22:00:45Z</time>
      </trkpt>
      <trkpt lat="47.173" lon="-1.52278">
        <ele>15</ele>
        <time>2023-11-11T22:00:59Z</time>
      </trkpt>
      <trkpt lat="47.1731" lon="-1.52287">
        <ele>16</ele>
        <time>2023-11-11T22:01:14Z</time>
      </trkpt>
      <trkpt lat="47.17324" lon="-1.52294">
        <ele>16</ele>
        <time>2023-11-11T22:01:34Z</time>
      </trkpt>
      <trkpt lat="47.17337" lon="-1.52302">
        <ele>16</ele>
        <time>2023-11-11T22:01:53Z</time>
      </trkpt>
      <trkpt lat="47.17352" lon="-1.52309">
        <ele>16</ele>
        <time>2023-11-11T22:02:14Z</time>
      </trkpt>
      <trkpt lat="47.17368" lon="-1.5229">
        <ele>17</ele>
        <time>2023-11-11T22:02:41Z</time>
      </trkpt>
      <trkpt lat="47.17392" lon="-1.52267">
        <ele>18</ele>
        <time>2023-11-11T22:03:20Z</time>
      </trkpt>
      <trkpt lat="47.17411" lon="-1.52238">
        <ele>19</ele>
        <time>2023-11-11T22:03:56Z</time>
      </trkpt>
      <trkpt lat="47.17431" lon="-1.5221">
        <ele>19</ele>
        <time>2023-11-11T22:04:33Z</time>
      </trkpt>
      <trkpt lat="47.17426" lon="-1.52181">
        <ele>21</ele>
        <time>2023-11-11T22:05:00Z</time>
      </trkpt>
      <trkpt lat="47.17435" lon="-1.5217">
        <ele>20</ele>
        <time>2023-11-11T22:05:16Z</time>
      </trkpt>
      <trkpt lat="47.17476" lon="-1.52171">
        <ele>16</ele>
        <time>2023-11-11T22:06:10Z</time>
      </trkpt>
      <trkpt lat="47.17523" lon="-1.52161">
        <ele>13</ele>
        <time>2023-11-11T22:07:14Z</time>
      </trkpt>
      <trkpt lat="47.17544" lon="-1.52168">
        <ele>12</ele>
        <time>2023-11-11T22:07:43Z</time>
      </trkpt>
      <trkpt lat="47.17584" lon="-1.5216">
        <ele>10</ele>
        <time>2023-11-11T22:08:36Z</time>
      </trkpt>
      <trkpt lat="47.17605" lon="-1.52166">
        <ele>10</ele>
        <time>2023-11-11T22:09:05Z</time>
      </trkpt>
      <trkpt lat="47.1763" lon="-1.52172">
        <ele>9</ele>
        <time>2023-11-11T22:09:39Z</time>
      </trkpt>
      <trkpt lat="47.17654" lon="-1.5217">
        <ele>9</ele>
        <time>2023-11-11T22:10:11Z</time>
      </trkpt>
      <trkpt lat="47.17695" lon="-1.52162">
        <ele>9</ele>
        <time>2023-11-11T22:11:06Z</time>
      </trkpt>
      <trkpt lat="47.17709" lon="-1.52189">
        <ele>9</ele>
        <time>2023-11-11T22:11:37Z</time>
      </trkpt>
      <trkpt lat="47.17723" lon="-1.52218">
        <ele>9</ele>
        <time>2023-11-11T22:12:09Z</time>
      </trkpt>
      <trkpt lat="47.17768" lon="-1.52201">
        <ele>9</ele>
        <time>2023-11-11T22:13:11Z</time>
      </trkpt>
      <trkpt lat="47.17865" lon="-1.52117">
        <ele>7</ele>
        <time>2023-11-11T22:15:41Z</time>
      </trkpt>
      <trkpt lat="47.17887" lon="-1.52106">
        <ele>7</ele>
        <time>2023-11-11T22:16:12Z</time>
      </trkpt>
      <trkpt lat="47.17902" lon="-1.52087">
        <ele>5</ele>
        <time>2023-11-11T22:16:39Z</time>
      </trkpt>
      <trkpt lat="47.17929" lon="-1.52096">
        <ele>5</ele>
        <time>2023-11-11T22:17:16Z</time>
      </trkpt>
      <trkpt lat="47.17951" lon="-1.52133">
        <ele>6</ele>
        <time>2023-11-11T22:18:00Z</time>
      </trkpt>
      <trkpt lat="47.17969" lon="-1.52194">
        <ele>6</ele>
        <time>2023-11-11T22:19:01Z</time>
      </trkpt>
      <trkpt lat="47.17977" lon="-1.52239">
        <ele>6</ele>
        <time>2023-11-11T22:19:43Z</time>
      </trkpt>
      <trkpt lat="47.17982" lon="-1.52302">
        <ele>6</ele>
        <time>2023-11-11T22:20:40Z</time>
      </trkpt>
      <trkpt lat="47.18002" lon="-1.52376">
        <ele>6</ele>
        <time>2023-11-11T22:21:53Z</time>
      </trkpt>
      <trkpt lat="47.18014" lon="-1.52439">
        <ele>7</ele>
        <time>2023-11-11T22:22:52Z</time>
      </trkpt>
      <trkpt lat="47.1799" lon="-1.52463">
        <ele>8</ele>
        <time>2023-11-11T22:23:31Z</time>
      </trkpt>
      <trkpt lat="47.17957" lon="-1.52529">
        <ele>9</ele>
        <time>2023-11-11T22:24:45Z</time>
      </trkpt>
      <trkpt lat="47.17997" lon="-1.52601">
        <ele>9</ele>
        <time>2023-11-11T22:26:09Z</time>
      </trkpt>
      <trkpt lat="47.18016" lon="-1.5263">
        <ele>9</ele>
        <time>2023-11-11T22:26:46Z</time>
      </trkpt>
      <trkpt lat="47.18087" lon="-1.52565">
        <ele>6</ele>
        <time>2023-11-11T22:28:37Z</time>
      </trkpt>
      <trkpt lat="47.18137" lon="-1.52564">
        <ele>6</ele>
        <time>2023-11-11T22:29:44Z</time>
      </trkpt>
      <trkpt lat="47.18141" lon="-1.52599">
        <ele>6</ele>
        <time>2023-11-11T22:30:16Z</time>
      </trkpt>
      <trkpt lat="47.18164" lon="-1.52708">
        <ele>8</ele>
        <time>2023-11-11T22:32:00Z</time>
      </trkpt>
      <trkpt lat="47.18173" lon="-1.52743">
        <ele>8</ele>
        <time>2023-11-11T22:32:34Z</time>
      </trkpt>
    </trkseg>
  </trk>
  <trk>
    <name><![CDATA[Reze_IletteSevre_8.5km-5814453]]></name>
    <extensions>
      <line xmlns="http://www.topografix.com/GPX/gpx_style/0/2">
        <color>008800</color>
        <width>4</width>
      </line>
    </extensions>
    <trkseg>
      <trkpt lat="47.18219" lon="-1.52921">
        <ele>7</ele>
        <time>2023-11-11T18:51:57Z</time>
      </trkpt>
      <trkpt lat="47.18298" lon="-1.53171">
        <ele>6</ele>
        <time>2023-11-11T18:56:07Z</time>
      </trkpt>
      <trkpt lat="47.18259" lon="-1.53196">
        <ele>8</ele>
        <time>2023-11-11T18:57:04Z</time>
      </trkpt>
      <trkpt lat="47.18243" lon="-1.53225">
        <ele>10</ele>
        <time>2023-11-11T18:57:38Z</time>
      </trkpt>
      <trkpt lat="47.18241" lon="-1.53257">
        <ele>10</ele>
        <time>2023-11-11T18:58:07Z</time>
      </trkpt>
      <trkpt lat="47.18257" lon="-1.53275">
        <ele>10</ele>
        <time>2023-11-11T18:58:34Z</time>
      </trkpt>
      <trkpt lat="47.18278" lon="-1.53292">
        <ele>10</ele>
        <time>2023-11-11T18:59:06Z</time>
      </trkpt>
      <trkpt lat="47.18289" lon="-1.5331">
        <ele>10</ele>
        <time>2023-11-11T18:59:28Z</time>
      </trkpt>
      <trkpt lat="47.18307" lon="-1.53341">
        <ele>11</ele>
        <time>2023-11-11T19:00:05Z</time>
      </trkpt>
      <trkpt lat="47.18323" lon="-1.53364">
        <ele>12</ele>
        <time>2023-11-11T19:00:34Z</time>
      </trkpt>
      <trkpt lat="47.18352" lon="-1.53372">
        <ele>13</ele>
        <time>2023-11-11T19:01:14Z</time>
      </trkpt>
      <trkpt lat="47.18374" lon="-1.53399">
        <ele>15</ele>
        <time>2023-11-11T19:01:52Z</time>
      </trkpt>
      <trkpt lat="47.18393" lon="-1.53414">
        <ele>17</ele>
        <time>2023-11-11T19:02:21Z</time>
      </trkpt>
      <trkpt lat="47.18411" lon="-1.53403">
        <ele>17</ele>
        <time>2023-11-11T19:02:47Z</time>
      </trkpt>
      <trkpt lat="47.18423" lon="-1.53436">
        <ele>18</ele>
        <time>2023-11-11T19:03:21Z</time>
      </trkpt>
      <trkpt lat="47.18446" lon="-1.53478">
        <ele>17</ele>
        <time>2023-11-11T19:04:10Z</time>
      </trkpt>
      <trkpt lat="47.1848" lon="-1.53424">
        <ele>13</ele>
        <time>2023-11-11T19:05:17Z</time>
      </trkpt>
      <trkpt lat="47.18501" lon="-1.53445">
        <ele>12</ele>
        <time>2023-11-11T19:05:50Z</time>
      </trkpt>
      <trkpt lat="47.18558" lon="-1.53497">
        <ele>11</ele>
        <time>2023-11-11T19:07:20Z</time>
      </trkpt>
      <trkpt lat="47.18593" lon="-1.53522">
        <ele>11</ele>
        <time>2023-11-11T19:08:12Z</time>
      </trkpt>
      <trkpt lat="47.18631" lon="-1.53551">
        <ele>12</ele>
        <time>2023-11-11T19:09:09Z</time>
      </trkpt>
      <trkpt lat="47.18645" lon="-1.53566">
        <ele>12</ele>
        <time>2023-11-11T19:09:32Z</time>
      </trkpt>
      <trkpt lat="47.18679" lon="-1.53588">
        <ele>11</ele>
        <time>2023-11-11T19:10:22Z</time>
      </trkpt>
      <trkpt lat="47.18739" lon="-1.53676">
        <ele>9</ele>
        <time>2023-11-11T19:12:15Z</time>
      </trkpt>
      <trkpt lat="47.18795" lon="-1.53741">
        <ele>8</ele>
        <time>2023-11-11T19:13:50Z</time>
      </trkpt>
      <trkpt lat="47.18849" lon="-1.53657">
        <ele>6</ele>
        <time>2023-11-11T19:15:35Z</time>
      </trkpt>
      <trkpt lat="47.18873" lon="-1.53628">
        <ele>6</ele>
        <time>2023-11-11T19:16:16Z</time>
      </trkpt>
      <trkpt lat="47.18801" lon="-1.53599">
        <ele>7</ele>
        <time>2023-11-11T19:17:56Z</time>
      </trkpt>
      <trkpt lat="47.18723" lon="-1.53575">
        <ele>8</ele>
        <time>2023-11-11T19:19:42Z</time>
      </trkpt>
      <trkpt lat="47.18629" lon="-1.53551">
        <ele>12</ele>
        <time>2023-11-11T19:21:49Z</time>
      </trkpt>
      <trkpt lat="47.18586" lon="-1.53515">
        <ele>11</ele>
        <time>2023-11-11T19:22:55Z</time>
      </trkpt>
      <trkpt lat="47.18555" lon="-1.53495">
        <ele>11</ele>
        <time>2023-11-11T19:23:41Z</time>
      </trkpt>
      <trkpt lat="47.18505" lon="-1.53442">
        <ele>12</ele>
        <time>2023-11-11T19:25:03Z</time>
      </trkpt>
      <trkpt lat="47.18464" lon="-1.53387">
        <ele>12</ele>
        <time>2023-11-11T19:26:17Z</time>
      </trkpt>
      <trkpt lat="47.18419" lon="-1.53336">
        <ele>10</ele>
        <time>2023-11-11T19:27:33Z</time>
      </trkpt>
      <trkpt lat="47.18369" lon="-1.53284">
        <ele>8</ele>
        <time>2023-11-11T19:28:54Z</time>
      </trkpt>
      <trkpt lat="47.18334" lon="-1.53234">
        <ele>7</ele>
        <time>2023-11-11T19:29:59Z</time>
      </trkpt>
      <trkpt lat="47.18277" lon="-1.53129">
        <ele>7</ele>
        <time>2023-11-11T19:32:01Z</time>
      </trkpt>
      <trkpt lat="47.18215" lon="-1.52936">
        <ele>8</ele>
        <time>2023-11-11T19:35:15Z</time>
      </trkpt>
      <trkpt lat="47.18185" lon="-1.52795">
        <ele>8</ele>
        <time>2023-11-11T19:37:29Z</time>
      </trkpt>
      <trkpt lat="47.18173" lon="-1.52743">
        <ele>8</ele>
        <time>2023-11-11T19:38:19Z</time>
      </trkpt>
      <trkpt lat="47.18164" lon="-1.52708">
        <ele>8</ele>
        <time>2023-11-11T19:38:53Z</time>
      </trkpt>
      <trkpt lat="47.18153" lon="-1.52624">
        <ele>7</ele>
        <time>2023-11-11T19:40:10Z</time>
      </trkpt>
      <trkpt lat="47.18142" lon="-1.52577">
        <ele>6</ele>
        <time>2023-11-11T19:40:55Z</time>
      </trkpt>
      <trkpt lat="47.18118" lon="-1.52567">
        <ele>6</ele>
        <time>2023-11-11T19:41:29Z</time>
      </trkpt>
      <trkpt lat="47.18116" lon="-1.52566">
        <ele>6</ele>
        <time>2023-11-11T19:41:32Z</time>
      </trkpt>
      <trkpt lat="47.18109" lon="-1.52564">
        <ele>6</ele>
        <time>2023-11-11T19:41:41Z</time>
      </trkpt>
      <trkpt lat="47.18101" lon="-1.52522">
        <ele>5</ele>
        <time>2023-11-11T19:42:21Z</time>
      </trkpt>
      <trkpt lat="47.18099" lon="-1.52502">
        <ele>5</ele>
        <time>2023-11-11T19:42:39Z</time>
      </trkpt>
      <trkpt lat="47.18101" lon="-1.5248">
        <ele>5</ele>
        <time>2023-11-11T19:42:59Z</time>
      </trkpt>
      <trkpt lat="47.18114" lon="-1.52483">
        <ele>5</ele>
        <time>2023-11-11T19:43:17Z</time>
      </trkpt>
      <trkpt lat="47.18121" lon="-1.52475">
        <ele>5</ele>
        <time>2023-11-11T19:43:28Z</time>
      </trkpt>
      <trkpt lat="47.18119" lon="-1.5247">
        <ele>4</ele>
        <time>2023-11-11T19:43:34Z</time>
      </trkpt>
      <trkpt lat="47.1812" lon="-1.52454">
        <ele>4</ele>
        <time>2023-11-11T19:43:48Z</time>
      </trkpt>
      <trkpt lat="47.18104" lon="-1.52415">
        <ele>3</ele>
        <time>2023-11-11T19:44:30Z</time>
      </trkpt>
      <trkpt lat="47.18094" lon="-1.52417">
        <ele>3</ele>
        <time>2023-11-11T19:44:43Z</time>
      </trkpt>
      <trkpt lat="47.18084" lon="-1.52412">
        <ele>3</ele>
        <time>2023-11-11T19:44:57Z</time>
      </trkpt>
      <trkpt lat="47.18089" lon="-1.524">
        <ele>3</ele>
        <time>2023-11-11T19:45:10Z</time>
      </trkpt>
      <trkpt lat="47.18101" lon="-1.52379">
        <ele>3</ele>
        <time>2023-11-11T19:45:35Z</time>
      </trkpt>
      <trkpt lat="47.18095" lon="-1.52343">
        <ele>2</ele>
        <time>2023-11-11T19:46:08Z</time>
      </trkpt>
      <trkpt lat="47.18082" lon="-1.52286">
        <ele>3</ele>
        <time>2023-11-11T19:47:03Z</time>
      </trkpt>
      <trkpt lat="47.18079" lon="-1.52251">
        <ele>4</ele>
        <time>2023-11-11T19:47:35Z</time>
      </trkpt>
      <trkpt lat="47.18069" lon="-1.52232">
        <ele>4</ele>
        <time>2023-11-11T19:47:57Z</time>
      </trkpt>
      <trkpt lat="47.1805" lon="-1.52248">
        <ele>4</ele>
        <time>2023-11-11T19:48:26Z</time>
      </trkpt>
      <trkpt lat="47.18028" lon="-1.52257">
        <ele>4</ele>
        <time>2023-11-11T19:48:56Z</time>
      </trkpt>
      <trkpt lat="47.18024" lon="-1.52267">
        <ele>4</ele>
        <time>2023-11-11T19:49:07Z</time>
      </trkpt>
      <trkpt lat="47.17983" lon="-1.52281">
        <ele>6</ele>
        <time>2023-11-11T19:50:03Z</time>
      </trkpt>
      <trkpt lat="47.17973" lon="-1.52249">
        <ele>6</ele>
        <time>2023-11-11T19:50:35Z</time>
      </trkpt>
      <trkpt lat="47.17971" lon="-1.5224">
        <ele>6</ele>
        <time>2023-11-11T19:50:44Z</time>
      </trkpt>
      <trkpt lat="47.1796" lon="-1.52198">
        <ele>7</ele>
        <time>2023-11-11T19:51:25Z</time>
      </trkpt>
      <trkpt lat="47.17937" lon="-1.5216">
        <ele>8</ele>
        <time>2023-11-11T19:52:11Z</time>
      </trkpt>
      <trkpt lat="47.17917" lon="-1.52122">
        <ele>7</ele>
        <time>2023-11-11T19:52:54Z</time>
      </trkpt>
      <trkpt lat="47.17894" lon="-1.52112">
        <ele>7</ele>
        <time>2023-11-11T19:53:26Z</time>
      </trkpt>
      <trkpt lat="47.17887" lon="-1.52106">
        <ele>7</ele>
        <time>2023-11-11T19:53:37Z</time>
      </trkpt>
      <trkpt lat="47.17865" lon="-1.52117">
        <ele>7</ele>
        <time>2023-11-11T19:54:08Z</time>
      </trkpt>
      <trkpt lat="47.17768" lon="-1.52201">
        <ele>9</ele>
        <time>2023-11-11T19:56:38Z</time>
      </trkpt>
      <trkpt lat="47.17723" lon="-1.52218">
        <ele>9</ele>
        <time>2023-11-11T19:57:40Z</time>
      </trkpt>
      <trkpt lat="47.17709" lon="-1.52189">
        <ele>9</ele>
        <time>2023-11-11T19:58:13Z</time>
      </trkpt>
      <trkpt lat="47.17695" lon="-1.52162">
        <ele>9</ele>
        <time>2023-11-11T19:58:43Z</time>
      </trkpt>
      <trkpt lat="47.17681" lon="-1.52154">
        <ele>9</ele>
        <time>2023-11-11T19:59:03Z</time>
      </trkpt>
      <trkpt lat="47.17673" lon="-1.5216">
        <ele>9</ele>
        <time>2023-11-11T19:59:15Z</time>
      </trkpt>
      <trkpt lat="47.17673" lon="-1.52167">
        <ele>9</ele>
        <time>2023-11-11T19:59:22Z</time>
      </trkpt>
      <trkpt lat="47.17661" lon="-1.52172">
        <ele>9</ele>
        <time>2023-11-11T19:59:38Z</time>
      </trkpt>
      <trkpt lat="47.17647" lon="-1.52173">
        <ele>9</ele>
        <time>2023-11-11T19:59:57Z</time>
      </trkpt>
      <trkpt lat="47.17629" lon="-1.52175">
        <ele>9</ele>
        <time>2023-11-11T20:00:21Z</time>
      </trkpt>
      <trkpt lat="47.17605" lon="-1.52166">
        <ele>10</ele>
        <time>2023-11-11T20:00:54Z</time>
      </trkpt>
      <trkpt lat="47.17584" lon="-1.5216">
        <ele>10</ele>
        <time>2023-11-11T20:01:23Z</time>
      </trkpt>
      <trkpt lat="47.17552" lon="-1.52168">
        <ele>11</ele>
        <time>2023-11-11T20:02:06Z</time>
      </trkpt>
      <trkpt lat="47.17518" lon="-1.52153">
        <ele>14</ele>
        <time>2023-11-11T20:02:53Z</time>
      </trkpt>
      <trkpt lat="47.17472" lon="-1.52165">
        <ele>17</ele>
        <time>2023-11-11T20:03:56Z</time>
      </trkpt>
      <trkpt lat="47.17435" lon="-1.5217">
        <ele>20</ele>
        <time>2023-11-11T20:04:45Z</time>
      </trkpt>
      <trkpt lat="47.17426" lon="-1.52181">
        <ele>21</ele>
        <time>2023-11-11T20:05:01Z</time>
      </trkpt>
      <trkpt lat="47.17426" lon="-1.52206">
        <ele>20</ele>
        <time>2023-11-11T20:05:24Z</time>
      </trkpt>
      <trkpt lat="47.17408" lon="-1.52234">
        <ele>20</ele>
        <time>2023-11-11T20:05:59Z</time>
      </trkpt>
      <trkpt lat="47.1738" lon="-1.52259">
        <ele>19</ele>
        <time>2023-11-11T20:06:42Z</time>
      </trkpt>
      <trkpt lat="47.17363" lon="-1.52281">
        <ele>18</ele>
        <time>2023-11-11T20:07:13Z</time>
      </trkpt>
      <trkpt lat="47.17346" lon="-1.52295">
        <ele>17</ele>
        <time>2023-11-11T20:07:39Z</time>
      </trkpt>
      <trkpt lat="47.17337" lon="-1.52299">
        <ele>16</ele>
        <time>2023-11-11T20:07:51Z</time>
      </trkpt>
      <trkpt lat="47.17324" lon="-1.52294">
        <ele>16</ele>
        <time>2023-11-11T20:08:09Z</time>
      </trkpt>
      <trkpt lat="47.1731" lon="-1.52287">
        <ele>16</ele>
        <time>2023-11-11T20:08:29Z</time>
      </trkpt>
      <trkpt lat="47.173" lon="-1.52278">
        <ele>15</ele>
        <time>2023-11-11T20:08:44Z</time>
      </trkpt>
      <trkpt lat="47.17293" lon="-1.52283">
        <ele>15</ele>
        <time>2023-11-11T20:08:55Z</time>
      </trkpt>
      <trkpt lat="47.17289" lon="-1.52285">
        <ele>15</ele>
        <time>2023-11-11T20:09:00Z</time>
      </trkpt>
      <trkpt lat="47.17301" lon="-1.52275">
        <ele>15</ele>
        <time>2023-11-11T20:09:19Z</time>
      </trkpt>
      <trkpt lat="47.17269" lon="-1.52237">
        <ele>14</ele>
        <time>2023-11-11T20:10:14Z</time>
      </trkpt>
      <trkpt lat="47.17248" lon="-1.5221">
        <ele>14</ele>
        <time>2023-11-11T20:10:51Z</time>
      </trkpt>
      <trkpt lat="47.17216" lon="-1.52172">
        <ele>15</ele>
        <time>2023-11-11T20:11:46Z</time>
      </trkpt>
      <trkpt lat="47.17194" lon="-1.52141">
        <ele>15</ele>
        <time>2023-11-11T20:12:26Z</time>
      </trkpt>
      <trkpt lat="47.17156" lon="-1.52125">
        <ele>15</ele>
        <time>2023-11-11T20:13:19Z</time>
      </trkpt>
      <trkpt lat="47.17138" lon="-1.52109">
        <ele>15</ele>
        <time>2023-11-11T20:13:47Z</time>
      </trkpt>
      <trkpt lat="47.17103" lon="-1.52105">
        <ele>14</ele>
        <time>2023-11-11T20:14:34Z</time>
      </trkpt>
      <trkpt lat="47.17081" lon="-1.52094">
        <ele>13</ele>
        <time>2023-11-11T20:15:05Z</time>
      </trkpt>
      <trkpt lat="47.17048" lon="-1.52076">
        <ele>12</ele>
        <time>2023-11-11T20:15:52Z</time>
      </trkpt>
      <trkpt lat="47.17026" lon="-1.52062">
        <ele>11</ele>
        <time>2023-11-11T20:16:24Z</time>
      </trkpt>
      <trkpt lat="47.16998" lon="-1.52059">
        <ele>9</ele>
        <time>2023-11-11T20:17:02Z</time>
      </trkpt>
      <trkpt lat="47.16976" lon="-1.52038">
        <ele>9</ele>
        <time>2023-11-11T20:17:37Z</time>
      </trkpt>
      <trkpt lat="47.16955" lon="-1.52032">
        <ele>9</ele>
        <time>2023-11-11T20:18:05Z</time>
      </trkpt>
      <trkpt lat="47.16942" lon="-1.52064">
        <ele>9</ele>
        <time>2023-11-11T20:18:39Z</time>
      </trkpt>
      <trkpt lat="47.16937" lon="-1.52084">
        <ele>9</ele>
        <time>2023-11-11T20:18:58Z</time>
      </trkpt>
      <trkpt lat="47.16936" lon="-1.52127">
        <ele>9</ele>
        <time>2023-11-11T20:19:37Z</time>
      </trkpt>
      <trkpt lat="47.16939" lon="-1.52194">
        <ele>10</ele>
        <time>2023-11-11T20:20:38Z</time>
      </trkpt>
      <trkpt lat="47.16943" lon="-1.52262">
        <ele>13</ele>
        <time>2023-11-11T20:21:40Z</time>
      </trkpt>
      <trkpt lat="47.16941" lon="-1.5231">
        <ele>14</ele>
        <time>2023-11-11T20:22:24Z</time>
      </trkpt>
      <trkpt lat="47.16932" lon="-1.52383">
        <ele>15</ele>
        <time>2023-11-11T20:23:31Z</time>
      </trkpt>
      <trkpt lat="47.16937" lon="-1.52447">
        <ele>17</ele>
        <time>2023-11-11T20:24:29Z</time>
      </trkpt>
      <trkpt lat="47.16914" lon="-1.52461">
        <ele>18</ele>
        <time>2023-11-11T20:25:03Z</time>
      </trkpt>
      <trkpt lat="47.16885" lon="-1.52493">
        <ele>19</ele>
        <time>2023-11-11T20:25:51Z</time>
      </trkpt>
      <trkpt lat="47.16834" lon="-1.52522">
        <ele>19</ele>
        <time>2023-11-11T20:27:04Z</time>
      </trkpt>
      <trkpt lat="47.16824" lon="-1.52528">
        <ele>19</ele>
        <time>2023-11-11T20:27:18Z</time>
      </trkpt>
      <trkpt lat="47.1679" lon="-1.52552">
        <ele>19</ele>
        <time>2023-11-11T20:28:09Z</time>
      </trkpt>
      <trkpt lat="47.16778" lon="-1.52571">
        <ele>20</ele>
        <time>2023-11-11T20:28:32Z</time>
      </trkpt>
      <trkpt lat="47.16759" lon="-1.52577">
        <ele>21</ele>
        <time>2023-11-11T20:28:58Z</time>
      </trkpt>
      <trkpt lat="47.16747" lon="-1.52578">
        <ele>21</ele>
        <time>2023-11-11T20:29:14Z</time>
      </trkpt>
      <trkpt lat="47.16706" lon="-1.52574">
        <ele>19</ele>
        <time>2023-11-11T20:30:09Z</time>
      </trkpt>
      <trkpt lat="47.16686" lon="-1.52572">
        <ele>18</ele>
        <time>2023-11-11T20:30:36Z</time>
      </trkpt>
      <trkpt lat="47.16663" lon="-1.52534">
        <ele>17</ele>
        <time>2023-11-11T20:31:22Z</time>
      </trkpt>
      <trkpt lat="47.1664" lon="-1.52467">
        <ele>17</ele>
        <time>2023-11-11T20:32:30Z</time>
      </trkpt>
      <trkpt lat="47.16627" lon="-1.52476">
        <ele>17</ele>
        <time>2023-11-11T20:32:49Z</time>
      </trkpt>
      <trkpt lat="47.16604" lon="-1.52458">
        <ele>17</ele>
        <time>2023-11-11T20:33:24Z</time>
      </trkpt>
      <trkpt lat="47.16579" lon="-1.52447">
        <ele>17</ele>
        <time>2023-11-11T20:33:59Z</time>
      </trkpt>
      <trkpt lat="47.16563" lon="-1.52432">
        <ele>16</ele>
        <time>2023-11-11T20:34:24Z</time>
      </trkpt>
      <trkpt lat="47.1655" lon="-1.52438">
        <ele>17</ele>
        <time>2023-11-11T20:34:42Z</time>
      </trkpt>
      <trkpt lat="47.16543" lon="-1.52462">
        <ele>19</ele>
        <time>2023-11-11T20:35:06Z</time>
      </trkpt>
      <trkpt lat="47.16533" lon="-1.52477">
        <ele>20</ele>
        <time>2023-11-11T20:35:25Z</time>
      </trkpt>
      <trkpt lat="47.16529" lon="-1.52489">
        <ele>21</ele>
        <time>2023-11-11T20:35:37Z</time>
      </trkpt>
      <trkpt lat="47.1652" lon="-1.52542">
        <ele>23</ele>
        <time>2023-11-11T20:36:27Z</time>
      </trkpt>
      <trkpt lat="47.16489" lon="-1.52622">
        <ele>23</ele>
        <time>2023-11-11T20:37:50Z</time>
      </trkpt>
      <trkpt lat="47.16439" lon="-1.52649">
        <ele>23</ele>
        <time>2023-11-11T20:39:01Z</time>
      </trkpt>
      <trkpt lat="47.16398" lon="-1.52684">
        <ele>23</ele>
        <time>2023-11-11T20:40:05Z</time>
      </trkpt>
      <trkpt lat="47.16351" lon="-1.52728">
        <ele>23</ele>
        <time>2023-11-11T20:41:19Z</time>
      </trkpt>
      <trkpt lat="47.16355" lon="-1.52751">
        <ele>23</ele>
        <time>2023-11-11T20:41:41Z</time>
      </trkpt>
      <trkpt lat="47.16362" lon="-1.52784">
        <ele>24</ele>
        <time>2023-11-11T20:42:12Z</time>
      </trkpt>
      <trkpt lat="47.16361" lon="-1.52833">
        <ele>26</ele>
        <time>2023-11-11T20:42:56Z</time>
      </trkpt>
      <trkpt lat="47.16377" lon="-1.5284">
        <ele>26</ele>
        <time>2023-11-11T20:43:19Z</time>
      </trkpt>
      <trkpt lat="47.16465" lon="-1.52963">
        <ele>26</ele>
        <time>2023-11-11T20:46:01Z</time>
      </trkpt>
      <trkpt lat="47.16505" lon="-1.52999">
        <ele>26</ele>
        <time>2023-11-11T20:47:03Z</time>
      </trkpt>
      <trkpt lat="47.16552" lon="-1.53034">
        <ele>26</ele>
        <time>2023-11-11T20:48:14Z</time>
      </trkpt>
      <trkpt lat="47.16602" lon="-1.53039">
        <ele>26</ele>
        <time>2023-11-11T20:49:20Z</time>
      </trkpt>
      <trkpt lat="47.16628" lon="-1.53058">
        <ele>26</ele>
        <time>2023-11-11T20:49:59Z</time>
      </trkpt>
      <trkpt lat="47.16666" lon="-1.53082">
        <ele>26</ele>
        <time>2023-11-11T20:50:54Z</time>
      </trkpt>
      <trkpt lat="47.16696" lon="-1.53089">
        <ele>26</ele>
        <time>2023-11-11T20:51:35Z</time>
      </trkpt>
      <trkpt lat="47.16727" lon="-1.53112">
        <ele>27</ele>
        <time>2023-11-11T20:52:21Z</time>
      </trkpt>
      <trkpt lat="47.16753" lon="-1.53134">
        <ele>28</ele>
        <time>2023-11-11T20:53:01Z</time>
      </trkpt>
      <trkpt lat="47.16803" lon="-1.53208">
        <ele>30</ele>
        <time>2023-11-11T20:54:36Z</time>
      </trkpt>
      <trkpt lat="47.16857" lon="-1.53259">
        <ele>31</ele>
        <time>2023-11-11T20:56:02Z</time>
      </trkpt>
      <trkpt lat="47.16921" lon="-1.53327">
        <ele>33</ele>
        <time>2023-11-11T20:57:47Z</time>
      </trkpt>
      <trkpt lat="47.16972" lon="-1.53372">
        <ele>33</ele>
        <time>2023-11-11T20:59:06Z</time>
      </trkpt>
      <trkpt lat="47.17013" lon="-1.53383">
        <ele>33</ele>
        <time>2023-11-11T21:00:02Z</time>
      </trkpt>
      <trkpt lat="47.17068" lon="-1.53367">
        <ele>33</ele>
        <time>2023-11-11T21:01:17Z</time>
      </trkpt>
      <trkpt lat="47.17138" lon="-1.53366">
        <ele>32</ele>
        <time>2023-11-11T21:02:50Z</time>
      </trkpt>
      <trkpt lat="47.1716" lon="-1.53385">
        <ele>32</ele>
        <time>2023-11-11T21:03:24Z</time>
      </trkpt>
      <trkpt lat="47.17205" lon="-1.53414">
        <ele>32</ele>
        <time>2023-11-11T21:04:30Z</time>
      </trkpt>
      <trkpt lat="47.17252" lon="-1.53452">
        <ele>31</ele>
        <time>2023-11-11T21:05:41Z</time>
      </trkpt>
      <trkpt lat="47.17278" lon="-1.53515">
        <ele>30</ele>
        <time>2023-11-11T21:06:48Z</time>
      </trkpt>
      <trkpt lat="47.17313" lon="-1.53592">
        <ele>28</ele>
        <time>2023-11-11T21:08:12Z</time>
      </trkpt>
      <trkpt lat="47.17337" lon="-1.53635">
        <ele>28</ele>
        <time>2023-11-11T21:09:03Z</time>
      </trkpt>
      <trkpt lat="47.17372" lon="-1.53585">
        <ele>28</ele>
        <time>2023-11-11T21:10:08Z</time>
      </trkpt>
      <trkpt lat="47.17395" lon="-1.5355">
        <ele>27</ele>
        <time>2023-11-11T21:10:52Z</time>
      </trkpt>
      <trkpt lat="47.17413" lon="-1.53536">
        <ele>26</ele>
        <time>2023-11-11T21:11:19Z</time>
      </trkpt>
      <trkpt lat="47.17413" lon="-1.53479">
        <ele>26</ele>
        <time>2023-11-11T21:12:11Z</time>
      </trkpt>
      <trkpt lat="47.17399" lon="-1.53419">
        <ele>27</ele>
        <time>2023-11-11T21:13:08Z</time>
      </trkpt>
      <trkpt lat="47.17403" lon="-1.53405">
        <ele>27</ele>
        <time>2023-11-11T21:13:22Z</time>
      </trkpt>
      <trkpt lat="47.17403" lon="-1.53362">
        <ele>28</ele>
        <time>2023-11-11T21:14:01Z</time>
      </trkpt>
      <trkpt lat="47.17407" lon="-1.53323">
        <ele>28</ele>
        <time>2023-11-11T21:14:37Z</time>
      </trkpt>
      <trkpt lat="47.17401" lon="-1.53307">
        <ele>28</ele>
        <time>2023-11-11T21:14:54Z</time>
      </trkpt>
      <trkpt lat="47.17407" lon="-1.53267">
        <ele>27</ele>
        <time>2023-11-11T21:15:31Z</time>
      </trkpt>
      <trkpt lat="47.17425" lon="-1.53229">
        <ele>26</ele>
        <time>2023-11-11T21:16:13Z</time>
      </trkpt>
      <trkpt lat="47.17438" lon="-1.53194">
        <ele>25</ele>
        <time>2023-11-11T21:16:49Z</time>
      </trkpt>
      <trkpt lat="47.17463" lon="-1.5318">
        <ele>24</ele>
        <time>2023-11-11T21:17:25Z</time>
      </trkpt>
      <trkpt lat="47.1748" lon="-1.53169">
        <ele>24</ele>
        <time>2023-11-11T21:17:49Z</time>
      </trkpt>
      <trkpt lat="47.17507" lon="-1.53146">
        <ele>23</ele>
        <time>2023-11-11T21:18:31Z</time>
      </trkpt>
      <trkpt lat="47.17525" lon="-1.53127">
        <ele>23</ele>
        <time>2023-11-11T21:19:01Z</time>
      </trkpt>
      <trkpt lat="47.17546" lon="-1.53116">
        <ele>23</ele>
        <time>2023-11-11T21:19:30Z</time>
      </trkpt>
      <trkpt lat="47.17566" lon="-1.53102">
        <ele>23</ele>
        <time>2023-11-11T21:20:00Z</time>
      </trkpt>
      <trkpt lat="47.17601" lon="-1.53087">
        <ele>23</ele>
        <time>2023-11-11T21:20:49Z</time>
      </trkpt>
      <trkpt lat="47.17636" lon="-1.53068">
        <ele>23</ele>
        <time>2023-11-11T21:21:38Z</time>
      </trkpt>
      <trkpt lat="47.17661" lon="-1.53071">
        <ele>23</ele>
        <time>2023-11-11T21:22:12Z</time>
      </trkpt>
      <trkpt lat="47.17682" lon="-1.53062">
        <ele>23</ele>
        <time>2023-11-11T21:22:41Z</time>
      </trkpt>
      <trkpt lat="47.17693" lon="-1.53042">
        <ele>23</ele>
        <time>2023-11-11T21:23:04Z</time>
      </trkpt>
      <trkpt lat="47.17691" lon="-1.53025">
        <ele>24</ele>
        <time>2023-11-11T21:23:20Z</time>
      </trkpt>
      <trkpt lat="47.17694" lon="-1.53014">
        <ele>24</ele>
        <time>2023-11-11T21:23:31Z</time>
      </trkpt>
      <trkpt lat="47.1772" lon="-1.53002">
        <ele>23</ele>
        <time>2023-11-11T21:24:07Z</time>
      </trkpt>
      <trkpt lat="47.17764" lon="-1.52971">
        <ele>21</ele>
        <time>2023-11-11T21:25:12Z</time>
      </trkpt>
      <trkpt lat="47.17794" lon="-1.52967">
        <ele>21</ele>
        <time>2023-11-11T21:25:52Z</time>
      </trkpt>
      <trkpt lat="47.17808" lon="-1.52962">
        <ele>21</ele>
        <time>2023-11-11T21:26:12Z</time>
      </trkpt>
      <trkpt lat="47.17842" lon="-1.52929">
        <ele>19</ele>
        <time>2023-11-11T21:27:06Z</time>
      </trkpt>
      <trkpt lat="47.17861" lon="-1.52907">
        <ele>18</ele>
        <time>2023-11-11T21:27:38Z</time>
      </trkpt>
      <trkpt lat="47.17887" lon="-1.5287">
        <ele>16</ele>
        <time>2023-11-11T21:28:26Z</time>
      </trkpt>
      <trkpt lat="47.17905" lon="-1.52839">
        <ele>15</ele>
        <time>2023-11-11T21:29:03Z</time>
      </trkpt>
      <trkpt lat="47.17932" lon="-1.52812">
        <ele>14</ele>
        <time>2023-11-11T21:29:47Z</time>
      </trkpt>
      <trkpt lat="47.17937" lon="-1.52792">
        <ele>14</ele>
        <time>2023-11-11T21:30:06Z</time>
      </trkpt>
      <trkpt lat="47.17948" lon="-1.52765">
        <ele>14</ele>
        <time>2023-11-11T21:30:35Z</time>
      </trkpt>
      <trkpt lat="47.17979" lon="-1.52705">
        <ele>12</ele>
        <time>2023-11-11T21:31:43Z</time>
      </trkpt>
      <trkpt lat="47.18006" lon="-1.52677">
        <ele>10</ele>
        <time>2023-11-11T21:32:27Z</time>
      </trkpt>
      <trkpt lat="47.18034" lon="-1.52657">
        <ele>9</ele>
        <time>2023-11-11T21:33:09Z</time>
      </trkpt>
      <trkpt lat="47.18053" lon="-1.52674">
        <ele>8</ele>
        <time>2023-11-11T21:33:39Z</time>
      </trkpt>
      <trkpt lat="47.18064" lon="-1.52676">
        <ele>8</ele>
        <time>2023-11-11T21:33:53Z</time>
      </trkpt>
      <trkpt lat="47.18074" lon="-1.52681">
        <ele>8</ele>
        <time>2023-11-11T21:34:07Z</time>
      </trkpt>
      <trkpt lat="47.18084" lon="-1.52687">
        <ele>7</ele>
        <time>2023-11-11T21:34:22Z</time>
      </trkpt>
      <trkpt lat="47.18092" lon="-1.52693">
        <ele>7</ele>
        <time>2023-11-11T21:34:34Z</time>
      </trkpt>
      <trkpt lat="47.18099" lon="-1.52708">
        <ele>8</ele>
        <time>2023-11-11T21:34:50Z</time>
      </trkpt>
      <trkpt lat="47.18135" lon="-1.52764">
        <ele>8</ele>
        <time>2023-11-11T21:36:00Z</time>
      </trkpt>
      <trkpt lat="47.1816" lon="-1.52783">
        <ele>9</ele>
        <time>2023-11-11T21:36:38Z</time>
      </trkpt>
      <trkpt lat="47.18201" lon="-1.52894">
        <ele>8</ele>
        <time>2023-11-11T21:38:32Z</time>
      </trkpt>
    </trkseg>
  </trk>
  <trk>
    <name><![CDATA[Reze_SevreEtJaguere_13.5km-5792726]]></name>
    <extensions>
      <line xmlns="http://www.topografix.com/GPX/gpx_style/0/2">
        <color>880000</color>
        <width>4</width>
      </line>
    </extensions>
    <trkseg>
      <trkpt lat="47.18062" lon="-1.57149">
        <ele>22</ele>
        <time>2023-11-11T18:51:49Z</time>
      </trkpt>
      <trkpt lat="47.1805" lon="-1.57215">
        <ele>21</ele>
        <time>2023-11-11T18:52:51Z</time>
      </trkpt>
      <trkpt lat="47.18063" lon="-1.57281">
        <ele>20</ele>
        <time>2023-11-11T18:53:53Z</time>
      </trkpt>
      <trkpt lat="47.18092" lon="-1.57374">
        <ele>19</ele>
        <time>2023-11-11T18:55:26Z</time>
      </trkpt>
      <trkpt lat="47.18066" lon="-1.57397">
        <ele>18</ele>
        <time>2023-11-11T18:56:07Z</time>
      </trkpt>
      <trkpt lat="47.18041" lon="-1.57406">
        <ele>18</ele>
        <time>2023-11-11T18:56:41Z</time>
      </trkpt>
      <trkpt lat="47.18029" lon="-1.5741">
        <ele>18</ele>
        <time>2023-11-11T18:56:57Z</time>
      </trkpt>
      <trkpt lat="47.18009" lon="-1.57412">
        <ele>17</ele>
        <time>2023-11-11T18:57:24Z</time>
      </trkpt>
      <trkpt lat="47.17987" lon="-1.5741">
        <ele>18</ele>
        <time>2023-11-11T18:57:54Z</time>
      </trkpt>
      <trkpt lat="47.17941" lon="-1.57404">
        <ele>19</ele>
        <time>2023-11-11T18:58:55Z</time>
      </trkpt>
      <trkpt lat="47.17916" lon="-1.57387">
        <ele>20</ele>
        <time>2023-11-11T18:59:32Z</time>
      </trkpt>
      <trkpt lat="47.17883" lon="-1.57364">
        <ele>22</ele>
        <time>2023-11-11T19:00:21Z</time>
      </trkpt>
      <trkpt lat="47.17867" lon="-1.57342">
        <ele>22</ele>
        <time>2023-11-11T19:00:50Z</time>
      </trkpt>
      <trkpt lat="47.17855" lon="-1.57315">
        <ele>23</ele>
        <time>2023-11-11T19:01:19Z</time>
      </trkpt>
      <trkpt lat="47.17849" lon="-1.57268">
        <ele>24</ele>
        <time>2023-11-11T19:02:02Z</time>
      </trkpt>
      <trkpt lat="47.17835" lon="-1.57255">
        <ele>24</ele>
        <time>2023-11-11T19:02:25Z</time>
      </trkpt>
      <trkpt lat="47.1781" lon="-1.57241">
        <ele>24</ele>
        <time>2023-11-11T19:03:00Z</time>
      </trkpt>
      <trkpt lat="47.17773" lon="-1.57187">
        <ele>24</ele>
        <time>2023-11-11T19:04:10Z</time>
      </trkpt>
      <trkpt lat="47.17684" lon="-1.5705">
        <ele>23</ele>
        <time>2023-11-11T19:07:02Z</time>
      </trkpt>
      <trkpt lat="47.17542" lon="-1.5683">
        <ele>26</ele>
        <time>2023-11-11T19:11:37Z</time>
      </trkpt>
      <trkpt lat="47.1755" lon="-1.5679">
        <ele>26</ele>
        <time>2023-11-11T19:12:15Z</time>
      </trkpt>
      <trkpt lat="47.17556" lon="-1.56688">
        <ele>27</ele>
        <time>2023-11-11T19:13:48Z</time>
      </trkpt>
      <trkpt lat="47.17474" lon="-1.56616">
        <ele>26</ele>
        <time>2023-11-11T19:15:55Z</time>
      </trkpt>
      <trkpt lat="47.17416" lon="-1.56601">
        <ele>25</ele>
        <time>2023-11-11T19:17:14Z</time>
      </trkpt>
      <trkpt lat="47.17387" lon="-1.56526">
        <ele>26</ele>
        <time>2023-11-11T19:18:32Z</time>
      </trkpt>
      <trkpt lat="47.17351" lon="-1.56526">
        <ele>26</ele>
        <time>2023-11-11T19:19:20Z</time>
      </trkpt>
      <trkpt lat="47.17261" lon="-1.56443">
        <ele>24</ele>
        <time>2023-11-11T19:21:42Z</time>
      </trkpt>
      <trkpt lat="47.17238" lon="-1.56401">
        <ele>24</ele>
        <time>2023-11-11T19:22:31Z</time>
      </trkpt>
      <trkpt lat="47.17225" lon="-1.5634">
        <ele>27</ele>
        <time>2023-11-11T19:23:29Z</time>
      </trkpt>
      <trkpt lat="47.17217" lon="-1.56326">
        <ele>28</ele>
        <time>2023-11-11T19:23:45Z</time>
      </trkpt>
      <trkpt lat="47.17187" lon="-1.56334">
        <ele>28</ele>
        <time>2023-11-11T19:24:26Z</time>
      </trkpt>
      <trkpt lat="47.17151" lon="-1.56357">
        <ele>26</ele>
        <time>2023-11-11T19:25:18Z</time>
      </trkpt>
      <trkpt lat="47.17135" lon="-1.56341">
        <ele>27</ele>
        <time>2023-11-11T19:25:44Z</time>
      </trkpt>
      <trkpt lat="47.17113" lon="-1.56308">
        <ele>27</ele>
        <time>2023-11-11T19:26:26Z</time>
      </trkpt>
      <trkpt lat="47.17088" lon="-1.56266">
        <ele>25</ele>
        <time>2023-11-11T19:27:17Z</time>
      </trkpt>
      <trkpt lat="47.17087" lon="-1.56246">
        <ele>25</ele>
        <time>2023-11-11T19:27:35Z</time>
      </trkpt>
      <trkpt lat="47.17077" lon="-1.56236">
        <ele>25</ele>
        <time>2023-11-11T19:27:51Z</time>
      </trkpt>
      <trkpt lat="47.17068" lon="-1.56246">
        <ele>25</ele>
        <time>2023-11-11T19:28:06Z</time>
      </trkpt>
      <trkpt lat="47.17058" lon="-1.56245">
        <ele>25</ele>
        <time>2023-11-11T19:28:19Z</time>
      </trkpt>
      <trkpt lat="47.17053" lon="-1.56256">
        <ele>25</ele>
        <time>2023-11-11T19:28:31Z</time>
      </trkpt>
      <trkpt lat="47.17043" lon="-1.5626">
        <ele>25</ele>
        <time>2023-11-11T19:28:45Z</time>
      </trkpt>
      <trkpt lat="47.17034" lon="-1.56244">
        <ele>26</ele>
        <time>2023-11-11T19:29:04Z</time>
      </trkpt>
      <trkpt lat="47.17012" lon="-1.56246">
        <ele>26</ele>
        <time>2023-11-11T19:29:34Z</time>
      </trkpt>
      <trkpt lat="47.17" lon="-1.56246">
        <ele>26</ele>
        <time>2023-11-11T19:29:50Z</time>
      </trkpt>
      <trkpt lat="47.16992" lon="-1.56251">
        <ele>26</ele>
        <time>2023-11-11T19:30:01Z</time>
      </trkpt>
      <trkpt lat="47.16983" lon="-1.56244">
        <ele>26</ele>
        <time>2023-11-11T19:30:15Z</time>
      </trkpt>
      <trkpt lat="47.16974" lon="-1.56201">
        <ele>26</ele>
        <time>2023-11-11T19:30:56Z</time>
      </trkpt>
      <trkpt lat="47.16964" lon="-1.56199">
        <ele>26</ele>
        <time>2023-11-11T19:31:09Z</time>
      </trkpt>
      <trkpt lat="47.16951" lon="-1.56196">
        <ele>26</ele>
        <time>2023-11-11T19:31:27Z</time>
      </trkpt>
      <trkpt lat="47.16947" lon="-1.56177">
        <ele>26</ele>
        <time>2023-11-11T19:31:45Z</time>
      </trkpt>
      <trkpt lat="47.16939" lon="-1.56144">
        <ele>26</ele>
        <time>2023-11-11T19:32:16Z</time>
      </trkpt>
      <trkpt lat="47.1693" lon="-1.56145">
        <ele>26</ele>
        <time>2023-11-11T19:32:28Z</time>
      </trkpt>
      <trkpt lat="47.16916" lon="-1.56131">
        <ele>26</ele>
        <time>2023-11-11T19:32:51Z</time>
      </trkpt>
      <trkpt lat="47.16907" lon="-1.56121">
        <ele>26</ele>
        <time>2023-11-11T19:33:06Z</time>
      </trkpt>
      <trkpt lat="47.16891" lon="-1.56092">
        <ele>26</ele>
        <time>2023-11-11T19:33:40Z</time>
      </trkpt>
      <trkpt lat="47.16873" lon="-1.56069">
        <ele>26</ele>
        <time>2023-11-11T19:34:12Z</time>
      </trkpt>
      <trkpt lat="47.16846" lon="-1.56029">
        <ele>26</ele>
        <time>2023-11-11T19:35:03Z</time>
      </trkpt>
      <trkpt lat="47.16842" lon="-1.56016">
        <ele>27</ele>
        <time>2023-11-11T19:35:16Z</time>
      </trkpt>
      <trkpt lat="47.16905" lon="-1.55974">
        <ele>27</ele>
        <time>2023-11-11T19:36:48Z</time>
      </trkpt>
      <trkpt lat="47.16916" lon="-1.55976">
        <ele>27</ele>
        <time>2023-11-11T19:37:03Z</time>
      </trkpt>
      <trkpt lat="47.17075" lon="-1.55668">
        <ele>32</ele>
        <time>2023-11-11T19:42:54Z</time>
      </trkpt>
      <trkpt lat="47.1709" lon="-1.55637">
        <ele>33</ele>
        <time>2023-11-11T19:43:28Z</time>
      </trkpt>
      <trkpt lat="47.17108" lon="-1.556">
        <ele>35</ele>
        <time>2023-11-11T19:44:10Z</time>
      </trkpt>
      <trkpt lat="47.1707" lon="-1.55542">
        <ele>34</ele>
        <time>2023-11-11T19:45:23Z</time>
      </trkpt>
      <trkpt lat="47.1701" lon="-1.55485">
        <ele>32</ele>
        <time>2023-11-11T19:46:58Z</time>
      </trkpt>
      <trkpt lat="47.16987" lon="-1.5547">
        <ele>32</ele>
        <time>2023-11-11T19:47:32Z</time>
      </trkpt>
      <trkpt lat="47.1704" lon="-1.55375">
        <ele>35</ele>
        <time>2023-11-11T19:49:23Z</time>
      </trkpt>
      <trkpt lat="47.17097" lon="-1.55277">
        <ele>38</ele>
        <time>2023-11-11T19:51:20Z</time>
      </trkpt>
      <trkpt lat="47.17074" lon="-1.55254">
        <ele>38</ele>
        <time>2023-11-11T19:51:57Z</time>
      </trkpt>
      <trkpt lat="47.17191" lon="-1.5506">
        <ele>37</ele>
        <time>2023-11-11T19:55:52Z</time>
      </trkpt>
      <trkpt lat="47.17173" lon="-1.55028">
        <ele>38</ele>
        <time>2023-11-11T19:56:30Z</time>
      </trkpt>
      <trkpt lat="47.17258" lon="-1.54915">
        <ele>34</ele>
        <time>2023-11-11T19:59:03Z</time>
      </trkpt>
      <trkpt lat="47.17278" lon="-1.54934">
        <ele>34</ele>
        <time>2023-11-11T19:59:35Z</time>
      </trkpt>
      <trkpt lat="47.17311" lon="-1.54886">
        <ele>33</ele>
        <time>2023-11-11T20:00:37Z</time>
      </trkpt>
      <trkpt lat="47.17341" lon="-1.54877">
        <ele>33</ele>
        <time>2023-11-11T20:01:18Z</time>
      </trkpt>
      <trkpt lat="47.17413" lon="-1.54784">
        <ele>32</ele>
        <time>2023-11-11T20:03:25Z</time>
      </trkpt>
      <trkpt lat="47.17415" lon="-1.54758">
        <ele>32</ele>
        <time>2023-11-11T20:03:49Z</time>
      </trkpt>
      <trkpt lat="47.17346" lon="-1.54696">
        <ele>33</ele>
        <time>2023-11-11T20:05:37Z</time>
      </trkpt>
      <trkpt lat="47.17318" lon="-1.54675">
        <ele>33</ele>
        <time>2023-11-11T20:06:19Z</time>
      </trkpt>
      <trkpt lat="47.17344" lon="-1.54631">
        <ele>34</ele>
        <time>2023-11-11T20:07:12Z</time>
      </trkpt>
      <trkpt lat="47.17374" lon="-1.54572">
        <ele>34</ele>
        <time>2023-11-11T20:08:19Z</time>
      </trkpt>
      <trkpt lat="47.17273" lon="-1.54513">
        <ele>36</ele>
        <time>2023-11-11T20:10:44Z</time>
      </trkpt>
      <trkpt lat="47.17279" lon="-1.54472">
        <ele>35</ele>
        <time>2023-11-11T20:11:22Z</time>
      </trkpt>
      <trkpt lat="47.17288" lon="-1.54463">
        <ele>35</ele>
        <time>2023-11-11T20:11:36Z</time>
      </trkpt>
      <trkpt lat="47.17296" lon="-1.54344">
        <ele>35</ele>
        <time>2023-11-11T20:13:25Z</time>
      </trkpt>
      <trkpt lat="47.17315" lon="-1.54342">
        <ele>34</ele>
        <time>2023-11-11T20:13:50Z</time>
      </trkpt>
      <trkpt lat="47.17332" lon="-1.54276">
        <ele>34</ele>
        <time>2023-11-11T20:14:54Z</time>
      </trkpt>
      <trkpt lat="47.17353" lon="-1.54211">
        <ele>34</ele>
        <time>2023-11-11T20:16:00Z</time>
      </trkpt>
      <trkpt lat="47.1737" lon="-1.54164">
        <ele>34</ele>
        <time>2023-11-11T20:16:48Z</time>
      </trkpt>
      <trkpt lat="47.17379" lon="-1.5416">
        <ele>33</ele>
        <time>2023-11-11T20:17:00Z</time>
      </trkpt>
      <trkpt lat="47.17392" lon="-1.54163">
        <ele>33</ele>
        <time>2023-11-11T20:17:18Z</time>
      </trkpt>
      <trkpt lat="47.17392" lon="-1.54094">
        <ele>32</ele>
        <time>2023-11-11T20:18:20Z</time>
      </trkpt>
      <trkpt lat="47.174" lon="-1.54103">
        <ele>32</ele>
        <time>2023-11-11T20:18:34Z</time>
      </trkpt>
      <trkpt lat="47.17409" lon="-1.54074">
        <ele>32</ele>
        <time>2023-11-11T20:19:03Z</time>
      </trkpt>
      <trkpt lat="47.17414" lon="-1.54053">
        <ele>32</ele>
        <time>2023-11-11T20:19:23Z</time>
      </trkpt>
      <trkpt lat="47.17424" lon="-1.5403">
        <ele>31</ele>
        <time>2023-11-11T20:19:48Z</time>
      </trkpt>
      <trkpt lat="47.17431" lon="-1.54007">
        <ele>31</ele>
        <time>2023-11-11T20:20:11Z</time>
      </trkpt>
      <trkpt lat="47.17445" lon="-1.53978">
        <ele>31</ele>
        <time>2023-11-11T20:20:43Z</time>
      </trkpt>
      <trkpt lat="47.17467" lon="-1.53881">
        <ele>30</ele>
        <time>2023-11-11T20:22:16Z</time>
      </trkpt>
      <trkpt lat="47.17451" lon="-1.53852">
        <ele>30</ele>
        <time>2023-11-11T20:22:50Z</time>
      </trkpt>
      <trkpt lat="47.17494" lon="-1.53795">
        <ele>30</ele>
        <time>2023-11-11T20:24:07Z</time>
      </trkpt>
      <trkpt lat="47.1754" lon="-1.53735">
        <ele>30</ele>
        <time>2023-11-11T20:25:29Z</time>
      </trkpt>
      <trkpt lat="47.17506" lon="-1.53692">
        <ele>29</ele>
        <time>2023-11-11T20:26:29Z</time>
      </trkpt>
      <trkpt lat="47.17442" lon="-1.53599">
        <ele>28</ele>
        <time>2023-11-11T20:28:29Z</time>
      </trkpt>
      <trkpt lat="47.17427" lon="-1.53575">
        <ele>27</ele>
        <time>2023-11-11T20:28:58Z</time>
      </trkpt>
      <trkpt lat="47.17415" lon="-1.53538">
        <ele>26</ele>
        <time>2023-11-11T20:29:35Z</time>
      </trkpt>
      <trkpt lat="47.1743" lon="-1.53519">
        <ele>27</ele>
        <time>2023-11-11T20:30:02Z</time>
      </trkpt>
      <trkpt lat="47.17409" lon="-1.53442">
        <ele>27</ele>
        <time>2023-11-11T20:31:17Z</time>
      </trkpt>
      <trkpt lat="47.17407" lon="-1.53382">
        <ele>28</ele>
        <time>2023-11-11T20:32:12Z</time>
      </trkpt>
      <trkpt lat="47.17407" lon="-1.53325">
        <ele>28</ele>
        <time>2023-11-11T20:33:03Z</time>
      </trkpt>
      <trkpt lat="47.17401" lon="-1.53305">
        <ele>28</ele>
        <time>2023-11-11T20:33:23Z</time>
      </trkpt>
      <trkpt lat="47.17419" lon="-1.53246">
        <ele>27</ele>
        <time>2023-11-11T20:34:22Z</time>
      </trkpt>
      <trkpt lat="47.17442" lon="-1.53197">
        <ele>25</ele>
        <time>2023-11-11T20:35:16Z</time>
      </trkpt>
      <trkpt lat="47.17489" lon="-1.53172">
        <ele>24</ele>
        <time>2023-11-11T20:36:23Z</time>
      </trkpt>
      <trkpt lat="47.17572" lon="-1.53105">
        <ele>23</ele>
        <time>2023-11-11T20:38:29Z</time>
      </trkpt>
      <trkpt lat="47.17621" lon="-1.5309">
        <ele>23</ele>
        <time>2023-11-11T20:39:36Z</time>
      </trkpt>
      <trkpt lat="47.17632" lon="-1.53079">
        <ele>23</ele>
        <time>2023-11-11T20:39:53Z</time>
      </trkpt>
      <trkpt lat="47.17656" lon="-1.53082">
        <ele>22</ele>
        <time>2023-11-11T20:40:26Z</time>
      </trkpt>
      <trkpt lat="47.17677" lon="-1.53071">
        <ele>23</ele>
        <time>2023-11-11T20:40:55Z</time>
      </trkpt>
      <trkpt lat="47.17694" lon="-1.53054">
        <ele>23</ele>
        <time>2023-11-11T20:41:23Z</time>
      </trkpt>
      <trkpt lat="47.17692" lon="-1.53016">
        <ele>24</ele>
        <time>2023-11-11T20:41:57Z</time>
      </trkpt>
      <trkpt lat="47.1778" lon="-1.52962">
        <ele>21</ele>
        <time>2023-11-11T20:44:05Z</time>
      </trkpt>
      <trkpt lat="47.17802" lon="-1.52976">
        <ele>21</ele>
        <time>2023-11-11T20:44:37Z</time>
      </trkpt>
      <trkpt lat="47.1788" lon="-1.5289">
        <ele>17</ele>
        <time>2023-11-11T20:46:47Z</time>
      </trkpt>
      <trkpt lat="47.17888" lon="-1.52868">
        <ele>16</ele>
        <time>2023-11-11T20:47:09Z</time>
      </trkpt>
      <trkpt lat="47.17912" lon="-1.5283">
        <ele>14</ele>
        <time>2023-11-11T20:47:56Z</time>
      </trkpt>
      <trkpt lat="47.17931" lon="-1.5281">
        <ele>14</ele>
        <time>2023-11-11T20:48:28Z</time>
      </trkpt>
      <trkpt lat="47.17947" lon="-1.52768">
        <ele>14</ele>
        <time>2023-11-11T20:49:11Z</time>
      </trkpt>
      <trkpt lat="47.17962" lon="-1.52738">
        <ele>13</ele>
        <time>2023-11-11T20:49:45Z</time>
      </trkpt>
      <trkpt lat="47.1799" lon="-1.52693">
        <ele>11</ele>
        <time>2023-11-11T20:50:40Z</time>
      </trkpt>
      <trkpt lat="47.18029" lon="-1.52651">
        <ele>9</ele>
        <time>2023-11-11T20:51:45Z</time>
      </trkpt>
      <trkpt lat="47.18016" lon="-1.52631">
        <ele>9</ele>
        <time>2023-11-11T20:52:10Z</time>
      </trkpt>
      <trkpt lat="47.18059" lon="-1.5258">
        <ele>7</ele>
        <time>2023-11-11T20:53:24Z</time>
      </trkpt>
      <trkpt lat="47.18092" lon="-1.5256">
        <ele>6</ele>
        <time>2023-11-11T20:54:11Z</time>
      </trkpt>
      <trkpt lat="47.1813" lon="-1.52561">
        <ele>6</ele>
        <time>2023-11-11T20:55:02Z</time>
      </trkpt>
      <trkpt lat="47.1814" lon="-1.52576">
        <ele>6</ele>
        <time>2023-11-11T20:55:21Z</time>
      </trkpt>
      <trkpt lat="47.18178" lon="-1.52771">
        <ele>8</ele>
        <time>2023-11-11T20:58:25Z</time>
      </trkpt>
      <trkpt lat="47.18181" lon="-1.52817">
        <ele>8</ele>
        <time>2023-11-11T20:59:07Z</time>
      </trkpt>
      <trkpt lat="47.18268" lon="-1.5309">
        <ele>6</ele>
        <time>2023-11-11T21:03:40Z</time>
      </trkpt>
      <trkpt lat="47.1826" lon="-1.53131">
        <ele>7</ele>
        <time>2023-11-11T21:04:19Z</time>
      </trkpt>
      <trkpt lat="47.1828" lon="-1.53137">
        <ele>7</ele>
        <time>2023-11-11T21:04:46Z</time>
      </trkpt>
      <trkpt lat="47.1828" lon="-1.53162">
        <ele>7</ele>
        <time>2023-11-11T21:05:09Z</time>
      </trkpt>
      <trkpt lat="47.18291" lon="-1.53168">
        <ele>7</ele>
        <time>2023-11-11T21:05:25Z</time>
      </trkpt>
      <trkpt lat="47.1834" lon="-1.53245">
        <ele>7</ele>
        <time>2023-11-11T21:07:00Z</time>
      </trkpt>
      <trkpt lat="47.18391" lon="-1.53311">
        <ele>9</ele>
        <time>2023-11-11T21:08:31Z</time>
      </trkpt>
      <trkpt lat="47.185" lon="-1.53423">
        <ele>11</ele>
        <time>2023-11-11T21:11:28Z</time>
      </trkpt>
      <trkpt lat="47.18498" lon="-1.53434">
        <ele>12</ele>
        <time>2023-11-11T21:11:39Z</time>
      </trkpt>
      <trkpt lat="47.1855" lon="-1.53483">
        <ele>11</ele>
        <time>2023-11-11T21:13:01Z</time>
      </trkpt>
      <trkpt lat="47.18621" lon="-1.53543">
        <ele>12</ele>
        <time>2023-11-11T21:14:50Z</time>
      </trkpt>
      <trkpt lat="47.18785" lon="-1.53595">
        <ele>7</ele>
        <time>2023-11-11T21:18:34Z</time>
      </trkpt>
      <trkpt lat="47.18865" lon="-1.53629">
        <ele>6</ele>
        <time>2023-11-11T21:20:25Z</time>
      </trkpt>
      <trkpt lat="47.18954" lon="-1.5369">
        <ele>5</ele>
        <time>2023-11-11T21:22:36Z</time>
      </trkpt>
      <trkpt lat="47.19027" lon="-1.53752">
        <ele>7</ele>
        <time>2023-11-11T21:24:29Z</time>
      </trkpt>
      <trkpt lat="47.19117" lon="-1.53873">
        <ele>6</ele>
        <time>2023-11-11T21:27:12Z</time>
      </trkpt>
      <trkpt lat="47.19128" lon="-1.5389">
        <ele>6</ele>
        <time>2023-11-11T21:27:33Z</time>
      </trkpt>
      <trkpt lat="47.19147" lon="-1.53907">
        <ele>7</ele>
        <time>2023-11-11T21:28:02Z</time>
      </trkpt>
      <trkpt lat="47.19201" lon="-1.54008">
        <ele>5</ele>
        <time>2023-11-11T21:29:59Z</time>
      </trkpt>
      <trkpt lat="47.19251" lon="-1.5411">
        <ele>6</ele>
        <time>2023-11-11T21:31:53Z</time>
      </trkpt>
      <trkpt lat="47.19282" lon="-1.54176">
        <ele>7</ele>
        <time>2023-11-11T21:33:06Z</time>
      </trkpt>
      <trkpt lat="47.19296" lon="-1.54185">
        <ele>7</ele>
        <time>2023-11-11T21:33:26Z</time>
      </trkpt>
      <trkpt lat="47.19326" lon="-1.54246">
        <ele>7</ele>
        <time>2023-11-11T21:34:35Z</time>
      </trkpt>
      <trkpt lat="47.19347" lon="-1.54281">
        <ele>7</ele>
        <time>2023-11-11T21:35:17Z</time>
      </trkpt>
      <trkpt lat="47.19308" lon="-1.54307">
        <ele>7</ele>
        <time>2023-11-11T21:36:14Z</time>
      </trkpt>
      <trkpt lat="47.19274" lon="-1.54342">
        <ele>7</ele>
        <time>2023-11-11T21:37:09Z</time>
      </trkpt>
      <trkpt lat="47.19245" lon="-1.54365">
        <ele>7</ele>
        <time>2023-11-11T21:37:53Z</time>
      </trkpt>
      <trkpt lat="47.19203" lon="-1.54366">
        <ele>7</ele>
        <time>2023-11-11T21:38:49Z</time>
      </trkpt>
      <trkpt lat="47.19181" lon="-1.54383">
        <ele>7</ele>
        <time>2023-11-11T21:39:23Z</time>
      </trkpt>
      <trkpt lat="47.19177" lon="-1.54405">
        <ele>7</ele>
        <time>2023-11-11T21:39:43Z</time>
      </trkpt>
      <trkpt lat="47.19169" lon="-1.54403">
        <ele>7</ele>
        <time>2023-11-11T21:39:54Z</time>
      </trkpt>
      <trkpt lat="47.19143" lon="-1.54424">
        <ele>9</ele>
        <time>2023-11-11T21:40:34Z</time>
      </trkpt>
      <trkpt lat="47.19153" lon="-1.54518">
        <ele>10</ele>
        <time>2023-11-11T21:42:00Z</time>
      </trkpt>
      <trkpt lat="47.19169" lon="-1.54633">
        <ele>11</ele>
        <time>2023-11-11T21:43:46Z</time>
      </trkpt>
      <trkpt lat="47.19033" lon="-1.54718">
        <ele>13</ele>
        <time>2023-11-11T21:47:03Z</time>
      </trkpt>
      <trkpt lat="47.19023" lon="-1.54797">
        <ele>13</ele>
        <time>2023-11-11T21:48:16Z</time>
      </trkpt>
      <trkpt lat="47.18998" lon="-1.54797">
        <ele>13</ele>
        <time>2023-11-11T21:48:50Z</time>
      </trkpt>
      <trkpt lat="47.18994" lon="-1.54784">
        <ele>12</ele>
        <time>2023-11-11T21:49:03Z</time>
      </trkpt>
      <trkpt lat="47.18987" lon="-1.54778">
        <ele>12</ele>
        <time>2023-11-11T21:49:13Z</time>
      </trkpt>
      <trkpt lat="47.18978" lon="-1.54782">
        <ele>12</ele>
        <time>2023-11-11T21:49:26Z</time>
      </trkpt>
      <trkpt lat="47.18968" lon="-1.54786">
        <ele>12</ele>
        <time>2023-11-11T21:49:40Z</time>
      </trkpt>
      <trkpt lat="47.18963" lon="-1.54789">
        <ele>12</ele>
        <time>2023-11-11T21:49:47Z</time>
      </trkpt>
      <trkpt lat="47.18962" lon="-1.54797">
        <ele>12</ele>
        <time>2023-11-11T21:49:54Z</time>
      </trkpt>
      <trkpt lat="47.18959" lon="-1.54807">
        <ele>12</ele>
        <time>2023-11-11T21:50:04Z</time>
      </trkpt>
      <trkpt lat="47.18945" lon="-1.54809">
        <ele>12</ele>
        <time>2023-11-11T21:50:23Z</time>
      </trkpt>
      <trkpt lat="47.18943" lon="-1.5482">
        <ele>12</ele>
        <time>2023-11-11T21:50:33Z</time>
      </trkpt>
      <trkpt lat="47.18921" lon="-1.5483">
        <ele>12</ele>
        <time>2023-11-11T21:51:04Z</time>
      </trkpt>
      <trkpt lat="47.18895" lon="-1.54829">
        <ele>13</ele>
        <time>2023-11-11T21:51:39Z</time>
      </trkpt>
      <trkpt lat="47.18868" lon="-1.54887">
        <ele>15</ele>
        <time>2023-11-11T21:52:43Z</time>
      </trkpt>
      <trkpt lat="47.1881" lon="-1.54889">
        <ele>17</ele>
        <time>2023-11-11T21:54:00Z</time>
      </trkpt>
      <trkpt lat="47.18861" lon="-1.55124">
        <ele>16</ele>
        <time>2023-11-11T21:57:44Z</time>
      </trkpt>
      <trkpt lat="47.18913" lon="-1.55185">
        <ele>12</ele>
        <time>2023-11-11T21:59:13Z</time>
      </trkpt>
      <trkpt lat="47.19063" lon="-1.55039">
        <ele>14</ele>
        <time>2023-11-11T22:03:13Z</time>
      </trkpt>
      <trkpt lat="47.19115" lon="-1.55115">
        <ele>11</ele>
        <time>2023-11-11T22:04:50Z</time>
      </trkpt>
      <trkpt lat="47.19123" lon="-1.55101">
        <ele>11</ele>
        <time>2023-11-11T22:05:07Z</time>
      </trkpt>
      <trkpt lat="47.19122" lon="-1.55096">
        <ele>11</ele>
        <time>2023-11-11T22:05:12Z</time>
      </trkpt>
      <trkpt lat="47.19123" lon="-1.55086">
        <ele>12</ele>
        <time>2023-11-11T22:05:21Z</time>
      </trkpt>
      <trkpt lat="47.19131" lon="-1.55079">
        <ele>11</ele>
        <time>2023-11-11T22:05:33Z</time>
      </trkpt>
      <trkpt lat="47.19159" lon="-1.55058">
        <ele>10</ele>
        <time>2023-11-11T22:06:15Z</time>
      </trkpt>
      <trkpt lat="47.19199" lon="-1.55032">
        <ele>8</ele>
        <time>2023-11-11T22:07:14Z</time>
      </trkpt>
      <trkpt lat="47.19222" lon="-1.55018">
        <ele>7</ele>
        <time>2023-11-11T22:07:47Z</time>
      </trkpt>
      <trkpt lat="47.19263" lon="-1.55009">
        <ele>6</ele>
        <time>2023-11-11T22:08:42Z</time>
      </trkpt>
      <trkpt lat="47.19291" lon="-1.54997">
        <ele>7</ele>
        <time>2023-11-11T22:09:21Z</time>
      </trkpt>
      <trkpt lat="47.19303" lon="-1.54998">
        <ele>8</ele>
        <time>2023-11-11T22:09:37Z</time>
      </trkpt>
      <trkpt lat="47.19308" lon="-1.55022">
        <ele>8</ele>
        <time>2023-11-11T22:10:00Z</time>
      </trkpt>
      <trkpt lat="47.19293" lon="-1.55105">
        <ele>7</ele>
        <time>2023-11-11T22:11:18Z</time>
      </trkpt>
      <trkpt lat="47.19275" lon="-1.55167">
        <ele>6</ele>
        <time>2023-11-11T22:12:19Z</time>
      </trkpt>
      <trkpt lat="47.19264" lon="-1.5519">
        <ele>7</ele>
        <time>2023-11-11T22:12:44Z</time>
      </trkpt>
      <trkpt lat="47.19263" lon="-1.55213">
        <ele>7</ele>
        <time>2023-11-11T22:13:05Z</time>
      </trkpt>
      <trkpt lat="47.19232" lon="-1.55382">
        <ele>7</ele>
        <time>2023-11-11T22:15:44Z</time>
      </trkpt>
      <trkpt lat="47.192" lon="-1.5538">
        <ele>7</ele>
        <time>2023-11-11T22:16:27Z</time>
      </trkpt>
      <trkpt lat="47.19187" lon="-1.55388">
        <ele>7</ele>
        <time>2023-11-11T22:16:45Z</time>
      </trkpt>
      <trkpt lat="47.19174" lon="-1.55393">
        <ele>7</ele>
        <time>2023-11-11T22:17:03Z</time>
      </trkpt>
      <trkpt lat="47.19169" lon="-1.5541">
        <ele>7</ele>
        <time>2023-11-11T22:17:20Z</time>
      </trkpt>
      <trkpt lat="47.1917" lon="-1.55448">
        <ele>6</ele>
        <time>2023-11-11T22:17:55Z</time>
      </trkpt>
      <trkpt lat="47.19198" lon="-1.5546">
        <ele>6</ele>
        <time>2023-11-11T22:18:34Z</time>
      </trkpt>
      <trkpt lat="47.19201" lon="-1.55469">
        <ele>6</ele>
        <time>2023-11-11T22:18:43Z</time>
      </trkpt>
      <trkpt lat="47.19205" lon="-1.55485">
        <ele>6</ele>
        <time>2023-11-11T22:18:58Z</time>
      </trkpt>
      <trkpt lat="47.19207" lon="-1.55511">
        <ele>6</ele>
        <time>2023-11-11T22:19:22Z</time>
      </trkpt>
      <trkpt lat="47.19209" lon="-1.55533">
        <ele>6</ele>
        <time>2023-11-11T22:19:42Z</time>
      </trkpt>
      <trkpt lat="47.19206" lon="-1.55562">
        <ele>6</ele>
        <time>2023-11-11T22:20:09Z</time>
      </trkpt>
      <trkpt lat="47.19202" lon="-1.55594">
        <ele>6</ele>
        <time>2023-11-11T22:20:38Z</time>
      </trkpt>
      <trkpt lat="47.19202" lon="-1.55637">
        <ele>7</ele>
        <time>2023-11-11T22:21:17Z</time>
      </trkpt>
      <trkpt lat="47.19199" lon="-1.55698">
        <ele>7</ele>
        <time>2023-11-11T22:22:13Z</time>
      </trkpt>
      <trkpt lat="47.1921" lon="-1.55741">
        <ele>8</ele>
        <time>2023-11-11T22:22:54Z</time>
      </trkpt>
      <trkpt lat="47.19205" lon="-1.55758">
        <ele>8</ele>
        <time>2023-11-11T22:23:11Z</time>
      </trkpt>
      <trkpt lat="47.19233" lon="-1.56141">
        <ele>9</ele>
        <time>2023-11-11T22:29:00Z</time>
      </trkpt>
      <trkpt lat="47.19227" lon="-1.56192">
        <ele>8</ele>
        <time>2023-11-11T22:29:47Z</time>
      </trkpt>
      <trkpt lat="47.19217" lon="-1.5622">
        <ele>8</ele>
        <time>2023-11-11T22:30:16Z</time>
      </trkpt>
      <trkpt lat="47.19213" lon="-1.56286">
        <ele>8</ele>
        <time>2023-11-11T22:31:16Z</time>
      </trkpt>
      <trkpt lat="47.19215" lon="-1.56319">
        <ele>8</ele>
        <time>2023-11-11T22:31:46Z</time>
      </trkpt>
      <trkpt lat="47.19215" lon="-1.56348">
        <ele>8</ele>
        <time>2023-11-11T22:32:12Z</time>
      </trkpt>
      <trkpt lat="47.19235" lon="-1.56423">
        <ele>8</ele>
        <time>2023-11-11T22:33:25Z</time>
      </trkpt>
      <trkpt lat="47.19233" lon="-1.56468">
        <ele>7</ele>
        <time>2023-11-11T22:34:06Z</time>
      </trkpt>
      <trkpt lat="47.19229" lon="-1.56522">
        <ele>6</ele>
        <time>2023-11-11T22:34:56Z</time>
      </trkpt>
      <trkpt lat="47.19229" lon="-1.56538">
        <ele>5</ele>
        <time>2023-11-11T22:35:10Z</time>
      </trkpt>
      <trkpt lat="47.19226" lon="-1.56554">
        <ele>5</ele>
        <time>2023-11-11T22:35:25Z</time>
      </trkpt>
      <trkpt lat="47.19234" lon="-1.56562">
        <ele>5</ele>
        <time>2023-11-11T22:35:38Z</time>
      </trkpt>
      <trkpt lat="47.19233" lon="-1.56588">
        <ele>4</ele>
        <time>2023-11-11T22:36:02Z</time>
      </trkpt>
      <trkpt lat="47.19226" lon="-1.56605">
        <ele>5</ele>
        <time>2023-11-11T22:36:20Z</time>
      </trkpt>
      <trkpt lat="47.19222" lon="-1.5664">
        <ele>5</ele>
        <time>2023-11-11T22:36:52Z</time>
      </trkpt>
      <trkpt lat="47.19224" lon="-1.56655">
        <ele>5</ele>
        <time>2023-11-11T22:37:06Z</time>
      </trkpt>
      <trkpt lat="47.19224" lon="-1.56665">
        <ele>5</ele>
        <time>2023-11-11T22:37:15Z</time>
      </trkpt>
      <trkpt lat="47.19217" lon="-1.56737">
        <ele>6</ele>
        <time>2023-11-11T22:38:21Z</time>
      </trkpt>
      <trkpt lat="47.19213" lon="-1.56804">
        <ele>6</ele>
        <time>2023-11-11T22:39:22Z</time>
      </trkpt>
      <trkpt lat="47.19214" lon="-1.56862">
        <ele>6</ele>
        <time>2023-11-11T22:40:14Z</time>
      </trkpt>
      <trkpt lat="47.19236" lon="-1.56862">
        <ele>5</ele>
        <time>2023-11-11T22:40:44Z</time>
      </trkpt>
      <trkpt lat="47.19257" lon="-1.56864">
        <ele>4</ele>
        <time>2023-11-11T22:41:12Z</time>
      </trkpt>
      <trkpt lat="47.19263" lon="-1.56868">
        <ele>5</ele>
        <time>2023-11-11T22:41:21Z</time>
      </trkpt>
      <trkpt lat="47.19266" lon="-1.56901">
        <ele>5</ele>
        <time>2023-11-11T22:41:51Z</time>
      </trkpt>
      <trkpt lat="47.19264" lon="-1.56929">
        <ele>5</ele>
        <time>2023-11-11T22:42:16Z</time>
      </trkpt>
      <trkpt lat="47.19262" lon="-1.56977">
        <ele>5</ele>
        <time>2023-11-11T22:43:00Z</time>
      </trkpt>
      <trkpt lat="47.19258" lon="-1.56976">
        <ele>5</ele>
        <time>2023-11-11T22:43:05Z</time>
      </trkpt>
      <trkpt lat="47.19256" lon="-1.56991">
        <ele>5</ele>
        <time>2023-11-11T22:43:19Z</time>
      </trkpt>
      <trkpt lat="47.19233" lon="-1.56994">
        <ele>6</ele>
        <time>2023-11-11T22:43:50Z</time>
      </trkpt>
      <trkpt lat="47.19233" lon="-1.57024">
        <ele>6</ele>
        <time>2023-11-11T22:44:17Z</time>
      </trkpt>
      <trkpt lat="47.19232" lon="-1.57037">
        <ele>6</ele>
        <time>2023-11-11T22:44:29Z</time>
      </trkpt>
      <trkpt lat="47.19246" lon="-1.57044">
        <ele>5</ele>
        <time>2023-11-11T22:44:49Z</time>
      </trkpt>
      <trkpt lat="47.19253" lon="-1.57067">
        <ele>5</ele>
        <time>2023-11-11T22:45:12Z</time>
      </trkpt>
      <trkpt lat="47.19251" lon="-1.57087">
        <ele>5</ele>
        <time>2023-11-11T22:45:30Z</time>
      </trkpt>
      <trkpt lat="47.19246" lon="-1.57118">
        <ele>6</ele>
        <time>2023-11-11T22:45:59Z</time>
      </trkpt>
      <trkpt lat="47.1924" lon="-1.57133">
        <ele>7</ele>
        <time>2023-11-11T22:46:15Z</time>
      </trkpt>
      <trkpt lat="47.19229" lon="-1.57152">
        <ele>8</ele>
        <time>2023-11-11T22:46:37Z</time>
      </trkpt>
      <trkpt lat="47.19237" lon="-1.57175">
        <ele>8</ele>
        <time>2023-11-11T22:47:01Z</time>
      </trkpt>
      <trkpt lat="47.19233" lon="-1.57203">
        <ele>8</ele>
        <time>2023-11-11T22:47:27Z</time>
      </trkpt>
      <trkpt lat="47.19232" lon="-1.57221">
        <ele>8</ele>
        <time>2023-11-11T22:47:43Z</time>
      </trkpt>
      <trkpt lat="47.1923" lon="-1.57239">
        <ele>8</ele>
        <time>2023-11-11T22:48:00Z</time>
      </trkpt>
      <trkpt lat="47.19221" lon="-1.57256">
        <ele>8</ele>
        <time>2023-11-11T22:48:19Z</time>
      </trkpt>
      <trkpt lat="47.19204" lon="-1.5726">
        <ele>8</ele>
        <time>2023-11-11T22:48:42Z</time>
      </trkpt>
      <trkpt lat="47.19174" lon="-1.57256">
        <ele>9</ele>
        <time>2023-11-11T22:49:22Z</time>
      </trkpt>
      <trkpt lat="47.19141" lon="-1.57239">
        <ele>9</ele>
        <time>2023-11-11T22:50:09Z</time>
      </trkpt>
      <trkpt lat="47.19131" lon="-1.57276">
        <ele>8</ele>
        <time>2023-11-11T22:50:45Z</time>
      </trkpt>
      <trkpt lat="47.1912" lon="-1.57313">
        <ele>8</ele>
        <time>2023-11-11T22:51:22Z</time>
      </trkpt>
      <trkpt lat="47.1911" lon="-1.57374">
        <ele>7</ele>
        <time>2023-11-11T22:52:19Z</time>
      </trkpt>
      <trkpt lat="47.19097" lon="-1.5741">
        <ele>6</ele>
        <time>2023-11-11T22:52:56Z</time>
      </trkpt>
      <trkpt lat="47.19078" lon="-1.57458">
        <ele>7</ele>
        <time>2023-11-11T22:53:46Z</time>
      </trkpt>
      <trkpt lat="47.19067" lon="-1.57477">
        <ele>8</ele>
        <time>2023-11-11T22:54:09Z</time>
      </trkpt>
      <trkpt lat="47.19057" lon="-1.57503">
        <ele>8</ele>
        <time>2023-11-11T22:54:36Z</time>
      </trkpt>
      <trkpt lat="47.19042" lon="-1.5754">
        <ele>8</ele>
        <time>2023-11-11T22:55:15Z</time>
      </trkpt>
      <trkpt lat="47.19025" lon="-1.57562">
        <ele>8</ele>
        <time>2023-11-11T22:55:45Z</time>
      </trkpt>
      <trkpt lat="47.19019" lon="-1.57602">
        <ele>7</ele>
        <time>2023-11-11T22:56:22Z</time>
      </trkpt>
      <trkpt lat="47.18941" lon="-1.57578">
        <ele>11</ele>
        <time>2023-11-11T22:58:08Z</time>
      </trkpt>
      <trkpt lat="47.18784" lon="-1.57486">
        <ele>8</ele>
        <time>2023-11-11T23:01:54Z</time>
      </trkpt>
      <trkpt lat="47.18765" lon="-1.5746">
        <ele>9</ele>
        <time>2023-11-11T23:02:29Z</time>
      </trkpt>
      <trkpt lat="47.18749" lon="-1.5742">
        <ele>9</ele>
        <time>2023-11-11T23:03:11Z</time>
      </trkpt>
      <trkpt lat="47.18675" lon="-1.57406">
        <ele>11</ele>
        <time>2023-11-11T23:04:50Z</time>
      </trkpt>
      <trkpt lat="47.18664" lon="-1.57383">
        <ele>12</ele>
        <time>2023-11-11T23:05:16Z</time>
      </trkpt>
      <trkpt lat="47.18651" lon="-1.5737">
        <ele>13</ele>
        <time>2023-11-11T23:05:37Z</time>
      </trkpt>
      <trkpt lat="47.18623" lon="-1.57372">
        <ele>13</ele>
        <time>2023-11-11T23:06:14Z</time>
      </trkpt>
      <trkpt lat="47.18602" lon="-1.57373">
        <ele>13</ele>
        <time>2023-11-11T23:06:42Z</time>
      </trkpt>
      <trkpt lat="47.18582" lon="-1.57366">
        <ele>14</ele>
        <time>2023-11-11T23:07:10Z</time>
      </trkpt>
      <trkpt lat="47.18565" lon="-1.57366">
        <ele>14</ele>
        <time>2023-11-11T23:07:32Z</time>
      </trkpt>
      <trkpt lat="47.1856" lon="-1.57363">
        <ele>14</ele>
        <time>2023-11-11T23:07:40Z</time>
      </trkpt>
      <trkpt lat="47.18511" lon="-1.57369">
        <ele>16</ele>
        <time>2023-11-11T23:08:45Z</time>
      </trkpt>
      <trkpt lat="47.18505" lon="-1.57377">
        <ele>16</ele>
        <time>2023-11-11T23:08:56Z</time>
      </trkpt>
      <trkpt lat="47.18496" lon="-1.5739">
        <ele>16</ele>
        <time>2023-11-11T23:09:13Z</time>
      </trkpt>
      <trkpt lat="47.1849" lon="-1.57414">
        <ele>15</ele>
        <time>2023-11-11T23:09:36Z</time>
      </trkpt>
      <trkpt lat="47.18463" lon="-1.57417">
        <ele>16</ele>
        <time>2023-11-11T23:10:12Z</time>
      </trkpt>
      <trkpt lat="47.18439" lon="-1.57395">
        <ele>17</ele>
        <time>2023-11-11T23:10:50Z</time>
      </trkpt>
      <trkpt lat="47.18394" lon="-1.57415">
        <ele>17</ele>
        <time>2023-11-11T23:11:53Z</time>
      </trkpt>
      <trkpt lat="47.18381" lon="-1.5742">
        <ele>17</ele>
        <time>2023-11-11T23:12:11Z</time>
      </trkpt>
      <trkpt lat="47.18357" lon="-1.57424">
        <ele>18</ele>
        <time>2023-11-11T23:12:43Z</time>
      </trkpt>
      <trkpt lat="47.18342" lon="-1.5743">
        <ele>18</ele>
        <time>2023-11-11T23:13:03Z</time>
      </trkpt>
      <trkpt lat="47.18328" lon="-1.5743">
        <ele>18</ele>
        <time>2023-11-11T23:13:22Z</time>
      </trkpt>
      <trkpt lat="47.183" lon="-1.57437">
        <ele>18</ele>
        <time>2023-11-11T23:14:00Z</time>
      </trkpt>
      <trkpt lat="47.18272" lon="-1.57456">
        <ele>19</ele>
        <time>2023-11-11T23:14:41Z</time>
      </trkpt>
      <trkpt lat="47.18251" lon="-1.57437">
        <ele>18</ele>
        <time>2023-11-11T23:15:14Z</time>
      </trkpt>
      <trkpt lat="47.18249" lon="-1.57425">
        <ele>18</ele>
        <time>2023-11-11T23:15:25Z</time>
      </trkpt>
      <trkpt lat="47.18232" lon="-1.57412">
        <ele>18</ele>
        <time>2023-11-11T23:15:51Z</time>
      </trkpt>
      <trkpt lat="47.18214" lon="-1.57392">
        <ele>19</ele>
        <time>2023-11-11T23:16:21Z</time>
      </trkpt>
      <trkpt lat="47.18209" lon="-1.5739">
        <ele>19</ele>
        <time>2023-11-11T23:16:28Z</time>
      </trkpt>
      <trkpt lat="47.18187" lon="-1.57383">
        <ele>19</ele>
        <time>2023-11-11T23:16:58Z</time>
      </trkpt>
      <trkpt lat="47.18127" lon="-1.57362">
        <ele>18</ele>
        <time>2023-11-11T23:18:20Z</time>
      </trkpt>
      <trkpt lat="47.18093" lon="-1.57372">
        <ele>19</ele>
        <time>2023-11-11T23:19:07Z</time>
      </trkpt>
      <trkpt lat="47.18082" lon="-1.57352">
        <ele>19</ele>
        <time>2023-11-11T23:19:30Z</time>
      </trkpt>
      <trkpt lat="47.18074" lon="-1.57313">
        <ele>20</ele>
        <time>2023-11-11T23:20:07Z</time>
      </trkpt>
      <trkpt lat="47.18064" lon="-1.57283">
        <ele>20</ele>
        <time>2023-11-11T23:20:37Z</time>
      </trkpt>
      <trkpt lat="47.18051" lon="-1.57225">
        <ele>21</ele>
        <time>2023-11-11T23:21:33Z</time>
      </trkpt>
      <trkpt lat="47.18053" lon="-1.57202">
        <ele>22</ele>
        <time>2023-11-11T23:21:54Z</time>
      </trkpt>
      <trkpt lat="47.18056" lon="-1.57182">
        <ele>22</ele>
        <time>2023-11-11T23:22:12Z</time>
      </trkpt>
      <trkpt lat="47.18063" lon="-1.57147">
        <ele>22</ele>
        <time>2023-11-11T23:22:45Z</time>
      </trkpt>
    </trkseg>
  </trk>
  <trk>
    <name><![CDATA[Reze_CroixMedardPontRousseau_10km-5792578]]></name>
    <extensions>
      <line xmlns="http://www.topografix.com/GPX/gpx_style/0/2">
        <color>008888</color>
        <width>4</width>
      </line>
    </extensions>
    <trkseg>
      <trkpt lat="47.18767" lon="-1.57414">
        <ele>9</ele>
        <time>2023-11-11T18:51:39Z</time>
      </trkpt>
      <trkpt lat="47.18752" lon="-1.57422">
        <ele>9</ele>
        <time>2023-11-11T18:52:00Z</time>
      </trkpt>
      <trkpt lat="47.18748" lon="-1.57417">
        <ele>9</ele>
        <time>2023-11-11T18:52:07Z</time>
      </trkpt>
      <trkpt lat="47.18725" lon="-1.57418">
        <ele>10</ele>
        <time>2023-11-11T18:52:38Z</time>
      </trkpt>
      <trkpt lat="47.18676" lon="-1.57407">
        <ele>11</ele>
        <time>2023-11-11T18:53:44Z</time>
      </trkpt>
      <trkpt lat="47.18668" lon="-1.57396">
        <ele>12</ele>
        <time>2023-11-11T18:53:59Z</time>
      </trkpt>
      <trkpt lat="47.18662" lon="-1.5738">
        <ele>12</ele>
        <time>2023-11-11T18:54:15Z</time>
      </trkpt>
      <trkpt lat="47.18648" lon="-1.57369">
        <ele>13</ele>
        <time>2023-11-11T18:54:37Z</time>
      </trkpt>
      <trkpt lat="47.18604" lon="-1.57373">
        <ele>13</ele>
        <time>2023-11-11T18:55:35Z</time>
      </trkpt>
      <trkpt lat="47.18597" lon="-1.57372">
        <ele>13</ele>
        <time>2023-11-11T18:55:45Z</time>
      </trkpt>
      <trkpt lat="47.18588" lon="-1.57367">
        <ele>14</ele>
        <time>2023-11-11T18:55:58Z</time>
      </trkpt>
      <trkpt lat="47.18567" lon="-1.57368">
        <ele>14</ele>
        <time>2023-11-11T18:56:26Z</time>
      </trkpt>
      <trkpt lat="47.18561" lon="-1.57363">
        <ele>14</ele>
        <time>2023-11-11T18:56:35Z</time>
      </trkpt>
      <trkpt lat="47.18546" lon="-1.57364">
        <ele>15</ele>
        <time>2023-11-11T18:56:55Z</time>
      </trkpt>
      <trkpt lat="47.1851" lon="-1.5737">
        <ele>16</ele>
        <time>2023-11-11T18:57:43Z</time>
      </trkpt>
      <trkpt lat="47.18497" lon="-1.5739">
        <ele>16</ele>
        <time>2023-11-11T18:58:08Z</time>
      </trkpt>
      <trkpt lat="47.1849" lon="-1.57414">
        <ele>15</ele>
        <time>2023-11-11T18:58:32Z</time>
      </trkpt>
      <trkpt lat="47.18482" lon="-1.57418">
        <ele>15</ele>
        <time>2023-11-11T18:58:43Z</time>
      </trkpt>
      <trkpt lat="47.18464" lon="-1.57416">
        <ele>16</ele>
        <time>2023-11-11T18:59:07Z</time>
      </trkpt>
      <trkpt lat="47.18448" lon="-1.57403">
        <ele>17</ele>
        <time>2023-11-11T18:59:32Z</time>
      </trkpt>
      <trkpt lat="47.18441" lon="-1.57393">
        <ele>17</ele>
        <time>2023-11-11T18:59:45Z</time>
      </trkpt>
      <trkpt lat="47.18392" lon="-1.57418">
        <ele>17</ele>
        <time>2023-11-11T19:00:54Z</time>
      </trkpt>
      <trkpt lat="47.18372" lon="-1.5742">
        <ele>18</ele>
        <time>2023-11-11T19:01:21Z</time>
      </trkpt>
      <trkpt lat="47.18341" lon="-1.57432">
        <ele>18</ele>
        <time>2023-11-11T19:02:03Z</time>
      </trkpt>
      <trkpt lat="47.1833" lon="-1.5743">
        <ele>18</ele>
        <time>2023-11-11T19:02:18Z</time>
      </trkpt>
      <trkpt lat="47.18302" lon="-1.57437">
        <ele>18</ele>
        <time>2023-11-11T19:02:56Z</time>
      </trkpt>
      <trkpt lat="47.18291" lon="-1.57442">
        <ele>18</ele>
        <time>2023-11-11T19:03:12Z</time>
      </trkpt>
      <trkpt lat="47.18273" lon="-1.57457">
        <ele>19</ele>
        <time>2023-11-11T19:03:39Z</time>
      </trkpt>
      <trkpt lat="47.18251" lon="-1.57437">
        <ele>18</ele>
        <time>2023-11-11T19:04:14Z</time>
      </trkpt>
      <trkpt lat="47.1825" lon="-1.57427">
        <ele>18</ele>
        <time>2023-11-11T19:04:23Z</time>
      </trkpt>
      <trkpt lat="47.18237" lon="-1.57418">
        <ele>18</ele>
        <time>2023-11-11T19:04:42Z</time>
      </trkpt>
      <trkpt lat="47.18219" lon="-1.57398">
        <ele>19</ele>
        <time>2023-11-11T19:05:12Z</time>
      </trkpt>
      <trkpt lat="47.18216" lon="-1.5739">
        <ele>19</ele>
        <time>2023-11-11T19:05:20Z</time>
      </trkpt>
      <trkpt lat="47.18218" lon="-1.57371">
        <ele>19</ele>
        <time>2023-11-11T19:05:38Z</time>
      </trkpt>
      <trkpt lat="47.18216" lon="-1.57353">
        <ele>19</ele>
        <time>2023-11-11T19:05:54Z</time>
      </trkpt>
      <trkpt lat="47.18205" lon="-1.57336">
        <ele>19</ele>
        <time>2023-11-11T19:06:16Z</time>
      </trkpt>
      <trkpt lat="47.18204" lon="-1.57301">
        <ele>21</ele>
        <time>2023-11-11T19:06:47Z</time>
      </trkpt>
      <trkpt lat="47.18209" lon="-1.57239">
        <ele>23</ele>
        <time>2023-11-11T19:07:44Z</time>
      </trkpt>
      <trkpt lat="47.18208" lon="-1.5722">
        <ele>23</ele>
        <time>2023-11-11T19:08:01Z</time>
      </trkpt>
      <trkpt lat="47.1821" lon="-1.57211">
        <ele>23</ele>
        <time>2023-11-11T19:08:10Z</time>
      </trkpt>
      <trkpt lat="47.18224" lon="-1.57214">
        <ele>23</ele>
        <time>2023-11-11T19:08:29Z</time>
      </trkpt>
      <trkpt lat="47.18246" lon="-1.57214">
        <ele>24</ele>
        <time>2023-11-11T19:08:58Z</time>
      </trkpt>
      <trkpt lat="47.18265" lon="-1.57211">
        <ele>23</ele>
        <time>2023-11-11T19:09:24Z</time>
      </trkpt>
      <trkpt lat="47.18266" lon="-1.57204">
        <ele>23</ele>
        <time>2023-11-11T19:09:30Z</time>
      </trkpt>
      <trkpt lat="47.18273" lon="-1.57194">
        <ele>23</ele>
        <time>2023-11-11T19:09:43Z</time>
      </trkpt>
      <trkpt lat="47.18293" lon="-1.57088">
        <ele>24</ele>
        <time>2023-11-11T19:11:23Z</time>
      </trkpt>
      <trkpt lat="47.18307" lon="-1.56992">
        <ele>24</ele>
        <time>2023-11-11T19:12:52Z</time>
      </trkpt>
      <trkpt lat="47.18318" lon="-1.56941">
        <ele>25</ele>
        <time>2023-11-11T19:13:41Z</time>
      </trkpt>
      <trkpt lat="47.18324" lon="-1.56934">
        <ele>25</ele>
        <time>2023-11-11T19:13:51Z</time>
      </trkpt>
      <trkpt lat="47.18327" lon="-1.56924">
        <ele>25</ele>
        <time>2023-11-11T19:14:01Z</time>
      </trkpt>
      <trkpt lat="47.18333" lon="-1.56869">
        <ele>24</ele>
        <time>2023-11-11T19:14:51Z</time>
      </trkpt>
      <trkpt lat="47.18343" lon="-1.56827">
        <ele>24</ele>
        <time>2023-11-11T19:15:32Z</time>
      </trkpt>
      <trkpt lat="47.18346" lon="-1.56798">
        <ele>23</ele>
        <time>2023-11-11T19:15:58Z</time>
      </trkpt>
      <trkpt lat="47.18341" lon="-1.56774">
        <ele>23</ele>
        <time>2023-11-11T19:16:21Z</time>
      </trkpt>
      <trkpt lat="47.18328" lon="-1.56753">
        <ele>23</ele>
        <time>2023-11-11T19:16:47Z</time>
      </trkpt>
      <trkpt lat="47.1828" lon="-1.56702">
        <ele>24</ele>
        <time>2023-11-11T19:18:06Z</time>
      </trkpt>
      <trkpt lat="47.18273" lon="-1.56699">
        <ele>25</ele>
        <time>2023-11-11T19:18:15Z</time>
      </trkpt>
      <trkpt lat="47.18238" lon="-1.56669">
        <ele>25</ele>
        <time>2023-11-11T19:19:09Z</time>
      </trkpt>
      <trkpt lat="47.18233" lon="-1.56719">
        <ele>25</ele>
        <time>2023-11-11T19:19:55Z</time>
      </trkpt>
      <trkpt lat="47.18227" lon="-1.56734">
        <ele>25</ele>
        <time>2023-11-11T19:20:11Z</time>
      </trkpt>
      <trkpt lat="47.1822" lon="-1.56737">
        <ele>25</ele>
        <time>2023-11-11T19:20:21Z</time>
      </trkpt>
      <trkpt lat="47.18183" lon="-1.56742">
        <ele>24</ele>
        <time>2023-11-11T19:21:10Z</time>
      </trkpt>
      <trkpt lat="47.18173" lon="-1.56751">
        <ele>24</ele>
        <time>2023-11-11T19:21:26Z</time>
      </trkpt>
      <trkpt lat="47.18162" lon="-1.56877">
        <ele>23</ele>
        <time>2023-11-11T19:23:21Z</time>
      </trkpt>
      <trkpt lat="47.1815" lon="-1.56875">
        <ele>24</ele>
        <time>2023-11-11T19:23:37Z</time>
      </trkpt>
      <trkpt lat="47.18138" lon="-1.56881">
        <ele>24</ele>
        <time>2023-11-11T19:23:54Z</time>
      </trkpt>
      <trkpt lat="47.18133" lon="-1.56886">
        <ele>24</ele>
        <time>2023-11-11T19:24:02Z</time>
      </trkpt>
      <trkpt lat="47.18126" lon="-1.56901">
        <ele>24</ele>
        <time>2023-11-11T19:24:19Z</time>
      </trkpt>
      <trkpt lat="47.18115" lon="-1.56945">
        <ele>24</ele>
        <time>2023-11-11T19:25:01Z</time>
      </trkpt>
      <trkpt lat="47.18116" lon="-1.56975">
        <ele>24</ele>
        <time>2023-11-11T19:25:29Z</time>
      </trkpt>
      <trkpt lat="47.1811" lon="-1.57">
        <ele>24</ele>
        <time>2023-11-11T19:25:53Z</time>
      </trkpt>
      <trkpt lat="47.18071" lon="-1.57">
        <ele>25</ele>
        <time>2023-11-11T19:26:45Z</time>
      </trkpt>
      <trkpt lat="47.18024" lon="-1.56992">
        <ele>24</ele>
        <time>2023-11-11T19:27:48Z</time>
      </trkpt>
      <trkpt lat="47.18019" lon="-1.56987">
        <ele>23</ele>
        <time>2023-11-11T19:27:56Z</time>
      </trkpt>
      <trkpt lat="47.18017" lon="-1.56976">
        <ele>23</ele>
        <time>2023-11-11T19:28:06Z</time>
      </trkpt>
      <trkpt lat="47.1802" lon="-1.56933">
        <ele>23</ele>
        <time>2023-11-11T19:28:45Z</time>
      </trkpt>
      <trkpt lat="47.17923" lon="-1.56916">
        <ele>26</ele>
        <time>2023-11-11T19:30:56Z</time>
      </trkpt>
      <trkpt lat="47.17917" lon="-1.56912">
        <ele>26</ele>
        <time>2023-11-11T19:31:05Z</time>
      </trkpt>
      <trkpt lat="47.17911" lon="-1.56899">
        <ele>26</ele>
        <time>2023-11-11T19:31:19Z</time>
      </trkpt>
      <trkpt lat="47.17902" lon="-1.56894">
        <ele>26</ele>
        <time>2023-11-11T19:31:32Z</time>
      </trkpt>
      <trkpt lat="47.17905" lon="-1.56884">
        <ele>26</ele>
        <time>2023-11-11T19:31:42Z</time>
      </trkpt>
      <trkpt lat="47.1791" lon="-1.56803">
        <ele>26</ele>
        <time>2023-11-11T19:32:55Z</time>
      </trkpt>
      <trkpt lat="47.17913" lon="-1.56785">
        <ele>27</ele>
        <time>2023-11-11T19:33:12Z</time>
      </trkpt>
      <trkpt lat="47.17917" lon="-1.56778">
        <ele>27</ele>
        <time>2023-11-11T19:33:21Z</time>
      </trkpt>
      <trkpt lat="47.17927" lon="-1.56767">
        <ele>27</ele>
        <time>2023-11-11T19:33:37Z</time>
      </trkpt>
      <trkpt lat="47.1796" lon="-1.5675">
        <ele>27</ele>
        <time>2023-11-11T19:34:24Z</time>
      </trkpt>
      <trkpt lat="47.18001" lon="-1.56733">
        <ele>27</ele>
        <time>2023-11-11T19:35:21Z</time>
      </trkpt>
      <trkpt lat="47.18014" lon="-1.56721">
        <ele>27</ele>
        <time>2023-11-11T19:35:41Z</time>
      </trkpt>
      <trkpt lat="47.18028" lon="-1.56701">
        <ele>28</ele>
        <time>2023-11-11T19:36:07Z</time>
      </trkpt>
      <trkpt lat="47.18047" lon="-1.56642">
        <ele>28</ele>
        <time>2023-11-11T19:37:06Z</time>
      </trkpt>
      <trkpt lat="47.1805" lon="-1.56641">
        <ele>28</ele>
        <time>2023-11-11T19:37:11Z</time>
      </trkpt>
      <trkpt lat="47.18057" lon="-1.56646">
        <ele>28</ele>
        <time>2023-11-11T19:37:21Z</time>
      </trkpt>
      <trkpt lat="47.18081" lon="-1.56672">
        <ele>28</ele>
        <time>2023-11-11T19:38:01Z</time>
      </trkpt>
      <trkpt lat="47.18085" lon="-1.56672">
        <ele>28</ele>
        <time>2023-11-11T19:38:06Z</time>
      </trkpt>
      <trkpt lat="47.18099" lon="-1.56654">
        <ele>27</ele>
        <time>2023-11-11T19:38:31Z</time>
      </trkpt>
      <trkpt lat="47.18107" lon="-1.56658">
        <ele>27</ele>
        <time>2023-11-11T19:38:42Z</time>
      </trkpt>
      <trkpt lat="47.18116" lon="-1.56672">
        <ele>27</ele>
        <time>2023-11-11T19:39:00Z</time>
      </trkpt>
      <trkpt lat="47.18136" lon="-1.56688">
        <ele>26</ele>
        <time>2023-11-11T19:39:30Z</time>
      </trkpt>
      <trkpt lat="47.18159" lon="-1.56634">
        <ele>26</ele>
        <time>2023-11-11T19:40:28Z</time>
      </trkpt>
      <trkpt lat="47.18174" lon="-1.56605">
        <ele>26</ele>
        <time>2023-11-11T19:41:01Z</time>
      </trkpt>
      <trkpt lat="47.18194" lon="-1.56546">
        <ele>26</ele>
        <time>2023-11-11T19:42:01Z</time>
      </trkpt>
      <trkpt lat="47.18212" lon="-1.56518">
        <ele>25</ele>
        <time>2023-11-11T19:42:36Z</time>
      </trkpt>
      <trkpt lat="47.18223" lon="-1.56496">
        <ele>25</ele>
        <time>2023-11-11T19:43:00Z</time>
      </trkpt>
      <trkpt lat="47.18253" lon="-1.5645">
        <ele>25</ele>
        <time>2023-11-11T19:43:58Z</time>
      </trkpt>
      <trkpt lat="47.18263" lon="-1.5644">
        <ele>25</ele>
        <time>2023-11-11T19:44:14Z</time>
      </trkpt>
      <trkpt lat="47.18256" lon="-1.56429">
        <ele>25</ele>
        <time>2023-11-11T19:44:28Z</time>
      </trkpt>
      <trkpt lat="47.1825" lon="-1.56409">
        <ele>25</ele>
        <time>2023-11-11T19:44:48Z</time>
      </trkpt>
      <trkpt lat="47.18232" lon="-1.56369">
        <ele>25</ele>
        <time>2023-11-11T19:45:31Z</time>
      </trkpt>
      <trkpt lat="47.18232" lon="-1.56359">
        <ele>25</ele>
        <time>2023-11-11T19:45:40Z</time>
      </trkpt>
      <trkpt lat="47.1824" lon="-1.56339">
        <ele>25</ele>
        <time>2023-11-11T19:46:01Z</time>
      </trkpt>
      <trkpt lat="47.18245" lon="-1.56332">
        <ele>25</ele>
        <time>2023-11-11T19:46:11Z</time>
      </trkpt>
      <trkpt lat="47.18264" lon="-1.56322">
        <ele>25</ele>
        <time>2023-11-11T19:46:38Z</time>
      </trkpt>
      <trkpt lat="47.18271" lon="-1.56321">
        <ele>25</ele>
        <time>2023-11-11T19:46:47Z</time>
      </trkpt>
      <trkpt lat="47.18289" lon="-1.56308">
        <ele>26</ele>
        <time>2023-11-11T19:47:14Z</time>
      </trkpt>
      <trkpt lat="47.18312" lon="-1.56296">
        <ele>26</ele>
        <time>2023-11-11T19:47:46Z</time>
      </trkpt>
      <trkpt lat="47.18325" lon="-1.56285">
        <ele>26</ele>
        <time>2023-11-11T19:48:06Z</time>
      </trkpt>
      <trkpt lat="47.18338" lon="-1.56281">
        <ele>26</ele>
        <time>2023-11-11T19:48:24Z</time>
      </trkpt>
      <trkpt lat="47.18343" lon="-1.56282">
        <ele>26</ele>
        <time>2023-11-11T19:48:31Z</time>
      </trkpt>
      <trkpt lat="47.18349" lon="-1.56263">
        <ele>26</ele>
        <time>2023-11-11T19:48:50Z</time>
      </trkpt>
      <trkpt lat="47.18339" lon="-1.56253">
        <ele>26</ele>
        <time>2023-11-11T19:49:06Z</time>
      </trkpt>
      <trkpt lat="47.18343" lon="-1.56225">
        <ele>26</ele>
        <time>2023-11-11T19:49:32Z</time>
      </trkpt>
      <trkpt lat="47.18345" lon="-1.56213">
        <ele>26</ele>
        <time>2023-11-11T19:49:43Z</time>
      </trkpt>
      <trkpt lat="47.18359" lon="-1.56192">
        <ele>26</ele>
        <time>2023-11-11T19:50:10Z</time>
      </trkpt>
      <trkpt lat="47.18365" lon="-1.56177">
        <ele>26</ele>
        <time>2023-11-11T19:50:25Z</time>
      </trkpt>
      <trkpt lat="47.18365" lon="-1.56168">
        <ele>26</ele>
        <time>2023-11-11T19:50:34Z</time>
      </trkpt>
      <trkpt lat="47.1837" lon="-1.5615">
        <ele>26</ele>
        <time>2023-11-11T19:50:51Z</time>
      </trkpt>
      <trkpt lat="47.18372" lon="-1.56132">
        <ele>27</ele>
        <time>2023-11-11T19:51:08Z</time>
      </trkpt>
      <trkpt lat="47.1837" lon="-1.56094">
        <ele>27</ele>
        <time>2023-11-11T19:51:42Z</time>
      </trkpt>
      <trkpt lat="47.18383" lon="-1.56035">
        <ele>27</ele>
        <time>2023-11-11T19:52:39Z</time>
      </trkpt>
      <trkpt lat="47.18423" lon="-1.55789">
        <ele>27</ele>
        <time>2023-11-11T19:56:28Z</time>
      </trkpt>
      <trkpt lat="47.18427" lon="-1.55781">
        <ele>27</ele>
        <time>2023-11-11T19:56:37Z</time>
      </trkpt>
      <trkpt lat="47.18443" lon="-1.55789">
        <ele>27</ele>
        <time>2023-11-11T19:57:00Z</time>
      </trkpt>
      <trkpt lat="47.18471" lon="-1.55798">
        <ele>25</ele>
        <time>2023-11-11T19:57:38Z</time>
      </trkpt>
      <trkpt lat="47.18473" lon="-1.55789">
        <ele>26</ele>
        <time>2023-11-11T19:57:46Z</time>
      </trkpt>
      <trkpt lat="47.18479" lon="-1.55742">
        <ele>26</ele>
        <time>2023-11-11T19:58:30Z</time>
      </trkpt>
      <trkpt lat="47.18478" lon="-1.55732">
        <ele>26</ele>
        <time>2023-11-11T19:58:39Z</time>
      </trkpt>
      <trkpt lat="47.18481" lon="-1.55725">
        <ele>26</ele>
        <time>2023-11-11T19:58:47Z</time>
      </trkpt>
      <trkpt lat="47.18497" lon="-1.55618">
        <ele>24</ele>
        <time>2023-11-11T20:00:26Z</time>
      </trkpt>
      <trkpt lat="47.185" lon="-1.5561">
        <ele>24</ele>
        <time>2023-11-11T20:00:34Z</time>
      </trkpt>
      <trkpt lat="47.18502" lon="-1.55588">
        <ele>23</ele>
        <time>2023-11-11T20:00:54Z</time>
      </trkpt>
      <trkpt lat="47.18498" lon="-1.55577">
        <ele>23</ele>
        <time>2023-11-11T20:01:06Z</time>
      </trkpt>
      <trkpt lat="47.18518" lon="-1.5554">
        <ele>23</ele>
        <time>2023-11-11T20:01:48Z</time>
      </trkpt>
      <trkpt lat="47.18537" lon="-1.55438">
        <ele>21</ele>
        <time>2023-11-11T20:03:24Z</time>
      </trkpt>
      <trkpt lat="47.1854" lon="-1.55377">
        <ele>21</ele>
        <time>2023-11-11T20:04:20Z</time>
      </trkpt>
      <trkpt lat="47.1853" lon="-1.55351">
        <ele>22</ele>
        <time>2023-11-11T20:04:47Z</time>
      </trkpt>
      <trkpt lat="47.1853" lon="-1.55342">
        <ele>22</ele>
        <time>2023-11-11T20:04:55Z</time>
      </trkpt>
      <trkpt lat="47.18541" lon="-1.55319">
        <ele>22</ele>
        <time>2023-11-11T20:05:21Z</time>
      </trkpt>
      <trkpt lat="47.18554" lon="-1.55312">
        <ele>23</ele>
        <time>2023-11-11T20:05:39Z</time>
      </trkpt>
      <trkpt lat="47.18575" lon="-1.55294">
        <ele>23</ele>
        <time>2023-11-11T20:06:12Z</time>
      </trkpt>
      <trkpt lat="47.18585" lon="-1.55292">
        <ele>23</ele>
        <time>2023-11-11T20:06:25Z</time>
      </trkpt>
      <trkpt lat="47.18589" lon="-1.55287">
        <ele>23</ele>
        <time>2023-11-11T20:06:32Z</time>
      </trkpt>
      <trkpt lat="47.18594" lon="-1.55289">
        <ele>22</ele>
        <time>2023-11-11T20:06:39Z</time>
      </trkpt>
      <trkpt lat="47.18583" lon="-1.55241">
        <ele>24</ele>
        <time>2023-11-11T20:07:25Z</time>
      </trkpt>
      <trkpt lat="47.18568" lon="-1.55155">
        <ele>22</ele>
        <time>2023-11-11T20:08:45Z</time>
      </trkpt>
      <trkpt lat="47.18574" lon="-1.55044">
        <ele>21</ele>
        <time>2023-11-11T20:10:26Z</time>
      </trkpt>
      <trkpt lat="47.18568" lon="-1.55015">
        <ele>22</ele>
        <time>2023-11-11T20:10:54Z</time>
      </trkpt>
      <trkpt lat="47.1856" lon="-1.54993">
        <ele>22</ele>
        <time>2023-11-11T20:11:16Z</time>
      </trkpt>
      <trkpt lat="47.18564" lon="-1.54972">
        <ele>22</ele>
        <time>2023-11-11T20:11:36Z</time>
      </trkpt>
      <trkpt lat="47.18563" lon="-1.54963">
        <ele>22</ele>
        <time>2023-11-11T20:11:45Z</time>
      </trkpt>
      <trkpt lat="47.18571" lon="-1.54939">
        <ele>22</ele>
        <time>2023-11-11T20:12:09Z</time>
      </trkpt>
      <trkpt lat="47.18581" lon="-1.54931">
        <ele>22</ele>
        <time>2023-11-11T20:12:24Z</time>
      </trkpt>
      <trkpt lat="47.186" lon="-1.54923">
        <ele>21</ele>
        <time>2023-11-11T20:12:50Z</time>
      </trkpt>
      <trkpt lat="47.18605" lon="-1.54913">
        <ele>21</ele>
        <time>2023-11-11T20:13:02Z</time>
      </trkpt>
      <trkpt lat="47.18597" lon="-1.5489">
        <ele>21</ele>
        <time>2023-11-11T20:13:25Z</time>
      </trkpt>
      <trkpt lat="47.186" lon="-1.54843">
        <ele>21</ele>
        <time>2023-11-11T20:14:08Z</time>
      </trkpt>
      <trkpt lat="47.18615" lon="-1.54837">
        <ele>20</ele>
        <time>2023-11-11T20:14:29Z</time>
      </trkpt>
      <trkpt lat="47.18624" lon="-1.54826">
        <ele>20</ele>
        <time>2023-11-11T20:14:44Z</time>
      </trkpt>
      <trkpt lat="47.18642" lon="-1.54821">
        <ele>19</ele>
        <time>2023-11-11T20:15:09Z</time>
      </trkpt>
      <trkpt lat="47.18647" lon="-1.54809">
        <ele>19</ele>
        <time>2023-11-11T20:15:21Z</time>
      </trkpt>
      <trkpt lat="47.1867" lon="-1.54788">
        <ele>19</ele>
        <time>2023-11-11T20:15:58Z</time>
      </trkpt>
      <trkpt lat="47.18681" lon="-1.54781">
        <ele>19</ele>
        <time>2023-11-11T20:16:14Z</time>
      </trkpt>
      <trkpt lat="47.187" lon="-1.54778">
        <ele>19</ele>
        <time>2023-11-11T20:16:39Z</time>
      </trkpt>
      <trkpt lat="47.18718" lon="-1.54781">
        <ele>18</ele>
        <time>2023-11-11T20:17:03Z</time>
      </trkpt>
      <trkpt lat="47.18725" lon="-1.54779">
        <ele>18</ele>
        <time>2023-11-11T20:17:13Z</time>
      </trkpt>
      <trkpt lat="47.18739" lon="-1.54781">
        <ele>18</ele>
        <time>2023-11-11T20:17:32Z</time>
      </trkpt>
      <trkpt lat="47.18762" lon="-1.54798">
        <ele>17</ele>
        <time>2023-11-11T20:18:06Z</time>
      </trkpt>
      <trkpt lat="47.18772" lon="-1.54799">
        <ele>17</ele>
        <time>2023-11-11T20:18:19Z</time>
      </trkpt>
      <trkpt lat="47.1879" lon="-1.54796">
        <ele>16</ele>
        <time>2023-11-11T20:18:43Z</time>
      </trkpt>
      <trkpt lat="47.18797" lon="-1.5479">
        <ele>16</ele>
        <time>2023-11-11T20:18:54Z</time>
      </trkpt>
      <trkpt lat="47.18796" lon="-1.54749">
        <ele>16</ele>
        <time>2023-11-11T20:19:31Z</time>
      </trkpt>
      <trkpt lat="47.18798" lon="-1.54724">
        <ele>16</ele>
        <time>2023-11-11T20:19:54Z</time>
      </trkpt>
      <trkpt lat="47.18794" lon="-1.54715">
        <ele>16</ele>
        <time>2023-11-11T20:20:04Z</time>
      </trkpt>
      <trkpt lat="47.18794" lon="-1.54707">
        <ele>16</ele>
        <time>2023-11-11T20:20:11Z</time>
      </trkpt>
      <trkpt lat="47.18777" lon="-1.54702">
        <ele>17</ele>
        <time>2023-11-11T20:20:34Z</time>
      </trkpt>
      <trkpt lat="47.18755" lon="-1.54701">
        <ele>17</ele>
        <time>2023-11-11T20:21:04Z</time>
      </trkpt>
      <trkpt lat="47.18741" lon="-1.54691">
        <ele>18</ele>
        <time>2023-11-11T20:21:25Z</time>
      </trkpt>
      <trkpt lat="47.18737" lon="-1.54684">
        <ele>18</ele>
        <time>2023-11-11T20:21:33Z</time>
      </trkpt>
      <trkpt lat="47.18713" lon="-1.54674">
        <ele>18</ele>
        <time>2023-11-11T20:22:06Z</time>
      </trkpt>
      <trkpt lat="47.1872" lon="-1.54645">
        <ele>18</ele>
        <time>2023-11-11T20:22:34Z</time>
      </trkpt>
      <trkpt lat="47.18722" lon="-1.54601">
        <ele>18</ele>
        <time>2023-11-11T20:23:14Z</time>
      </trkpt>
      <trkpt lat="47.18732" lon="-1.54539">
        <ele>18</ele>
        <time>2023-11-11T20:24:12Z</time>
      </trkpt>
      <trkpt lat="47.18729" lon="-1.54523">
        <ele>18</ele>
        <time>2023-11-11T20:24:27Z</time>
      </trkpt>
      <trkpt lat="47.18729" lon="-1.5449">
        <ele>18</ele>
        <time>2023-11-11T20:24:57Z</time>
      </trkpt>
      <trkpt lat="47.18736" lon="-1.54472">
        <ele>18</ele>
        <time>2023-11-11T20:25:16Z</time>
      </trkpt>
      <trkpt lat="47.18739" lon="-1.54456">
        <ele>18</ele>
        <time>2023-11-11T20:25:31Z</time>
      </trkpt>
      <trkpt lat="47.18748" lon="-1.5444">
        <ele>18</ele>
        <time>2023-11-11T20:25:49Z</time>
      </trkpt>
      <trkpt lat="47.18755" lon="-1.54433">
        <ele>18</ele>
        <time>2023-11-11T20:26:01Z</time>
      </trkpt>
      <trkpt lat="47.18758" lon="-1.54425">
        <ele>18</ele>
        <time>2023-11-11T20:26:09Z</time>
      </trkpt>
      <trkpt lat="47.18774" lon="-1.54406">
        <ele>18</ele>
        <time>2023-11-11T20:26:36Z</time>
      </trkpt>
      <trkpt lat="47.1877" lon="-1.544">
        <ele>18</ele>
        <time>2023-11-11T20:26:44Z</time>
      </trkpt>
      <trkpt lat="47.18771" lon="-1.5439">
        <ele>18</ele>
        <time>2023-11-11T20:26:53Z</time>
      </trkpt>
      <trkpt lat="47.18769" lon="-1.54384">
        <ele>18</ele>
        <time>2023-11-11T20:26:59Z</time>
      </trkpt>
      <trkpt lat="47.1873" lon="-1.54341">
        <ele>19</ele>
        <time>2023-11-11T20:28:04Z</time>
      </trkpt>
      <trkpt lat="47.18713" lon="-1.54314">
        <ele>20</ele>
        <time>2023-11-11T20:28:38Z</time>
      </trkpt>
      <trkpt lat="47.18693" lon="-1.54291">
        <ele>21</ele>
        <time>2023-11-11T20:29:12Z</time>
      </trkpt>
      <trkpt lat="47.18668" lon="-1.54252">
        <ele>22</ele>
        <time>2023-11-11T20:30:00Z</time>
      </trkpt>
      <trkpt lat="47.18659" lon="-1.54244">
        <ele>22</ele>
        <time>2023-11-11T20:30:14Z</time>
      </trkpt>
      <trkpt lat="47.1864" lon="-1.54217">
        <ele>22</ele>
        <time>2023-11-11T20:30:50Z</time>
      </trkpt>
      <trkpt lat="47.18606" lon="-1.54181">
        <ele>23</ele>
        <time>2023-11-11T20:31:45Z</time>
      </trkpt>
      <trkpt lat="47.18593" lon="-1.54171">
        <ele>23</ele>
        <time>2023-11-11T20:32:05Z</time>
      </trkpt>
      <trkpt lat="47.18583" lon="-1.54158">
        <ele>23</ele>
        <time>2023-11-11T20:32:23Z</time>
      </trkpt>
      <trkpt lat="47.18576" lon="-1.54155">
        <ele>23</ele>
        <time>2023-11-11T20:32:33Z</time>
      </trkpt>
      <trkpt lat="47.1855" lon="-1.54134">
        <ele>23</ele>
        <time>2023-11-11T20:33:12Z</time>
      </trkpt>
      <trkpt lat="47.18536" lon="-1.54116">
        <ele>23</ele>
        <time>2023-11-11T20:33:37Z</time>
      </trkpt>
      <trkpt lat="47.18516" lon="-1.54099">
        <ele>23</ele>
        <time>2023-11-11T20:34:08Z</time>
      </trkpt>
      <trkpt lat="47.18516" lon="-1.54093">
        <ele>23</ele>
        <time>2023-11-11T20:34:13Z</time>
      </trkpt>
      <trkpt lat="47.1855" lon="-1.54065">
        <ele>22</ele>
        <time>2023-11-11T20:35:05Z</time>
      </trkpt>
      <trkpt lat="47.1856" lon="-1.54054">
        <ele>22</ele>
        <time>2023-11-11T20:35:22Z</time>
      </trkpt>
      <trkpt lat="47.18569" lon="-1.54038">
        <ele>21</ele>
        <time>2023-11-11T20:35:41Z</time>
      </trkpt>
      <trkpt lat="47.18589" lon="-1.54016">
        <ele>21</ele>
        <time>2023-11-11T20:36:14Z</time>
      </trkpt>
      <trkpt lat="47.18598" lon="-1.5401">
        <ele>21</ele>
        <time>2023-11-11T20:36:27Z</time>
      </trkpt>
      <trkpt lat="47.18613" lon="-1.5399">
        <ele>20</ele>
        <time>2023-11-11T20:36:54Z</time>
      </trkpt>
      <trkpt lat="47.1864" lon="-1.53962">
        <ele>20</ele>
        <time>2023-11-11T20:37:38Z</time>
      </trkpt>
      <trkpt lat="47.18681" lon="-1.53911">
        <ele>19</ele>
        <time>2023-11-11T20:38:50Z</time>
      </trkpt>
      <trkpt lat="47.18699" lon="-1.53882">
        <ele>16</ele>
        <time>2023-11-11T20:39:26Z</time>
      </trkpt>
      <trkpt lat="47.18709" lon="-1.53874">
        <ele>15</ele>
        <time>2023-11-11T20:39:41Z</time>
      </trkpt>
      <trkpt lat="47.18713" lon="-1.53868">
        <ele>15</ele>
        <time>2023-11-11T20:39:48Z</time>
      </trkpt>
      <trkpt lat="47.18709" lon="-1.53845">
        <ele>14</ele>
        <time>2023-11-11T20:40:10Z</time>
      </trkpt>
      <trkpt lat="47.18712" lon="-1.53838">
        <ele>13</ele>
        <time>2023-11-11T20:40:17Z</time>
      </trkpt>
      <trkpt lat="47.18729" lon="-1.53812">
        <ele>12</ele>
        <time>2023-11-11T20:40:50Z</time>
      </trkpt>
      <trkpt lat="47.18742" lon="-1.53783">
        <ele>10</ele>
        <time>2023-11-11T20:41:22Z</time>
      </trkpt>
      <trkpt lat="47.18758" lon="-1.53757">
        <ele>9</ele>
        <time>2023-11-11T20:41:53Z</time>
      </trkpt>
      <trkpt lat="47.1877" lon="-1.53745">
        <ele>8</ele>
        <time>2023-11-11T20:42:13Z</time>
      </trkpt>
      <trkpt lat="47.18777" lon="-1.53726">
        <ele>8</ele>
        <time>2023-11-11T20:42:32Z</time>
      </trkpt>
      <trkpt lat="47.18791" lon="-1.53741">
        <ele>8</ele>
        <time>2023-11-11T20:42:56Z</time>
      </trkpt>
      <trkpt lat="47.18817" lon="-1.53778">
        <ele>8</ele>
        <time>2023-11-11T20:43:44Z</time>
      </trkpt>
      <trkpt lat="47.18827" lon="-1.53799">
        <ele>7</ele>
        <time>2023-11-11T20:44:07Z</time>
      </trkpt>
      <trkpt lat="47.18848" lon="-1.53823">
        <ele>6</ele>
        <time>2023-11-11T20:44:43Z</time>
      </trkpt>
      <trkpt lat="47.18851" lon="-1.5383">
        <ele>6</ele>
        <time>2023-11-11T20:44:50Z</time>
      </trkpt>
      <trkpt lat="47.1886" lon="-1.5384">
        <ele>6</ele>
        <time>2023-11-11T20:45:05Z</time>
      </trkpt>
      <trkpt lat="47.18863" lon="-1.53849">
        <ele>7</ele>
        <time>2023-11-11T20:45:14Z</time>
      </trkpt>
      <trkpt lat="47.18879" lon="-1.53867">
        <ele>7</ele>
        <time>2023-11-11T20:45:41Z</time>
      </trkpt>
      <trkpt lat="47.18884" lon="-1.53878">
        <ele>8</ele>
        <time>2023-11-11T20:45:53Z</time>
      </trkpt>
      <trkpt lat="47.18907" lon="-1.53911">
        <ele>8</ele>
        <time>2023-11-11T20:46:36Z</time>
      </trkpt>
      <trkpt lat="47.18922" lon="-1.53907">
        <ele>7</ele>
        <time>2023-11-11T20:46:56Z</time>
      </trkpt>
      <trkpt lat="47.18937" lon="-1.53938">
        <ele>8</ele>
        <time>2023-11-11T20:47:31Z</time>
      </trkpt>
      <trkpt lat="47.18947" lon="-1.53952">
        <ele>7</ele>
        <time>2023-11-11T20:47:49Z</time>
      </trkpt>
      <trkpt lat="47.18953" lon="-1.53968">
        <ele>7</ele>
        <time>2023-11-11T20:48:06Z</time>
      </trkpt>
      <trkpt lat="47.1897" lon="-1.53988">
        <ele>7</ele>
        <time>2023-11-11T20:48:35Z</time>
      </trkpt>
      <trkpt lat="47.18987" lon="-1.54024">
        <ele>7</ele>
        <time>2023-11-11T20:49:15Z</time>
      </trkpt>
      <trkpt lat="47.19013" lon="-1.54066">
        <ele>6</ele>
        <time>2023-11-11T20:50:06Z</time>
      </trkpt>
      <trkpt lat="47.19045" lon="-1.54095">
        <ele>6</ele>
        <time>2023-11-11T20:50:56Z</time>
      </trkpt>
      <trkpt lat="47.19059" lon="-1.54129">
        <ele>6</ele>
        <time>2023-11-11T20:51:32Z</time>
      </trkpt>
      <trkpt lat="47.19073" lon="-1.54151">
        <ele>6</ele>
        <time>2023-11-11T20:52:00Z</time>
      </trkpt>
      <trkpt lat="47.19089" lon="-1.54185">
        <ele>6</ele>
        <time>2023-11-11T20:52:37Z</time>
      </trkpt>
      <trkpt lat="47.19099" lon="-1.54222">
        <ele>7</ele>
        <time>2023-11-11T20:53:13Z</time>
      </trkpt>
      <trkpt lat="47.19121" lon="-1.54272">
        <ele>7</ele>
        <time>2023-11-11T20:54:07Z</time>
      </trkpt>
      <trkpt lat="47.19127" lon="-1.54297">
        <ele>7</ele>
        <time>2023-11-11T20:54:31Z</time>
      </trkpt>
      <trkpt lat="47.19155" lon="-1.54351">
        <ele>7</ele>
        <time>2023-11-11T20:55:33Z</time>
      </trkpt>
      <trkpt lat="47.19168" lon="-1.54391">
        <ele>7</ele>
        <time>2023-11-11T20:56:13Z</time>
      </trkpt>
      <trkpt lat="47.19169" lon="-1.54401">
        <ele>7</ele>
        <time>2023-11-11T20:56:22Z</time>
      </trkpt>
      <trkpt lat="47.19162" lon="-1.54404">
        <ele>7</ele>
        <time>2023-11-11T20:56:32Z</time>
      </trkpt>
      <trkpt lat="47.19144" lon="-1.54427">
        <ele>9</ele>
        <time>2023-11-11T20:57:04Z</time>
      </trkpt>
      <trkpt lat="47.19154" lon="-1.54504">
        <ele>10</ele>
        <time>2023-11-11T20:58:15Z</time>
      </trkpt>
      <trkpt lat="47.19155" lon="-1.54553">
        <ele>10</ele>
        <time>2023-11-11T20:58:59Z</time>
      </trkpt>
      <trkpt lat="47.19168" lon="-1.54615">
        <ele>10</ele>
        <time>2023-11-11T20:59:58Z</time>
      </trkpt>
      <trkpt lat="47.19162" lon="-1.54639">
        <ele>11</ele>
        <time>2023-11-11T21:00:21Z</time>
      </trkpt>
      <trkpt lat="47.19146" lon="-1.54645">
        <ele>11</ele>
        <time>2023-11-11T21:00:43Z</time>
      </trkpt>
      <trkpt lat="47.19117" lon="-1.54662">
        <ele>12</ele>
        <time>2023-11-11T21:01:25Z</time>
      </trkpt>
      <trkpt lat="47.19099" lon="-1.54677">
        <ele>12</ele>
        <time>2023-11-11T21:01:53Z</time>
      </trkpt>
      <trkpt lat="47.19084" lon="-1.54678">
        <ele>13</ele>
        <time>2023-11-11T21:02:13Z</time>
      </trkpt>
      <trkpt lat="47.19065" lon="-1.54692">
        <ele>13</ele>
        <time>2023-11-11T21:02:41Z</time>
      </trkpt>
      <trkpt lat="47.19055" lon="-1.54708">
        <ele>14</ele>
        <time>2023-11-11T21:03:01Z</time>
      </trkpt>
      <trkpt lat="47.19038" lon="-1.54717">
        <ele>13</ele>
        <time>2023-11-11T21:03:25Z</time>
      </trkpt>
      <trkpt lat="47.19034" lon="-1.54724">
        <ele>13</ele>
        <time>2023-11-11T21:03:33Z</time>
      </trkpt>
      <trkpt lat="47.19031" lon="-1.54755">
        <ele>14</ele>
        <time>2023-11-11T21:04:02Z</time>
      </trkpt>
      <trkpt lat="47.19035" lon="-1.54762">
        <ele>14</ele>
        <time>2023-11-11T21:04:10Z</time>
      </trkpt>
      <trkpt lat="47.19025" lon="-1.54788">
        <ele>14</ele>
        <time>2023-11-11T21:04:37Z</time>
      </trkpt>
      <trkpt lat="47.19025" lon="-1.54797">
        <ele>14</ele>
        <time>2023-11-11T21:04:45Z</time>
      </trkpt>
      <trkpt lat="47.19028" lon="-1.54799">
        <ele>14</ele>
        <time>2023-11-11T21:04:50Z</time>
      </trkpt>
      <trkpt lat="47.19021" lon="-1.54823">
        <ele>13</ele>
        <time>2023-11-11T21:05:13Z</time>
      </trkpt>
      <trkpt lat="47.19018" lon="-1.54853">
        <ele>14</ele>
        <time>2023-11-11T21:05:41Z</time>
      </trkpt>
      <trkpt lat="47.19013" lon="-1.54874">
        <ele>14</ele>
        <time>2023-11-11T21:06:01Z</time>
      </trkpt>
      <trkpt lat="47.19004" lon="-1.54895">
        <ele>15</ele>
        <time>2023-11-11T21:06:23Z</time>
      </trkpt>
      <trkpt lat="47.18992" lon="-1.54913">
        <ele>15</ele>
        <time>2023-11-11T21:06:46Z</time>
      </trkpt>
      <trkpt lat="47.18985" lon="-1.54936">
        <ele>15</ele>
        <time>2023-11-11T21:07:09Z</time>
      </trkpt>
      <trkpt lat="47.18942" lon="-1.54999">
        <ele>16</ele>
        <time>2023-11-11T21:08:30Z</time>
      </trkpt>
      <trkpt lat="47.18927" lon="-1.55032">
        <ele>15</ele>
        <time>2023-11-11T21:09:06Z</time>
      </trkpt>
      <trkpt lat="47.18913" lon="-1.55034">
        <ele>16</ele>
        <time>2023-11-11T21:09:25Z</time>
      </trkpt>
      <trkpt lat="47.18873" lon="-1.55087">
        <ele>16</ele>
        <time>2023-11-11T21:10:37Z</time>
      </trkpt>
      <trkpt lat="47.18878" lon="-1.55101">
        <ele>16</ele>
        <time>2023-11-11T21:10:51Z</time>
      </trkpt>
      <trkpt lat="47.18882" lon="-1.55102">
        <ele>16</ele>
        <time>2023-11-11T21:10:56Z</time>
      </trkpt>
      <trkpt lat="47.18888" lon="-1.55133">
        <ele>15</ele>
        <time>2023-11-11T21:11:26Z</time>
      </trkpt>
      <trkpt lat="47.18899" lon="-1.55154">
        <ele>13</ele>
        <time>2023-11-11T21:11:50Z</time>
      </trkpt>
      <trkpt lat="47.1892" lon="-1.55185">
        <ele>12</ele>
        <time>2023-11-11T21:12:29Z</time>
      </trkpt>
      <trkpt lat="47.18927" lon="-1.55185">
        <ele>12</ele>
        <time>2023-11-11T21:12:39Z</time>
      </trkpt>
      <trkpt lat="47.18935" lon="-1.55193">
        <ele>12</ele>
        <time>2023-11-11T21:12:52Z</time>
      </trkpt>
      <trkpt lat="47.18937" lon="-1.55205">
        <ele>12</ele>
        <time>2023-11-11T21:13:03Z</time>
      </trkpt>
      <trkpt lat="47.18941" lon="-1.55211">
        <ele>12</ele>
        <time>2023-11-11T21:13:10Z</time>
      </trkpt>
      <trkpt lat="47.18971" lon="-1.55206">
        <ele>11</ele>
        <time>2023-11-11T21:13:51Z</time>
      </trkpt>
      <trkpt lat="47.18996" lon="-1.55212">
        <ele>11</ele>
        <time>2023-11-11T21:14:25Z</time>
      </trkpt>
      <trkpt lat="47.19021" lon="-1.55224">
        <ele>10</ele>
        <time>2023-11-11T21:15:00Z</time>
      </trkpt>
      <trkpt lat="47.19042" lon="-1.55244">
        <ele>10</ele>
        <time>2023-11-11T21:15:33Z</time>
      </trkpt>
      <trkpt lat="47.19061" lon="-1.55276">
        <ele>10</ele>
        <time>2023-11-11T21:16:12Z</time>
      </trkpt>
      <trkpt lat="47.1907" lon="-1.55305">
        <ele>9</ele>
        <time>2023-11-11T21:16:41Z</time>
      </trkpt>
      <trkpt lat="47.19075" lon="-1.5531">
        <ele>9</ele>
        <time>2023-11-11T21:16:49Z</time>
      </trkpt>
      <trkpt lat="47.19083" lon="-1.55329">
        <ele>8</ele>
        <time>2023-11-11T21:17:09Z</time>
      </trkpt>
      <trkpt lat="47.19101" lon="-1.55358">
        <ele>8</ele>
        <time>2023-11-11T21:17:44Z</time>
      </trkpt>
      <trkpt lat="47.19117" lon="-1.55376">
        <ele>7</ele>
        <time>2023-11-11T21:18:11Z</time>
      </trkpt>
      <trkpt lat="47.1913" lon="-1.55382">
        <ele>7</ele>
        <time>2023-11-11T21:18:30Z</time>
      </trkpt>
      <trkpt lat="47.19141" lon="-1.55393">
        <ele>7</ele>
        <time>2023-11-11T21:18:47Z</time>
      </trkpt>
      <trkpt lat="47.19156" lon="-1.55404">
        <ele>7</ele>
        <time>2023-11-11T21:19:10Z</time>
      </trkpt>
      <trkpt lat="47.19161" lon="-1.55404">
        <ele>7</ele>
        <time>2023-11-11T21:19:16Z</time>
      </trkpt>
      <trkpt lat="47.19166" lon="-1.55409">
        <ele>7</ele>
        <time>2023-11-11T21:19:24Z</time>
      </trkpt>
      <trkpt lat="47.19172" lon="-1.55448">
        <ele>6</ele>
        <time>2023-11-11T21:20:01Z</time>
      </trkpt>
      <trkpt lat="47.19199" lon="-1.5546">
        <ele>6</ele>
        <time>2023-11-11T21:20:38Z</time>
      </trkpt>
      <trkpt lat="47.19205" lon="-1.55486">
        <ele>6</ele>
        <time>2023-11-11T21:21:03Z</time>
      </trkpt>
      <trkpt lat="47.19208" lon="-1.55505">
        <ele>6</ele>
        <time>2023-11-11T21:21:21Z</time>
      </trkpt>
      <trkpt lat="47.19207" lon="-1.55533">
        <ele>6</ele>
        <time>2023-11-11T21:21:46Z</time>
      </trkpt>
      <trkpt lat="47.19209" lon="-1.55542">
        <ele>6</ele>
        <time>2023-11-11T21:21:55Z</time>
      </trkpt>
      <trkpt lat="47.19203" lon="-1.55577">
        <ele>6</ele>
        <time>2023-11-11T21:22:28Z</time>
      </trkpt>
      <trkpt lat="47.19202" lon="-1.55605">
        <ele>6</ele>
        <time>2023-11-11T21:22:53Z</time>
      </trkpt>
      <trkpt lat="47.19199" lon="-1.55621">
        <ele>6</ele>
        <time>2023-11-11T21:23:08Z</time>
      </trkpt>
      <trkpt lat="47.19202" lon="-1.5564">
        <ele>7</ele>
        <time>2023-11-11T21:23:26Z</time>
      </trkpt>
      <trkpt lat="47.19201" lon="-1.55715">
        <ele>8</ele>
        <time>2023-11-11T21:24:34Z</time>
      </trkpt>
      <trkpt lat="47.19209" lon="-1.55739">
        <ele>8</ele>
        <time>2023-11-11T21:24:58Z</time>
      </trkpt>
      <trkpt lat="47.19205" lon="-1.55802">
        <ele>9</ele>
        <time>2023-11-11T21:25:55Z</time>
      </trkpt>
      <trkpt lat="47.19211" lon="-1.55876">
        <ele>9</ele>
        <time>2023-11-11T21:27:03Z</time>
      </trkpt>
      <trkpt lat="47.19219" lon="-1.55931">
        <ele>10</ele>
        <time>2023-11-11T21:27:54Z</time>
      </trkpt>
      <trkpt lat="47.19219" lon="-1.5596">
        <ele>10</ele>
        <time>2023-11-11T21:28:20Z</time>
      </trkpt>
      <trkpt lat="47.19222" lon="-1.55969">
        <ele>10</ele>
        <time>2023-11-11T21:28:29Z</time>
      </trkpt>
      <trkpt lat="47.19225" lon="-1.56024">
        <ele>10</ele>
        <time>2023-11-11T21:29:19Z</time>
      </trkpt>
      <trkpt lat="47.19228" lon="-1.56042">
        <ele>10</ele>
        <time>2023-11-11T21:29:36Z</time>
      </trkpt>
      <trkpt lat="47.19233" lon="-1.56147">
        <ele>9</ele>
        <time>2023-11-11T21:31:12Z</time>
      </trkpt>
      <trkpt lat="47.19228" lon="-1.56191">
        <ele>8</ele>
        <time>2023-11-11T21:31:52Z</time>
      </trkpt>
      <trkpt lat="47.19219" lon="-1.562">
        <ele>8</ele>
        <time>2023-11-11T21:32:07Z</time>
      </trkpt>
      <trkpt lat="47.19214" lon="-1.56216">
        <ele>8</ele>
        <time>2023-11-11T21:32:23Z</time>
      </trkpt>
      <trkpt lat="47.1921" lon="-1.56265">
        <ele>8</ele>
        <time>2023-11-11T21:33:07Z</time>
      </trkpt>
      <trkpt lat="47.19212" lon="-1.56331">
        <ele>8</ele>
        <time>2023-11-11T21:34:07Z</time>
      </trkpt>
      <trkpt lat="47.19217" lon="-1.56369">
        <ele>8</ele>
        <time>2023-11-11T21:34:42Z</time>
      </trkpt>
      <trkpt lat="47.19204" lon="-1.56385">
        <ele>8</ele>
        <time>2023-11-11T21:35:05Z</time>
      </trkpt>
      <trkpt lat="47.19185" lon="-1.56388">
        <ele>9</ele>
        <time>2023-11-11T21:35:31Z</time>
      </trkpt>
      <trkpt lat="47.19171" lon="-1.56386">
        <ele>9</ele>
        <time>2023-11-11T21:35:49Z</time>
      </trkpt>
      <trkpt lat="47.19159" lon="-1.56379">
        <ele>9</ele>
        <time>2023-11-11T21:36:07Z</time>
      </trkpt>
      <trkpt lat="47.19149" lon="-1.56381">
        <ele>9</ele>
        <time>2023-11-11T21:36:20Z</time>
      </trkpt>
      <trkpt lat="47.1914" lon="-1.56424">
        <ele>9</ele>
        <time>2023-11-11T21:37:01Z</time>
      </trkpt>
      <trkpt lat="47.19121" lon="-1.56548">
        <ele>11</ele>
        <time>2023-11-11T21:38:56Z</time>
      </trkpt>
      <trkpt lat="47.19086" lon="-1.56543">
        <ele>13</ele>
        <time>2023-11-11T21:39:43Z</time>
      </trkpt>
      <trkpt lat="47.19086" lon="-1.56551">
        <ele>13</ele>
        <time>2023-11-11T21:39:50Z</time>
      </trkpt>
      <trkpt lat="47.1909" lon="-1.56592">
        <ele>13</ele>
        <time>2023-11-11T21:40:28Z</time>
      </trkpt>
      <trkpt lat="47.19096" lon="-1.56611">
        <ele>13</ele>
        <time>2023-11-11T21:40:47Z</time>
      </trkpt>
      <trkpt lat="47.19148" lon="-1.56627">
        <ele>10</ele>
        <time>2023-11-11T21:41:58Z</time>
      </trkpt>
      <trkpt lat="47.19154" lon="-1.56631">
        <ele>9</ele>
        <time>2023-11-11T21:42:06Z</time>
      </trkpt>
      <trkpt lat="47.19142" lon="-1.56746">
        <ele>10</ele>
        <time>2023-11-11T21:43:52Z</time>
      </trkpt>
      <trkpt lat="47.19144" lon="-1.56879">
        <ele>10</ele>
        <time>2023-11-11T21:45:53Z</time>
      </trkpt>
      <trkpt lat="47.19141" lon="-1.56887">
        <ele>10</ele>
        <time>2023-11-11T21:46:01Z</time>
      </trkpt>
      <trkpt lat="47.1914" lon="-1.56902">
        <ele>10</ele>
        <time>2023-11-11T21:46:15Z</time>
      </trkpt>
      <trkpt lat="47.19157" lon="-1.56905">
        <ele>9</ele>
        <time>2023-11-11T21:46:37Z</time>
      </trkpt>
      <trkpt lat="47.19161" lon="-1.56909">
        <ele>8</ele>
        <time>2023-11-11T21:46:44Z</time>
      </trkpt>
      <trkpt lat="47.1916" lon="-1.56955">
        <ele>9</ele>
        <time>2023-11-11T21:47:26Z</time>
      </trkpt>
      <trkpt lat="47.19166" lon="-1.56959">
        <ele>8</ele>
        <time>2023-11-11T21:47:34Z</time>
      </trkpt>
      <trkpt lat="47.19187" lon="-1.56959">
        <ele>7</ele>
        <time>2023-11-11T21:48:02Z</time>
      </trkpt>
      <trkpt lat="47.1919" lon="-1.56963">
        <ele>7</ele>
        <time>2023-11-11T21:48:08Z</time>
      </trkpt>
      <trkpt lat="47.19188" lon="-1.56978">
        <ele>7</ele>
        <time>2023-11-11T21:48:22Z</time>
      </trkpt>
      <trkpt lat="47.19192" lon="-1.56984">
        <ele>7</ele>
        <time>2023-11-11T21:48:29Z</time>
      </trkpt>
      <trkpt lat="47.19204" lon="-1.56985">
        <ele>7</ele>
        <time>2023-11-11T21:48:45Z</time>
      </trkpt>
      <trkpt lat="47.19217" lon="-1.56993">
        <ele>6</ele>
        <time>2023-11-11T21:49:04Z</time>
      </trkpt>
      <trkpt lat="47.19229" lon="-1.57005">
        <ele>6</ele>
        <time>2023-11-11T21:49:24Z</time>
      </trkpt>
      <trkpt lat="47.19238" lon="-1.57019">
        <ele>5</ele>
        <time>2023-11-11T21:49:41Z</time>
      </trkpt>
      <trkpt lat="47.19244" lon="-1.57031">
        <ele>5</ele>
        <time>2023-11-11T21:49:55Z</time>
      </trkpt>
      <trkpt lat="47.19242" lon="-1.57044">
        <ele>5</ele>
        <time>2023-11-11T21:50:07Z</time>
      </trkpt>
      <trkpt lat="47.1925" lon="-1.57074">
        <ele>5</ele>
        <time>2023-11-11T21:50:36Z</time>
      </trkpt>
      <trkpt lat="47.19251" lon="-1.57089">
        <ele>5</ele>
        <time>2023-11-11T21:50:49Z</time>
      </trkpt>
      <trkpt lat="47.19243" lon="-1.57127">
        <ele>7</ele>
        <time>2023-11-11T21:51:26Z</time>
      </trkpt>
      <trkpt lat="47.19231" lon="-1.5715">
        <ele>8</ele>
        <time>2023-11-11T21:51:52Z</time>
      </trkpt>
      <trkpt lat="47.19231" lon="-1.57158">
        <ele>8</ele>
        <time>2023-11-11T21:51:59Z</time>
      </trkpt>
      <trkpt lat="47.19238" lon="-1.57172">
        <ele>8</ele>
        <time>2023-11-11T21:52:15Z</time>
      </trkpt>
      <trkpt lat="47.19238" lon="-1.5718">
        <ele>8</ele>
        <time>2023-11-11T21:52:22Z</time>
      </trkpt>
      <trkpt lat="47.19235" lon="-1.57187">
        <ele>8</ele>
        <time>2023-11-11T21:52:30Z</time>
      </trkpt>
      <trkpt lat="47.19234" lon="-1.57235">
        <ele>8</ele>
        <time>2023-11-11T21:53:13Z</time>
      </trkpt>
      <trkpt lat="47.19231" lon="-1.57243">
        <ele>8</ele>
        <time>2023-11-11T21:53:21Z</time>
      </trkpt>
      <trkpt lat="47.19224" lon="-1.57253">
        <ele>8</ele>
        <time>2023-11-11T21:53:34Z</time>
      </trkpt>
      <trkpt lat="47.19216" lon="-1.57257">
        <ele>8</ele>
        <time>2023-11-11T21:53:46Z</time>
      </trkpt>
      <trkpt lat="47.19203" lon="-1.5726">
        <ele>8</ele>
        <time>2023-11-11T21:54:03Z</time>
      </trkpt>
      <trkpt lat="47.19195" lon="-1.57258">
        <ele>9</ele>
        <time>2023-11-11T21:54:14Z</time>
      </trkpt>
      <trkpt lat="47.19187" lon="-1.57261">
        <ele>9</ele>
        <time>2023-11-11T21:54:25Z</time>
      </trkpt>
      <trkpt lat="47.19167" lon="-1.57255">
        <ele>9</ele>
        <time>2023-11-11T21:54:52Z</time>
      </trkpt>
      <trkpt lat="47.19143" lon="-1.5724">
        <ele>9</ele>
        <time>2023-11-11T21:55:27Z</time>
      </trkpt>
      <trkpt lat="47.19138" lon="-1.57244">
        <ele>9</ele>
        <time>2023-11-11T21:55:35Z</time>
      </trkpt>
      <trkpt lat="47.19119" lon="-1.57311">
        <ele>8</ele>
        <time>2023-11-11T21:56:41Z</time>
      </trkpt>
      <trkpt lat="47.19112" lon="-1.57374">
        <ele>7</ele>
        <time>2023-11-11T21:57:39Z</time>
      </trkpt>
      <trkpt lat="47.19095" lon="-1.57407">
        <ele>6</ele>
        <time>2023-11-11T21:58:16Z</time>
      </trkpt>
      <trkpt lat="47.19085" lon="-1.57442">
        <ele>6</ele>
        <time>2023-11-11T21:58:50Z</time>
      </trkpt>
      <trkpt lat="47.19063" lon="-1.57483">
        <ele>8</ele>
        <time>2023-11-11T21:59:38Z</time>
      </trkpt>
      <trkpt lat="47.19054" lon="-1.57516">
        <ele>8</ele>
        <time>2023-11-11T22:00:10Z</time>
      </trkpt>
      <trkpt lat="47.19046" lon="-1.57534">
        <ele>8</ele>
        <time>2023-11-11T22:00:30Z</time>
      </trkpt>
      <trkpt lat="47.19025" lon="-1.57564">
        <ele>8</ele>
        <time>2023-11-11T22:01:09Z</time>
      </trkpt>
      <trkpt lat="47.19023" lon="-1.57583">
        <ele>7</ele>
        <time>2023-11-11T22:01:26Z</time>
      </trkpt>
      <trkpt lat="47.19017" lon="-1.57599">
        <ele>7</ele>
        <time>2023-11-11T22:01:43Z</time>
      </trkpt>
      <trkpt lat="47.19011" lon="-1.576">
        <ele>7</ele>
        <time>2023-11-11T22:01:51Z</time>
      </trkpt>
      <trkpt lat="47.18973" lon="-1.57587">
        <ele>9</ele>
        <time>2023-11-11T22:02:43Z</time>
      </trkpt>
      <trkpt lat="47.18939" lon="-1.57581">
        <ele>11</ele>
        <time>2023-11-11T22:03:29Z</time>
      </trkpt>
      <trkpt lat="47.18901" lon="-1.5756">
        <ele>12</ele>
        <time>2023-11-11T22:04:23Z</time>
      </trkpt>
      <trkpt lat="47.18841" lon="-1.57518">
        <ele>9</ele>
        <time>2023-11-11T22:05:51Z</time>
      </trkpt>
      <trkpt lat="47.18828" lon="-1.57513">
        <ele>8</ele>
        <time>2023-11-11T22:06:09Z</time>
      </trkpt>
      <trkpt lat="47.18822" lon="-1.57508">
        <ele>8</ele>
        <time>2023-11-11T22:06:18Z</time>
      </trkpt>
      <trkpt lat="47.18815" lon="-1.57507">
        <ele>8</ele>
        <time>2023-11-11T22:06:28Z</time>
      </trkpt>
      <trkpt lat="47.18791" lon="-1.57492">
        <ele>8</ele>
        <time>2023-11-11T22:07:03Z</time>
      </trkpt>
      <trkpt lat="47.18772" lon="-1.57473">
        <ele>8</ele>
        <time>2023-11-11T22:07:33Z</time>
      </trkpt>
      <trkpt lat="47.1876" lon="-1.57447">
        <ele>9</ele>
        <time>2023-11-11T22:08:02Z</time>
      </trkpt>
      <trkpt lat="47.18756" lon="-1.57433">
        <ele>9</ele>
        <time>2023-11-11T22:08:16Z</time>
      </trkpt>
      <trkpt lat="47.18768" lon="-1.57424">
        <ele>9</ele>
        <time>2023-11-11T22:08:34Z</time>
      </trkpt>
    </trkseg>
  </trk>
  <trk>
    <name><![CDATA[Reze_HauteIleEtBasseIle_11km-5691299]]></name>
    <extensions>
      <line xmlns="http://www.topografix.com/GPX/gpx_style/0/2">
        <color>880000</color>
        <width>4</width>
      </line>
    </extensions>
    <trkseg>
      <trkpt lat="47.19659" lon="-1.54303">
        <ele>9</ele>
        <time>2024-01-27T13:34:09Z</time>
      </trkpt>
      <trkpt lat="47.19583" lon="-1.54315">
        <ele>7</ele>
        <time>2024-01-27T13:35:51Z</time>
      </trkpt>
      <trkpt lat="47.19544" lon="-1.54356">
        <ele>7</ele>
        <time>2024-01-27T13:36:55Z</time>
      </trkpt>
      <trkpt lat="47.19539" lon="-1.54381">
        <ele>6</ele>
        <time>2024-01-27T13:37:19Z</time>
      </trkpt>
      <trkpt lat="47.19511" lon="-1.54412">
        <ele>5</ele>
        <time>2024-01-27T13:38:05Z</time>
      </trkpt>
      <trkpt lat="47.19463" lon="-1.5446">
        <ele>6</ele>
        <time>2024-01-27T13:39:23Z</time>
      </trkpt>
      <trkpt lat="47.19492" lon="-1.54536">
        <ele>5</ele>
        <time>2024-01-27T13:40:42Z</time>
      </trkpt>
      <trkpt lat="47.19492" lon="-1.54584">
        <ele>4</ele>
        <time>2024-01-27T13:41:25Z</time>
      </trkpt>
      <trkpt lat="47.19561" lon="-1.54667">
        <ele>5</ele>
        <time>2024-01-27T13:43:24Z</time>
      </trkpt>
      <trkpt lat="47.19597" lon="-1.54714">
        <ele>4</ele>
        <time>2024-01-27T13:44:28Z</time>
      </trkpt>
      <trkpt lat="47.19649" lon="-1.54781">
        <ele>4</ele>
        <time>2024-01-27T13:46:01Z</time>
      </trkpt>
      <trkpt lat="47.19679" lon="-1.54854">
        <ele>5</ele>
        <time>2024-01-27T13:47:18Z</time>
      </trkpt>
      <trkpt lat="47.19681" lon="-1.54906">
        <ele>5</ele>
        <time>2024-01-27T13:48:05Z</time>
      </trkpt>
      <trkpt lat="47.19677" lon="-1.54939">
        <ele>6</ele>
        <time>2024-01-27T13:48:36Z</time>
      </trkpt>
      <trkpt lat="47.19684" lon="-1.54947">
        <ele>5</ele>
        <time>2024-01-27T13:48:48Z</time>
      </trkpt>
      <trkpt lat="47.19711" lon="-1.54953">
        <ele>3</ele>
        <time>2024-01-27T13:49:24Z</time>
      </trkpt>
      <trkpt lat="47.19713" lon="-1.54989">
        <ele>3</ele>
        <time>2024-01-27T13:49:57Z</time>
      </trkpt>
      <trkpt lat="47.19673" lon="-1.54995">
        <ele>7</ele>
        <time>2024-01-27T13:50:50Z</time>
      </trkpt>
      <trkpt lat="47.19675" lon="-1.55086">
        <ele>5</ele>
        <time>2024-01-27T13:52:13Z</time>
      </trkpt>
      <trkpt lat="47.19678" lon="-1.55155">
        <ele>4</ele>
        <time>2024-01-27T13:53:16Z</time>
      </trkpt>
      <trkpt lat="47.19679" lon="-1.55233">
        <ele>3</ele>
        <time>2024-01-27T13:54:26Z</time>
      </trkpt>
      <trkpt lat="47.19664" lon="-1.55234">
        <ele>3</ele>
        <time>2024-01-27T13:54:46Z</time>
      </trkpt>
      <trkpt lat="47.1966" lon="-1.55391">
        <ele>3</ele>
        <time>2024-01-27T13:57:09Z</time>
      </trkpt>
      <trkpt lat="47.19667" lon="-1.55473">
        <ele>2</ele>
        <time>2024-01-27T13:58:24Z</time>
      </trkpt>
      <trkpt lat="47.19686" lon="-1.55516">
        <ele>2</ele>
        <time>2024-01-27T13:59:10Z</time>
      </trkpt>
      <trkpt lat="47.19695" lon="-1.5554">
        <ele>2</ele>
        <time>2024-01-27T13:59:35Z</time>
      </trkpt>
      <trkpt lat="47.19684" lon="-1.55544">
        <ele>2</ele>
        <time>2024-01-27T13:59:50Z</time>
      </trkpt>
      <trkpt lat="47.19682" lon="-1.55572">
        <ele>3</ele>
        <time>2024-01-27T14:00:16Z</time>
      </trkpt>
      <trkpt lat="47.19657" lon="-1.55564">
        <ele>4</ele>
        <time>2024-01-27T14:00:50Z</time>
      </trkpt>
      <trkpt lat="47.19632" lon="-1.55562">
        <ele>4</ele>
        <time>2024-01-27T14:01:23Z</time>
      </trkpt>
      <trkpt lat="47.19616" lon="-1.55568">
        <ele>4</ele>
        <time>2024-01-27T14:01:45Z</time>
      </trkpt>
      <trkpt lat="47.19613" lon="-1.55602">
        <ele>5</ele>
        <time>2024-01-27T14:02:16Z</time>
      </trkpt>
      <trkpt lat="47.19523" lon="-1.55572">
        <ele>5</ele>
        <time>2024-01-27T14:04:20Z</time>
      </trkpt>
      <trkpt lat="47.19441" lon="-1.55552">
        <ele>6</ele>
        <time>2024-01-27T14:06:11Z</time>
      </trkpt>
      <trkpt lat="47.19348" lon="-1.55524">
        <ele>7</ele>
        <time>2024-01-27T14:08:17Z</time>
      </trkpt>
      <trkpt lat="47.19273" lon="-1.55497">
        <ele>7</ele>
        <time>2024-01-27T14:10:00Z</time>
      </trkpt>
      <trkpt lat="47.19264" lon="-1.55486">
        <ele>7</ele>
        <time>2024-01-27T14:10:16Z</time>
      </trkpt>
      <trkpt lat="47.19254" lon="-1.55475">
        <ele>7</ele>
        <time>2024-01-27T14:10:33Z</time>
      </trkpt>
      <trkpt lat="47.19225" lon="-1.55473">
        <ele>6</ele>
        <time>2024-01-27T14:11:11Z</time>
      </trkpt>
      <trkpt lat="47.19207" lon="-1.55464">
        <ele>6</ele>
        <time>2024-01-27T14:11:37Z</time>
      </trkpt>
      <trkpt lat="47.19205" lon="-1.55575">
        <ele>6</ele>
        <time>2024-01-27T14:13:17Z</time>
      </trkpt>
      <trkpt lat="47.19209" lon="-1.55819">
        <ele>9</ele>
        <time>2024-01-27T14:16:59Z</time>
      </trkpt>
      <trkpt lat="47.1922" lon="-1.55955">
        <ele>10</ele>
        <time>2024-01-27T14:19:03Z</time>
      </trkpt>
      <trkpt lat="47.19232" lon="-1.56161">
        <ele>8</ele>
        <time>2024-01-27T14:22:10Z</time>
      </trkpt>
      <trkpt lat="47.19228" lon="-1.56193">
        <ele>8</ele>
        <time>2024-01-27T14:22:40Z</time>
      </trkpt>
      <trkpt lat="47.19215" lon="-1.56229">
        <ele>8</ele>
        <time>2024-01-27T14:23:17Z</time>
      </trkpt>
      <trkpt lat="47.19214" lon="-1.56312">
        <ele>8</ele>
        <time>2024-01-27T14:24:32Z</time>
      </trkpt>
      <trkpt lat="47.19236" lon="-1.56424">
        <ele>8</ele>
        <time>2024-01-27T14:26:18Z</time>
      </trkpt>
      <trkpt lat="47.19228" lon="-1.56506">
        <ele>6</ele>
        <time>2024-01-27T14:27:33Z</time>
      </trkpt>
      <trkpt lat="47.19226" lon="-1.56624">
        <ele>5</ele>
        <time>2024-01-27T14:29:20Z</time>
      </trkpt>
      <trkpt lat="47.19221" lon="-1.56743">
        <ele>5</ele>
        <time>2024-01-27T14:31:08Z</time>
      </trkpt>
      <trkpt lat="47.19215" lon="-1.56858">
        <ele>6</ele>
        <time>2024-01-27T14:32:53Z</time>
      </trkpt>
      <trkpt lat="47.19234" lon="-1.56867">
        <ele>5</ele>
        <time>2024-01-27T14:33:19Z</time>
      </trkpt>
      <trkpt lat="47.19242" lon="-1.56928">
        <ele>5</ele>
        <time>2024-01-27T14:34:16Z</time>
      </trkpt>
      <trkpt lat="47.19237" lon="-1.5695">
        <ele>5</ele>
        <time>2024-01-27T14:34:37Z</time>
      </trkpt>
      <trkpt lat="47.192" lon="-1.56958">
        <ele>7</ele>
        <time>2024-01-27T14:35:27Z</time>
      </trkpt>
      <trkpt lat="47.19187" lon="-1.56957">
        <ele>7</ele>
        <time>2024-01-27T14:35:44Z</time>
      </trkpt>
      <trkpt lat="47.19153" lon="-1.5696">
        <ele>9</ele>
        <time>2024-01-27T14:36:29Z</time>
      </trkpt>
      <trkpt lat="47.19127" lon="-1.5696">
        <ele>11</ele>
        <time>2024-01-27T14:37:04Z</time>
      </trkpt>
      <trkpt lat="47.1911" lon="-1.56956">
        <ele>13</ele>
        <time>2024-01-27T14:37:27Z</time>
      </trkpt>
      <trkpt lat="47.19103" lon="-1.56978">
        <ele>13</ele>
        <time>2024-01-27T14:37:49Z</time>
      </trkpt>
      <trkpt lat="47.19121" lon="-1.56987">
        <ele>12</ele>
        <time>2024-01-27T14:38:15Z</time>
      </trkpt>
      <trkpt lat="47.1913" lon="-1.56973">
        <ele>11</ele>
        <time>2024-01-27T14:38:32Z</time>
      </trkpt>
      <trkpt lat="47.19192" lon="-1.56976">
        <ele>7</ele>
        <time>2024-01-27T14:39:55Z</time>
      </trkpt>
      <trkpt lat="47.19241" lon="-1.56971">
        <ele>5</ele>
        <time>2024-01-27T14:41:00Z</time>
      </trkpt>
      <trkpt lat="47.19256" lon="-1.56976">
        <ele>5</ele>
        <time>2024-01-27T14:41:21Z</time>
      </trkpt>
      <trkpt lat="47.19263" lon="-1.57019">
        <ele>5</ele>
        <time>2024-01-27T14:42:01Z</time>
      </trkpt>
      <trkpt lat="47.19288" lon="-1.57042">
        <ele>6</ele>
        <time>2024-01-27T14:42:40Z</time>
      </trkpt>
      <trkpt lat="47.19342" lon="-1.57041">
        <ele>7</ele>
        <time>2024-01-27T14:43:52Z</time>
      </trkpt>
      <trkpt lat="47.19386" lon="-1.5706">
        <ele>7</ele>
        <time>2024-01-27T14:44:54Z</time>
      </trkpt>
      <trkpt lat="47.1943" lon="-1.57068">
        <ele>6</ele>
        <time>2024-01-27T14:45:53Z</time>
      </trkpt>
      <trkpt lat="47.19458" lon="-1.57065">
        <ele>6</ele>
        <time>2024-01-27T14:46:30Z</time>
      </trkpt>
      <trkpt lat="47.1948" lon="-1.57082">
        <ele>6</ele>
        <time>2024-01-27T14:47:03Z</time>
      </trkpt>
      <trkpt lat="47.1954" lon="-1.57098">
        <ele>7</ele>
        <time>2024-01-27T14:48:25Z</time>
      </trkpt>
      <trkpt lat="47.19604" lon="-1.57115">
        <ele>7</ele>
        <time>2024-01-27T14:49:51Z</time>
      </trkpt>
      <trkpt lat="47.19597" lon="-1.57175">
        <ele>7</ele>
        <time>2024-01-27T14:50:47Z</time>
      </trkpt>
      <trkpt lat="47.19587" lon="-1.57304">
        <ele>7</ele>
        <time>2024-01-27T14:52:44Z</time>
      </trkpt>
      <trkpt lat="47.19558" lon="-1.57481">
        <ele>6</ele>
        <time>2024-01-27T14:55:30Z</time>
      </trkpt>
      <trkpt lat="47.1954" lon="-1.57578">
        <ele>6</ele>
        <time>2024-01-27T14:57:01Z</time>
      </trkpt>
      <trkpt lat="47.19528" lon="-1.57627">
        <ele>6</ele>
        <time>2024-01-27T14:57:48Z</time>
      </trkpt>
      <trkpt lat="47.1952" lon="-1.57717">
        <ele>5</ele>
        <time>2024-01-27T14:59:10Z</time>
      </trkpt>
      <trkpt lat="47.19547" lon="-1.5775">
        <ele>6</ele>
        <time>2024-01-27T14:59:57Z</time>
      </trkpt>
      <trkpt lat="47.19534" lon="-1.57825">
        <ele>5</ele>
        <time>2024-01-27T15:01:07Z</time>
      </trkpt>
      <trkpt lat="47.19573" lon="-1.5783">
        <ele>4</ele>
        <time>2024-01-27T15:01:59Z</time>
      </trkpt>
      <trkpt lat="47.19597" lon="-1.57847">
        <ele>3</ele>
        <time>2024-01-27T15:02:35Z</time>
      </trkpt>
      <trkpt lat="47.19588" lon="-1.57867">
        <ele>3</ele>
        <time>2024-01-27T15:02:57Z</time>
      </trkpt>
      <trkpt lat="47.19537" lon="-1.57832">
        <ele>5</ele>
        <time>2024-01-27T15:04:12Z</time>
      </trkpt>
      <trkpt lat="47.19519" lon="-1.57817">
        <ele>5</ele>
        <time>2024-01-27T15:04:39Z</time>
      </trkpt>
      <trkpt lat="47.19486" lon="-1.57829">
        <ele>5</ele>
        <time>2024-01-27T15:05:25Z</time>
      </trkpt>
      <trkpt lat="47.195" lon="-1.57921">
        <ele>3</ele>
        <time>2024-01-27T15:06:50Z</time>
      </trkpt>
      <trkpt lat="47.19517" lon="-1.58018">
        <ele>3</ele>
        <time>2024-01-27T15:08:21Z</time>
      </trkpt>
      <trkpt lat="47.19531" lon="-1.58102">
        <ele>3</ele>
        <time>2024-01-27T15:09:40Z</time>
      </trkpt>
      <trkpt lat="47.1953" lon="-1.58216">
        <ele>4</ele>
        <time>2024-01-27T15:11:23Z</time>
      </trkpt>
      <trkpt lat="47.1952" lon="-1.58251">
        <ele>5</ele>
        <time>2024-01-27T15:11:57Z</time>
      </trkpt>
      <trkpt lat="47.19495" lon="-1.58295">
        <ele>4</ele>
        <time>2024-01-27T15:12:49Z</time>
      </trkpt>
      <trkpt lat="47.19452" lon="-1.58266">
        <ele>6</ele>
        <time>2024-01-27T15:13:53Z</time>
      </trkpt>
      <trkpt lat="47.19459" lon="-1.58224">
        <ele>6</ele>
        <time>2024-01-27T15:14:32Z</time>
      </trkpt>
      <trkpt lat="47.19407" lon="-1.58201">
        <ele>6</ele>
        <time>2024-01-27T15:15:44Z</time>
      </trkpt>
      <trkpt lat="47.19405" lon="-1.58225">
        <ele>6</ele>
        <time>2024-01-27T15:16:06Z</time>
      </trkpt>
      <trkpt lat="47.19438" lon="-1.58255">
        <ele>7</ele>
        <time>2024-01-27T15:16:58Z</time>
      </trkpt>
      <trkpt lat="47.19426" lon="-1.58267">
        <ele>7</ele>
        <time>2024-01-27T15:17:17Z</time>
      </trkpt>
      <trkpt lat="47.19411" lon="-1.58257">
        <ele>7</ele>
        <time>2024-01-27T15:17:39Z</time>
      </trkpt>
      <trkpt lat="47.19408" lon="-1.58275">
        <ele>7</ele>
        <time>2024-01-27T15:17:56Z</time>
      </trkpt>
      <trkpt lat="47.19389" lon="-1.58269">
        <ele>7</ele>
        <time>2024-01-27T15:18:22Z</time>
      </trkpt>
      <trkpt lat="47.1938" lon="-1.58298">
        <ele>7</ele>
        <time>2024-01-27T15:18:51Z</time>
      </trkpt>
      <trkpt lat="47.19352" lon="-1.58284">
        <ele>7</ele>
        <time>2024-01-27T15:19:30Z</time>
      </trkpt>
      <trkpt lat="47.1935" lon="-1.58326">
        <ele>6</ele>
        <time>2024-01-27T15:20:09Z</time>
      </trkpt>
      <trkpt lat="47.19375" lon="-1.58341">
        <ele>7</ele>
        <time>2024-01-27T15:20:45Z</time>
      </trkpt>
      <trkpt lat="47.19386" lon="-1.58343">
        <ele>7</ele>
        <time>2024-01-27T15:20:59Z</time>
      </trkpt>
      <trkpt lat="47.19392" lon="-1.58307">
        <ele>7</ele>
        <time>2024-01-27T15:21:33Z</time>
      </trkpt>
      <trkpt lat="47.19443" lon="-1.58339">
        <ele>6</ele>
        <time>2024-01-27T15:22:47Z</time>
      </trkpt>
      <trkpt lat="47.19417" lon="-1.58396">
        <ele>5</ele>
        <time>2024-01-27T15:23:49Z</time>
      </trkpt>
      <trkpt lat="47.19391" lon="-1.5839">
        <ele>6</ele>
        <time>2024-01-27T15:24:24Z</time>
      </trkpt>
      <trkpt lat="47.19374" lon="-1.58434">
        <ele>5</ele>
        <time>2024-01-27T15:25:10Z</time>
      </trkpt>
      <trkpt lat="47.19412" lon="-1.58444">
        <ele>4</ele>
        <time>2024-01-27T15:26:02Z</time>
      </trkpt>
      <trkpt lat="47.19372" lon="-1.58542">
        <ele>4</ele>
        <time>2024-01-27T15:27:45Z</time>
      </trkpt>
      <trkpt lat="47.19386" lon="-1.58553">
        <ele>3</ele>
        <time>2024-01-27T15:28:07Z</time>
      </trkpt>
      <trkpt lat="47.1938" lon="-1.58608">
        <ele>3</ele>
        <time>2024-01-27T15:28:57Z</time>
      </trkpt>
      <trkpt lat="47.19372" lon="-1.58618">
        <ele>3</ele>
        <time>2024-01-27T15:29:11Z</time>
      </trkpt>
      <trkpt lat="47.1936" lon="-1.58603">
        <ele>4</ele>
        <time>2024-01-27T15:29:32Z</time>
      </trkpt>
      <trkpt lat="47.1933" lon="-1.58615">
        <ele>5</ele>
        <time>2024-01-27T15:30:14Z</time>
      </trkpt>
      <trkpt lat="47.19278" lon="-1.58513">
        <ele>5</ele>
        <time>2024-01-27T15:32:09Z</time>
      </trkpt>
      <trkpt lat="47.19274" lon="-1.58523">
        <ele>5</ele>
        <time>2024-01-27T15:32:20Z</time>
      </trkpt>
      <trkpt lat="47.19245" lon="-1.58571">
        <ele>5</ele>
        <time>2024-01-27T15:33:18Z</time>
      </trkpt>
      <trkpt lat="47.19223" lon="-1.58569">
        <ele>5</ele>
        <time>2024-01-27T15:33:47Z</time>
      </trkpt>
      <trkpt lat="47.19203" lon="-1.58575">
        <ele>5</ele>
        <time>2024-01-27T15:34:15Z</time>
      </trkpt>
      <trkpt lat="47.1916" lon="-1.5852">
        <ele>6</ele>
        <time>2024-01-27T15:35:31Z</time>
      </trkpt>
      <trkpt lat="47.1914" lon="-1.58524">
        <ele>5</ele>
        <time>2024-01-27T15:35:58Z</time>
      </trkpt>
      <trkpt lat="47.19116" lon="-1.58507">
        <ele>5</ele>
        <time>2024-01-27T15:36:33Z</time>
      </trkpt>
      <trkpt lat="47.19086" lon="-1.58533">
        <ele>5</ele>
        <time>2024-01-27T15:37:20Z</time>
      </trkpt>
      <trkpt lat="47.19065" lon="-1.58558">
        <ele>5</ele>
        <time>2024-01-27T15:37:56Z</time>
      </trkpt>
      <trkpt lat="47.19053" lon="-1.58559">
        <ele>6</ele>
        <time>2024-01-27T15:38:12Z</time>
      </trkpt>
      <trkpt lat="47.19043" lon="-1.58572">
        <ele>6</ele>
        <time>2024-01-27T15:38:29Z</time>
      </trkpt>
      <trkpt lat="47.19003" lon="-1.58475">
        <ele>6</ele>
        <time>2024-01-27T15:40:12Z</time>
      </trkpt>
      <trkpt lat="47.18979" lon="-1.5842">
        <ele>6</ele>
        <time>2024-01-27T15:41:12Z</time>
      </trkpt>
      <trkpt lat="47.1895" lon="-1.58367">
        <ele>5</ele>
        <time>2024-01-27T15:42:13Z</time>
      </trkpt>
      <trkpt lat="47.18941" lon="-1.58304">
        <ele>5</ele>
        <time>2024-01-27T15:43:12Z</time>
      </trkpt>
      <trkpt lat="47.1898" lon="-1.58178">
        <ele>5</ele>
        <time>2024-01-27T15:45:17Z</time>
      </trkpt>
      <trkpt lat="47.19033" lon="-1.58058">
        <ele>5</ele>
        <time>2024-01-27T15:47:27Z</time>
      </trkpt>
      <trkpt lat="47.19089" lon="-1.57879">
        <ele>3</ele>
        <time>2024-01-27T15:50:26Z</time>
      </trkpt>
      <trkpt lat="47.19187" lon="-1.57599">
        <ele>7</ele>
        <time>2024-01-27T15:55:11Z</time>
      </trkpt>
      <trkpt lat="47.19205" lon="-1.57547">
        <ele>7</ele>
        <time>2024-01-27T15:56:04Z</time>
      </trkpt>
      <trkpt lat="47.19208" lon="-1.57523">
        <ele>7</ele>
        <time>2024-01-27T15:56:26Z</time>
      </trkpt>
      <trkpt lat="47.19237" lon="-1.57429">
        <ele>7</ele>
        <time>2024-01-27T15:58:00Z</time>
      </trkpt>
      <trkpt lat="47.19276" lon="-1.5732">
        <ele>8</ele>
        <time>2024-01-27T15:59:52Z</time>
      </trkpt>
      <trkpt lat="47.19304" lon="-1.57213">
        <ele>9</ele>
        <time>2024-01-27T16:01:36Z</time>
      </trkpt>
      <trkpt lat="47.19324" lon="-1.57117">
        <ele>9</ele>
        <time>2024-01-27T16:03:07Z</time>
      </trkpt>
      <trkpt lat="47.19325" lon="-1.57088">
        <ele>8</ele>
        <time>2024-01-27T16:03:33Z</time>
      </trkpt>
      <trkpt lat="47.19299" lon="-1.57069">
        <ele>7</ele>
        <time>2024-01-27T16:04:12Z</time>
      </trkpt>
      <trkpt lat="47.19276" lon="-1.57065">
        <ele>6</ele>
        <time>2024-01-27T16:04:43Z</time>
      </trkpt>
      <trkpt lat="47.19258" lon="-1.57071">
        <ele>5</ele>
        <time>2024-01-27T16:05:07Z</time>
      </trkpt>
      <trkpt lat="47.19247" lon="-1.57039">
        <ele>5</ele>
        <time>2024-01-27T16:05:40Z</time>
      </trkpt>
      <trkpt lat="47.19253" lon="-1.57024">
        <ele>5</ele>
        <time>2024-01-27T16:05:56Z</time>
      </trkpt>
      <trkpt lat="47.19262" lon="-1.56957">
        <ele>5</ele>
        <time>2024-01-27T16:06:58Z</time>
      </trkpt>
      <trkpt lat="47.19265" lon="-1.56874">
        <ele>5</ele>
        <time>2024-01-27T16:08:13Z</time>
      </trkpt>
      <trkpt lat="47.19243" lon="-1.56866">
        <ele>4</ele>
        <time>2024-01-27T16:08:43Z</time>
      </trkpt>
      <trkpt lat="47.19215" lon="-1.56864">
        <ele>6</ele>
        <time>2024-01-27T16:09:21Z</time>
      </trkpt>
      <trkpt lat="47.19215" lon="-1.56769">
        <ele>6</ele>
        <time>2024-01-27T16:10:47Z</time>
      </trkpt>
      <trkpt lat="47.19221" lon="-1.56705">
        <ele>5</ele>
        <time>2024-01-27T16:11:45Z</time>
      </trkpt>
      <trkpt lat="47.19228" lon="-1.56605">
        <ele>4</ele>
        <time>2024-01-27T16:13:17Z</time>
      </trkpt>
      <trkpt lat="47.19187" lon="-1.56598">
        <ele>7</ele>
        <time>2024-01-27T16:14:12Z</time>
      </trkpt>
      <trkpt lat="47.19172" lon="-1.56582">
        <ele>8</ele>
        <time>2024-01-27T16:14:36Z</time>
      </trkpt>
      <trkpt lat="47.19173" lon="-1.56568">
        <ele>8</ele>
        <time>2024-01-27T16:14:49Z</time>
      </trkpt>
      <trkpt lat="47.19151" lon="-1.56566">
        <ele>9</ele>
        <time>2024-01-27T16:15:19Z</time>
      </trkpt>
      <trkpt lat="47.19152" lon="-1.56508">
        <ele>9</ele>
        <time>2024-01-27T16:16:11Z</time>
      </trkpt>
      <trkpt lat="47.19158" lon="-1.56491">
        <ele>9</ele>
        <time>2024-01-27T16:16:29Z</time>
      </trkpt>
      <trkpt lat="47.19143" lon="-1.56426">
        <ele>9</ele>
        <time>2024-01-27T16:17:31Z</time>
      </trkpt>
      <trkpt lat="47.19147" lon="-1.56389">
        <ele>9</ele>
        <time>2024-01-27T16:18:05Z</time>
      </trkpt>
      <trkpt lat="47.19164" lon="-1.56363">
        <ele>8</ele>
        <time>2024-01-27T16:18:37Z</time>
      </trkpt>
      <trkpt lat="47.19185" lon="-1.56233">
        <ele>9</ele>
        <time>2024-01-27T16:20:39Z</time>
      </trkpt>
      <trkpt lat="47.19202" lon="-1.56207">
        <ele>9</ele>
        <time>2024-01-27T16:21:11Z</time>
      </trkpt>
      <trkpt lat="47.19219" lon="-1.56202">
        <ele>8</ele>
        <time>2024-01-27T16:21:35Z</time>
      </trkpt>
      <trkpt lat="47.19232" lon="-1.56157">
        <ele>8</ele>
        <time>2024-01-27T16:22:19Z</time>
      </trkpt>
      <trkpt lat="47.1922" lon="-1.55966">
        <ele>10</ele>
        <time>2024-01-27T16:25:13Z</time>
      </trkpt>
      <trkpt lat="47.19209" lon="-1.55748">
        <ele>8</ele>
        <time>2024-01-27T16:28:31Z</time>
      </trkpt>
      <trkpt lat="47.19202" lon="-1.55616">
        <ele>6</ele>
        <time>2024-01-27T16:30:31Z</time>
      </trkpt>
      <trkpt lat="47.19214" lon="-1.55578">
        <ele>6</ele>
        <time>2024-01-27T16:31:09Z</time>
      </trkpt>
      <trkpt lat="47.19214" lon="-1.55527">
        <ele>6</ele>
        <time>2024-01-27T16:31:55Z</time>
      </trkpt>
      <trkpt lat="47.19216" lon="-1.55479">
        <ele>6</ele>
        <time>2024-01-27T16:32:39Z</time>
      </trkpt>
      <trkpt lat="47.19185" lon="-1.55456">
        <ele>6</ele>
        <time>2024-01-27T16:33:25Z</time>
      </trkpt>
      <trkpt lat="47.19169" lon="-1.55448">
        <ele>6</ele>
        <time>2024-01-27T16:33:48Z</time>
      </trkpt>
      <trkpt lat="47.19165" lon="-1.55399">
        <ele>7</ele>
        <time>2024-01-27T16:34:33Z</time>
      </trkpt>
      <trkpt lat="47.19199" lon="-1.55379">
        <ele>7</ele>
        <time>2024-01-27T16:35:21Z</time>
      </trkpt>
      <trkpt lat="47.19234" lon="-1.55378">
        <ele>7</ele>
        <time>2024-01-27T16:36:08Z</time>
      </trkpt>
      <trkpt lat="47.19262" lon="-1.55236">
        <ele>8</ele>
        <time>2024-01-27T16:38:22Z</time>
      </trkpt>
      <trkpt lat="47.19267" lon="-1.5519">
        <ele>7</ele>
        <time>2024-01-27T16:39:04Z</time>
      </trkpt>
      <trkpt lat="47.19284" lon="-1.55141">
        <ele>7</ele>
        <time>2024-01-27T16:39:54Z</time>
      </trkpt>
      <trkpt lat="47.19302" lon="-1.55051">
        <ele>7</ele>
        <time>2024-01-27T16:41:19Z</time>
      </trkpt>
      <trkpt lat="47.19306" lon="-1.55018">
        <ele>8</ele>
        <time>2024-01-27T16:41:50Z</time>
      </trkpt>
      <trkpt lat="47.19294" lon="-1.55">
        <ele>8</ele>
        <time>2024-01-27T16:42:13Z</time>
      </trkpt>
      <trkpt lat="47.19257" lon="-1.55021">
        <ele>6</ele>
        <time>2024-01-27T16:43:06Z</time>
      </trkpt>
      <trkpt lat="47.19199" lon="-1.55031">
        <ele>8</ele>
        <time>2024-01-27T16:44:24Z</time>
      </trkpt>
      <trkpt lat="47.19134" lon="-1.5508">
        <ele>11</ele>
        <time>2024-01-27T16:46:01Z</time>
      </trkpt>
      <trkpt lat="47.19115" lon="-1.55115">
        <ele>11</ele>
        <time>2024-01-27T16:46:42Z</time>
      </trkpt>
      <trkpt lat="47.191" lon="-1.55083">
        <ele>12</ele>
        <time>2024-01-27T16:47:17Z</time>
      </trkpt>
      <trkpt lat="47.19107" lon="-1.55048">
        <ele>12</ele>
        <time>2024-01-27T16:47:50Z</time>
      </trkpt>
      <trkpt lat="47.19164" lon="-1.54965">
        <ele>11</ele>
        <time>2024-01-27T16:49:37Z</time>
      </trkpt>
      <trkpt lat="47.19196" lon="-1.54925">
        <ele>10</ele>
        <time>2024-01-27T16:50:33Z</time>
      </trkpt>
      <trkpt lat="47.19247" lon="-1.54912">
        <ele>7</ele>
        <time>2024-01-27T16:51:42Z</time>
      </trkpt>
      <trkpt lat="47.19288" lon="-1.54899">
        <ele>8</ele>
        <time>2024-01-27T16:52:38Z</time>
      </trkpt>
      <trkpt lat="47.19307" lon="-1.54944">
        <ele>8</ele>
        <time>2024-01-27T16:53:26Z</time>
      </trkpt>
      <trkpt lat="47.19328" lon="-1.54919">
        <ele>9</ele>
        <time>2024-01-27T16:54:02Z</time>
      </trkpt>
      <trkpt lat="47.1934" lon="-1.54918">
        <ele>9</ele>
        <time>2024-01-27T16:54:18Z</time>
      </trkpt>
      <trkpt lat="47.19377" lon="-1.54921">
        <ele>8</ele>
        <time>2024-01-27T16:55:08Z</time>
      </trkpt>
      <trkpt lat="47.1943" lon="-1.5492">
        <ele>7</ele>
        <time>2024-01-27T16:56:18Z</time>
      </trkpt>
      <trkpt lat="47.19483" lon="-1.54932">
        <ele>7</ele>
        <time>2024-01-27T16:57:30Z</time>
      </trkpt>
      <trkpt lat="47.19506" lon="-1.54913">
        <ele>7</ele>
        <time>2024-01-27T16:58:05Z</time>
      </trkpt>
      <trkpt lat="47.19538" lon="-1.54915">
        <ele>7</ele>
        <time>2024-01-27T16:58:48Z</time>
      </trkpt>
      <trkpt lat="47.1957" lon="-1.54919">
        <ele>7</ele>
        <time>2024-01-27T16:59:31Z</time>
      </trkpt>
      <trkpt lat="47.1962" lon="-1.54917">
        <ele>7</ele>
        <time>2024-01-27T17:00:37Z</time>
      </trkpt>
      <trkpt lat="47.19646" lon="-1.54911">
        <ele>6</ele>
        <time>2024-01-27T17:01:13Z</time>
      </trkpt>
      <trkpt lat="47.19652" lon="-1.54889">
        <ele>6</ele>
        <time>2024-01-27T17:01:34Z</time>
      </trkpt>
      <trkpt lat="47.19672" lon="-1.54835">
        <ele>6</ele>
        <time>2024-01-27T17:02:30Z</time>
      </trkpt>
      <trkpt lat="47.19635" lon="-1.54774">
        <ele>4</ele>
        <time>2024-01-27T17:03:44Z</time>
      </trkpt>
      <trkpt lat="47.19612" lon="-1.54741">
        <ele>4</ele>
        <time>2024-01-27T17:04:27Z</time>
      </trkpt>
      <trkpt lat="47.19593" lon="-1.54724">
        <ele>5</ele>
        <time>2024-01-27T17:04:57Z</time>
      </trkpt>
      <trkpt lat="47.19579" lon="-1.54698">
        <ele>4</ele>
        <time>2024-01-27T17:05:27Z</time>
      </trkpt>
      <trkpt lat="47.19571" lon="-1.54682">
        <ele>4</ele>
        <time>2024-01-27T17:05:45Z</time>
      </trkpt>
      <trkpt lat="47.19493" lon="-1.54588">
        <ele>4</ele>
        <time>2024-01-27T17:07:59Z</time>
      </trkpt>
      <trkpt lat="47.19472" lon="-1.54455">
        <ele>6</ele>
        <time>2024-01-27T17:10:03Z</time>
      </trkpt>
      <trkpt lat="47.19519" lon="-1.54416">
        <ele>5</ele>
        <time>2024-01-27T17:11:15Z</time>
      </trkpt>
      <trkpt lat="47.19573" lon="-1.54364">
        <ele>7</ele>
        <time>2024-01-27T17:12:41Z</time>
      </trkpt>
      <trkpt lat="47.19594" lon="-1.54323">
        <ele>7</ele>
        <time>2024-01-27T17:13:28Z</time>
      </trkpt>
      <trkpt lat="47.19623" lon="-1.54313">
        <ele>8</ele>
        <time>2024-01-27T17:14:07Z</time>
      </trkpt>
    </trkseg>
  </trk>
</gpx>